<?xml version="1.0" encoding="UTF-8" standalone="no" ?><gpx xmlns="http://www.topografix.com/GPX/1/1" xmlns:gpxx="http://www.garmin.com/xmlschemas/GpxExtensions/v3" xmlns:wptx1="http://www.garmin.com/xmlschemas/WaypointExtension/v1" xmlns:gpxtpx="http://www.garmin.com/xmlschemas/TrackPointExtension/v1" creator="GuideVTT.com" version="1.1" xmlns:xsi="http://www.w3.org/2001/XMLSchema-instance" xsi:schemaLocation="http://www.topografix.com/GPX/1/1 http://www.topografix.com/GPX/1/1/gpx.xsd http://www.garmin.com/xmlschemas/GpxExtensions/v3 http://www8.garmin.com/xmlschemas/GpxExtensionsv3.xsd http://www.garmin.com/xmlschemas/WaypointExtension/v1 http://www8.garmin.com/xmlschemas/WaypointExtensionv1.xsd http://www.garmin.com/xmlschemas/TrackPointExtension/v1 http://www.garmin.com/xmlschemas/TrackPointExtensionv1.xsd">
<metadata><link href="http://www.garmin.com"><text>Garmin International</text></link><time>2013-06-22T15:13:50Z</time></metadata>
<trk><name>2024rp08.gpx</name><extensions><gpxx:TrackExtension><gpxx:DisplayColor>Cyan</gpxx:DisplayColor></gpxx:TrackExtension></extensions><trkseg>
<trkpt lat="46.22313" lon="7.2833"><ele></ele><time>2024-6-16T11:55:29Z</time></trkpt>
<trkpt lat="46.22316" lon="7.2833"><ele></ele><time>2024-6-16T11:55:32Z</time></trkpt>
<trkpt lat="46.22322" lon="7.28328"><ele></ele><time>2024-6-16T11:55:35Z</time></trkpt>
<trkpt lat="46.22321" lon="7.28317"><ele></ele><time>2024-6-16T11:55:38Z</time></trkpt>
<trkpt lat="46.2232" lon="7.28315"><ele></ele><time>2024-6-16T11:55:41Z</time></trkpt>
<trkpt lat="46.22324" lon="7.28305"><ele></ele><time>2024-6-16T11:55:44Z</time></trkpt>
<trkpt lat="46.22326" lon="7.28303"><ele></ele><time>2024-6-16T11:55:47Z</time></trkpt>
<trkpt lat="46.22341" lon="7.28296"><ele></ele><time>2024-6-16T11:55:50Z</time></trkpt>
<trkpt lat="46.22351" lon="7.28293"><ele></ele><time>2024-6-16T11:55:53Z</time></trkpt>
<trkpt lat="46.2236" lon="7.28291"><ele></ele><time>2024-6-16T11:55:56Z</time></trkpt>
<trkpt lat="46.2237" lon="7.28283"><ele></ele><time>2024-6-16T11:55:59Z</time></trkpt>
<trkpt lat="46.22381" lon="7.28281"><ele></ele><time>2024-6-16T11:56:2Z</time></trkpt>
<trkpt lat="46.22393" lon="7.28273"><ele></ele><time>2024-6-16T11:56:5Z</time></trkpt>
<trkpt lat="46.22397" lon="7.28271"><ele></ele><time>2024-6-16T11:56:8Z</time></trkpt>
<trkpt lat="46.22413" lon="7.28263"><ele></ele><time>2024-6-16T11:56:11Z</time></trkpt>
<trkpt lat="46.22423" lon="7.28261"><ele></ele><time>2024-6-16T11:56:14Z</time></trkpt>
<trkpt lat="46.22424" lon="7.28257"><ele></ele><time>2024-6-16T11:56:17Z</time></trkpt>
<trkpt lat="46.22422" lon="7.28252"><ele></ele><time>2024-6-16T11:56:20Z</time></trkpt>
<trkpt lat="46.22415" lon="7.28232"><ele></ele><time>2024-6-16T11:56:23Z</time></trkpt>
<trkpt lat="46.22406" lon="7.28214"><ele></ele><time>2024-6-16T11:56:26Z</time></trkpt>
<trkpt lat="46.22402" lon="7.28205"><ele></ele><time>2024-6-16T11:56:29Z</time></trkpt>
<trkpt lat="46.22385" lon="7.2817"><ele></ele><time>2024-6-16T11:56:32Z</time></trkpt>
<trkpt lat="46.22376" lon="7.28151"><ele></ele><time>2024-6-16T11:56:35Z</time></trkpt>
<trkpt lat="46.22374" lon="7.28146"><ele></ele><time>2024-6-16T11:56:38Z</time></trkpt>
<trkpt lat="46.22372" lon="7.28141"><ele></ele><time>2024-6-16T11:56:41Z</time></trkpt>
<trkpt lat="46.22367" lon="7.28125"><ele></ele><time>2024-6-16T11:56:44Z</time></trkpt>
<trkpt lat="46.22348" lon="7.28081"><ele></ele><time>2024-6-16T11:56:47Z</time></trkpt>
<trkpt lat="46.2233" lon="7.28041"><ele></ele><time>2024-6-16T11:56:50Z</time></trkpt>
<trkpt lat="46.22319" lon="7.28019"><ele></ele><time>2024-6-16T11:56:53Z</time></trkpt>
<trkpt lat="46.223" lon="7.27978"><ele></ele><time>2024-6-16T11:56:56Z</time></trkpt>
<trkpt lat="46.22298" lon="7.27972"><ele></ele><time>2024-6-16T11:56:59Z</time></trkpt>
<trkpt lat="46.22284" lon="7.27941"><ele></ele><time>2024-6-16T11:57:2Z</time></trkpt>
<trkpt lat="46.22282" lon="7.27935"><ele></ele><time>2024-6-16T11:57:5Z</time></trkpt>
<trkpt lat="46.22282" lon="7.27931"><ele></ele><time>2024-6-16T11:57:8Z</time></trkpt>
<trkpt lat="46.2228" lon="7.27929"><ele></ele><time>2024-6-16T11:57:11Z</time></trkpt>
<trkpt lat="46.22276" lon="7.27924"><ele></ele><time>2024-6-16T11:57:14Z</time></trkpt>
<trkpt lat="46.22275" lon="7.27914"><ele></ele><time>2024-6-16T11:57:17Z</time></trkpt>
<trkpt lat="46.2227" lon="7.27904"><ele></ele><time>2024-6-16T11:57:20Z</time></trkpt>
<trkpt lat="46.22267" lon="7.27898"><ele></ele><time>2024-6-16T11:57:23Z</time></trkpt>
<trkpt lat="46.22254" lon="7.27867"><ele></ele><time>2024-6-16T11:57:26Z</time></trkpt>
<trkpt lat="46.22248" lon="7.27853"><ele></ele><time>2024-6-16T11:57:29Z</time></trkpt>
<trkpt lat="46.22242" lon="7.27841"><ele></ele><time>2024-6-16T11:57:32Z</time></trkpt>
<trkpt lat="46.2223" lon="7.2781"><ele></ele><time>2024-6-16T11:57:35Z</time></trkpt>
<trkpt lat="46.2222" lon="7.27786"><ele></ele><time>2024-6-16T11:57:38Z</time></trkpt>
<trkpt lat="46.22207" lon="7.27757"><ele></ele><time>2024-6-16T11:57:41Z</time></trkpt>
<trkpt lat="46.22203" lon="7.27747"><ele></ele><time>2024-6-16T11:57:44Z</time></trkpt>
<trkpt lat="46.22184" lon="7.27703"><ele></ele><time>2024-6-16T11:57:47Z</time></trkpt>
<trkpt lat="46.22177" lon="7.27689"><ele></ele><time>2024-6-16T11:57:50Z</time></trkpt>
<trkpt lat="46.22171" lon="7.27673"><ele></ele><time>2024-6-16T11:57:53Z</time></trkpt>
<trkpt lat="46.22169" lon="7.27668"><ele></ele><time>2024-6-16T11:57:56Z</time></trkpt>
<trkpt lat="46.22167" lon="7.27664"><ele></ele><time>2024-6-16T11:57:59Z</time></trkpt>
<trkpt lat="46.22163" lon="7.27654"><ele></ele><time>2024-6-16T11:58:2Z</time></trkpt>
<trkpt lat="46.22159" lon="7.27645"><ele></ele><time>2024-6-16T11:58:5Z</time></trkpt>
<trkpt lat="46.22152" lon="7.27628"><ele></ele><time>2024-6-16T11:58:8Z</time></trkpt>
<trkpt lat="46.22151" lon="7.27617"><ele></ele><time>2024-6-16T11:58:11Z</time></trkpt>
<trkpt lat="46.22153" lon="7.27614"><ele></ele><time>2024-6-16T11:58:14Z</time></trkpt>
<trkpt lat="46.22167" lon="7.27599"><ele></ele><time>2024-6-16T11:58:17Z</time></trkpt>
<trkpt lat="46.2219" lon="7.27572"><ele></ele><time>2024-6-16T11:58:20Z</time></trkpt>
<trkpt lat="46.22219" lon="7.2754"><ele></ele><time>2024-6-16T11:58:23Z</time></trkpt>
<trkpt lat="46.22229" lon="7.27528"><ele></ele><time>2024-6-16T11:58:26Z</time></trkpt>
<trkpt lat="46.2223" lon="7.27523"><ele></ele><time>2024-6-16T11:58:29Z</time></trkpt>
<trkpt lat="46.22223" lon="7.27506"><ele></ele><time>2024-6-16T11:58:32Z</time></trkpt>
<trkpt lat="46.2222" lon="7.27502"><ele></ele><time>2024-6-16T11:58:35Z</time></trkpt>
<trkpt lat="46.22217" lon="7.27497"><ele></ele><time>2024-6-16T11:58:38Z</time></trkpt>
<trkpt lat="46.22214" lon="7.27494"><ele></ele><time>2024-6-16T11:58:41Z</time></trkpt>
<trkpt lat="46.22197" lon="7.27473"><ele></ele><time>2024-6-16T11:58:44Z</time></trkpt>
<trkpt lat="46.22177" lon="7.27446"><ele></ele><time>2024-6-16T11:58:47Z</time></trkpt>
<trkpt lat="46.22175" lon="7.27441"><ele></ele><time>2024-6-16T11:58:50Z</time></trkpt>
<trkpt lat="46.22175" lon="7.27435"><ele></ele><time>2024-6-16T11:58:53Z</time></trkpt>
<trkpt lat="46.22174" lon="7.27423"><ele></ele><time>2024-6-16T11:58:56Z</time></trkpt>
<trkpt lat="46.22173" lon="7.27416"><ele></ele><time>2024-6-16T11:58:59Z</time></trkpt>
<trkpt lat="46.22167" lon="7.27399"><ele></ele><time>2024-6-16T11:59:2Z</time></trkpt>
<trkpt lat="46.22155" lon="7.27371"><ele></ele><time>2024-6-16T11:59:5Z</time></trkpt>
<trkpt lat="46.2214" lon="7.27339"><ele></ele><time>2024-6-16T11:59:8Z</time></trkpt>
<trkpt lat="46.22128" lon="7.27308"><ele></ele><time>2024-6-16T11:59:11Z</time></trkpt>
<trkpt lat="46.2211" lon="7.27267"><ele></ele><time>2024-6-16T11:59:14Z</time></trkpt>
<trkpt lat="46.22102" lon="7.2725"><ele></ele><time>2024-6-16T11:59:17Z</time></trkpt>
<trkpt lat="46.22093" lon="7.27228"><ele></ele><time>2024-6-16T11:59:20Z</time></trkpt>
<trkpt lat="46.22079" lon="7.27196"><ele></ele><time>2024-6-16T11:59:23Z</time></trkpt>
<trkpt lat="46.22077" lon="7.27178"><ele></ele><time>2024-6-16T11:59:26Z</time></trkpt>
<trkpt lat="46.2209" lon="7.27162"><ele></ele><time>2024-6-16T11:59:29Z</time></trkpt>
<trkpt lat="46.22118" lon="7.27132"><ele></ele><time>2024-6-16T11:59:32Z</time></trkpt>
<trkpt lat="46.22119" lon="7.27128"><ele></ele><time>2024-6-16T11:59:35Z</time></trkpt>
<trkpt lat="46.2212" lon="7.27119"><ele></ele><time>2024-6-16T11:59:38Z</time></trkpt>
<trkpt lat="46.22122" lon="7.27102"><ele></ele><time>2024-6-16T11:59:41Z</time></trkpt>
<trkpt lat="46.22117" lon="7.27087"><ele></ele><time>2024-6-16T11:59:44Z</time></trkpt>
<trkpt lat="46.22113" lon="7.2708"><ele></ele><time>2024-6-16T11:59:47Z</time></trkpt>
<trkpt lat="46.22099" lon="7.27062"><ele></ele><time>2024-6-16T11:59:50Z</time></trkpt>
<trkpt lat="46.22097" lon="7.27059"><ele></ele><time>2024-6-16T11:59:53Z</time></trkpt>
<trkpt lat="46.22083" lon="7.27033"><ele></ele><time>2024-6-16T11:59:56Z</time></trkpt>
<trkpt lat="46.22085" lon="7.27016"><ele></ele><time>2024-6-16T11:59:59Z</time></trkpt>
<trkpt lat="46.22077" lon="7.26991"><ele></ele><time>2024-6-16T12:0:2Z</time></trkpt>
<trkpt lat="46.22066" lon="7.26973"><ele></ele><time>2024-6-16T12:0:5Z</time></trkpt>
<trkpt lat="46.22064" lon="7.26972"><ele></ele><time>2024-6-16T12:0:8Z</time></trkpt>
<trkpt lat="46.22062" lon="7.26968"><ele></ele><time>2024-6-16T12:0:11Z</time></trkpt>
<trkpt lat="46.22061" lon="7.26965"><ele></ele><time>2024-6-16T12:0:14Z</time></trkpt>
<trkpt lat="46.22054" lon="7.26949"><ele></ele><time>2024-6-16T12:0:17Z</time></trkpt>
<trkpt lat="46.22045" lon="7.2693"><ele></ele><time>2024-6-16T12:0:20Z</time></trkpt>
<trkpt lat="46.22041" lon="7.26923"><ele></ele><time>2024-6-16T12:0:23Z</time></trkpt>
<trkpt lat="46.22034" lon="7.26914"><ele></ele><time>2024-6-16T12:0:26Z</time></trkpt>
<trkpt lat="46.22016" lon="7.26883"><ele></ele><time>2024-6-16T12:0:29Z</time></trkpt>
<trkpt lat="46.22016" lon="7.26879"><ele></ele><time>2024-6-16T12:0:32Z</time></trkpt>
<trkpt lat="46.22018" lon="7.26871"><ele></ele><time>2024-6-16T12:0:35Z</time></trkpt>
<trkpt lat="46.22027" lon="7.26865"><ele></ele><time>2024-6-16T12:0:38Z</time></trkpt>
<trkpt lat="46.22052" lon="7.26851"><ele></ele><time>2024-6-16T12:0:41Z</time></trkpt>
<trkpt lat="46.22064" lon="7.26843"><ele></ele><time>2024-6-16T12:0:44Z</time></trkpt>
<trkpt lat="46.22081" lon="7.26826"><ele></ele><time>2024-6-16T12:0:47Z</time></trkpt>
<trkpt lat="46.22102" lon="7.26805"><ele></ele><time>2024-6-16T12:0:50Z</time></trkpt>
<trkpt lat="46.22109" lon="7.26799"><ele></ele><time>2024-6-16T12:0:53Z</time></trkpt>
<trkpt lat="46.22109" lon="7.26799"><ele></ele><time>2024-6-16T12:0:56Z</time></trkpt>
<trkpt lat="46.22111" lon="7.26796"><ele></ele><time>2024-6-16T12:0:59Z</time></trkpt>
<trkpt lat="46.2212" lon="7.26787"><ele></ele><time>2024-6-16T12:1:2Z</time></trkpt>
<trkpt lat="46.22128" lon="7.26779"><ele></ele><time>2024-6-16T12:1:5Z</time></trkpt>
<trkpt lat="46.22142" lon="7.26767"><ele></ele><time>2024-6-16T12:1:8Z</time></trkpt>
<trkpt lat="46.22151" lon="7.26761"><ele></ele><time>2024-6-16T12:1:11Z</time></trkpt>
<trkpt lat="46.22169" lon="7.26749"><ele></ele><time>2024-6-16T12:1:14Z</time></trkpt>
<trkpt lat="46.22171" lon="7.26748"><ele></ele><time>2024-6-16T12:1:17Z</time></trkpt>
<trkpt lat="46.22175" lon="7.26746"><ele></ele><time>2024-6-16T12:1:20Z</time></trkpt>
<trkpt lat="46.2218" lon="7.26745"><ele></ele><time>2024-6-16T12:1:23Z</time></trkpt>
<trkpt lat="46.22184" lon="7.26744"><ele></ele><time>2024-6-16T12:1:26Z</time></trkpt>
<trkpt lat="46.22187" lon="7.26743"><ele></ele><time>2024-6-16T12:1:29Z</time></trkpt>
<trkpt lat="46.22192" lon="7.26741"><ele></ele><time>2024-6-16T12:1:32Z</time></trkpt>
<trkpt lat="46.22197" lon="7.2674"><ele></ele><time>2024-6-16T12:1:35Z</time></trkpt>
<trkpt lat="46.222" lon="7.2674"><ele></ele><time>2024-6-16T12:1:38Z</time></trkpt>
<trkpt lat="46.22205" lon="7.26741"><ele></ele><time>2024-6-16T12:1:41Z</time></trkpt>
<trkpt lat="46.22206" lon="7.26742"><ele></ele><time>2024-6-16T12:1:44Z</time></trkpt>
<trkpt lat="46.2221" lon="7.26743"><ele></ele><time>2024-6-16T12:1:47Z</time></trkpt>
<trkpt lat="46.22218" lon="7.26746"><ele></ele><time>2024-6-16T12:1:50Z</time></trkpt>
<trkpt lat="46.2222" lon="7.26748"><ele></ele><time>2024-6-16T12:1:53Z</time></trkpt>
<trkpt lat="46.22225" lon="7.26754"><ele></ele><time>2024-6-16T12:1:56Z</time></trkpt>
<trkpt lat="46.22231" lon="7.26759"><ele></ele><time>2024-6-16T12:1:59Z</time></trkpt>
<trkpt lat="46.22236" lon="7.26764"><ele></ele><time>2024-6-16T12:2:2Z</time></trkpt>
<trkpt lat="46.22242" lon="7.2677"><ele></ele><time>2024-6-16T12:2:5Z</time></trkpt>
<trkpt lat="46.22244" lon="7.26772"><ele></ele><time>2024-6-16T12:2:8Z</time></trkpt>
<trkpt lat="46.22254" lon="7.26783"><ele></ele><time>2024-6-16T12:2:11Z</time></trkpt>
<trkpt lat="46.22263" lon="7.26794"><ele></ele><time>2024-6-16T12:2:14Z</time></trkpt>
<trkpt lat="46.22265" lon="7.26797"><ele></ele><time>2024-6-16T12:2:17Z</time></trkpt>
<trkpt lat="46.22271" lon="7.26808"><ele></ele><time>2024-6-16T12:2:20Z</time></trkpt>
<trkpt lat="46.22272" lon="7.2681"><ele></ele><time>2024-6-16T12:2:23Z</time></trkpt>
<trkpt lat="46.22277" lon="7.2682"><ele></ele><time>2024-6-16T12:2:26Z</time></trkpt>
<trkpt lat="46.22278" lon="7.26821"><ele></ele><time>2024-6-16T12:2:29Z</time></trkpt>
<trkpt lat="46.22282" lon="7.2683"><ele></ele><time>2024-6-16T12:2:32Z</time></trkpt>
<trkpt lat="46.22283" lon="7.26835"><ele></ele><time>2024-6-16T12:2:35Z</time></trkpt>
<trkpt lat="46.22287" lon="7.26843"><ele></ele><time>2024-6-16T12:2:38Z</time></trkpt>
<trkpt lat="46.22289" lon="7.26849"><ele></ele><time>2024-6-16T12:2:41Z</time></trkpt>
<trkpt lat="46.22292" lon="7.26856"><ele></ele><time>2024-6-16T12:2:44Z</time></trkpt>
<trkpt lat="46.22292" lon="7.26857"><ele></ele><time>2024-6-16T12:2:47Z</time></trkpt>
<trkpt lat="46.22298" lon="7.26872"><ele></ele><time>2024-6-16T12:2:50Z</time></trkpt>
<trkpt lat="46.22298" lon="7.26874"><ele></ele><time>2024-6-16T12:2:53Z</time></trkpt>
<trkpt lat="46.22297" lon="7.26877"><ele></ele><time>2024-6-16T12:2:56Z</time></trkpt>
<trkpt lat="46.22295" lon="7.26881"><ele></ele><time>2024-6-16T12:2:59Z</time></trkpt>
<trkpt lat="46.22292" lon="7.26885"><ele></ele><time>2024-6-16T12:3:2Z</time></trkpt>
<trkpt lat="46.22291" lon="7.26885"><ele></ele><time>2024-6-16T12:3:5Z</time></trkpt>
<trkpt lat="46.22292" lon="7.26883"><ele></ele><time>2024-6-16T12:3:8Z</time></trkpt>
<trkpt lat="46.22292" lon="7.26882"><ele></ele><time>2024-6-16T12:3:11Z</time></trkpt>
<trkpt lat="46.22293" lon="7.26882"><ele></ele><time>2024-6-16T12:3:14Z</time></trkpt>
<trkpt lat="46.22292" lon="7.26881"><ele></ele><time>2024-6-16T12:3:17Z</time></trkpt>
<trkpt lat="46.22292" lon="7.26882"><ele></ele><time>2024-6-16T12:3:20Z</time></trkpt>
<trkpt lat="46.22293" lon="7.26881"><ele></ele><time>2024-6-16T12:3:23Z</time></trkpt>
<trkpt lat="46.22293" lon="7.26882"><ele></ele><time>2024-6-16T12:3:26Z</time></trkpt>
<trkpt lat="46.22293" lon="7.26882"><ele></ele><time>2024-6-16T12:3:29Z</time></trkpt>
<trkpt lat="46.22293" lon="7.26882"><ele></ele><time>2024-6-16T12:3:32Z</time></trkpt>
<trkpt lat="46.22292" lon="7.26882"><ele></ele><time>2024-6-16T12:3:35Z</time></trkpt>
<trkpt lat="46.22292" lon="7.26883"><ele></ele><time>2024-6-16T12:3:38Z</time></trkpt>
<trkpt lat="46.22291" lon="7.26881"><ele></ele><time>2024-6-16T12:3:41Z</time></trkpt>
<trkpt lat="46.22292" lon="7.26881"><ele></ele><time>2024-6-16T12:3:44Z</time></trkpt>
<trkpt lat="46.22292" lon="7.26881"><ele></ele><time>2024-6-16T12:3:47Z</time></trkpt>
<trkpt lat="46.22292" lon="7.26881"><ele></ele><time>2024-6-16T12:3:50Z</time></trkpt>
<trkpt lat="46.22292" lon="7.26881"><ele></ele><time>2024-6-16T12:3:53Z</time></trkpt>
<trkpt lat="46.22293" lon="7.26881"><ele></ele><time>2024-6-16T12:3:56Z</time></trkpt>
<trkpt lat="46.22293" lon="7.26881"><ele></ele><time>2024-6-16T12:3:59Z</time></trkpt>
<trkpt lat="46.22292" lon="7.26882"><ele></ele><time>2024-6-16T12:4:2Z</time></trkpt>
<trkpt lat="46.22292" lon="7.26881"><ele></ele><time>2024-6-16T12:4:5Z</time></trkpt>
<trkpt lat="46.22292" lon="7.26883"><ele></ele><time>2024-6-16T12:4:8Z</time></trkpt>
<trkpt lat="46.22292" lon="7.26883"><ele></ele><time>2024-6-16T12:4:11Z</time></trkpt>
<trkpt lat="46.22293" lon="7.26883"><ele></ele><time>2024-6-16T12:4:14Z</time></trkpt>
<trkpt lat="46.22292" lon="7.26883"><ele></ele><time>2024-6-16T12:4:17Z</time></trkpt>
<trkpt lat="46.22292" lon="7.26882"><ele></ele><time>2024-6-16T12:4:20Z</time></trkpt>
<trkpt lat="46.22292" lon="7.26882"><ele></ele><time>2024-6-16T12:4:23Z</time></trkpt>
<trkpt lat="46.22291" lon="7.26882"><ele></ele><time>2024-6-16T12:4:26Z</time></trkpt>
<trkpt lat="46.22292" lon="7.26881"><ele></ele><time>2024-6-16T12:4:29Z</time></trkpt>
<trkpt lat="46.22293" lon="7.26881"><ele></ele><time>2024-6-16T12:4:32Z</time></trkpt>
<trkpt lat="46.22292" lon="7.26882"><ele></ele><time>2024-6-16T12:4:35Z</time></trkpt>
<trkpt lat="46.22292" lon="7.26882"><ele></ele><time>2024-6-16T12:4:38Z</time></trkpt>
<trkpt lat="46.22292" lon="7.26882"><ele></ele><time>2024-6-16T12:4:41Z</time></trkpt>
<trkpt lat="46.22292" lon="7.26882"><ele></ele><time>2024-6-16T12:4:44Z</time></trkpt>
<trkpt lat="46.22292" lon="7.26882"><ele></ele><time>2024-6-16T12:4:47Z</time></trkpt>
<trkpt lat="46.22292" lon="7.26881"><ele></ele><time>2024-6-16T12:4:50Z</time></trkpt>
<trkpt lat="46.22292" lon="7.26881"><ele></ele><time>2024-6-16T12:4:53Z</time></trkpt>
<trkpt lat="46.22292" lon="7.2688"><ele></ele><time>2024-6-16T12:4:56Z</time></trkpt>
<trkpt lat="46.22293" lon="7.2688"><ele></ele><time>2024-6-16T12:4:59Z</time></trkpt>
<trkpt lat="46.22293" lon="7.26882"><ele></ele><time>2024-6-16T12:5:2Z</time></trkpt>
<trkpt lat="46.22292" lon="7.26882"><ele></ele><time>2024-6-16T12:5:5Z</time></trkpt>
<trkpt lat="46.22291" lon="7.26881"><ele></ele><time>2024-6-16T12:5:8Z</time></trkpt>
<trkpt lat="46.22291" lon="7.26881"><ele></ele><time>2024-6-16T12:5:11Z</time></trkpt>
<trkpt lat="46.22291" lon="7.2688"><ele></ele><time>2024-6-16T12:5:14Z</time></trkpt>
<trkpt lat="46.22291" lon="7.26881"><ele></ele><time>2024-6-16T12:5:17Z</time></trkpt>
<trkpt lat="46.22291" lon="7.26881"><ele></ele><time>2024-6-16T12:5:20Z</time></trkpt>
<trkpt lat="46.22292" lon="7.26882"><ele></ele><time>2024-6-16T12:5:23Z</time></trkpt>
<trkpt lat="46.22292" lon="7.26882"><ele></ele><time>2024-6-16T12:5:26Z</time></trkpt>
<trkpt lat="46.22293" lon="7.26883"><ele></ele><time>2024-6-16T12:5:29Z</time></trkpt>
<trkpt lat="46.22293" lon="7.26883"><ele></ele><time>2024-6-16T12:5:32Z</time></trkpt>
<trkpt lat="46.22293" lon="7.26883"><ele></ele><time>2024-6-16T12:5:35Z</time></trkpt>
<trkpt lat="46.22293" lon="7.26882"><ele></ele><time>2024-6-16T12:5:38Z</time></trkpt>
<trkpt lat="46.22293" lon="7.2688"><ele></ele><time>2024-6-16T12:5:41Z</time></trkpt>
<trkpt lat="46.22293" lon="7.2688"><ele></ele><time>2024-6-16T12:5:44Z</time></trkpt>
<trkpt lat="46.22293" lon="7.26882"><ele></ele><time>2024-6-16T12:5:47Z</time></trkpt>
<trkpt lat="46.22293" lon="7.26881"><ele></ele><time>2024-6-16T12:5:50Z</time></trkpt>
<trkpt lat="46.22292" lon="7.26881"><ele></ele><time>2024-6-16T12:5:53Z</time></trkpt>
<trkpt lat="46.22292" lon="7.26882"><ele></ele><time>2024-6-16T12:5:56Z</time></trkpt>
<trkpt lat="46.22292" lon="7.26883"><ele></ele><time>2024-6-16T12:5:59Z</time></trkpt>
<trkpt lat="46.22292" lon="7.26883"><ele></ele><time>2024-6-16T12:6:2Z</time></trkpt>
<trkpt lat="46.22293" lon="7.26882"><ele></ele><time>2024-6-16T12:6:5Z</time></trkpt>
<trkpt lat="46.22293" lon="7.26882"><ele></ele><time>2024-6-16T12:6:8Z</time></trkpt>
<trkpt lat="46.22294" lon="7.26883"><ele></ele><time>2024-6-16T12:6:11Z</time></trkpt>
<trkpt lat="46.22294" lon="7.26881"><ele></ele><time>2024-6-16T12:6:14Z</time></trkpt>
<trkpt lat="46.22293" lon="7.26882"><ele></ele><time>2024-6-16T12:6:17Z</time></trkpt>
<trkpt lat="46.22294" lon="7.26881"><ele></ele><time>2024-6-16T12:6:20Z</time></trkpt>
<trkpt lat="46.22294" lon="7.26882"><ele></ele><time>2024-6-16T12:6:23Z</time></trkpt>
<trkpt lat="46.22294" lon="7.26882"><ele></ele><time>2024-6-16T12:6:26Z</time></trkpt>
<trkpt lat="46.22294" lon="7.26882"><ele></ele><time>2024-6-16T12:6:29Z</time></trkpt>
<trkpt lat="46.22294" lon="7.26884"><ele></ele><time>2024-6-16T12:6:32Z</time></trkpt>
<trkpt lat="46.22294" lon="7.26882"><ele></ele><time>2024-6-16T12:6:35Z</time></trkpt>
<trkpt lat="46.22296" lon="7.26879"><ele></ele><time>2024-6-16T12:6:38Z</time></trkpt>
<trkpt lat="46.22296" lon="7.26878"><ele></ele><time>2024-6-16T12:6:41Z</time></trkpt>
<trkpt lat="46.22298" lon="7.26874"><ele></ele><time>2024-6-16T12:6:44Z</time></trkpt>
<trkpt lat="46.223" lon="7.26874"><ele></ele><time>2024-6-16T12:6:47Z</time></trkpt>
<trkpt lat="46.223" lon="7.26878"><ele></ele><time>2024-6-16T12:6:50Z</time></trkpt>
<trkpt lat="46.22302" lon="7.26884"><ele></ele><time>2024-6-16T12:6:53Z</time></trkpt>
<trkpt lat="46.22303" lon="7.26889"><ele></ele><time>2024-6-16T12:6:56Z</time></trkpt>
<trkpt lat="46.22305" lon="7.26894"><ele></ele><time>2024-6-16T12:6:59Z</time></trkpt>
<trkpt lat="46.22305" lon="7.26896"><ele></ele><time>2024-6-16T12:7:2Z</time></trkpt>
<trkpt lat="46.22305" lon="7.26897"><ele></ele><time>2024-6-16T12:7:5Z</time></trkpt>
<trkpt lat="46.22305" lon="7.26898"><ele></ele><time>2024-6-16T12:7:8Z</time></trkpt>
<trkpt lat="46.22307" lon="7.26902"><ele></ele><time>2024-6-16T12:7:11Z</time></trkpt>
<trkpt lat="46.22308" lon="7.26903"><ele></ele><time>2024-6-16T12:7:14Z</time></trkpt>
<trkpt lat="46.2231" lon="7.2691"><ele></ele><time>2024-6-16T12:7:17Z</time></trkpt>
<trkpt lat="46.22312" lon="7.26914"><ele></ele><time>2024-6-16T12:7:20Z</time></trkpt>
<trkpt lat="46.22314" lon="7.26915"><ele></ele><time>2024-6-16T12:7:23Z</time></trkpt>
<trkpt lat="46.22317" lon="7.26917"><ele></ele><time>2024-6-16T12:7:26Z</time></trkpt>
<trkpt lat="46.22319" lon="7.26921"><ele></ele><time>2024-6-16T12:7:29Z</time></trkpt>
<trkpt lat="46.22322" lon="7.26924"><ele></ele><time>2024-6-16T12:7:32Z</time></trkpt>
<trkpt lat="46.22323" lon="7.26925"><ele></ele><time>2024-6-16T12:7:35Z</time></trkpt>
<trkpt lat="46.22323" lon="7.26925"><ele></ele><time>2024-6-16T12:7:38Z</time></trkpt>
<trkpt lat="46.22324" lon="7.26926"><ele></ele><time>2024-6-16T12:7:41Z</time></trkpt>
<trkpt lat="46.22327" lon="7.26929"><ele></ele><time>2024-6-16T12:7:44Z</time></trkpt>
<trkpt lat="46.22329" lon="7.26931"><ele></ele><time>2024-6-16T12:7:47Z</time></trkpt>
<trkpt lat="46.2233" lon="7.26932"><ele></ele><time>2024-6-16T12:7:50Z</time></trkpt>
<trkpt lat="46.22331" lon="7.26934"><ele></ele><time>2024-6-16T12:7:53Z</time></trkpt>
<trkpt lat="46.22335" lon="7.26938"><ele></ele><time>2024-6-16T12:7:56Z</time></trkpt>
<trkpt lat="46.22337" lon="7.2694"><ele></ele><time>2024-6-16T12:7:59Z</time></trkpt>
<trkpt lat="46.22342" lon="7.26945"><ele></ele><time>2024-6-16T12:8:2Z</time></trkpt>
<trkpt lat="46.22347" lon="7.26949"><ele></ele><time>2024-6-16T12:8:5Z</time></trkpt>
<trkpt lat="46.2235" lon="7.26952"><ele></ele><time>2024-6-16T12:8:8Z</time></trkpt>
<trkpt lat="46.22352" lon="7.26955"><ele></ele><time>2024-6-16T12:8:11Z</time></trkpt>
<trkpt lat="46.22359" lon="7.26964"><ele></ele><time>2024-6-16T12:8:14Z</time></trkpt>
<trkpt lat="46.22366" lon="7.26971"><ele></ele><time>2024-6-16T12:8:17Z</time></trkpt>
<trkpt lat="46.22372" lon="7.26981"><ele></ele><time>2024-6-16T12:8:20Z</time></trkpt>
<trkpt lat="46.22375" lon="7.26985"><ele></ele><time>2024-6-16T12:8:23Z</time></trkpt>
<trkpt lat="46.2238" lon="7.26991"><ele></ele><time>2024-6-16T12:8:26Z</time></trkpt>
<trkpt lat="46.22381" lon="7.26992"><ele></ele><time>2024-6-16T12:8:29Z</time></trkpt>
<trkpt lat="46.22386" lon="7.26995"><ele></ele><time>2024-6-16T12:8:32Z</time></trkpt>
<trkpt lat="46.22388" lon="7.26997"><ele></ele><time>2024-6-16T12:8:35Z</time></trkpt>
<trkpt lat="46.22393" lon="7.27002"><ele></ele><time>2024-6-16T12:8:38Z</time></trkpt>
<trkpt lat="46.22396" lon="7.27005"><ele></ele><time>2024-6-16T12:8:41Z</time></trkpt>
<trkpt lat="46.22401" lon="7.2701"><ele></ele><time>2024-6-16T12:8:44Z</time></trkpt>
<trkpt lat="46.22407" lon="7.27015"><ele></ele><time>2024-6-16T12:8:47Z</time></trkpt>
<trkpt lat="46.2241" lon="7.27017"><ele></ele><time>2024-6-16T12:8:50Z</time></trkpt>
<trkpt lat="46.22414" lon="7.27021"><ele></ele><time>2024-6-16T12:8:53Z</time></trkpt>
<trkpt lat="46.22416" lon="7.27023"><ele></ele><time>2024-6-16T12:8:56Z</time></trkpt>
<trkpt lat="46.22424" lon="7.27029"><ele></ele><time>2024-6-16T12:8:59Z</time></trkpt>
<trkpt lat="46.22425" lon="7.2703"><ele></ele><time>2024-6-16T12:9:2Z</time></trkpt>
<trkpt lat="46.22432" lon="7.27034"><ele></ele><time>2024-6-16T12:9:5Z</time></trkpt>
<trkpt lat="46.22434" lon="7.27036"><ele></ele><time>2024-6-16T12:9:8Z</time></trkpt>
<trkpt lat="46.22438" lon="7.27039"><ele></ele><time>2024-6-16T12:9:11Z</time></trkpt>
<trkpt lat="46.2244" lon="7.27041"><ele></ele><time>2024-6-16T12:9:14Z</time></trkpt>
<trkpt lat="46.22443" lon="7.27042"><ele></ele><time>2024-6-16T12:9:17Z</time></trkpt>
<trkpt lat="46.22446" lon="7.27043"><ele></ele><time>2024-6-16T12:9:20Z</time></trkpt>
<trkpt lat="46.22449" lon="7.27045"><ele></ele><time>2024-6-16T12:9:23Z</time></trkpt>
<trkpt lat="46.22453" lon="7.27049"><ele></ele><time>2024-6-16T12:9:26Z</time></trkpt>
<trkpt lat="46.22454" lon="7.27051"><ele></ele><time>2024-6-16T12:9:29Z</time></trkpt>
<trkpt lat="46.22459" lon="7.27054"><ele></ele><time>2024-6-16T12:9:32Z</time></trkpt>
<trkpt lat="46.2246" lon="7.27055"><ele></ele><time>2024-6-16T12:9:35Z</time></trkpt>
<trkpt lat="46.22466" lon="7.27058"><ele></ele><time>2024-6-16T12:9:38Z</time></trkpt>
<trkpt lat="46.22471" lon="7.27062"><ele></ele><time>2024-6-16T12:9:41Z</time></trkpt>
<trkpt lat="46.22471" lon="7.27062"><ele></ele><time>2024-6-16T12:9:44Z</time></trkpt>
<trkpt lat="46.22473" lon="7.27063"><ele></ele><time>2024-6-16T12:9:47Z</time></trkpt>
<trkpt lat="46.22478" lon="7.27067"><ele></ele><time>2024-6-16T12:9:50Z</time></trkpt>
<trkpt lat="46.22481" lon="7.27068"><ele></ele><time>2024-6-16T12:9:53Z</time></trkpt>
<trkpt lat="46.22485" lon="7.2707"><ele></ele><time>2024-6-16T12:9:56Z</time></trkpt>
<trkpt lat="46.22487" lon="7.27072"><ele></ele><time>2024-6-16T12:9:59Z</time></trkpt>
<trkpt lat="46.22492" lon="7.27076"><ele></ele><time>2024-6-16T12:10:2Z</time></trkpt>
<trkpt lat="46.22497" lon="7.27082"><ele></ele><time>2024-6-16T12:10:5Z</time></trkpt>
<trkpt lat="46.22498" lon="7.27083"><ele></ele><time>2024-6-16T12:10:8Z</time></trkpt>
<trkpt lat="46.22501" lon="7.27087"><ele></ele><time>2024-6-16T12:10:11Z</time></trkpt>
<trkpt lat="46.22502" lon="7.27088"><ele></ele><time>2024-6-16T12:10:14Z</time></trkpt>
<trkpt lat="46.22506" lon="7.27093"><ele></ele><time>2024-6-16T12:10:17Z</time></trkpt>
<trkpt lat="46.22507" lon="7.27095"><ele></ele><time>2024-6-16T12:10:20Z</time></trkpt>
<trkpt lat="46.22511" lon="7.27099"><ele></ele><time>2024-6-16T12:10:23Z</time></trkpt>
<trkpt lat="46.22512" lon="7.271"><ele></ele><time>2024-6-16T12:10:26Z</time></trkpt>
<trkpt lat="46.22514" lon="7.27101"><ele></ele><time>2024-6-16T12:10:29Z</time></trkpt>
<trkpt lat="46.22516" lon="7.27103"><ele></ele><time>2024-6-16T12:10:32Z</time></trkpt>
<trkpt lat="46.22523" lon="7.27108"><ele></ele><time>2024-6-16T12:10:35Z</time></trkpt>
<trkpt lat="46.22528" lon="7.27111"><ele></ele><time>2024-6-16T12:10:38Z</time></trkpt>
<trkpt lat="46.22531" lon="7.27115"><ele></ele><time>2024-6-16T12:10:41Z</time></trkpt>
<trkpt lat="46.22534" lon="7.27117"><ele></ele><time>2024-6-16T12:10:44Z</time></trkpt>
<trkpt lat="46.22538" lon="7.2712"><ele></ele><time>2024-6-16T12:10:47Z</time></trkpt>
<trkpt lat="46.22542" lon="7.27124"><ele></ele><time>2024-6-16T12:10:50Z</time></trkpt>
<trkpt lat="46.22545" lon="7.27125"><ele></ele><time>2024-6-16T12:10:53Z</time></trkpt>
<trkpt lat="46.22549" lon="7.27128"><ele></ele><time>2024-6-16T12:10:56Z</time></trkpt>
<trkpt lat="46.22552" lon="7.27132"><ele></ele><time>2024-6-16T12:10:59Z</time></trkpt>
<trkpt lat="46.22553" lon="7.27133"><ele></ele><time>2024-6-16T12:11:2Z</time></trkpt>
<trkpt lat="46.22558" lon="7.27138"><ele></ele><time>2024-6-16T12:11:5Z</time></trkpt>
<trkpt lat="46.2256" lon="7.2714"><ele></ele><time>2024-6-16T12:11:8Z</time></trkpt>
<trkpt lat="46.22565" lon="7.27145"><ele></ele><time>2024-6-16T12:11:11Z</time></trkpt>
<trkpt lat="46.22566" lon="7.27146"><ele></ele><time>2024-6-16T12:11:14Z</time></trkpt>
<trkpt lat="46.22569" lon="7.2715"><ele></ele><time>2024-6-16T12:11:17Z</time></trkpt>
<trkpt lat="46.22572" lon="7.27152"><ele></ele><time>2024-6-16T12:11:20Z</time></trkpt>
<trkpt lat="46.22573" lon="7.27153"><ele></ele><time>2024-6-16T12:11:23Z</time></trkpt>
<trkpt lat="46.2258" lon="7.27159"><ele></ele><time>2024-6-16T12:11:26Z</time></trkpt>
<trkpt lat="46.22581" lon="7.2716"><ele></ele><time>2024-6-16T12:11:29Z</time></trkpt>
<trkpt lat="46.22589" lon="7.27167"><ele></ele><time>2024-6-16T12:11:32Z</time></trkpt>
<trkpt lat="46.22594" lon="7.2717"><ele></ele><time>2024-6-16T12:11:35Z</time></trkpt>
<trkpt lat="46.22598" lon="7.27173"><ele></ele><time>2024-6-16T12:11:38Z</time></trkpt>
<trkpt lat="46.22601" lon="7.27175"><ele></ele><time>2024-6-16T12:11:41Z</time></trkpt>
<trkpt lat="46.22608" lon="7.27181"><ele></ele><time>2024-6-16T12:11:44Z</time></trkpt>
<trkpt lat="46.2261" lon="7.27184"><ele></ele><time>2024-6-16T12:11:47Z</time></trkpt>
<trkpt lat="46.22616" lon="7.27189"><ele></ele><time>2024-6-16T12:11:50Z</time></trkpt>
<trkpt lat="46.22617" lon="7.2719"><ele></ele><time>2024-6-16T12:11:53Z</time></trkpt>
<trkpt lat="46.22622" lon="7.27196"><ele></ele><time>2024-6-16T12:11:56Z</time></trkpt>
<trkpt lat="46.22626" lon="7.272"><ele></ele><time>2024-6-16T12:11:59Z</time></trkpt>
<trkpt lat="46.22629" lon="7.27205"><ele></ele><time>2024-6-16T12:12:2Z</time></trkpt>
<trkpt lat="46.22633" lon="7.2721"><ele></ele><time>2024-6-16T12:12:5Z</time></trkpt>
<trkpt lat="46.22636" lon="7.27216"><ele></ele><time>2024-6-16T12:12:8Z</time></trkpt>
<trkpt lat="46.22639" lon="7.2722"><ele></ele><time>2024-6-16T12:12:11Z</time></trkpt>
<trkpt lat="46.22643" lon="7.27225"><ele></ele><time>2024-6-16T12:12:14Z</time></trkpt>
<trkpt lat="46.22645" lon="7.27229"><ele></ele><time>2024-6-16T12:12:17Z</time></trkpt>
<trkpt lat="46.22649" lon="7.27235"><ele></ele><time>2024-6-16T12:12:20Z</time></trkpt>
<trkpt lat="46.22652" lon="7.27241"><ele></ele><time>2024-6-16T12:12:23Z</time></trkpt>
<trkpt lat="46.22654" lon="7.27245"><ele></ele><time>2024-6-16T12:12:26Z</time></trkpt>
<trkpt lat="46.22659" lon="7.27252"><ele></ele><time>2024-6-16T12:12:29Z</time></trkpt>
<trkpt lat="46.22661" lon="7.27252"><ele></ele><time>2024-6-16T12:12:32Z</time></trkpt>
<trkpt lat="46.22666" lon="7.27257"><ele></ele><time>2024-6-16T12:12:35Z</time></trkpt>
<trkpt lat="46.22667" lon="7.27258"><ele></ele><time>2024-6-16T12:12:38Z</time></trkpt>
<trkpt lat="46.22673" lon="7.27261"><ele></ele><time>2024-6-16T12:12:41Z</time></trkpt>
<trkpt lat="46.22677" lon="7.27261"><ele></ele><time>2024-6-16T12:12:44Z</time></trkpt>
<trkpt lat="46.2268" lon="7.27262"><ele></ele><time>2024-6-16T12:12:47Z</time></trkpt>
<trkpt lat="46.22682" lon="7.27259"><ele></ele><time>2024-6-16T12:12:50Z</time></trkpt>
<trkpt lat="46.22681" lon="7.27257"><ele></ele><time>2024-6-16T12:12:53Z</time></trkpt>
<trkpt lat="46.22679" lon="7.27249"><ele></ele><time>2024-6-16T12:12:56Z</time></trkpt>
<trkpt lat="46.22677" lon="7.27242"><ele></ele><time>2024-6-16T12:12:59Z</time></trkpt>
<trkpt lat="46.2267" lon="7.27221"><ele></ele><time>2024-6-16T12:13:2Z</time></trkpt>
<trkpt lat="46.22658" lon="7.27197"><ele></ele><time>2024-6-16T12:13:5Z</time></trkpt>
<trkpt lat="46.22647" lon="7.27176"><ele></ele><time>2024-6-16T12:13:8Z</time></trkpt>
<trkpt lat="46.22637" lon="7.27158"><ele></ele><time>2024-6-16T12:13:11Z</time></trkpt>
<trkpt lat="46.22629" lon="7.27139"><ele></ele><time>2024-6-16T12:13:14Z</time></trkpt>
<trkpt lat="46.22628" lon="7.27137"><ele></ele><time>2024-6-16T12:13:17Z</time></trkpt>
<trkpt lat="46.22621" lon="7.27128"><ele></ele><time>2024-6-16T12:13:20Z</time></trkpt>
<trkpt lat="46.2262" lon="7.27126"><ele></ele><time>2024-6-16T12:13:23Z</time></trkpt>
<trkpt lat="46.2261" lon="7.27114"><ele></ele><time>2024-6-16T12:13:26Z</time></trkpt>
<trkpt lat="46.22604" lon="7.27103"><ele></ele><time>2024-6-16T12:13:29Z</time></trkpt>
<trkpt lat="46.22603" lon="7.27099"><ele></ele><time>2024-6-16T12:13:32Z</time></trkpt>
<trkpt lat="46.22599" lon="7.27085"><ele></ele><time>2024-6-16T12:13:35Z</time></trkpt>
<trkpt lat="46.22598" lon="7.2708"><ele></ele><time>2024-6-16T12:13:38Z</time></trkpt>
<trkpt lat="46.22594" lon="7.27069"><ele></ele><time>2024-6-16T12:13:41Z</time></trkpt>
<trkpt lat="46.22592" lon="7.27063"><ele></ele><time>2024-6-16T12:13:44Z</time></trkpt>
<trkpt lat="46.22589" lon="7.27055"><ele></ele><time>2024-6-16T12:13:47Z</time></trkpt>
<trkpt lat="46.22585" lon="7.27045"><ele></ele><time>2024-6-16T12:13:50Z</time></trkpt>
<trkpt lat="46.22583" lon="7.27041"><ele></ele><time>2024-6-16T12:13:53Z</time></trkpt>
<trkpt lat="46.2258" lon="7.2703"><ele></ele><time>2024-6-16T12:13:56Z</time></trkpt>
<trkpt lat="46.22578" lon="7.27026"><ele></ele><time>2024-6-16T12:13:59Z</time></trkpt>
<trkpt lat="46.22573" lon="7.27016"><ele></ele><time>2024-6-16T12:14:2Z</time></trkpt>
<trkpt lat="46.22571" lon="7.27013"><ele></ele><time>2024-6-16T12:14:5Z</time></trkpt>
<trkpt lat="46.22566" lon="7.27"><ele></ele><time>2024-6-16T12:14:8Z</time></trkpt>
<trkpt lat="46.22564" lon="7.26996"><ele></ele><time>2024-6-16T12:14:11Z</time></trkpt>
<trkpt lat="46.2256" lon="7.26986"><ele></ele><time>2024-6-16T12:14:14Z</time></trkpt>
<trkpt lat="46.22558" lon="7.26982"><ele></ele><time>2024-6-16T12:14:17Z</time></trkpt>
<trkpt lat="46.22555" lon="7.26972"><ele></ele><time>2024-6-16T12:14:20Z</time></trkpt>
<trkpt lat="46.22551" lon="7.26964"><ele></ele><time>2024-6-16T12:14:23Z</time></trkpt>
<trkpt lat="46.22547" lon="7.26956"><ele></ele><time>2024-6-16T12:14:26Z</time></trkpt>
<trkpt lat="46.22546" lon="7.26951"><ele></ele><time>2024-6-16T12:14:29Z</time></trkpt>
<trkpt lat="46.22543" lon="7.26942"><ele></ele><time>2024-6-16T12:14:32Z</time></trkpt>
<trkpt lat="46.22539" lon="7.26936"><ele></ele><time>2024-6-16T12:14:35Z</time></trkpt>
<trkpt lat="46.22535" lon="7.26927"><ele></ele><time>2024-6-16T12:14:38Z</time></trkpt>
<trkpt lat="46.22531" lon="7.26921"><ele></ele><time>2024-6-16T12:14:41Z</time></trkpt>
<trkpt lat="46.22526" lon="7.26911"><ele></ele><time>2024-6-16T12:14:44Z</time></trkpt>
<trkpt lat="46.22526" lon="7.26909"><ele></ele><time>2024-6-16T12:14:47Z</time></trkpt>
<trkpt lat="46.22519" lon="7.26892"><ele></ele><time>2024-6-16T12:14:50Z</time></trkpt>
<trkpt lat="46.22518" lon="7.26888"><ele></ele><time>2024-6-16T12:14:53Z</time></trkpt>
<trkpt lat="46.22514" lon="7.26877"><ele></ele><time>2024-6-16T12:14:56Z</time></trkpt>
<trkpt lat="46.22513" lon="7.26875"><ele></ele><time>2024-6-16T12:14:59Z</time></trkpt>
<trkpt lat="46.22509" lon="7.26865"><ele></ele><time>2024-6-16T12:15:2Z</time></trkpt>
<trkpt lat="46.22508" lon="7.26861"><ele></ele><time>2024-6-16T12:15:5Z</time></trkpt>
<trkpt lat="46.22505" lon="7.26852"><ele></ele><time>2024-6-16T12:15:8Z</time></trkpt>
<trkpt lat="46.22501" lon="7.26844"><ele></ele><time>2024-6-16T12:15:11Z</time></trkpt>
<trkpt lat="46.22501" lon="7.26842"><ele></ele><time>2024-6-16T12:15:14Z</time></trkpt>
<trkpt lat="46.22498" lon="7.26833"><ele></ele><time>2024-6-16T12:15:17Z</time></trkpt>
<trkpt lat="46.22496" lon="7.2683"><ele></ele><time>2024-6-16T12:15:20Z</time></trkpt>
<trkpt lat="46.22494" lon="7.26822"><ele></ele><time>2024-6-16T12:15:23Z</time></trkpt>
<trkpt lat="46.22491" lon="7.26812"><ele></ele><time>2024-6-16T12:15:26Z</time></trkpt>
<trkpt lat="46.2249" lon="7.26806"><ele></ele><time>2024-6-16T12:15:29Z</time></trkpt>
<trkpt lat="46.22486" lon="7.26795"><ele></ele><time>2024-6-16T12:15:32Z</time></trkpt>
<trkpt lat="46.22484" lon="7.2679"><ele></ele><time>2024-6-16T12:15:35Z</time></trkpt>
<trkpt lat="46.22478" lon="7.26777"><ele></ele><time>2024-6-16T12:15:38Z</time></trkpt>
<trkpt lat="46.22475" lon="7.2677"><ele></ele><time>2024-6-16T12:15:41Z</time></trkpt>
<trkpt lat="46.22472" lon="7.26764"><ele></ele><time>2024-6-16T12:15:44Z</time></trkpt>
<trkpt lat="46.2247" lon="7.26757"><ele></ele><time>2024-6-16T12:15:47Z</time></trkpt>
<trkpt lat="46.22466" lon="7.26749"><ele></ele><time>2024-6-16T12:15:50Z</time></trkpt>
<trkpt lat="46.22463" lon="7.26744"><ele></ele><time>2024-6-16T12:15:53Z</time></trkpt>
<trkpt lat="46.22458" lon="7.26736"><ele></ele><time>2024-6-16T12:15:56Z</time></trkpt>
<trkpt lat="46.22451" lon="7.26729"><ele></ele><time>2024-6-16T12:15:59Z</time></trkpt>
<trkpt lat="46.22441" lon="7.26718"><ele></ele><time>2024-6-16T12:16:2Z</time></trkpt>
<trkpt lat="46.2244" lon="7.26717"><ele></ele><time>2024-6-16T12:16:5Z</time></trkpt>
<trkpt lat="46.22433" lon="7.26708"><ele></ele><time>2024-6-16T12:16:8Z</time></trkpt>
<trkpt lat="46.22432" lon="7.26707"><ele></ele><time>2024-6-16T12:16:11Z</time></trkpt>
<trkpt lat="46.22426" lon="7.26696"><ele></ele><time>2024-6-16T12:16:14Z</time></trkpt>
<trkpt lat="46.22425" lon="7.26693"><ele></ele><time>2024-6-16T12:16:17Z</time></trkpt>
<trkpt lat="46.22418" lon="7.26675"><ele></ele><time>2024-6-16T12:16:20Z</time></trkpt>
<trkpt lat="46.22417" lon="7.2667"><ele></ele><time>2024-6-16T12:16:23Z</time></trkpt>
<trkpt lat="46.22413" lon="7.26658"><ele></ele><time>2024-6-16T12:16:26Z</time></trkpt>
<trkpt lat="46.22409" lon="7.26644"><ele></ele><time>2024-6-16T12:16:29Z</time></trkpt>
<trkpt lat="46.22412" lon="7.26635"><ele></ele><time>2024-6-16T12:16:32Z</time></trkpt>
<trkpt lat="46.22413" lon="7.26634"><ele></ele><time>2024-6-16T12:16:35Z</time></trkpt>
<trkpt lat="46.22415" lon="7.26635"><ele></ele><time>2024-6-16T12:16:38Z</time></trkpt>
<trkpt lat="46.22415" lon="7.26636"><ele></ele><time>2024-6-16T12:16:41Z</time></trkpt>
<trkpt lat="46.2242" lon="7.26639"><ele></ele><time>2024-6-16T12:16:44Z</time></trkpt>
<trkpt lat="46.2242" lon="7.26639"><ele></ele><time>2024-6-16T12:16:47Z</time></trkpt>
<trkpt lat="46.22425" lon="7.26641"><ele></ele><time>2024-6-16T12:16:50Z</time></trkpt>
<trkpt lat="46.22425" lon="7.26641"><ele></ele><time>2024-6-16T12:16:53Z</time></trkpt>
<trkpt lat="46.22431" lon="7.26643"><ele></ele><time>2024-6-16T12:16:56Z</time></trkpt>
<trkpt lat="46.22432" lon="7.26644"><ele></ele><time>2024-6-16T12:16:59Z</time></trkpt>
<trkpt lat="46.22433" lon="7.26644"><ele></ele><time>2024-6-16T12:17:2Z</time></trkpt>
<trkpt lat="46.22435" lon="7.26645"><ele></ele><time>2024-6-16T12:17:5Z</time></trkpt>
<trkpt lat="46.22436" lon="7.26646"><ele></ele><time>2024-6-16T12:17:8Z</time></trkpt>
<trkpt lat="46.22439" lon="7.26647"><ele></ele><time>2024-6-16T12:17:11Z</time></trkpt>
<trkpt lat="46.2244" lon="7.26648"><ele></ele><time>2024-6-16T12:17:14Z</time></trkpt>
<trkpt lat="46.22444" lon="7.26649"><ele></ele><time>2024-6-16T12:17:17Z</time></trkpt>
<trkpt lat="46.22448" lon="7.2665"><ele></ele><time>2024-6-16T12:17:20Z</time></trkpt>
<trkpt lat="46.22449" lon="7.26651"><ele></ele><time>2024-6-16T12:17:23Z</time></trkpt>
<trkpt lat="46.22454" lon="7.26653"><ele></ele><time>2024-6-16T12:17:26Z</time></trkpt>
<trkpt lat="46.22457" lon="7.26655"><ele></ele><time>2024-6-16T12:17:29Z</time></trkpt>
<trkpt lat="46.22459" lon="7.26655"><ele></ele><time>2024-6-16T12:17:32Z</time></trkpt>
<trkpt lat="46.22463" lon="7.26655"><ele></ele><time>2024-6-16T12:17:35Z</time></trkpt>
<trkpt lat="46.22465" lon="7.26656"><ele></ele><time>2024-6-16T12:17:38Z</time></trkpt>
<trkpt lat="46.22468" lon="7.26659"><ele></ele><time>2024-6-16T12:17:41Z</time></trkpt>
<trkpt lat="46.22469" lon="7.2666"><ele></ele><time>2024-6-16T12:17:44Z</time></trkpt>
<trkpt lat="46.22472" lon="7.26664"><ele></ele><time>2024-6-16T12:17:47Z</time></trkpt>
<trkpt lat="46.22473" lon="7.26665"><ele></ele><time>2024-6-16T12:17:50Z</time></trkpt>
<trkpt lat="46.22479" lon="7.26668"><ele></ele><time>2024-6-16T12:17:53Z</time></trkpt>
<trkpt lat="46.22481" lon="7.26667"><ele></ele><time>2024-6-16T12:17:56Z</time></trkpt>
<trkpt lat="46.22483" lon="7.26662"><ele></ele><time>2024-6-16T12:17:59Z</time></trkpt>
<trkpt lat="46.22483" lon="7.2666"><ele></ele><time>2024-6-16T12:18:2Z</time></trkpt>
<trkpt lat="46.22484" lon="7.26657"><ele></ele><time>2024-6-16T12:18:5Z</time></trkpt>
<trkpt lat="46.22485" lon="7.26652"><ele></ele><time>2024-6-16T12:18:8Z</time></trkpt>
<trkpt lat="46.22487" lon="7.26646"><ele></ele><time>2024-6-16T12:18:11Z</time></trkpt>
<trkpt lat="46.22489" lon="7.26638"><ele></ele><time>2024-6-16T12:18:14Z</time></trkpt>
<trkpt lat="46.22491" lon="7.26629"><ele></ele><time>2024-6-16T12:18:17Z</time></trkpt>
<trkpt lat="46.22492" lon="7.26623"><ele></ele><time>2024-6-16T12:18:20Z</time></trkpt>
<trkpt lat="46.22492" lon="7.26615"><ele></ele><time>2024-6-16T12:18:23Z</time></trkpt>
<trkpt lat="46.22492" lon="7.26612"><ele></ele><time>2024-6-16T12:18:26Z</time></trkpt>
<trkpt lat="46.22497" lon="7.26606"><ele></ele><time>2024-6-16T12:18:29Z</time></trkpt>
<trkpt lat="46.22498" lon="7.26604"><ele></ele><time>2024-6-16T12:18:32Z</time></trkpt>
<trkpt lat="46.22504" lon="7.266"><ele></ele><time>2024-6-16T12:18:35Z</time></trkpt>
<trkpt lat="46.22505" lon="7.26599"><ele></ele><time>2024-6-16T12:18:38Z</time></trkpt>
<trkpt lat="46.22506" lon="7.26596"><ele></ele><time>2024-6-16T12:18:41Z</time></trkpt>
<trkpt lat="46.22507" lon="7.26594"><ele></ele><time>2024-6-16T12:18:44Z</time></trkpt>
<trkpt lat="46.22507" lon="7.26589"><ele></ele><time>2024-6-16T12:18:47Z</time></trkpt>
<trkpt lat="46.22507" lon="7.26585"><ele></ele><time>2024-6-16T12:18:50Z</time></trkpt>
<trkpt lat="46.22506" lon="7.26582"><ele></ele><time>2024-6-16T12:18:53Z</time></trkpt>
<trkpt lat="46.22506" lon="7.26579"><ele></ele><time>2024-6-16T12:18:56Z</time></trkpt>
<trkpt lat="46.22504" lon="7.26572"><ele></ele><time>2024-6-16T12:18:59Z</time></trkpt>
<trkpt lat="46.225" lon="7.26566"><ele></ele><time>2024-6-16T12:19:2Z</time></trkpt>
<trkpt lat="46.22499" lon="7.26565"><ele></ele><time>2024-6-16T12:19:5Z</time></trkpt>
<trkpt lat="46.22497" lon="7.2656"><ele></ele><time>2024-6-16T12:19:8Z</time></trkpt>
<trkpt lat="46.22496" lon="7.26559"><ele></ele><time>2024-6-16T12:19:11Z</time></trkpt>
<trkpt lat="46.22491" lon="7.26554"><ele></ele><time>2024-6-16T12:19:14Z</time></trkpt>
<trkpt lat="46.22487" lon="7.26547"><ele></ele><time>2024-6-16T12:19:17Z</time></trkpt>
<trkpt lat="46.22487" lon="7.26546"><ele></ele><time>2024-6-16T12:19:20Z</time></trkpt>
<trkpt lat="46.22481" lon="7.26541"><ele></ele><time>2024-6-16T12:19:23Z</time></trkpt>
<trkpt lat="46.2248" lon="7.26541"><ele></ele><time>2024-6-16T12:19:26Z</time></trkpt>
<trkpt lat="46.22477" lon="7.26539"><ele></ele><time>2024-6-16T12:19:29Z</time></trkpt>
<trkpt lat="46.22474" lon="7.26535"><ele></ele><time>2024-6-16T12:19:32Z</time></trkpt>
<trkpt lat="46.22474" lon="7.26533"><ele></ele><time>2024-6-16T12:19:35Z</time></trkpt>
<trkpt lat="46.22472" lon="7.26527"><ele></ele><time>2024-6-16T12:19:38Z</time></trkpt>
<trkpt lat="46.22474" lon="7.26525"><ele></ele><time>2024-6-16T12:19:41Z</time></trkpt>
<trkpt lat="46.22477" lon="7.26524"><ele></ele><time>2024-6-16T12:19:44Z</time></trkpt>
<trkpt lat="46.22483" lon="7.26524"><ele></ele><time>2024-6-16T12:19:47Z</time></trkpt>
<trkpt lat="46.22483" lon="7.26525"><ele></ele><time>2024-6-16T12:19:50Z</time></trkpt>
<trkpt lat="46.22488" lon="7.26531"><ele></ele><time>2024-6-16T12:19:53Z</time></trkpt>
<trkpt lat="46.2249" lon="7.26532"><ele></ele><time>2024-6-16T12:19:56Z</time></trkpt>
<trkpt lat="46.22495" lon="7.26534"><ele></ele><time>2024-6-16T12:19:59Z</time></trkpt>
<trkpt lat="46.22496" lon="7.26534"><ele></ele><time>2024-6-16T12:20:2Z</time></trkpt>
<trkpt lat="46.225" lon="7.2653"><ele></ele><time>2024-6-16T12:20:5Z</time></trkpt>
<trkpt lat="46.22504" lon="7.26524"><ele></ele><time>2024-6-16T12:20:8Z</time></trkpt>
<trkpt lat="46.22506" lon="7.26518"><ele></ele><time>2024-6-16T12:20:11Z</time></trkpt>
<trkpt lat="46.22506" lon="7.26517"><ele></ele><time>2024-6-16T12:20:14Z</time></trkpt>
<trkpt lat="46.22508" lon="7.26513"><ele></ele><time>2024-6-16T12:20:17Z</time></trkpt>
<trkpt lat="46.22509" lon="7.26511"><ele></ele><time>2024-6-16T12:20:20Z</time></trkpt>
<trkpt lat="46.22511" lon="7.26506"><ele></ele><time>2024-6-16T12:20:23Z</time></trkpt>
<trkpt lat="46.22511" lon="7.26505"><ele></ele><time>2024-6-16T12:20:26Z</time></trkpt>
<trkpt lat="46.22512" lon="7.26504"><ele></ele><time>2024-6-16T12:20:29Z</time></trkpt>
<trkpt lat="46.22514" lon="7.26501"><ele></ele><time>2024-6-16T12:20:32Z</time></trkpt>
<trkpt lat="46.22514" lon="7.26498"><ele></ele><time>2024-6-16T12:20:35Z</time></trkpt>
<trkpt lat="46.22517" lon="7.26495"><ele></ele><time>2024-6-16T12:20:38Z</time></trkpt>
<trkpt lat="46.22517" lon="7.26494"><ele></ele><time>2024-6-16T12:20:41Z</time></trkpt>
<trkpt lat="46.2252" lon="7.26489"><ele></ele><time>2024-6-16T12:20:44Z</time></trkpt>
<trkpt lat="46.22521" lon="7.26489"><ele></ele><time>2024-6-16T12:20:47Z</time></trkpt>
<trkpt lat="46.22522" lon="7.26488"><ele></ele><time>2024-6-16T12:20:50Z</time></trkpt>
<trkpt lat="46.22524" lon="7.26486"><ele></ele><time>2024-6-16T12:20:53Z</time></trkpt>
<trkpt lat="46.22526" lon="7.26483"><ele></ele><time>2024-6-16T12:20:56Z</time></trkpt>
<trkpt lat="46.22527" lon="7.2648"><ele></ele><time>2024-6-16T12:20:59Z</time></trkpt>
<trkpt lat="46.22528" lon="7.26477"><ele></ele><time>2024-6-16T12:21:2Z</time></trkpt>
<trkpt lat="46.22528" lon="7.26472"><ele></ele><time>2024-6-16T12:21:5Z</time></trkpt>
<trkpt lat="46.22527" lon="7.26468"><ele></ele><time>2024-6-16T12:21:8Z</time></trkpt>
<trkpt lat="46.22527" lon="7.26465"><ele></ele><time>2024-6-16T12:21:11Z</time></trkpt>
<trkpt lat="46.22527" lon="7.26461"><ele></ele><time>2024-6-16T12:21:14Z</time></trkpt>
<trkpt lat="46.22527" lon="7.26456"><ele></ele><time>2024-6-16T12:21:17Z</time></trkpt>
<trkpt lat="46.22527" lon="7.26455"><ele></ele><time>2024-6-16T12:21:20Z</time></trkpt>
<trkpt lat="46.22528" lon="7.2645"><ele></ele><time>2024-6-16T12:21:23Z</time></trkpt>
<trkpt lat="46.22527" lon="7.26446"><ele></ele><time>2024-6-16T12:21:26Z</time></trkpt>
<trkpt lat="46.22528" lon="7.26442"><ele></ele><time>2024-6-16T12:21:29Z</time></trkpt>
<trkpt lat="46.22529" lon="7.26438"><ele></ele><time>2024-6-16T12:21:32Z</time></trkpt>
<trkpt lat="46.22532" lon="7.26438"><ele></ele><time>2024-6-16T12:21:35Z</time></trkpt>
<trkpt lat="46.22534" lon="7.26439"><ele></ele><time>2024-6-16T12:21:38Z</time></trkpt>
<trkpt lat="46.22535" lon="7.26441"><ele></ele><time>2024-6-16T12:21:41Z</time></trkpt>
<trkpt lat="46.2254" lon="7.26445"><ele></ele><time>2024-6-16T12:21:44Z</time></trkpt>
<trkpt lat="46.22553" lon="7.2646"><ele></ele><time>2024-6-16T12:21:47Z</time></trkpt>
<trkpt lat="46.22567" lon="7.26473"><ele></ele><time>2024-6-16T12:21:50Z</time></trkpt>
<trkpt lat="46.22569" lon="7.26481"><ele></ele><time>2024-6-16T12:21:53Z</time></trkpt>
<trkpt lat="46.2257" lon="7.26491"><ele></ele><time>2024-6-16T12:21:56Z</time></trkpt>
<trkpt lat="46.22573" lon="7.26501"><ele></ele><time>2024-6-16T12:21:59Z</time></trkpt>
<trkpt lat="46.22576" lon="7.26506"><ele></ele><time>2024-6-16T12:22:2Z</time></trkpt>
<trkpt lat="46.22577" lon="7.2651"><ele></ele><time>2024-6-16T12:22:5Z</time></trkpt>
<trkpt lat="46.22583" lon="7.26521"><ele></ele><time>2024-6-16T12:22:8Z</time></trkpt>
<trkpt lat="46.22585" lon="7.26524"><ele></ele><time>2024-6-16T12:22:11Z</time></trkpt>
<trkpt lat="46.22586" lon="7.26526"><ele></ele><time>2024-6-16T12:22:14Z</time></trkpt>
<trkpt lat="46.22589" lon="7.26534"><ele></ele><time>2024-6-16T12:22:17Z</time></trkpt>
<trkpt lat="46.2259" lon="7.26536"><ele></ele><time>2024-6-16T12:22:20Z</time></trkpt>
<trkpt lat="46.22594" lon="7.26544"><ele></ele><time>2024-6-16T12:22:23Z</time></trkpt>
<trkpt lat="46.22598" lon="7.26551"><ele></ele><time>2024-6-16T12:22:26Z</time></trkpt>
<trkpt lat="46.22601" lon="7.26556"><ele></ele><time>2024-6-16T12:22:29Z</time></trkpt>
<trkpt lat="46.22609" lon="7.26567"><ele></ele><time>2024-6-16T12:22:32Z</time></trkpt>
<trkpt lat="46.2261" lon="7.26569"><ele></ele><time>2024-6-16T12:22:35Z</time></trkpt>
<trkpt lat="46.22614" lon="7.26583"><ele></ele><time>2024-6-16T12:22:38Z</time></trkpt>
<trkpt lat="46.22615" lon="7.26585"><ele></ele><time>2024-6-16T12:22:41Z</time></trkpt>
<trkpt lat="46.22617" lon="7.26601"><ele></ele><time>2024-6-16T12:22:44Z</time></trkpt>
<trkpt lat="46.22619" lon="7.26607"><ele></ele><time>2024-6-16T12:22:47Z</time></trkpt>
<trkpt lat="46.22621" lon="7.26613"><ele></ele><time>2024-6-16T12:22:50Z</time></trkpt>
<trkpt lat="46.22626" lon="7.26619"><ele></ele><time>2024-6-16T12:22:53Z</time></trkpt>
<trkpt lat="46.22627" lon="7.26621"><ele></ele><time>2024-6-16T12:22:56Z</time></trkpt>
<trkpt lat="46.22637" lon="7.26632"><ele></ele><time>2024-6-16T12:22:59Z</time></trkpt>
<trkpt lat="46.22638" lon="7.26633"><ele></ele><time>2024-6-16T12:23:2Z</time></trkpt>
<trkpt lat="46.22648" lon="7.26651"><ele></ele><time>2024-6-16T12:23:5Z</time></trkpt>
<trkpt lat="46.2265" lon="7.26656"><ele></ele><time>2024-6-16T12:23:8Z</time></trkpt>
<trkpt lat="46.22657" lon="7.2667"><ele></ele><time>2024-6-16T12:23:11Z</time></trkpt>
<trkpt lat="46.22659" lon="7.26678"><ele></ele><time>2024-6-16T12:23:14Z</time></trkpt>
<trkpt lat="46.2266" lon="7.26694"><ele></ele><time>2024-6-16T12:23:17Z</time></trkpt>
<trkpt lat="46.2266" lon="7.26697"><ele></ele><time>2024-6-16T12:23:20Z</time></trkpt>
<trkpt lat="46.22664" lon="7.26716"><ele></ele><time>2024-6-16T12:23:23Z</time></trkpt>
<trkpt lat="46.2267" lon="7.26725"><ele></ele><time>2024-6-16T12:23:26Z</time></trkpt>
<trkpt lat="46.22677" lon="7.26732"><ele></ele><time>2024-6-16T12:23:29Z</time></trkpt>
<trkpt lat="46.22687" lon="7.26744"><ele></ele><time>2024-6-16T12:23:32Z</time></trkpt>
<trkpt lat="46.22692" lon="7.26758"><ele></ele><time>2024-6-16T12:23:35Z</time></trkpt>
<trkpt lat="46.22692" lon="7.2676"><ele></ele><time>2024-6-16T12:23:38Z</time></trkpt>
<trkpt lat="46.22694" lon="7.26771"><ele></ele><time>2024-6-16T12:23:41Z</time></trkpt>
<trkpt lat="46.22699" lon="7.2679"><ele></ele><time>2024-6-16T12:23:44Z</time></trkpt>
<trkpt lat="46.22701" lon="7.26793"><ele></ele><time>2024-6-16T12:23:47Z</time></trkpt>
<trkpt lat="46.22709" lon="7.26809"><ele></ele><time>2024-6-16T12:23:50Z</time></trkpt>
<trkpt lat="46.22715" lon="7.2682"><ele></ele><time>2024-6-16T12:23:53Z</time></trkpt>
<trkpt lat="46.22725" lon="7.26833"><ele></ele><time>2024-6-16T12:23:56Z</time></trkpt>
<trkpt lat="46.22731" lon="7.26841"><ele></ele><time>2024-6-16T12:23:59Z</time></trkpt>
<trkpt lat="46.22742" lon="7.26852"><ele></ele><time>2024-6-16T12:24:2Z</time></trkpt>
<trkpt lat="46.22749" lon="7.26861"><ele></ele><time>2024-6-16T12:24:5Z</time></trkpt>
<trkpt lat="46.22753" lon="7.26867"><ele></ele><time>2024-6-16T12:24:8Z</time></trkpt>
<trkpt lat="46.22759" lon="7.26876"><ele></ele><time>2024-6-16T12:24:11Z</time></trkpt>
<trkpt lat="46.22766" lon="7.26889"><ele></ele><time>2024-6-16T12:24:14Z</time></trkpt>
<trkpt lat="46.2277" lon="7.26895"><ele></ele><time>2024-6-16T12:24:17Z</time></trkpt>
<trkpt lat="46.2278" lon="7.26908"><ele></ele><time>2024-6-16T12:24:20Z</time></trkpt>
<trkpt lat="46.22781" lon="7.26909"><ele></ele><time>2024-6-16T12:24:23Z</time></trkpt>
<trkpt lat="46.22791" lon="7.26922"><ele></ele><time>2024-6-16T12:24:26Z</time></trkpt>
<trkpt lat="46.22796" lon="7.26927"><ele></ele><time>2024-6-16T12:24:29Z</time></trkpt>
<trkpt lat="46.22805" lon="7.2694"><ele></ele><time>2024-6-16T12:24:32Z</time></trkpt>
<trkpt lat="46.22807" lon="7.26943"><ele></ele><time>2024-6-16T12:24:35Z</time></trkpt>
<trkpt lat="46.22813" lon="7.26952"><ele></ele><time>2024-6-16T12:24:38Z</time></trkpt>
<trkpt lat="46.22816" lon="7.26959"><ele></ele><time>2024-6-16T12:24:41Z</time></trkpt>
<trkpt lat="46.22825" lon="7.26977"><ele></ele><time>2024-6-16T12:24:44Z</time></trkpt>
<trkpt lat="46.22826" lon="7.2698"><ele></ele><time>2024-6-16T12:24:47Z</time></trkpt>
<trkpt lat="46.22827" lon="7.26982"><ele></ele><time>2024-6-16T12:24:50Z</time></trkpt>
<trkpt lat="46.22833" lon="7.26997"><ele></ele><time>2024-6-16T12:24:53Z</time></trkpt>
<trkpt lat="46.22834" lon="7.26999"><ele></ele><time>2024-6-16T12:24:56Z</time></trkpt>
<trkpt lat="46.22841" lon="7.27009"><ele></ele><time>2024-6-16T12:24:59Z</time></trkpt>
<trkpt lat="46.22845" lon="7.27011"><ele></ele><time>2024-6-16T12:25:2Z</time></trkpt>
<trkpt lat="46.22863" lon="7.27022"><ele></ele><time>2024-6-16T12:25:5Z</time></trkpt>
<trkpt lat="46.22881" lon="7.27041"><ele></ele><time>2024-6-16T12:25:8Z</time></trkpt>
<trkpt lat="46.22889" lon="7.27065"><ele></ele><time>2024-6-16T12:25:11Z</time></trkpt>
<trkpt lat="46.22904" lon="7.27101"><ele></ele><time>2024-6-16T12:25:14Z</time></trkpt>
<trkpt lat="46.22909" lon="7.27128"><ele></ele><time>2024-6-16T12:25:17Z</time></trkpt>
<trkpt lat="46.2291" lon="7.27132"><ele></ele><time>2024-6-16T12:25:20Z</time></trkpt>
<trkpt lat="46.22921" lon="7.27154"><ele></ele><time>2024-6-16T12:25:23Z</time></trkpt>
<trkpt lat="46.22933" lon="7.27171"><ele></ele><time>2024-6-16T12:25:26Z</time></trkpt>
<trkpt lat="46.22937" lon="7.27174"><ele></ele><time>2024-6-16T12:25:29Z</time></trkpt>
<trkpt lat="46.22956" lon="7.27187"><ele></ele><time>2024-6-16T12:25:32Z</time></trkpt>
<trkpt lat="46.22958" lon="7.27188"><ele></ele><time>2024-6-16T12:25:35Z</time></trkpt>
<trkpt lat="46.22978" lon="7.27197"><ele></ele><time>2024-6-16T12:25:38Z</time></trkpt>
<trkpt lat="46.2298" lon="7.27198"><ele></ele><time>2024-6-16T12:25:41Z</time></trkpt>
<trkpt lat="46.22998" lon="7.27206"><ele></ele><time>2024-6-16T12:25:44Z</time></trkpt>
<trkpt lat="46.23003" lon="7.27211"><ele></ele><time>2024-6-16T12:25:47Z</time></trkpt>
<trkpt lat="46.2301" lon="7.27219"><ele></ele><time>2024-6-16T12:25:50Z</time></trkpt>
<trkpt lat="46.23016" lon="7.27229"><ele></ele><time>2024-6-16T12:25:53Z</time></trkpt>
<trkpt lat="46.23021" lon="7.27238"><ele></ele><time>2024-6-16T12:25:56Z</time></trkpt>
<trkpt lat="46.2303" lon="7.27252"><ele></ele><time>2024-6-16T12:25:59Z</time></trkpt>
<trkpt lat="46.23036" lon="7.2726"><ele></ele><time>2024-6-16T12:26:2Z</time></trkpt>
<trkpt lat="46.23041" lon="7.27268"><ele></ele><time>2024-6-16T12:26:5Z</time></trkpt>
<trkpt lat="46.23049" lon="7.2728"><ele></ele><time>2024-6-16T12:26:8Z</time></trkpt>
<trkpt lat="46.23056" lon="7.2729"><ele></ele><time>2024-6-16T12:26:11Z</time></trkpt>
<trkpt lat="46.23059" lon="7.27297"><ele></ele><time>2024-6-16T12:26:14Z</time></trkpt>
<trkpt lat="46.23062" lon="7.27305"><ele></ele><time>2024-6-16T12:26:17Z</time></trkpt>
<trkpt lat="46.23064" lon="7.27314"><ele></ele><time>2024-6-16T12:26:20Z</time></trkpt>
<trkpt lat="46.23066" lon="7.27315"><ele></ele><time>2024-6-16T12:26:23Z</time></trkpt>
<trkpt lat="46.2307" lon="7.27314"><ele></ele><time>2024-6-16T12:26:26Z</time></trkpt>
<trkpt lat="46.23072" lon="7.27311"><ele></ele><time>2024-6-16T12:26:29Z</time></trkpt>
<trkpt lat="46.2307" lon="7.273"><ele></ele><time>2024-6-16T12:26:32Z</time></trkpt>
<trkpt lat="46.2307" lon="7.27297"><ele></ele><time>2024-6-16T12:26:35Z</time></trkpt>
<trkpt lat="46.23067" lon="7.27285"><ele></ele><time>2024-6-16T12:26:38Z</time></trkpt>
<trkpt lat="46.23065" lon="7.27276"><ele></ele><time>2024-6-16T12:26:41Z</time></trkpt>
<trkpt lat="46.23063" lon="7.27268"><ele></ele><time>2024-6-16T12:26:44Z</time></trkpt>
<trkpt lat="46.23061" lon="7.27262"><ele></ele><time>2024-6-16T12:26:47Z</time></trkpt>
<trkpt lat="46.2306" lon="7.27256"><ele></ele><time>2024-6-16T12:26:50Z</time></trkpt>
<trkpt lat="46.23057" lon="7.27247"><ele></ele><time>2024-6-16T12:26:53Z</time></trkpt>
<trkpt lat="46.2305" lon="7.2723"><ele></ele><time>2024-6-16T12:26:56Z</time></trkpt>
<trkpt lat="46.23047" lon="7.27225"><ele></ele><time>2024-6-16T12:26:59Z</time></trkpt>
<trkpt lat="46.23044" lon="7.27218"><ele></ele><time>2024-6-16T12:27:2Z</time></trkpt>
<trkpt lat="46.23039" lon="7.2721"><ele></ele><time>2024-6-16T12:27:5Z</time></trkpt>
<trkpt lat="46.23037" lon="7.27208"><ele></ele><time>2024-6-16T12:27:8Z</time></trkpt>
<trkpt lat="46.23031" lon="7.27198"><ele></ele><time>2024-6-16T12:27:11Z</time></trkpt>
<trkpt lat="46.23028" lon="7.27191"><ele></ele><time>2024-6-16T12:27:14Z</time></trkpt>
<trkpt lat="46.23026" lon="7.27188"><ele></ele><time>2024-6-16T12:27:17Z</time></trkpt>
<trkpt lat="46.23018" lon="7.27181"><ele></ele><time>2024-6-16T12:27:20Z</time></trkpt>
<trkpt lat="46.23013" lon="7.27176"><ele></ele><time>2024-6-16T12:27:23Z</time></trkpt>
<trkpt lat="46.23013" lon="7.27175"><ele></ele><time>2024-6-16T12:27:26Z</time></trkpt>
<trkpt lat="46.23005" lon="7.27165"><ele></ele><time>2024-6-16T12:27:29Z</time></trkpt>
<trkpt lat="46.22998" lon="7.2715"><ele></ele><time>2024-6-16T12:27:32Z</time></trkpt>
<trkpt lat="46.22996" lon="7.27147"><ele></ele><time>2024-6-16T12:27:35Z</time></trkpt>
<trkpt lat="46.22993" lon="7.27141"><ele></ele><time>2024-6-16T12:27:38Z</time></trkpt>
<trkpt lat="46.22991" lon="7.27134"><ele></ele><time>2024-6-16T12:27:41Z</time></trkpt>
<trkpt lat="46.22989" lon="7.27125"><ele></ele><time>2024-6-16T12:27:44Z</time></trkpt>
<trkpt lat="46.22987" lon="7.2712"><ele></ele><time>2024-6-16T12:27:47Z</time></trkpt>
<trkpt lat="46.22985" lon="7.27116"><ele></ele><time>2024-6-16T12:27:50Z</time></trkpt>
<trkpt lat="46.22982" lon="7.27108"><ele></ele><time>2024-6-16T12:27:53Z</time></trkpt>
<trkpt lat="46.22981" lon="7.27107"><ele></ele><time>2024-6-16T12:27:56Z</time></trkpt>
<trkpt lat="46.22978" lon="7.27098"><ele></ele><time>2024-6-16T12:27:59Z</time></trkpt>
<trkpt lat="46.22974" lon="7.27091"><ele></ele><time>2024-6-16T12:28:2Z</time></trkpt>
<trkpt lat="46.22973" lon="7.27089"><ele></ele><time>2024-6-16T12:28:5Z</time></trkpt>
<trkpt lat="46.22969" lon="7.27082"><ele></ele><time>2024-6-16T12:28:8Z</time></trkpt>
<trkpt lat="46.22967" lon="7.27076"><ele></ele><time>2024-6-16T12:28:11Z</time></trkpt>
<trkpt lat="46.22966" lon="7.27072"><ele></ele><time>2024-6-16T12:28:14Z</time></trkpt>
<trkpt lat="46.22964" lon="7.27068"><ele></ele><time>2024-6-16T12:28:17Z</time></trkpt>
<trkpt lat="46.22963" lon="7.27064"><ele></ele><time>2024-6-16T12:28:20Z</time></trkpt>
<trkpt lat="46.22963" lon="7.27061"><ele></ele><time>2024-6-16T12:28:23Z</time></trkpt>
<trkpt lat="46.22961" lon="7.27054"><ele></ele><time>2024-6-16T12:28:26Z</time></trkpt>
<trkpt lat="46.22961" lon="7.27052"><ele></ele><time>2024-6-16T12:28:29Z</time></trkpt>
<trkpt lat="46.22961" lon="7.27043"><ele></ele><time>2024-6-16T12:28:32Z</time></trkpt>
<trkpt lat="46.2296" lon="7.27037"><ele></ele><time>2024-6-16T12:28:35Z</time></trkpt>
<trkpt lat="46.22958" lon="7.27031"><ele></ele><time>2024-6-16T12:28:38Z</time></trkpt>
<trkpt lat="46.22957" lon="7.27027"><ele></ele><time>2024-6-16T12:28:41Z</time></trkpt>
<trkpt lat="46.22955" lon="7.2702"><ele></ele><time>2024-6-16T12:28:44Z</time></trkpt>
<trkpt lat="46.22953" lon="7.27015"><ele></ele><time>2024-6-16T12:28:47Z</time></trkpt>
<trkpt lat="46.22952" lon="7.27012"><ele></ele><time>2024-6-16T12:28:50Z</time></trkpt>
<trkpt lat="46.22951" lon="7.27003"><ele></ele><time>2024-6-16T12:28:53Z</time></trkpt>
<trkpt lat="46.22948" lon="7.26994"><ele></ele><time>2024-6-16T12:28:56Z</time></trkpt>
<trkpt lat="46.22945" lon="7.26987"><ele></ele><time>2024-6-16T12:28:59Z</time></trkpt>
<trkpt lat="46.22944" lon="7.26986"><ele></ele><time>2024-6-16T12:29:2Z</time></trkpt>
<trkpt lat="46.22942" lon="7.26979"><ele></ele><time>2024-6-16T12:29:5Z</time></trkpt>
<trkpt lat="46.22941" lon="7.26978"><ele></ele><time>2024-6-16T12:29:8Z</time></trkpt>
<trkpt lat="46.22939" lon="7.26971"><ele></ele><time>2024-6-16T12:29:11Z</time></trkpt>
<trkpt lat="46.22938" lon="7.2697"><ele></ele><time>2024-6-16T12:29:14Z</time></trkpt>
<trkpt lat="46.22935" lon="7.26959"><ele></ele><time>2024-6-16T12:29:17Z</time></trkpt>
<trkpt lat="46.22934" lon="7.26954"><ele></ele><time>2024-6-16T12:29:20Z</time></trkpt>
<trkpt lat="46.22932" lon="7.26948"><ele></ele><time>2024-6-16T12:29:23Z</time></trkpt>
<trkpt lat="46.22931" lon="7.26945"><ele></ele><time>2024-6-16T12:29:26Z</time></trkpt>
<trkpt lat="46.22928" lon="7.26937"><ele></ele><time>2024-6-16T12:29:29Z</time></trkpt>
<trkpt lat="46.22928" lon="7.26935"><ele></ele><time>2024-6-16T12:29:32Z</time></trkpt>
<trkpt lat="46.22925" lon="7.26927"><ele></ele><time>2024-6-16T12:29:35Z</time></trkpt>
<trkpt lat="46.22925" lon="7.26922"><ele></ele><time>2024-6-16T12:29:38Z</time></trkpt>
<trkpt lat="46.22923" lon="7.26912"><ele></ele><time>2024-6-16T12:29:41Z</time></trkpt>
<trkpt lat="46.2292" lon="7.26904"><ele></ele><time>2024-6-16T12:29:44Z</time></trkpt>
<trkpt lat="46.22918" lon="7.26899"><ele></ele><time>2024-6-16T12:29:47Z</time></trkpt>
<trkpt lat="46.22914" lon="7.26884"><ele></ele><time>2024-6-16T12:29:50Z</time></trkpt>
<trkpt lat="46.22913" lon="7.26881"><ele></ele><time>2024-6-16T12:29:53Z</time></trkpt>
<trkpt lat="46.22906" lon="7.26867"><ele></ele><time>2024-6-16T12:29:56Z</time></trkpt>
<trkpt lat="46.22905" lon="7.26865"><ele></ele><time>2024-6-16T12:29:59Z</time></trkpt>
<trkpt lat="46.22899" lon="7.26851"><ele></ele><time>2024-6-16T12:30:2Z</time></trkpt>
<trkpt lat="46.22893" lon="7.26836"><ele></ele><time>2024-6-16T12:30:5Z</time></trkpt>
<trkpt lat="46.22892" lon="7.26834"><ele></ele><time>2024-6-16T12:30:8Z</time></trkpt>
<trkpt lat="46.22887" lon="7.26827"><ele></ele><time>2024-6-16T12:30:11Z</time></trkpt>
<trkpt lat="46.22883" lon="7.26821"><ele></ele><time>2024-6-16T12:30:14Z</time></trkpt>
<trkpt lat="46.22882" lon="7.26818"><ele></ele><time>2024-6-16T12:30:17Z</time></trkpt>
<trkpt lat="46.22879" lon="7.26812"><ele></ele><time>2024-6-16T12:30:20Z</time></trkpt>
<trkpt lat="46.22875" lon="7.26805"><ele></ele><time>2024-6-16T12:30:23Z</time></trkpt>
<trkpt lat="46.22871" lon="7.26797"><ele></ele><time>2024-6-16T12:30:26Z</time></trkpt>
<trkpt lat="46.22869" lon="7.26794"><ele></ele><time>2024-6-16T12:30:29Z</time></trkpt>
<trkpt lat="46.22866" lon="7.2679"><ele></ele><time>2024-6-16T12:30:32Z</time></trkpt>
<trkpt lat="46.22865" lon="7.26789"><ele></ele><time>2024-6-16T12:30:35Z</time></trkpt>
<trkpt lat="46.2286" lon="7.26777"><ele></ele><time>2024-6-16T12:30:38Z</time></trkpt>
<trkpt lat="46.22853" lon="7.26769"><ele></ele><time>2024-6-16T12:30:41Z</time></trkpt>
<trkpt lat="46.22852" lon="7.26768"><ele></ele><time>2024-6-16T12:30:44Z</time></trkpt>
<trkpt lat="46.22846" lon="7.26758"><ele></ele><time>2024-6-16T12:30:47Z</time></trkpt>
<trkpt lat="46.22844" lon="7.26754"><ele></ele><time>2024-6-16T12:30:50Z</time></trkpt>
<trkpt lat="46.22841" lon="7.26745"><ele></ele><time>2024-6-16T12:30:53Z</time></trkpt>
<trkpt lat="46.2284" lon="7.26744"><ele></ele><time>2024-6-16T12:30:56Z</time></trkpt>
<trkpt lat="46.22838" lon="7.26735"><ele></ele><time>2024-6-16T12:30:59Z</time></trkpt>
<trkpt lat="46.22837" lon="7.26731"><ele></ele><time>2024-6-16T12:31:2Z</time></trkpt>
<trkpt lat="46.22835" lon="7.26724"><ele></ele><time>2024-6-16T12:31:5Z</time></trkpt>
<trkpt lat="46.22834" lon="7.26716"><ele></ele><time>2024-6-16T12:31:8Z</time></trkpt>
<trkpt lat="46.22833" lon="7.26713"><ele></ele><time>2024-6-16T12:31:11Z</time></trkpt>
<trkpt lat="46.22833" lon="7.26705"><ele></ele><time>2024-6-16T12:31:14Z</time></trkpt>
<trkpt lat="46.22832" lon="7.26701"><ele></ele><time>2024-6-16T12:31:17Z</time></trkpt>
<trkpt lat="46.22831" lon="7.26691"><ele></ele><time>2024-6-16T12:31:20Z</time></trkpt>
<trkpt lat="46.22831" lon="7.26689"><ele></ele><time>2024-6-16T12:31:23Z</time></trkpt>
<trkpt lat="46.2283" lon="7.26681"><ele></ele><time>2024-6-16T12:31:26Z</time></trkpt>
<trkpt lat="46.22833" lon="7.26672"><ele></ele><time>2024-6-16T12:31:29Z</time></trkpt>
<trkpt lat="46.22833" lon="7.26671"><ele></ele><time>2024-6-16T12:31:32Z</time></trkpt>
<trkpt lat="46.22835" lon="7.26666"><ele></ele><time>2024-6-16T12:31:35Z</time></trkpt>
<trkpt lat="46.22836" lon="7.26665"><ele></ele><time>2024-6-16T12:31:38Z</time></trkpt>
<trkpt lat="46.22841" lon="7.26664"><ele></ele><time>2024-6-16T12:31:41Z</time></trkpt>
<trkpt lat="46.2284" lon="7.26662"><ele></ele><time>2024-6-16T12:31:44Z</time></trkpt>
<trkpt lat="46.2284" lon="7.26661"><ele></ele><time>2024-6-16T12:31:47Z</time></trkpt>
<trkpt lat="46.22841" lon="7.26658"><ele></ele><time>2024-6-16T12:31:50Z</time></trkpt>
<trkpt lat="46.22844" lon="7.26658"><ele></ele><time>2024-6-16T12:31:53Z</time></trkpt>
<trkpt lat="46.22845" lon="7.26658"><ele></ele><time>2024-6-16T12:31:56Z</time></trkpt>
<trkpt lat="46.22848" lon="7.26653"><ele></ele><time>2024-6-16T12:31:59Z</time></trkpt>
<trkpt lat="46.22849" lon="7.26652"><ele></ele><time>2024-6-16T12:32:2Z</time></trkpt>
<trkpt lat="46.2285" lon="7.2665"><ele></ele><time>2024-6-16T12:32:5Z</time></trkpt>
<trkpt lat="46.22851" lon="7.26647"><ele></ele><time>2024-6-16T12:32:8Z</time></trkpt>
<trkpt lat="46.22852" lon="7.26646"><ele></ele><time>2024-6-16T12:32:11Z</time></trkpt>
<trkpt lat="46.22856" lon="7.26642"><ele></ele><time>2024-6-16T12:32:14Z</time></trkpt>
<trkpt lat="46.22856" lon="7.26642"><ele></ele><time>2024-6-16T12:32:17Z</time></trkpt>
<trkpt lat="46.22857" lon="7.2664"><ele></ele><time>2024-6-16T12:32:20Z</time></trkpt>
<trkpt lat="46.2286" lon="7.26637"><ele></ele><time>2024-6-16T12:32:23Z</time></trkpt>
<trkpt lat="46.2286" lon="7.26636"><ele></ele><time>2024-6-16T12:32:26Z</time></trkpt>
<trkpt lat="46.22864" lon="7.26631"><ele></ele><time>2024-6-16T12:32:29Z</time></trkpt>
<trkpt lat="46.22865" lon="7.2663"><ele></ele><time>2024-6-16T12:32:32Z</time></trkpt>
<trkpt lat="46.22867" lon="7.26625"><ele></ele><time>2024-6-16T12:32:35Z</time></trkpt>
<trkpt lat="46.22867" lon="7.26625"><ele></ele><time>2024-6-16T12:32:38Z</time></trkpt>
<trkpt lat="46.2287" lon="7.26618"><ele></ele><time>2024-6-16T12:32:41Z</time></trkpt>
<trkpt lat="46.22872" lon="7.26616"><ele></ele><time>2024-6-16T12:32:44Z</time></trkpt>
<trkpt lat="46.22875" lon="7.26613"><ele></ele><time>2024-6-16T12:32:47Z</time></trkpt>
<trkpt lat="46.22875" lon="7.26613"><ele></ele><time>2024-6-16T12:32:50Z</time></trkpt>
<trkpt lat="46.22877" lon="7.26605"><ele></ele><time>2024-6-16T12:32:53Z</time></trkpt>
<trkpt lat="46.2288" lon="7.26602"><ele></ele><time>2024-6-16T12:32:56Z</time></trkpt>
<trkpt lat="46.22882" lon="7.26601"><ele></ele><time>2024-6-16T12:32:59Z</time></trkpt>
<trkpt lat="46.22886" lon="7.26602"><ele></ele><time>2024-6-16T12:33:2Z</time></trkpt>
<trkpt lat="46.22887" lon="7.26603"><ele></ele><time>2024-6-16T12:33:5Z</time></trkpt>
<trkpt lat="46.2289" lon="7.2661"><ele></ele><time>2024-6-16T12:33:8Z</time></trkpt>
<trkpt lat="46.2289" lon="7.26611"><ele></ele><time>2024-6-16T12:33:11Z</time></trkpt>
<trkpt lat="46.22892" lon="7.26621"><ele></ele><time>2024-6-16T12:33:14Z</time></trkpt>
<trkpt lat="46.22892" lon="7.26628"><ele></ele><time>2024-6-16T12:33:17Z</time></trkpt>
<trkpt lat="46.22892" lon="7.2663"><ele></ele><time>2024-6-16T12:33:20Z</time></trkpt>
<trkpt lat="46.22893" lon="7.26632"><ele></ele><time>2024-6-16T12:33:23Z</time></trkpt>
<trkpt lat="46.22891" lon="7.2664"><ele></ele><time>2024-6-16T12:33:26Z</time></trkpt>
<trkpt lat="46.22892" lon="7.26642"><ele></ele><time>2024-6-16T12:33:29Z</time></trkpt>
<trkpt lat="46.22894" lon="7.26647"><ele></ele><time>2024-6-16T12:33:32Z</time></trkpt>
<trkpt lat="46.22893" lon="7.26653"><ele></ele><time>2024-6-16T12:33:35Z</time></trkpt>
<trkpt lat="46.22892" lon="7.26658"><ele></ele><time>2024-6-16T12:33:38Z</time></trkpt>
<trkpt lat="46.22894" lon="7.26667"><ele></ele><time>2024-6-16T12:33:41Z</time></trkpt>
<trkpt lat="46.22895" lon="7.26668"><ele></ele><time>2024-6-16T12:33:44Z</time></trkpt>
<trkpt lat="46.22896" lon="7.26677"><ele></ele><time>2024-6-16T12:33:47Z</time></trkpt>
<trkpt lat="46.22898" lon="7.26677"><ele></ele><time>2024-6-16T12:33:50Z</time></trkpt>
<trkpt lat="46.22903" lon="7.26671"><ele></ele><time>2024-6-16T12:33:53Z</time></trkpt>
<trkpt lat="46.22908" lon="7.26664"><ele></ele><time>2024-6-16T12:33:56Z</time></trkpt>
<trkpt lat="46.2291" lon="7.26662"><ele></ele><time>2024-6-16T12:33:59Z</time></trkpt>
<trkpt lat="46.22911" lon="7.26659"><ele></ele><time>2024-6-16T12:34:2Z</time></trkpt>
<trkpt lat="46.22914" lon="7.26654"><ele></ele><time>2024-6-16T12:34:5Z</time></trkpt>
<trkpt lat="46.22919" lon="7.26644"><ele></ele><time>2024-6-16T12:34:8Z</time></trkpt>
<trkpt lat="46.2292" lon="7.26644"><ele></ele><time>2024-6-16T12:34:11Z</time></trkpt>
<trkpt lat="46.22922" lon="7.26643"><ele></ele><time>2024-6-16T12:34:14Z</time></trkpt>
<trkpt lat="46.22923" lon="7.26641"><ele></ele><time>2024-6-16T12:34:17Z</time></trkpt>
<trkpt lat="46.22923" lon="7.2664"><ele></ele><time>2024-6-16T12:34:20Z</time></trkpt>
<trkpt lat="46.22923" lon="7.26634"><ele></ele><time>2024-6-16T12:34:23Z</time></trkpt>
<trkpt lat="46.22924" lon="7.26633"><ele></ele><time>2024-6-16T12:34:26Z</time></trkpt>
<trkpt lat="46.22925" lon="7.26632"><ele></ele><time>2024-6-16T12:34:29Z</time></trkpt>
<trkpt lat="46.22927" lon="7.26626"><ele></ele><time>2024-6-16T12:34:32Z</time></trkpt>
<trkpt lat="46.22926" lon="7.26625"><ele></ele><time>2024-6-16T12:34:35Z</time></trkpt>
<trkpt lat="46.22927" lon="7.26615"><ele></ele><time>2024-6-16T12:34:38Z</time></trkpt>
<trkpt lat="46.22928" lon="7.26614"><ele></ele><time>2024-6-16T12:34:41Z</time></trkpt>
<trkpt lat="46.2293" lon="7.26614"><ele></ele><time>2024-6-16T12:34:44Z</time></trkpt>
<trkpt lat="46.22933" lon="7.26617"><ele></ele><time>2024-6-16T12:34:47Z</time></trkpt>
<trkpt lat="46.22939" lon="7.26628"><ele></ele><time>2024-6-16T12:34:50Z</time></trkpt>
<trkpt lat="46.2294" lon="7.26629"><ele></ele><time>2024-6-16T12:34:53Z</time></trkpt>
<trkpt lat="46.22942" lon="7.26639"><ele></ele><time>2024-6-16T12:34:56Z</time></trkpt>
<trkpt lat="46.22942" lon="7.2664"><ele></ele><time>2024-6-16T12:34:59Z</time></trkpt>
<trkpt lat="46.22946" lon="7.26648"><ele></ele><time>2024-6-16T12:35:2Z</time></trkpt>
<trkpt lat="46.22947" lon="7.26647"><ele></ele><time>2024-6-16T12:35:5Z</time></trkpt>
<trkpt lat="46.22949" lon="7.26647"><ele></ele><time>2024-6-16T12:35:8Z</time></trkpt>
<trkpt lat="46.2295" lon="7.26647"><ele></ele><time>2024-6-16T12:35:11Z</time></trkpt>
<trkpt lat="46.22951" lon="7.26648"><ele></ele><time>2024-6-16T12:35:14Z</time></trkpt>
<trkpt lat="46.22952" lon="7.26649"><ele></ele><time>2024-6-16T12:35:17Z</time></trkpt>
<trkpt lat="46.22953" lon="7.26654"><ele></ele><time>2024-6-16T12:35:20Z</time></trkpt>
<trkpt lat="46.22953" lon="7.26655"><ele></ele><time>2024-6-16T12:35:23Z</time></trkpt>
<trkpt lat="46.22954" lon="7.26657"><ele></ele><time>2024-6-16T12:35:26Z</time></trkpt>
<trkpt lat="46.22955" lon="7.26658"><ele></ele><time>2024-6-16T12:35:29Z</time></trkpt>
<trkpt lat="46.22958" lon="7.2666"><ele></ele><time>2024-6-16T12:35:32Z</time></trkpt>
<trkpt lat="46.22958" lon="7.26662"><ele></ele><time>2024-6-16T12:35:35Z</time></trkpt>
<trkpt lat="46.22961" lon="7.26669"><ele></ele><time>2024-6-16T12:35:38Z</time></trkpt>
<trkpt lat="46.22962" lon="7.2667"><ele></ele><time>2024-6-16T12:35:41Z</time></trkpt>
<trkpt lat="46.22964" lon="7.26672"><ele></ele><time>2024-6-16T12:35:44Z</time></trkpt>
<trkpt lat="46.22966" lon="7.26678"><ele></ele><time>2024-6-16T12:35:47Z</time></trkpt>
<trkpt lat="46.22968" lon="7.26677"><ele></ele><time>2024-6-16T12:35:50Z</time></trkpt>
<trkpt lat="46.2297" lon="7.26676"><ele></ele><time>2024-6-16T12:35:53Z</time></trkpt>
<trkpt lat="46.22972" lon="7.26674"><ele></ele><time>2024-6-16T12:35:56Z</time></trkpt>
<trkpt lat="46.22975" lon="7.26668"><ele></ele><time>2024-6-16T12:35:59Z</time></trkpt>
<trkpt lat="46.22974" lon="7.26665"><ele></ele><time>2024-6-16T12:36:2Z</time></trkpt>
<trkpt lat="46.22974" lon="7.26663"><ele></ele><time>2024-6-16T12:36:5Z</time></trkpt>
<trkpt lat="46.22974" lon="7.26651"><ele></ele><time>2024-6-16T12:36:8Z</time></trkpt>
<trkpt lat="46.22973" lon="7.26647"><ele></ele><time>2024-6-16T12:36:11Z</time></trkpt>
<trkpt lat="46.22974" lon="7.26637"><ele></ele><time>2024-6-16T12:36:14Z</time></trkpt>
<trkpt lat="46.22974" lon="7.26636"><ele></ele><time>2024-6-16T12:36:17Z</time></trkpt>
<trkpt lat="46.22974" lon="7.26626"><ele></ele><time>2024-6-16T12:36:20Z</time></trkpt>
<trkpt lat="46.22976" lon="7.26621"><ele></ele><time>2024-6-16T12:36:23Z</time></trkpt>
<trkpt lat="46.22977" lon="7.26621"><ele></ele><time>2024-6-16T12:36:26Z</time></trkpt>
<trkpt lat="46.22978" lon="7.26621"><ele></ele><time>2024-6-16T12:36:29Z</time></trkpt>
<trkpt lat="46.22984" lon="7.26624"><ele></ele><time>2024-6-16T12:36:32Z</time></trkpt>
<trkpt lat="46.22985" lon="7.26628"><ele></ele><time>2024-6-16T12:36:35Z</time></trkpt>
<trkpt lat="46.22986" lon="7.2663"><ele></ele><time>2024-6-16T12:36:38Z</time></trkpt>
<trkpt lat="46.22987" lon="7.26637"><ele></ele><time>2024-6-16T12:36:41Z</time></trkpt>
<trkpt lat="46.22988" lon="7.26638"><ele></ele><time>2024-6-16T12:36:44Z</time></trkpt>
<trkpt lat="46.22989" lon="7.2664"><ele></ele><time>2024-6-16T12:36:47Z</time></trkpt>
<trkpt lat="46.22991" lon="7.26642"><ele></ele><time>2024-6-16T12:36:50Z</time></trkpt>
<trkpt lat="46.22994" lon="7.26646"><ele></ele><time>2024-6-16T12:36:53Z</time></trkpt>
<trkpt lat="46.22997" lon="7.26651"><ele></ele><time>2024-6-16T12:36:56Z</time></trkpt>
<trkpt lat="46.22999" lon="7.26654"><ele></ele><time>2024-6-16T12:36:59Z</time></trkpt>
<trkpt lat="46.23001" lon="7.26655"><ele></ele><time>2024-6-16T12:37:2Z</time></trkpt>
<trkpt lat="46.23003" lon="7.26653"><ele></ele><time>2024-6-16T12:37:5Z</time></trkpt>
<trkpt lat="46.2301" lon="7.26653"><ele></ele><time>2024-6-16T12:37:8Z</time></trkpt>
<trkpt lat="46.23011" lon="7.26654"><ele></ele><time>2024-6-16T12:37:11Z</time></trkpt>
<trkpt lat="46.23018" lon="7.26658"><ele></ele><time>2024-6-16T12:37:14Z</time></trkpt>
<trkpt lat="46.23019" lon="7.26659"><ele></ele><time>2024-6-16T12:37:17Z</time></trkpt>
<trkpt lat="46.23022" lon="7.26662"><ele></ele><time>2024-6-16T12:37:20Z</time></trkpt>
<trkpt lat="46.23024" lon="7.26664"><ele></ele><time>2024-6-16T12:37:23Z</time></trkpt>
<trkpt lat="46.23028" lon="7.26668"><ele></ele><time>2024-6-16T12:37:26Z</time></trkpt>
<trkpt lat="46.23031" lon="7.26671"><ele></ele><time>2024-6-16T12:37:29Z</time></trkpt>
<trkpt lat="46.23034" lon="7.26673"><ele></ele><time>2024-6-16T12:37:32Z</time></trkpt>
<trkpt lat="46.23038" lon="7.26679"><ele></ele><time>2024-6-16T12:37:35Z</time></trkpt>
<trkpt lat="46.23038" lon="7.2668"><ele></ele><time>2024-6-16T12:37:38Z</time></trkpt>
<trkpt lat="46.23041" lon="7.26688"><ele></ele><time>2024-6-16T12:37:41Z</time></trkpt>
<trkpt lat="46.23043" lon="7.26691"><ele></ele><time>2024-6-16T12:37:44Z</time></trkpt>
<trkpt lat="46.23043" lon="7.26696"><ele></ele><time>2024-6-16T12:37:47Z</time></trkpt>
<trkpt lat="46.23044" lon="7.26699"><ele></ele><time>2024-6-16T12:37:50Z</time></trkpt>
<trkpt lat="46.23046" lon="7.26703"><ele></ele><time>2024-6-16T12:37:53Z</time></trkpt>
<trkpt lat="46.23047" lon="7.26704"><ele></ele><time>2024-6-16T12:37:56Z</time></trkpt>
<trkpt lat="46.23049" lon="7.2671"><ele></ele><time>2024-6-16T12:37:59Z</time></trkpt>
<trkpt lat="46.2305" lon="7.26716"><ele></ele><time>2024-6-16T12:38:2Z</time></trkpt>
<trkpt lat="46.23052" lon="7.2672"><ele></ele><time>2024-6-16T12:38:5Z</time></trkpt>
<trkpt lat="46.23053" lon="7.26723"><ele></ele><time>2024-6-16T12:38:8Z</time></trkpt>
<trkpt lat="46.23056" lon="7.26731"><ele></ele><time>2024-6-16T12:38:11Z</time></trkpt>
<trkpt lat="46.23059" lon="7.26738"><ele></ele><time>2024-6-16T12:38:14Z</time></trkpt>
<trkpt lat="46.23061" lon="7.26742"><ele></ele><time>2024-6-16T12:38:17Z</time></trkpt>
<trkpt lat="46.23061" lon="7.26744"><ele></ele><time>2024-6-16T12:38:20Z</time></trkpt>
<trkpt lat="46.23062" lon="7.26749"><ele></ele><time>2024-6-16T12:38:23Z</time></trkpt>
<trkpt lat="46.23062" lon="7.2675"><ele></ele><time>2024-6-16T12:38:26Z</time></trkpt>
<trkpt lat="46.23066" lon="7.2676"><ele></ele><time>2024-6-16T12:38:29Z</time></trkpt>
<trkpt lat="46.2307" lon="7.26769"><ele></ele><time>2024-6-16T12:38:32Z</time></trkpt>
<trkpt lat="46.23071" lon="7.26772"><ele></ele><time>2024-6-16T12:38:35Z</time></trkpt>
<trkpt lat="46.23074" lon="7.26781"><ele></ele><time>2024-6-16T12:38:38Z</time></trkpt>
<trkpt lat="46.23074" lon="7.26782"><ele></ele><time>2024-6-16T12:38:41Z</time></trkpt>
<trkpt lat="46.23075" lon="7.26783"><ele></ele><time>2024-6-16T12:38:44Z</time></trkpt>
<trkpt lat="46.23079" lon="7.26793"><ele></ele><time>2024-6-16T12:38:47Z</time></trkpt>
<trkpt lat="46.23079" lon="7.26794"><ele></ele><time>2024-6-16T12:38:50Z</time></trkpt>
<trkpt lat="46.23082" lon="7.26802"><ele></ele><time>2024-6-16T12:38:53Z</time></trkpt>
<trkpt lat="46.23083" lon="7.26805"><ele></ele><time>2024-6-16T12:38:56Z</time></trkpt>
<trkpt lat="46.23086" lon="7.26815"><ele></ele><time>2024-6-16T12:38:59Z</time></trkpt>
<trkpt lat="46.23087" lon="7.26817"><ele></ele><time>2024-6-16T12:39:2Z</time></trkpt>
<trkpt lat="46.23089" lon="7.26823"><ele></ele><time>2024-6-16T12:39:5Z</time></trkpt>
<trkpt lat="46.23092" lon="7.2683"><ele></ele><time>2024-6-16T12:39:8Z</time></trkpt>
<trkpt lat="46.23094" lon="7.26833"><ele></ele><time>2024-6-16T12:39:11Z</time></trkpt>
<trkpt lat="46.23097" lon="7.26841"><ele></ele><time>2024-6-16T12:39:14Z</time></trkpt>
<trkpt lat="46.23098" lon="7.26844"><ele></ele><time>2024-6-16T12:39:17Z</time></trkpt>
<trkpt lat="46.23101" lon="7.26852"><ele></ele><time>2024-6-16T12:39:20Z</time></trkpt>
<trkpt lat="46.23102" lon="7.26854"><ele></ele><time>2024-6-16T12:39:23Z</time></trkpt>
<trkpt lat="46.23106" lon="7.26861"><ele></ele><time>2024-6-16T12:39:26Z</time></trkpt>
<trkpt lat="46.23109" lon="7.26867"><ele></ele><time>2024-6-16T12:39:29Z</time></trkpt>
<trkpt lat="46.2311" lon="7.26871"><ele></ele><time>2024-6-16T12:39:32Z</time></trkpt>
<trkpt lat="46.23116" lon="7.26879"><ele></ele><time>2024-6-16T12:39:35Z</time></trkpt>
<trkpt lat="46.23117" lon="7.2688"><ele></ele><time>2024-6-16T12:39:38Z</time></trkpt>
<trkpt lat="46.23123" lon="7.26886"><ele></ele><time>2024-6-16T12:39:41Z</time></trkpt>
<trkpt lat="46.23123" lon="7.26887"><ele></ele><time>2024-6-16T12:39:44Z</time></trkpt>
<trkpt lat="46.23128" lon="7.26892"><ele></ele><time>2024-6-16T12:39:47Z</time></trkpt>
<trkpt lat="46.23129" lon="7.26894"><ele></ele><time>2024-6-16T12:39:50Z</time></trkpt>
<trkpt lat="46.23131" lon="7.26898"><ele></ele><time>2024-6-16T12:39:53Z</time></trkpt>
<trkpt lat="46.23137" lon="7.26907"><ele></ele><time>2024-6-16T12:39:56Z</time></trkpt>
<trkpt lat="46.23138" lon="7.26908"><ele></ele><time>2024-6-16T12:39:59Z</time></trkpt>
<trkpt lat="46.2314" lon="7.26911"><ele></ele><time>2024-6-16T12:40:2Z</time></trkpt>
<trkpt lat="46.23143" lon="7.26916"><ele></ele><time>2024-6-16T12:40:5Z</time></trkpt>
<trkpt lat="46.23144" lon="7.26918"><ele></ele><time>2024-6-16T12:40:8Z</time></trkpt>
<trkpt lat="46.23149" lon="7.26918"><ele></ele><time>2024-6-16T12:40:11Z</time></trkpt>
<trkpt lat="46.23151" lon="7.26917"><ele></ele><time>2024-6-16T12:40:14Z</time></trkpt>
<trkpt lat="46.23155" lon="7.26914"><ele></ele><time>2024-6-16T12:40:17Z</time></trkpt>
<trkpt lat="46.23155" lon="7.26913"><ele></ele><time>2024-6-16T12:40:20Z</time></trkpt>
<trkpt lat="46.23156" lon="7.26901"><ele></ele><time>2024-6-16T12:40:23Z</time></trkpt>
<trkpt lat="46.23158" lon="7.26886"><ele></ele><time>2024-6-16T12:40:26Z</time></trkpt>
<trkpt lat="46.23158" lon="7.26876"><ele></ele><time>2024-6-16T12:40:29Z</time></trkpt>
<trkpt lat="46.2316" lon="7.26868"><ele></ele><time>2024-6-16T12:40:32Z</time></trkpt>
<trkpt lat="46.23161" lon="7.26861"><ele></ele><time>2024-6-16T12:40:35Z</time></trkpt>
<trkpt lat="46.23161" lon="7.2686"><ele></ele><time>2024-6-16T12:40:38Z</time></trkpt>
<trkpt lat="46.23162" lon="7.26849"><ele></ele><time>2024-6-16T12:40:41Z</time></trkpt>
<trkpt lat="46.23162" lon="7.26847"><ele></ele><time>2024-6-16T12:40:44Z</time></trkpt>
<trkpt lat="46.23161" lon="7.26838"><ele></ele><time>2024-6-16T12:40:47Z</time></trkpt>
<trkpt lat="46.23162" lon="7.26833"><ele></ele><time>2024-6-16T12:40:50Z</time></trkpt>
<trkpt lat="46.23162" lon="7.26827"><ele></ele><time>2024-6-16T12:40:53Z</time></trkpt>
<trkpt lat="46.23162" lon="7.26819"><ele></ele><time>2024-6-16T12:40:56Z</time></trkpt>
<trkpt lat="46.23163" lon="7.26815"><ele></ele><time>2024-6-16T12:40:59Z</time></trkpt>
<trkpt lat="46.23162" lon="7.26804"><ele></ele><time>2024-6-16T12:41:2Z</time></trkpt>
<trkpt lat="46.23162" lon="7.26802"><ele></ele><time>2024-6-16T12:41:5Z</time></trkpt>
<trkpt lat="46.23162" lon="7.26793"><ele></ele><time>2024-6-16T12:41:8Z</time></trkpt>
<trkpt lat="46.23163" lon="7.26791"><ele></ele><time>2024-6-16T12:41:11Z</time></trkpt>
<trkpt lat="46.23163" lon="7.26784"><ele></ele><time>2024-6-16T12:41:14Z</time></trkpt>
<trkpt lat="46.23163" lon="7.26782"><ele></ele><time>2024-6-16T12:41:17Z</time></trkpt>
<trkpt lat="46.23163" lon="7.26777"><ele></ele><time>2024-6-16T12:41:20Z</time></trkpt>
<trkpt lat="46.23163" lon="7.26775"><ele></ele><time>2024-6-16T12:41:23Z</time></trkpt>
<trkpt lat="46.23163" lon="7.26773"><ele></ele><time>2024-6-16T12:41:26Z</time></trkpt>
<trkpt lat="46.23162" lon="7.2676"><ele></ele><time>2024-6-16T12:41:29Z</time></trkpt>
<trkpt lat="46.23162" lon="7.26759"><ele></ele><time>2024-6-16T12:41:32Z</time></trkpt>
<trkpt lat="46.23161" lon="7.26749"><ele></ele><time>2024-6-16T12:41:35Z</time></trkpt>
<trkpt lat="46.2316" lon="7.2674"><ele></ele><time>2024-6-16T12:41:38Z</time></trkpt>
<trkpt lat="46.23159" lon="7.26737"><ele></ele><time>2024-6-16T12:41:41Z</time></trkpt>
<trkpt lat="46.23157" lon="7.2673"><ele></ele><time>2024-6-16T12:41:44Z</time></trkpt>
<trkpt lat="46.23156" lon="7.26725"><ele></ele><time>2024-6-16T12:41:47Z</time></trkpt>
<trkpt lat="46.23155" lon="7.2672"><ele></ele><time>2024-6-16T12:41:50Z</time></trkpt>
<trkpt lat="46.23152" lon="7.26713"><ele></ele><time>2024-6-16T12:41:53Z</time></trkpt>
<trkpt lat="46.2315" lon="7.26709"><ele></ele><time>2024-6-16T12:41:56Z</time></trkpt>
<trkpt lat="46.23149" lon="7.26699"><ele></ele><time>2024-6-16T12:41:59Z</time></trkpt>
<trkpt lat="46.23149" lon="7.2669"><ele></ele><time>2024-6-16T12:42:2Z</time></trkpt>
<trkpt lat="46.23149" lon="7.26688"><ele></ele><time>2024-6-16T12:42:5Z</time></trkpt>
<trkpt lat="46.23149" lon="7.26687"><ele></ele><time>2024-6-16T12:42:8Z</time></trkpt>
<trkpt lat="46.23148" lon="7.26674"><ele></ele><time>2024-6-16T12:42:11Z</time></trkpt>
<trkpt lat="46.23148" lon="7.26672"><ele></ele><time>2024-6-16T12:42:14Z</time></trkpt>
<trkpt lat="46.23148" lon="7.26663"><ele></ele><time>2024-6-16T12:42:17Z</time></trkpt>
<trkpt lat="46.23147" lon="7.2666"><ele></ele><time>2024-6-16T12:42:20Z</time></trkpt>
<trkpt lat="46.23146" lon="7.26649"><ele></ele><time>2024-6-16T12:42:23Z</time></trkpt>
<trkpt lat="46.23145" lon="7.26641"><ele></ele><time>2024-6-16T12:42:26Z</time></trkpt>
<trkpt lat="46.23146" lon="7.26638"><ele></ele><time>2024-6-16T12:42:29Z</time></trkpt>
<trkpt lat="46.23146" lon="7.26629"><ele></ele><time>2024-6-16T12:42:32Z</time></trkpt>
<trkpt lat="46.23145" lon="7.26626"><ele></ele><time>2024-6-16T12:42:35Z</time></trkpt>
<trkpt lat="46.23144" lon="7.26616"><ele></ele><time>2024-6-16T12:42:38Z</time></trkpt>
<trkpt lat="46.23142" lon="7.26607"><ele></ele><time>2024-6-16T12:42:41Z</time></trkpt>
<trkpt lat="46.23142" lon="7.26605"><ele></ele><time>2024-6-16T12:42:44Z</time></trkpt>
<trkpt lat="46.23135" lon="7.26594"><ele></ele><time>2024-6-16T12:42:47Z</time></trkpt>
<trkpt lat="46.23134" lon="7.26591"><ele></ele><time>2024-6-16T12:42:50Z</time></trkpt>
<trkpt lat="46.23134" lon="7.26585"><ele></ele><time>2024-6-16T12:42:53Z</time></trkpt>
<trkpt lat="46.23134" lon="7.26583"><ele></ele><time>2024-6-16T12:42:56Z</time></trkpt>
<trkpt lat="46.23139" lon="7.26576"><ele></ele><time>2024-6-16T12:42:59Z</time></trkpt>
<trkpt lat="46.2314" lon="7.26576"><ele></ele><time>2024-6-16T12:43:2Z</time></trkpt>
<trkpt lat="46.23142" lon="7.26577"><ele></ele><time>2024-6-16T12:43:5Z</time></trkpt>
<trkpt lat="46.23144" lon="7.26582"><ele></ele><time>2024-6-16T12:43:8Z</time></trkpt>
<trkpt lat="46.23149" lon="7.26592"><ele></ele><time>2024-6-16T12:43:11Z</time></trkpt>
<trkpt lat="46.23149" lon="7.26593"><ele></ele><time>2024-6-16T12:43:14Z</time></trkpt>
<trkpt lat="46.23154" lon="7.26604"><ele></ele><time>2024-6-16T12:43:17Z</time></trkpt>
<trkpt lat="46.23157" lon="7.26611"><ele></ele><time>2024-6-16T12:43:20Z</time></trkpt>
<trkpt lat="46.23159" lon="7.26614"><ele></ele><time>2024-6-16T12:43:23Z</time></trkpt>
<trkpt lat="46.23162" lon="7.26619"><ele></ele><time>2024-6-16T12:43:26Z</time></trkpt>
<trkpt lat="46.23164" lon="7.26621"><ele></ele><time>2024-6-16T12:43:29Z</time></trkpt>
<trkpt lat="46.2317" lon="7.26627"><ele></ele><time>2024-6-16T12:43:32Z</time></trkpt>
<trkpt lat="46.23171" lon="7.26629"><ele></ele><time>2024-6-16T12:43:35Z</time></trkpt>
<trkpt lat="46.23174" lon="7.26634"><ele></ele><time>2024-6-16T12:43:38Z</time></trkpt>
<trkpt lat="46.23178" lon="7.26639"><ele></ele><time>2024-6-16T12:43:41Z</time></trkpt>
<trkpt lat="46.23183" lon="7.26644"><ele></ele><time>2024-6-16T12:43:44Z</time></trkpt>
<trkpt lat="46.23184" lon="7.26647"><ele></ele><time>2024-6-16T12:43:47Z</time></trkpt>
<trkpt lat="46.23185" lon="7.26649"><ele></ele><time>2024-6-16T12:43:50Z</time></trkpt>
<trkpt lat="46.23189" lon="7.26657"><ele></ele><time>2024-6-16T12:43:53Z</time></trkpt>
<trkpt lat="46.2319" lon="7.26659"><ele></ele><time>2024-6-16T12:43:56Z</time></trkpt>
<trkpt lat="46.23191" lon="7.26663"><ele></ele><time>2024-6-16T12:43:59Z</time></trkpt>
<trkpt lat="46.23196" lon="7.2667"><ele></ele><time>2024-6-16T12:44:2Z</time></trkpt>
<trkpt lat="46.23197" lon="7.26672"><ele></ele><time>2024-6-16T12:44:5Z</time></trkpt>
<trkpt lat="46.23203" lon="7.26681"><ele></ele><time>2024-6-16T12:44:8Z</time></trkpt>
<trkpt lat="46.23204" lon="7.26683"><ele></ele><time>2024-6-16T12:44:11Z</time></trkpt>
<trkpt lat="46.23209" lon="7.26691"><ele></ele><time>2024-6-16T12:44:14Z</time></trkpt>
<trkpt lat="46.23209" lon="7.26692"><ele></ele><time>2024-6-16T12:44:17Z</time></trkpt>
<trkpt lat="46.23216" lon="7.267"><ele></ele><time>2024-6-16T12:44:20Z</time></trkpt>
<trkpt lat="46.23222" lon="7.26707"><ele></ele><time>2024-6-16T12:44:23Z</time></trkpt>
<trkpt lat="46.23223" lon="7.26709"><ele></ele><time>2024-6-16T12:44:26Z</time></trkpt>
<trkpt lat="46.23225" lon="7.26713"><ele></ele><time>2024-6-16T12:44:29Z</time></trkpt>
<trkpt lat="46.23226" lon="7.26714"><ele></ele><time>2024-6-16T12:44:32Z</time></trkpt>
<trkpt lat="46.2323" lon="7.26715"><ele></ele><time>2024-6-16T12:44:35Z</time></trkpt>
<trkpt lat="46.2323" lon="7.26716"><ele></ele><time>2024-6-16T12:44:38Z</time></trkpt>
<trkpt lat="46.23236" lon="7.26717"><ele></ele><time>2024-6-16T12:44:41Z</time></trkpt>
<trkpt lat="46.23237" lon="7.26718"><ele></ele><time>2024-6-16T12:44:44Z</time></trkpt>
<trkpt lat="46.23241" lon="7.26721"><ele></ele><time>2024-6-16T12:44:47Z</time></trkpt>
<trkpt lat="46.23244" lon="7.26723"><ele></ele><time>2024-6-16T12:44:50Z</time></trkpt>
<trkpt lat="46.23245" lon="7.26724"><ele></ele><time>2024-6-16T12:44:53Z</time></trkpt>
<trkpt lat="46.2325" lon="7.26728"><ele></ele><time>2024-6-16T12:44:56Z</time></trkpt>
<trkpt lat="46.23252" lon="7.26729"><ele></ele><time>2024-6-16T12:44:59Z</time></trkpt>
<trkpt lat="46.23256" lon="7.26732"><ele></ele><time>2024-6-16T12:45:2Z</time></trkpt>
<trkpt lat="46.23259" lon="7.26734"><ele></ele><time>2024-6-16T12:45:5Z</time></trkpt>
<trkpt lat="46.2326" lon="7.26735"><ele></ele><time>2024-6-16T12:45:8Z</time></trkpt>
<trkpt lat="46.23265" lon="7.26739"><ele></ele><time>2024-6-16T12:45:11Z</time></trkpt>
<trkpt lat="46.2327" lon="7.26743"><ele></ele><time>2024-6-16T12:45:14Z</time></trkpt>
<trkpt lat="46.23271" lon="7.26744"><ele></ele><time>2024-6-16T12:45:17Z</time></trkpt>
<trkpt lat="46.23272" lon="7.26745"><ele></ele><time>2024-6-16T12:45:20Z</time></trkpt>
<trkpt lat="46.23274" lon="7.26746"><ele></ele><time>2024-6-16T12:45:23Z</time></trkpt>
<trkpt lat="46.23278" lon="7.2675"><ele></ele><time>2024-6-16T12:45:26Z</time></trkpt>
<trkpt lat="46.23279" lon="7.2675"><ele></ele><time>2024-6-16T12:45:29Z</time></trkpt>
<trkpt lat="46.23284" lon="7.26755"><ele></ele><time>2024-6-16T12:45:32Z</time></trkpt>
<trkpt lat="46.23287" lon="7.26762"><ele></ele><time>2024-6-16T12:45:35Z</time></trkpt>
<trkpt lat="46.2329" lon="7.26764"><ele></ele><time>2024-6-16T12:45:38Z</time></trkpt>
<trkpt lat="46.23293" lon="7.26768"><ele></ele><time>2024-6-16T12:45:41Z</time></trkpt>
<trkpt lat="46.23295" lon="7.26772"><ele></ele><time>2024-6-16T12:45:44Z</time></trkpt>
<trkpt lat="46.23296" lon="7.26773"><ele></ele><time>2024-6-16T12:45:47Z</time></trkpt>
<trkpt lat="46.23301" lon="7.26781"><ele></ele><time>2024-6-16T12:45:50Z</time></trkpt>
<trkpt lat="46.23302" lon="7.26782"><ele></ele><time>2024-6-16T12:45:53Z</time></trkpt>
<trkpt lat="46.23308" lon="7.26791"><ele></ele><time>2024-6-16T12:45:56Z</time></trkpt>
<trkpt lat="46.2331" lon="7.26793"><ele></ele><time>2024-6-16T12:45:59Z</time></trkpt>
<trkpt lat="46.23315" lon="7.26801"><ele></ele><time>2024-6-16T12:46:2Z</time></trkpt>
<trkpt lat="46.23317" lon="7.26803"><ele></ele><time>2024-6-16T12:46:5Z</time></trkpt>
<trkpt lat="46.23322" lon="7.26811"><ele></ele><time>2024-6-16T12:46:8Z</time></trkpt>
<trkpt lat="46.23323" lon="7.26812"><ele></ele><time>2024-6-16T12:46:11Z</time></trkpt>
<trkpt lat="46.23329" lon="7.26821"><ele></ele><time>2024-6-16T12:46:14Z</time></trkpt>
<trkpt lat="46.23334" lon="7.2683"><ele></ele><time>2024-6-16T12:46:17Z</time></trkpt>
<trkpt lat="46.23335" lon="7.26831"><ele></ele><time>2024-6-16T12:46:20Z</time></trkpt>
<trkpt lat="46.23339" lon="7.26838"><ele></ele><time>2024-6-16T12:46:23Z</time></trkpt>
<trkpt lat="46.23343" lon="7.26844"><ele></ele><time>2024-6-16T12:46:26Z</time></trkpt>
<trkpt lat="46.23344" lon="7.26847"><ele></ele><time>2024-6-16T12:46:29Z</time></trkpt>
<trkpt lat="46.23352" lon="7.26858"><ele></ele><time>2024-6-16T12:46:32Z</time></trkpt>
<trkpt lat="46.23358" lon="7.26866"><ele></ele><time>2024-6-16T12:46:35Z</time></trkpt>
<trkpt lat="46.23361" lon="7.26872"><ele></ele><time>2024-6-16T12:46:38Z</time></trkpt>
<trkpt lat="46.23368" lon="7.26881"><ele></ele><time>2024-6-16T12:46:41Z</time></trkpt>
<trkpt lat="46.23374" lon="7.26888"><ele></ele><time>2024-6-16T12:46:44Z</time></trkpt>
<trkpt lat="46.23382" lon="7.26896"><ele></ele><time>2024-6-16T12:46:47Z</time></trkpt>
<trkpt lat="46.23386" lon="7.269"><ele></ele><time>2024-6-16T12:46:50Z</time></trkpt>
<trkpt lat="46.23388" lon="7.26903"><ele></ele><time>2024-6-16T12:46:53Z</time></trkpt>
<trkpt lat="46.23399" lon="7.26914"><ele></ele><time>2024-6-16T12:46:56Z</time></trkpt>
<trkpt lat="46.23403" lon="7.26917"><ele></ele><time>2024-6-16T12:46:59Z</time></trkpt>
<trkpt lat="46.23413" lon="7.26928"><ele></ele><time>2024-6-16T12:47:2Z</time></trkpt>
<trkpt lat="46.23415" lon="7.26929"><ele></ele><time>2024-6-16T12:47:5Z</time></trkpt>
<trkpt lat="46.23424" lon="7.26936"><ele></ele><time>2024-6-16T12:47:8Z</time></trkpt>
<trkpt lat="46.23428" lon="7.2694"><ele></ele><time>2024-6-16T12:47:11Z</time></trkpt>
<trkpt lat="46.23437" lon="7.26946"><ele></ele><time>2024-6-16T12:47:14Z</time></trkpt>
<trkpt lat="46.23438" lon="7.26947"><ele></ele><time>2024-6-16T12:47:17Z</time></trkpt>
<trkpt lat="46.23439" lon="7.26947"><ele></ele><time>2024-6-16T12:47:20Z</time></trkpt>
<trkpt lat="46.23443" lon="7.26949"><ele></ele><time>2024-6-16T12:47:23Z</time></trkpt>
<trkpt lat="46.23444" lon="7.2695"><ele></ele><time>2024-6-16T12:47:26Z</time></trkpt>
<trkpt lat="46.23451" lon="7.2695"><ele></ele><time>2024-6-16T12:47:29Z</time></trkpt>
<trkpt lat="46.23456" lon="7.26953"><ele></ele><time>2024-6-16T12:47:32Z</time></trkpt>
<trkpt lat="46.23461" lon="7.26956"><ele></ele><time>2024-6-16T12:47:35Z</time></trkpt>
<trkpt lat="46.23471" lon="7.2696"><ele></ele><time>2024-6-16T12:47:38Z</time></trkpt>
<trkpt lat="46.23473" lon="7.2696"><ele></ele><time>2024-6-16T12:47:41Z</time></trkpt>
<trkpt lat="46.23484" lon="7.26967"><ele></ele><time>2024-6-16T12:47:44Z</time></trkpt>
<trkpt lat="46.23486" lon="7.26968"><ele></ele><time>2024-6-16T12:47:47Z</time></trkpt>
<trkpt lat="46.235" lon="7.26974"><ele></ele><time>2024-6-16T12:47:50Z</time></trkpt>
<trkpt lat="46.23514" lon="7.26979"><ele></ele><time>2024-6-16T12:47:53Z</time></trkpt>
<trkpt lat="46.23517" lon="7.26981"><ele></ele><time>2024-6-16T12:47:56Z</time></trkpt>
<trkpt lat="46.23529" lon="7.26987"><ele></ele><time>2024-6-16T12:47:59Z</time></trkpt>
<trkpt lat="46.23536" lon="7.26992"><ele></ele><time>2024-6-16T12:48:2Z</time></trkpt>
<trkpt lat="46.23539" lon="7.26997"><ele></ele><time>2024-6-16T12:48:5Z</time></trkpt>
<trkpt lat="46.23549" lon="7.27008"><ele></ele><time>2024-6-16T12:48:8Z</time></trkpt>
<trkpt lat="46.23551" lon="7.27009"><ele></ele><time>2024-6-16T12:48:11Z</time></trkpt>
<trkpt lat="46.23562" lon="7.2702"><ele></ele><time>2024-6-16T12:48:14Z</time></trkpt>
<trkpt lat="46.23564" lon="7.27021"><ele></ele><time>2024-6-16T12:48:17Z</time></trkpt>
<trkpt lat="46.23577" lon="7.27032"><ele></ele><time>2024-6-16T12:48:20Z</time></trkpt>
<trkpt lat="46.23583" lon="7.27039"><ele></ele><time>2024-6-16T12:48:23Z</time></trkpt>
<trkpt lat="46.23585" lon="7.27042"><ele></ele><time>2024-6-16T12:48:26Z</time></trkpt>
<trkpt lat="46.23591" lon="7.27046"><ele></ele><time>2024-6-16T12:48:29Z</time></trkpt>
<trkpt lat="46.23595" lon="7.2705"><ele></ele><time>2024-6-16T12:48:32Z</time></trkpt>
<trkpt lat="46.23604" lon="7.27067"><ele></ele><time>2024-6-16T12:48:35Z</time></trkpt>
<trkpt lat="46.23606" lon="7.27071"><ele></ele><time>2024-6-16T12:48:38Z</time></trkpt>
<trkpt lat="46.23611" lon="7.27081"><ele></ele><time>2024-6-16T12:48:41Z</time></trkpt>
<trkpt lat="46.23611" lon="7.27083"><ele></ele><time>2024-6-16T12:48:44Z</time></trkpt>
<trkpt lat="46.23615" lon="7.27092"><ele></ele><time>2024-6-16T12:48:47Z</time></trkpt>
<trkpt lat="46.23617" lon="7.27095"><ele></ele><time>2024-6-16T12:48:50Z</time></trkpt>
<trkpt lat="46.23623" lon="7.27103"><ele></ele><time>2024-6-16T12:48:53Z</time></trkpt>
<trkpt lat="46.23626" lon="7.27106"><ele></ele><time>2024-6-16T12:48:56Z</time></trkpt>
<trkpt lat="46.23632" lon="7.27113"><ele></ele><time>2024-6-16T12:48:59Z</time></trkpt>
<trkpt lat="46.23634" lon="7.27115"><ele></ele><time>2024-6-16T12:49:2Z</time></trkpt>
<trkpt lat="46.23639" lon="7.27121"><ele></ele><time>2024-6-16T12:49:5Z</time></trkpt>
<trkpt lat="46.23641" lon="7.27123"><ele></ele><time>2024-6-16T12:49:8Z</time></trkpt>
<trkpt lat="46.23643" lon="7.27125"><ele></ele><time>2024-6-16T12:49:11Z</time></trkpt>
<trkpt lat="46.23645" lon="7.27126"><ele></ele><time>2024-6-16T12:49:14Z</time></trkpt>
<trkpt lat="46.23646" lon="7.27126"><ele></ele><time>2024-6-16T12:49:17Z</time></trkpt>
<trkpt lat="46.23649" lon="7.27121"><ele></ele><time>2024-6-16T12:49:20Z</time></trkpt>
<trkpt lat="46.23649" lon="7.27108"><ele></ele><time>2024-6-16T12:49:23Z</time></trkpt>
<trkpt lat="46.23653" lon="7.27107"><ele></ele><time>2024-6-16T12:49:26Z</time></trkpt>
<trkpt lat="46.23655" lon="7.27107"><ele></ele><time>2024-6-16T12:49:29Z</time></trkpt>
<trkpt lat="46.23655" lon="7.27106"><ele></ele><time>2024-6-16T12:49:32Z</time></trkpt>
<trkpt lat="46.23655" lon="7.27107"><ele></ele><time>2024-6-16T12:49:35Z</time></trkpt>
<trkpt lat="46.23656" lon="7.27107"><ele></ele><time>2024-6-16T12:49:38Z</time></trkpt>
<trkpt lat="46.23657" lon="7.27107"><ele></ele><time>2024-6-16T12:49:41Z</time></trkpt>
<trkpt lat="46.23659" lon="7.27109"><ele></ele><time>2024-6-16T12:49:44Z</time></trkpt>
<trkpt lat="46.23661" lon="7.27108"><ele></ele><time>2024-6-16T12:49:47Z</time></trkpt>
<trkpt lat="46.23661" lon="7.27108"><ele></ele><time>2024-6-16T12:49:50Z</time></trkpt>
<trkpt lat="46.23661" lon="7.2711"><ele></ele><time>2024-6-16T12:49:53Z</time></trkpt>
<trkpt lat="46.23661" lon="7.27109"><ele></ele><time>2024-6-16T12:49:56Z</time></trkpt>
<trkpt lat="46.23662" lon="7.27106"><ele></ele><time>2024-6-16T12:49:59Z</time></trkpt>
<trkpt lat="46.23667" lon="7.27099"><ele></ele><time>2024-6-16T12:50:2Z</time></trkpt>
<trkpt lat="46.23673" lon="7.27097"><ele></ele><time>2024-6-16T12:50:5Z</time></trkpt>
<trkpt lat="46.23679" lon="7.27091"><ele></ele><time>2024-6-16T12:50:8Z</time></trkpt>
<trkpt lat="46.2368" lon="7.2709"><ele></ele><time>2024-6-16T12:50:11Z</time></trkpt>
<trkpt lat="46.2368" lon="7.27088"><ele></ele><time>2024-6-16T12:50:14Z</time></trkpt>
<trkpt lat="46.23684" lon="7.27082"><ele></ele><time>2024-6-16T12:50:17Z</time></trkpt>
<trkpt lat="46.23685" lon="7.27081"><ele></ele><time>2024-6-16T12:50:20Z</time></trkpt>
<trkpt lat="46.23686" lon="7.27075"><ele></ele><time>2024-6-16T12:50:23Z</time></trkpt>
<trkpt lat="46.23686" lon="7.27074"><ele></ele><time>2024-6-16T12:50:26Z</time></trkpt>
<trkpt lat="46.23687" lon="7.27071"><ele></ele><time>2024-6-16T12:50:29Z</time></trkpt>
<trkpt lat="46.23689" lon="7.27066"><ele></ele><time>2024-6-16T12:50:32Z</time></trkpt>
<trkpt lat="46.23689" lon="7.27064"><ele></ele><time>2024-6-16T12:50:35Z</time></trkpt>
<trkpt lat="46.23689" lon="7.27058"><ele></ele><time>2024-6-16T12:50:38Z</time></trkpt>
<trkpt lat="46.23688" lon="7.27049"><ele></ele><time>2024-6-16T12:50:41Z</time></trkpt>
<trkpt lat="46.23687" lon="7.27043"><ele></ele><time>2024-6-16T12:50:44Z</time></trkpt>
<trkpt lat="46.23686" lon="7.27038"><ele></ele><time>2024-6-16T12:50:47Z</time></trkpt>
<trkpt lat="46.23683" lon="7.27033"><ele></ele><time>2024-6-16T12:50:50Z</time></trkpt>
<trkpt lat="46.23682" lon="7.2703"><ele></ele><time>2024-6-16T12:50:53Z</time></trkpt>
<trkpt lat="46.2368" lon="7.27023"><ele></ele><time>2024-6-16T12:50:56Z</time></trkpt>
<trkpt lat="46.23679" lon="7.27021"><ele></ele><time>2024-6-16T12:50:59Z</time></trkpt>
<trkpt lat="46.23677" lon="7.27016"><ele></ele><time>2024-6-16T12:51:2Z</time></trkpt>
<trkpt lat="46.23672" lon="7.27009"><ele></ele><time>2024-6-16T12:51:5Z</time></trkpt>
<trkpt lat="46.23671" lon="7.27007"><ele></ele><time>2024-6-16T12:51:8Z</time></trkpt>
<trkpt lat="46.2367" lon="7.27006"><ele></ele><time>2024-6-16T12:51:11Z</time></trkpt>
<trkpt lat="46.23669" lon="7.27004"><ele></ele><time>2024-6-16T12:51:14Z</time></trkpt>
<trkpt lat="46.23667" lon="7.26998"><ele></ele><time>2024-6-16T12:51:17Z</time></trkpt>
<trkpt lat="46.23665" lon="7.26994"><ele></ele><time>2024-6-16T12:51:20Z</time></trkpt>
<trkpt lat="46.23664" lon="7.26992"><ele></ele><time>2024-6-16T12:51:23Z</time></trkpt>
<trkpt lat="46.23664" lon="7.2699"><ele></ele><time>2024-6-16T12:51:26Z</time></trkpt>
<trkpt lat="46.23663" lon="7.26985"><ele></ele><time>2024-6-16T12:51:29Z</time></trkpt>
<trkpt lat="46.23663" lon="7.26983"><ele></ele><time>2024-6-16T12:51:32Z</time></trkpt>
<trkpt lat="46.23662" lon="7.26979"><ele></ele><time>2024-6-16T12:51:35Z</time></trkpt>
<trkpt lat="46.23659" lon="7.26974"><ele></ele><time>2024-6-16T12:51:38Z</time></trkpt>
<trkpt lat="46.23656" lon="7.26971"><ele></ele><time>2024-6-16T12:51:41Z</time></trkpt>
<trkpt lat="46.23653" lon="7.26965"><ele></ele><time>2024-6-16T12:51:44Z</time></trkpt>
<trkpt lat="46.23651" lon="7.26963"><ele></ele><time>2024-6-16T12:51:47Z</time></trkpt>
<trkpt lat="46.23648" lon="7.26957"><ele></ele><time>2024-6-16T12:51:50Z</time></trkpt>
<trkpt lat="46.23644" lon="7.26952"><ele></ele><time>2024-6-16T12:51:53Z</time></trkpt>
<trkpt lat="46.23642" lon="7.26949"><ele></ele><time>2024-6-16T12:51:56Z</time></trkpt>
<trkpt lat="46.23638" lon="7.26945"><ele></ele><time>2024-6-16T12:51:59Z</time></trkpt>
<trkpt lat="46.23635" lon="7.26939"><ele></ele><time>2024-6-16T12:52:2Z</time></trkpt>
<trkpt lat="46.23634" lon="7.26937"><ele></ele><time>2024-6-16T12:52:5Z</time></trkpt>
<trkpt lat="46.2363" lon="7.26932"><ele></ele><time>2024-6-16T12:52:8Z</time></trkpt>
<trkpt lat="46.23629" lon="7.26932"><ele></ele><time>2024-6-16T12:52:11Z</time></trkpt>
<trkpt lat="46.23626" lon="7.26926"><ele></ele><time>2024-6-16T12:52:14Z</time></trkpt>
<trkpt lat="46.23625" lon="7.26924"><ele></ele><time>2024-6-16T12:52:17Z</time></trkpt>
<trkpt lat="46.23621" lon="7.26922"><ele></ele><time>2024-6-16T12:52:20Z</time></trkpt>
<trkpt lat="46.23616" lon="7.26921"><ele></ele><time>2024-6-16T12:52:23Z</time></trkpt>
<trkpt lat="46.23616" lon="7.2692"><ele></ele><time>2024-6-16T12:52:26Z</time></trkpt>
<trkpt lat="46.23615" lon="7.26919"><ele></ele><time>2024-6-16T12:52:29Z</time></trkpt>
<trkpt lat="46.23613" lon="7.26917"><ele></ele><time>2024-6-16T12:52:32Z</time></trkpt>
<trkpt lat="46.23611" lon="7.26914"><ele></ele><time>2024-6-16T12:52:35Z</time></trkpt>
<trkpt lat="46.23614" lon="7.26913"><ele></ele><time>2024-6-16T12:52:38Z</time></trkpt>
<trkpt lat="46.23617" lon="7.26909"><ele></ele><time>2024-6-16T12:52:41Z</time></trkpt>
<trkpt lat="46.23617" lon="7.26908"><ele></ele><time>2024-6-16T12:52:44Z</time></trkpt>
<trkpt lat="46.23615" lon="7.26904"><ele></ele><time>2024-6-16T12:52:47Z</time></trkpt>
<trkpt lat="46.23612" lon="7.26901"><ele></ele><time>2024-6-16T12:52:50Z</time></trkpt>
<trkpt lat="46.23609" lon="7.26898"><ele></ele><time>2024-6-16T12:52:53Z</time></trkpt>
<trkpt lat="46.23607" lon="7.26896"><ele></ele><time>2024-6-16T12:52:56Z</time></trkpt>
<trkpt lat="46.23604" lon="7.26894"><ele></ele><time>2024-6-16T12:52:59Z</time></trkpt>
<trkpt lat="46.23603" lon="7.2689"><ele></ele><time>2024-6-16T12:53:2Z</time></trkpt>
<trkpt lat="46.23602" lon="7.26889"><ele></ele><time>2024-6-16T12:53:5Z</time></trkpt>
<trkpt lat="46.236" lon="7.26885"><ele></ele><time>2024-6-16T12:53:8Z</time></trkpt>
<trkpt lat="46.23599" lon="7.26882"><ele></ele><time>2024-6-16T12:53:11Z</time></trkpt>
<trkpt lat="46.23599" lon="7.2688"><ele></ele><time>2024-6-16T12:53:14Z</time></trkpt>
<trkpt lat="46.23596" lon="7.26874"><ele></ele><time>2024-6-16T12:53:17Z</time></trkpt>
<trkpt lat="46.23594" lon="7.2687"><ele></ele><time>2024-6-16T12:53:20Z</time></trkpt>
<trkpt lat="46.23592" lon="7.26867"><ele></ele><time>2024-6-16T12:53:23Z</time></trkpt>
<trkpt lat="46.2359" lon="7.26861"><ele></ele><time>2024-6-16T12:53:26Z</time></trkpt>
<trkpt lat="46.23588" lon="7.26858"><ele></ele><time>2024-6-16T12:53:29Z</time></trkpt>
<trkpt lat="46.23586" lon="7.26854"><ele></ele><time>2024-6-16T12:53:32Z</time></trkpt>
<trkpt lat="46.23584" lon="7.26848"><ele></ele><time>2024-6-16T12:53:35Z</time></trkpt>
<trkpt lat="46.23583" lon="7.26846"><ele></ele><time>2024-6-16T12:53:38Z</time></trkpt>
<trkpt lat="46.2358" lon="7.2684"><ele></ele><time>2024-6-16T12:53:41Z</time></trkpt>
<trkpt lat="46.23579" lon="7.26837"><ele></ele><time>2024-6-16T12:53:44Z</time></trkpt>
<trkpt lat="46.23576" lon="7.26829"><ele></ele><time>2024-6-16T12:53:47Z</time></trkpt>
<trkpt lat="46.23574" lon="7.26827"><ele></ele><time>2024-6-16T12:53:50Z</time></trkpt>
<trkpt lat="46.2357" lon="7.26816"><ele></ele><time>2024-6-16T12:53:53Z</time></trkpt>
<trkpt lat="46.23567" lon="7.26807"><ele></ele><time>2024-6-16T12:53:56Z</time></trkpt>
<trkpt lat="46.23566" lon="7.26802"><ele></ele><time>2024-6-16T12:53:59Z</time></trkpt>
<trkpt lat="46.23565" lon="7.26795"><ele></ele><time>2024-6-16T12:54:2Z</time></trkpt>
<trkpt lat="46.23563" lon="7.26795"><ele></ele><time>2024-6-16T12:54:5Z</time></trkpt>
<trkpt lat="46.23561" lon="7.26793"><ele></ele><time>2024-6-16T12:54:8Z</time></trkpt>
<trkpt lat="46.23559" lon="7.26785"><ele></ele><time>2024-6-16T12:54:11Z</time></trkpt>
<trkpt lat="46.23559" lon="7.26784"><ele></ele><time>2024-6-16T12:54:14Z</time></trkpt>
<trkpt lat="46.23557" lon="7.26778"><ele></ele><time>2024-6-16T12:54:17Z</time></trkpt>
<trkpt lat="46.23553" lon="7.26769"><ele></ele><time>2024-6-16T12:54:20Z</time></trkpt>
<trkpt lat="46.23552" lon="7.26768"><ele></ele><time>2024-6-16T12:54:23Z</time></trkpt>
<trkpt lat="46.2355" lon="7.26763"><ele></ele><time>2024-6-16T12:54:26Z</time></trkpt>
<trkpt lat="46.23548" lon="7.26759"><ele></ele><time>2024-6-16T12:54:29Z</time></trkpt>
<trkpt lat="46.23547" lon="7.26757"><ele></ele><time>2024-6-16T12:54:32Z</time></trkpt>
<trkpt lat="46.23543" lon="7.2675"><ele></ele><time>2024-6-16T12:54:35Z</time></trkpt>
<trkpt lat="46.23542" lon="7.26748"><ele></ele><time>2024-6-16T12:54:38Z</time></trkpt>
<trkpt lat="46.2354" lon="7.26741"><ele></ele><time>2024-6-16T12:54:41Z</time></trkpt>
<trkpt lat="46.23539" lon="7.2674"><ele></ele><time>2024-6-16T12:54:44Z</time></trkpt>
<trkpt lat="46.23537" lon="7.26736"><ele></ele><time>2024-6-16T12:54:47Z</time></trkpt>
<trkpt lat="46.23536" lon="7.26734"><ele></ele><time>2024-6-16T12:54:50Z</time></trkpt>
<trkpt lat="46.23534" lon="7.2673"><ele></ele><time>2024-6-16T12:54:53Z</time></trkpt>
<trkpt lat="46.23533" lon="7.26727"><ele></ele><time>2024-6-16T12:54:56Z</time></trkpt>
<trkpt lat="46.2353" lon="7.2672"><ele></ele><time>2024-6-16T12:54:59Z</time></trkpt>
<trkpt lat="46.23526" lon="7.26713"><ele></ele><time>2024-6-16T12:55:2Z</time></trkpt>
<trkpt lat="46.23525" lon="7.26708"><ele></ele><time>2024-6-16T12:55:5Z</time></trkpt>
<trkpt lat="46.23523" lon="7.26704"><ele></ele><time>2024-6-16T12:55:8Z</time></trkpt>
<trkpt lat="46.23521" lon="7.26698"><ele></ele><time>2024-6-16T12:55:11Z</time></trkpt>
<trkpt lat="46.23519" lon="7.26695"><ele></ele><time>2024-6-16T12:55:14Z</time></trkpt>
<trkpt lat="46.23516" lon="7.2669"><ele></ele><time>2024-6-16T12:55:17Z</time></trkpt>
<trkpt lat="46.23514" lon="7.26686"><ele></ele><time>2024-6-16T12:55:20Z</time></trkpt>
<trkpt lat="46.23511" lon="7.2668"><ele></ele><time>2024-6-16T12:55:23Z</time></trkpt>
<trkpt lat="46.2351" lon="7.26679"><ele></ele><time>2024-6-16T12:55:26Z</time></trkpt>
<trkpt lat="46.23504" lon="7.26672"><ele></ele><time>2024-6-16T12:55:29Z</time></trkpt>
<trkpt lat="46.23504" lon="7.2667"><ele></ele><time>2024-6-16T12:55:32Z</time></trkpt>
<trkpt lat="46.23502" lon="7.26668"><ele></ele><time>2024-6-16T12:55:35Z</time></trkpt>
<trkpt lat="46.23501" lon="7.26666"><ele></ele><time>2024-6-16T12:55:38Z</time></trkpt>
<trkpt lat="46.23498" lon="7.26662"><ele></ele><time>2024-6-16T12:55:41Z</time></trkpt>
<trkpt lat="46.23497" lon="7.2666"><ele></ele><time>2024-6-16T12:55:44Z</time></trkpt>
<trkpt lat="46.23493" lon="7.26654"><ele></ele><time>2024-6-16T12:55:47Z</time></trkpt>
<trkpt lat="46.23491" lon="7.26652"><ele></ele><time>2024-6-16T12:55:50Z</time></trkpt>
<trkpt lat="46.23489" lon="7.26648"><ele></ele><time>2024-6-16T12:55:53Z</time></trkpt>
<trkpt lat="46.23486" lon="7.26641"><ele></ele><time>2024-6-16T12:55:56Z</time></trkpt>
<trkpt lat="46.23485" lon="7.2664"><ele></ele><time>2024-6-16T12:55:59Z</time></trkpt>
<trkpt lat="46.2348" lon="7.26634"><ele></ele><time>2024-6-16T12:56:2Z</time></trkpt>
<trkpt lat="46.2348" lon="7.26633"><ele></ele><time>2024-6-16T12:56:5Z</time></trkpt>
<trkpt lat="46.23475" lon="7.26626"><ele></ele><time>2024-6-16T12:56:8Z</time></trkpt>
<trkpt lat="46.23474" lon="7.26624"><ele></ele><time>2024-6-16T12:56:11Z</time></trkpt>
<trkpt lat="46.23472" lon="7.2662"><ele></ele><time>2024-6-16T12:56:14Z</time></trkpt>
<trkpt lat="46.23469" lon="7.26614"><ele></ele><time>2024-6-16T12:56:17Z</time></trkpt>
<trkpt lat="46.23467" lon="7.26611"><ele></ele><time>2024-6-16T12:56:20Z</time></trkpt>
<trkpt lat="46.23464" lon="7.26605"><ele></ele><time>2024-6-16T12:56:23Z</time></trkpt>
<trkpt lat="46.23462" lon="7.26601"><ele></ele><time>2024-6-16T12:56:26Z</time></trkpt>
<trkpt lat="46.23459" lon="7.26592"><ele></ele><time>2024-6-16T12:56:29Z</time></trkpt>
<trkpt lat="46.23458" lon="7.2659"><ele></ele><time>2024-6-16T12:56:32Z</time></trkpt>
<trkpt lat="46.23456" lon="7.26586"><ele></ele><time>2024-6-16T12:56:35Z</time></trkpt>
<trkpt lat="46.23455" lon="7.26585"><ele></ele><time>2024-6-16T12:56:38Z</time></trkpt>
<trkpt lat="46.23453" lon="7.26576"><ele></ele><time>2024-6-16T12:56:41Z</time></trkpt>
<trkpt lat="46.23452" lon="7.26575"><ele></ele><time>2024-6-16T12:56:44Z</time></trkpt>
<trkpt lat="46.23449" lon="7.26568"><ele></ele><time>2024-6-16T12:56:47Z</time></trkpt>
<trkpt lat="46.23448" lon="7.26562"><ele></ele><time>2024-6-16T12:56:50Z</time></trkpt>
<trkpt lat="46.23448" lon="7.2656"><ele></ele><time>2024-6-16T12:56:53Z</time></trkpt>
<trkpt lat="46.23445" lon="7.26552"><ele></ele><time>2024-6-16T12:56:56Z</time></trkpt>
<trkpt lat="46.23444" lon="7.26548"><ele></ele><time>2024-6-16T12:56:59Z</time></trkpt>
<trkpt lat="46.23442" lon="7.26543"><ele></ele><time>2024-6-16T12:57:2Z</time></trkpt>
<trkpt lat="46.23441" lon="7.2654"><ele></ele><time>2024-6-16T12:57:5Z</time></trkpt>
<trkpt lat="46.2344" lon="7.26535"><ele></ele><time>2024-6-16T12:57:8Z</time></trkpt>
<trkpt lat="46.23439" lon="7.26529"><ele></ele><time>2024-6-16T12:57:11Z</time></trkpt>
<trkpt lat="46.23438" lon="7.26528"><ele></ele><time>2024-6-16T12:57:14Z</time></trkpt>
<trkpt lat="46.23436" lon="7.26521"><ele></ele><time>2024-6-16T12:57:17Z</time></trkpt>
<trkpt lat="46.23434" lon="7.26517"><ele></ele><time>2024-6-16T12:57:20Z</time></trkpt>
<trkpt lat="46.23432" lon="7.26511"><ele></ele><time>2024-6-16T12:57:23Z</time></trkpt>
<trkpt lat="46.23429" lon="7.26506"><ele></ele><time>2024-6-16T12:57:26Z</time></trkpt>
<trkpt lat="46.23428" lon="7.26503"><ele></ele><time>2024-6-16T12:57:29Z</time></trkpt>
<trkpt lat="46.23426" lon="7.265"><ele></ele><time>2024-6-16T12:57:32Z</time></trkpt>
<trkpt lat="46.23424" lon="7.26493"><ele></ele><time>2024-6-16T12:57:35Z</time></trkpt>
<trkpt lat="46.23419" lon="7.26484"><ele></ele><time>2024-6-16T12:57:38Z</time></trkpt>
<trkpt lat="46.23417" lon="7.2648"><ele></ele><time>2024-6-16T12:57:41Z</time></trkpt>
<trkpt lat="46.23411" lon="7.26472"><ele></ele><time>2024-6-16T12:57:44Z</time></trkpt>
<trkpt lat="46.2341" lon="7.26471"><ele></ele><time>2024-6-16T12:57:47Z</time></trkpt>
<trkpt lat="46.23404" lon="7.26463"><ele></ele><time>2024-6-16T12:57:50Z</time></trkpt>
<trkpt lat="46.23402" lon="7.26459"><ele></ele><time>2024-6-16T12:57:53Z</time></trkpt>
<trkpt lat="46.23399" lon="7.26451"><ele></ele><time>2024-6-16T12:57:56Z</time></trkpt>
<trkpt lat="46.23397" lon="7.2645"><ele></ele><time>2024-6-16T12:57:59Z</time></trkpt>
<trkpt lat="46.23391" lon="7.26443"><ele></ele><time>2024-6-16T12:58:2Z</time></trkpt>
<trkpt lat="46.23386" lon="7.26433"><ele></ele><time>2024-6-16T12:58:5Z</time></trkpt>
<trkpt lat="46.23381" lon="7.26425"><ele></ele><time>2024-6-16T12:58:8Z</time></trkpt>
<trkpt lat="46.2338" lon="7.26424"><ele></ele><time>2024-6-16T12:58:11Z</time></trkpt>
<trkpt lat="46.23376" lon="7.26417"><ele></ele><time>2024-6-16T12:58:14Z</time></trkpt>
<trkpt lat="46.23375" lon="7.26416"><ele></ele><time>2024-6-16T12:58:17Z</time></trkpt>
<trkpt lat="46.2337" lon="7.26412"><ele></ele><time>2024-6-16T12:58:20Z</time></trkpt>
<trkpt lat="46.23367" lon="7.26409"><ele></ele><time>2024-6-16T12:58:23Z</time></trkpt>
<trkpt lat="46.23362" lon="7.26404"><ele></ele><time>2024-6-16T12:58:26Z</time></trkpt>
<trkpt lat="46.2336" lon="7.26403"><ele></ele><time>2024-6-16T12:58:29Z</time></trkpt>
<trkpt lat="46.23356" lon="7.264"><ele></ele><time>2024-6-16T12:58:32Z</time></trkpt>
<trkpt lat="46.23353" lon="7.26397"><ele></ele><time>2024-6-16T12:58:35Z</time></trkpt>
<trkpt lat="46.23351" lon="7.26395"><ele></ele><time>2024-6-16T12:58:38Z</time></trkpt>
<trkpt lat="46.23345" lon="7.2639"><ele></ele><time>2024-6-16T12:58:41Z</time></trkpt>
<trkpt lat="46.2334" lon="7.26384"><ele></ele><time>2024-6-16T12:58:44Z</time></trkpt>
<trkpt lat="46.23337" lon="7.26383"><ele></ele><time>2024-6-16T12:58:47Z</time></trkpt>
<trkpt lat="46.23333" lon="7.26381"><ele></ele><time>2024-6-16T12:58:50Z</time></trkpt>
<trkpt lat="46.2333" lon="7.26376"><ele></ele><time>2024-6-16T12:58:53Z</time></trkpt>
<trkpt lat="46.23326" lon="7.26373"><ele></ele><time>2024-6-16T12:58:56Z</time></trkpt>
<trkpt lat="46.23325" lon="7.26371"><ele></ele><time>2024-6-16T12:58:59Z</time></trkpt>
<trkpt lat="46.23324" lon="7.26369"><ele></ele><time>2024-6-16T12:59:2Z</time></trkpt>
<trkpt lat="46.2332" lon="7.26367"><ele></ele><time>2024-6-16T12:59:5Z</time></trkpt>
<trkpt lat="46.23318" lon="7.26366"><ele></ele><time>2024-6-16T12:59:8Z</time></trkpt>
<trkpt lat="46.23314" lon="7.26363"><ele></ele><time>2024-6-16T12:59:11Z</time></trkpt>
<trkpt lat="46.23311" lon="7.2636"><ele></ele><time>2024-6-16T12:59:14Z</time></trkpt>
<trkpt lat="46.2331" lon="7.26359"><ele></ele><time>2024-6-16T12:59:17Z</time></trkpt>
<trkpt lat="46.23308" lon="7.26356"><ele></ele><time>2024-6-16T12:59:20Z</time></trkpt>
<trkpt lat="46.23306" lon="7.26355"><ele></ele><time>2024-6-16T12:59:23Z</time></trkpt>
<trkpt lat="46.23301" lon="7.26349"><ele></ele><time>2024-6-16T12:59:26Z</time></trkpt>
<trkpt lat="46.23301" lon="7.26348"><ele></ele><time>2024-6-16T12:59:29Z</time></trkpt>
<trkpt lat="46.23296" lon="7.26341"><ele></ele><time>2024-6-16T12:59:32Z</time></trkpt>
<trkpt lat="46.23295" lon="7.2634"><ele></ele><time>2024-6-16T12:59:35Z</time></trkpt>
<trkpt lat="46.2329" lon="7.26331"><ele></ele><time>2024-6-16T12:59:38Z</time></trkpt>
<trkpt lat="46.23289" lon="7.2633"><ele></ele><time>2024-6-16T12:59:41Z</time></trkpt>
<trkpt lat="46.23285" lon="7.26322"><ele></ele><time>2024-6-16T12:59:44Z</time></trkpt>
<trkpt lat="46.2328" lon="7.26314"><ele></ele><time>2024-6-16T12:59:47Z</time></trkpt>
<trkpt lat="46.23279" lon="7.26312"><ele></ele><time>2024-6-16T12:59:50Z</time></trkpt>
<trkpt lat="46.23275" lon="7.26306"><ele></ele><time>2024-6-16T12:59:53Z</time></trkpt>
<trkpt lat="46.23274" lon="7.26304"><ele></ele><time>2024-6-16T12:59:56Z</time></trkpt>
<trkpt lat="46.23271" lon="7.26297"><ele></ele><time>2024-6-16T12:59:59Z</time></trkpt>
<trkpt lat="46.23269" lon="7.26293"><ele></ele><time>2024-6-16T13:0:2Z</time></trkpt>
<trkpt lat="46.23268" lon="7.26291"><ele></ele><time>2024-6-16T13:0:5Z</time></trkpt>
<trkpt lat="46.23267" lon="7.2629"><ele></ele><time>2024-6-16T13:0:8Z</time></trkpt>
<trkpt lat="46.23263" lon="7.26282"><ele></ele><time>2024-6-16T13:0:11Z</time></trkpt>
<trkpt lat="46.23262" lon="7.26281"><ele></ele><time>2024-6-16T13:0:14Z</time></trkpt>
<trkpt lat="46.23259" lon="7.26275"><ele></ele><time>2024-6-16T13:0:17Z</time></trkpt>
<trkpt lat="46.23256" lon="7.2627"><ele></ele><time>2024-6-16T13:0:20Z</time></trkpt>
<trkpt lat="46.23254" lon="7.26268"><ele></ele><time>2024-6-16T13:0:23Z</time></trkpt>
<trkpt lat="46.23251" lon="7.26265"><ele></ele><time>2024-6-16T13:0:26Z</time></trkpt>
<trkpt lat="46.23249" lon="7.26261"><ele></ele><time>2024-6-16T13:0:29Z</time></trkpt>
<trkpt lat="46.23246" lon="7.26257"><ele></ele><time>2024-6-16T13:0:32Z</time></trkpt>
<trkpt lat="46.23242" lon="7.26254"><ele></ele><time>2024-6-16T13:0:35Z</time></trkpt>
<trkpt lat="46.23237" lon="7.26247"><ele></ele><time>2024-6-16T13:0:38Z</time></trkpt>
<trkpt lat="46.23235" lon="7.26245"><ele></ele><time>2024-6-16T13:0:41Z</time></trkpt>
<trkpt lat="46.23229" lon="7.26237"><ele></ele><time>2024-6-16T13:0:44Z</time></trkpt>
<trkpt lat="46.23228" lon="7.26236"><ele></ele><time>2024-6-16T13:0:47Z</time></trkpt>
<trkpt lat="46.23222" lon="7.2623"><ele></ele><time>2024-6-16T13:0:50Z</time></trkpt>
<trkpt lat="46.23221" lon="7.26228"><ele></ele><time>2024-6-16T13:0:53Z</time></trkpt>
<trkpt lat="46.23217" lon="7.26223"><ele></ele><time>2024-6-16T13:0:56Z</time></trkpt>
<trkpt lat="46.23215" lon="7.26219"><ele></ele><time>2024-6-16T13:0:59Z</time></trkpt>
<trkpt lat="46.23211" lon="7.26215"><ele></ele><time>2024-6-16T13:1:2Z</time></trkpt>
<trkpt lat="46.2321" lon="7.26213"><ele></ele><time>2024-6-16T13:1:5Z</time></trkpt>
<trkpt lat="46.23207" lon="7.2621"><ele></ele><time>2024-6-16T13:1:8Z</time></trkpt>
<trkpt lat="46.23205" lon="7.26209"><ele></ele><time>2024-6-16T13:1:11Z</time></trkpt>
<trkpt lat="46.23204" lon="7.26207"><ele></ele><time>2024-6-16T13:1:14Z</time></trkpt>
<trkpt lat="46.232" lon="7.26202"><ele></ele><time>2024-6-16T13:1:17Z</time></trkpt>
<trkpt lat="46.23198" lon="7.26201"><ele></ele><time>2024-6-16T13:1:20Z</time></trkpt>
<trkpt lat="46.23195" lon="7.26195"><ele></ele><time>2024-6-16T13:1:23Z</time></trkpt>
<trkpt lat="46.23194" lon="7.26193"><ele></ele><time>2024-6-16T13:1:26Z</time></trkpt>
<trkpt lat="46.23192" lon="7.26185"><ele></ele><time>2024-6-16T13:1:29Z</time></trkpt>
<trkpt lat="46.23191" lon="7.26178"><ele></ele><time>2024-6-16T13:1:32Z</time></trkpt>
<trkpt lat="46.2319" lon="7.26176"><ele></ele><time>2024-6-16T13:1:35Z</time></trkpt>
<trkpt lat="46.23187" lon="7.26169"><ele></ele><time>2024-6-16T13:1:38Z</time></trkpt>
<trkpt lat="46.23185" lon="7.26165"><ele></ele><time>2024-6-16T13:1:41Z</time></trkpt>
<trkpt lat="46.23182" lon="7.26159"><ele></ele><time>2024-6-16T13:1:44Z</time></trkpt>
<trkpt lat="46.23178" lon="7.26152"><ele></ele><time>2024-6-16T13:1:47Z</time></trkpt>
<trkpt lat="46.23175" lon="7.26147"><ele></ele><time>2024-6-16T13:1:50Z</time></trkpt>
<trkpt lat="46.23174" lon="7.26145"><ele></ele><time>2024-6-16T13:1:53Z</time></trkpt>
<trkpt lat="46.23171" lon="7.26141"><ele></ele><time>2024-6-16T13:1:56Z</time></trkpt>
<trkpt lat="46.2317" lon="7.26138"><ele></ele><time>2024-6-16T13:1:59Z</time></trkpt>
<trkpt lat="46.23168" lon="7.26133"><ele></ele><time>2024-6-16T13:2:2Z</time></trkpt>
<trkpt lat="46.23167" lon="7.26131"><ele></ele><time>2024-6-16T13:2:5Z</time></trkpt>
<trkpt lat="46.23164" lon="7.26126"><ele></ele><time>2024-6-16T13:2:8Z</time></trkpt>
<trkpt lat="46.23163" lon="7.26125"><ele></ele><time>2024-6-16T13:2:11Z</time></trkpt>
<trkpt lat="46.2316" lon="7.26119"><ele></ele><time>2024-6-16T13:2:14Z</time></trkpt>
<trkpt lat="46.23159" lon="7.26115"><ele></ele><time>2024-6-16T13:2:17Z</time></trkpt>
<trkpt lat="46.23158" lon="7.26112"><ele></ele><time>2024-6-16T13:2:20Z</time></trkpt>
<trkpt lat="46.23154" lon="7.26106"><ele></ele><time>2024-6-16T13:2:23Z</time></trkpt>
<trkpt lat="46.23151" lon="7.26102"><ele></ele><time>2024-6-16T13:2:26Z</time></trkpt>
<trkpt lat="46.23148" lon="7.26098"><ele></ele><time>2024-6-16T13:2:29Z</time></trkpt>
<trkpt lat="46.23146" lon="7.26093"><ele></ele><time>2024-6-16T13:2:32Z</time></trkpt>
<trkpt lat="46.23145" lon="7.26091"><ele></ele><time>2024-6-16T13:2:35Z</time></trkpt>
<trkpt lat="46.23143" lon="7.26086"><ele></ele><time>2024-6-16T13:2:38Z</time></trkpt>
<trkpt lat="46.23141" lon="7.26083"><ele></ele><time>2024-6-16T13:2:41Z</time></trkpt>
<trkpt lat="46.23138" lon="7.26077"><ele></ele><time>2024-6-16T13:2:44Z</time></trkpt>
<trkpt lat="46.23135" lon="7.2607"><ele></ele><time>2024-6-16T13:2:47Z</time></trkpt>
<trkpt lat="46.23134" lon="7.26068"><ele></ele><time>2024-6-16T13:2:50Z</time></trkpt>
<trkpt lat="46.23132" lon="7.26064"><ele></ele><time>2024-6-16T13:2:53Z</time></trkpt>
<trkpt lat="46.23129" lon="7.26061"><ele></ele><time>2024-6-16T13:2:56Z</time></trkpt>
<trkpt lat="46.23127" lon="7.2606"><ele></ele><time>2024-6-16T13:2:59Z</time></trkpt>
<trkpt lat="46.23124" lon="7.26055"><ele></ele><time>2024-6-16T13:3:2Z</time></trkpt>
<trkpt lat="46.23124" lon="7.26054"><ele></ele><time>2024-6-16T13:3:5Z</time></trkpt>
<trkpt lat="46.23123" lon="7.2605"><ele></ele><time>2024-6-16T13:3:8Z</time></trkpt>
<trkpt lat="46.23121" lon="7.26047"><ele></ele><time>2024-6-16T13:3:11Z</time></trkpt>
<trkpt lat="46.2312" lon="7.26043"><ele></ele><time>2024-6-16T13:3:14Z</time></trkpt>
<trkpt lat="46.23118" lon="7.26036"><ele></ele><time>2024-6-16T13:3:17Z</time></trkpt>
<trkpt lat="46.23116" lon="7.26031"><ele></ele><time>2024-6-16T13:3:20Z</time></trkpt>
<trkpt lat="46.23115" lon="7.26029"><ele></ele><time>2024-6-16T13:3:23Z</time></trkpt>
<trkpt lat="46.23114" lon="7.26027"><ele></ele><time>2024-6-16T13:3:26Z</time></trkpt>
<trkpt lat="46.23113" lon="7.26021"><ele></ele><time>2024-6-16T13:3:29Z</time></trkpt>
<trkpt lat="46.23112" lon="7.26019"><ele></ele><time>2024-6-16T13:3:32Z</time></trkpt>
<trkpt lat="46.2311" lon="7.2601"><ele></ele><time>2024-6-16T13:3:35Z</time></trkpt>
<trkpt lat="46.23109" lon="7.26005"><ele></ele><time>2024-6-16T13:3:38Z</time></trkpt>
<trkpt lat="46.23107" lon="7.25996"><ele></ele><time>2024-6-16T13:3:41Z</time></trkpt>
<trkpt lat="46.23106" lon="7.25993"><ele></ele><time>2024-6-16T13:3:44Z</time></trkpt>
<trkpt lat="46.23104" lon="7.25987"><ele></ele><time>2024-6-16T13:3:47Z</time></trkpt>
<trkpt lat="46.23104" lon="7.25984"><ele></ele><time>2024-6-16T13:3:50Z</time></trkpt>
<trkpt lat="46.23102" lon="7.25979"><ele></ele><time>2024-6-16T13:3:53Z</time></trkpt>
<trkpt lat="46.23098" lon="7.25976"><ele></ele><time>2024-6-16T13:3:56Z</time></trkpt>
<trkpt lat="46.23098" lon="7.25974"><ele></ele><time>2024-6-16T13:3:59Z</time></trkpt>
<trkpt lat="46.23097" lon="7.25969"><ele></ele><time>2024-6-16T13:4:2Z</time></trkpt>
<trkpt lat="46.23098" lon="7.25964"><ele></ele><time>2024-6-16T13:4:5Z</time></trkpt>
<trkpt lat="46.23098" lon="7.25963"><ele></ele><time>2024-6-16T13:4:8Z</time></trkpt>
<trkpt lat="46.23098" lon="7.25953"><ele></ele><time>2024-6-16T13:4:11Z</time></trkpt>
<trkpt lat="46.23098" lon="7.25948"><ele></ele><time>2024-6-16T13:4:14Z</time></trkpt>
<trkpt lat="46.23097" lon="7.2594"><ele></ele><time>2024-6-16T13:4:17Z</time></trkpt>
<trkpt lat="46.23096" lon="7.25931"><ele></ele><time>2024-6-16T13:4:20Z</time></trkpt>
<trkpt lat="46.23095" lon="7.25929"><ele></ele><time>2024-6-16T13:4:23Z</time></trkpt>
<trkpt lat="46.23096" lon="7.25919"><ele></ele><time>2024-6-16T13:4:26Z</time></trkpt>
<trkpt lat="46.23097" lon="7.25914"><ele></ele><time>2024-6-16T13:4:29Z</time></trkpt>
<trkpt lat="46.231" lon="7.25908"><ele></ele><time>2024-6-16T13:4:32Z</time></trkpt>
<trkpt lat="46.23103" lon="7.25907"><ele></ele><time>2024-6-16T13:4:35Z</time></trkpt>
<trkpt lat="46.23105" lon="7.25908"><ele></ele><time>2024-6-16T13:4:38Z</time></trkpt>
<trkpt lat="46.23106" lon="7.25909"><ele></ele><time>2024-6-16T13:4:41Z</time></trkpt>
<trkpt lat="46.23108" lon="7.25911"><ele></ele><time>2024-6-16T13:4:44Z</time></trkpt>
<trkpt lat="46.23111" lon="7.25917"><ele></ele><time>2024-6-16T13:4:47Z</time></trkpt>
<trkpt lat="46.23112" lon="7.25917"><ele></ele><time>2024-6-16T13:4:50Z</time></trkpt>
<trkpt lat="46.23113" lon="7.25917"><ele></ele><time>2024-6-16T13:4:53Z</time></trkpt>
<trkpt lat="46.23117" lon="7.25915"><ele></ele><time>2024-6-16T13:4:56Z</time></trkpt>
<trkpt lat="46.23117" lon="7.25912"><ele></ele><time>2024-6-16T13:4:59Z</time></trkpt>
<trkpt lat="46.23117" lon="7.25912"><ele></ele><time>2024-6-16T13:5:2Z</time></trkpt>
<trkpt lat="46.23117" lon="7.25911"><ele></ele><time>2024-6-16T13:5:5Z</time></trkpt>
<trkpt lat="46.23117" lon="7.25911"><ele></ele><time>2024-6-16T13:5:8Z</time></trkpt>
<trkpt lat="46.23117" lon="7.25912"><ele></ele><time>2024-6-16T13:5:11Z</time></trkpt>
<trkpt lat="46.23117" lon="7.25915"><ele></ele><time>2024-6-16T13:5:14Z</time></trkpt>
<trkpt lat="46.23117" lon="7.25915"><ele></ele><time>2024-6-16T13:5:17Z</time></trkpt>
<trkpt lat="46.23117" lon="7.25914"><ele></ele><time>2024-6-16T13:5:20Z</time></trkpt>
<trkpt lat="46.23117" lon="7.25914"><ele></ele><time>2024-6-16T13:5:23Z</time></trkpt>
<trkpt lat="46.23117" lon="7.25912"><ele></ele><time>2024-6-16T13:5:26Z</time></trkpt>
<trkpt lat="46.23118" lon="7.25912"><ele></ele><time>2024-6-16T13:5:29Z</time></trkpt>
<trkpt lat="46.23118" lon="7.25912"><ele></ele><time>2024-6-16T13:5:32Z</time></trkpt>
<trkpt lat="46.23118" lon="7.25912"><ele></ele><time>2024-6-16T13:5:35Z</time></trkpt>
<trkpt lat="46.23118" lon="7.25912"><ele></ele><time>2024-6-16T13:5:38Z</time></trkpt>
<trkpt lat="46.23118" lon="7.25912"><ele></ele><time>2024-6-16T13:5:41Z</time></trkpt>
<trkpt lat="46.23115" lon="7.25908"><ele></ele><time>2024-6-16T13:5:44Z</time></trkpt>
<trkpt lat="46.23119" lon="7.25907"><ele></ele><time>2024-6-16T13:5:47Z</time></trkpt>
<trkpt lat="46.23123" lon="7.25908"><ele></ele><time>2024-6-16T13:5:50Z</time></trkpt>
<trkpt lat="46.23126" lon="7.25909"><ele></ele><time>2024-6-16T13:5:53Z</time></trkpt>
<trkpt lat="46.23128" lon="7.25909"><ele></ele><time>2024-6-16T13:5:56Z</time></trkpt>
<trkpt lat="46.23131" lon="7.2591"><ele></ele><time>2024-6-16T13:5:59Z</time></trkpt>
<trkpt lat="46.23133" lon="7.25909"><ele></ele><time>2024-6-16T13:6:2Z</time></trkpt>
<trkpt lat="46.23134" lon="7.25909"><ele></ele><time>2024-6-16T13:6:5Z</time></trkpt>
<trkpt lat="46.23135" lon="7.25909"><ele></ele><time>2024-6-16T13:6:8Z</time></trkpt>
<trkpt lat="46.23136" lon="7.25909"><ele></ele><time>2024-6-16T13:6:11Z</time></trkpt>
<trkpt lat="46.2314" lon="7.2591"><ele></ele><time>2024-6-16T13:6:14Z</time></trkpt>
<trkpt lat="46.23148" lon="7.25909"><ele></ele><time>2024-6-16T13:6:17Z</time></trkpt>
<trkpt lat="46.23153" lon="7.25909"><ele></ele><time>2024-6-16T13:6:20Z</time></trkpt>
<trkpt lat="46.23162" lon="7.25904"><ele></ele><time>2024-6-16T13:6:23Z</time></trkpt>
<trkpt lat="46.23163" lon="7.25903"><ele></ele><time>2024-6-16T13:6:26Z</time></trkpt>
<trkpt lat="46.23167" lon="7.259"><ele></ele><time>2024-6-16T13:6:29Z</time></trkpt>
<trkpt lat="46.23169" lon="7.25898"><ele></ele><time>2024-6-16T13:6:32Z</time></trkpt>
<trkpt lat="46.23175" lon="7.25896"><ele></ele><time>2024-6-16T13:6:35Z</time></trkpt>
<trkpt lat="46.23177" lon="7.25898"><ele></ele><time>2024-6-16T13:6:38Z</time></trkpt>
<trkpt lat="46.23182" lon="7.259"><ele></ele><time>2024-6-16T13:6:41Z</time></trkpt>
<trkpt lat="46.23183" lon="7.25901"><ele></ele><time>2024-6-16T13:6:44Z</time></trkpt>
<trkpt lat="46.23187" lon="7.25903"><ele></ele><time>2024-6-16T13:6:47Z</time></trkpt>
<trkpt lat="46.2319" lon="7.25903"><ele></ele><time>2024-6-16T13:6:50Z</time></trkpt>
<trkpt lat="46.23196" lon="7.25904"><ele></ele><time>2024-6-16T13:6:53Z</time></trkpt>
<trkpt lat="46.23198" lon="7.25904"><ele></ele><time>2024-6-16T13:6:56Z</time></trkpt>
<trkpt lat="46.23204" lon="7.25905"><ele></ele><time>2024-6-16T13:6:59Z</time></trkpt>
<trkpt lat="46.23207" lon="7.25904"><ele></ele><time>2024-6-16T13:7:2Z</time></trkpt>
<trkpt lat="46.23211" lon="7.25904"><ele></ele><time>2024-6-16T13:7:5Z</time></trkpt>
<trkpt lat="46.23215" lon="7.25903"><ele></ele><time>2024-6-16T13:7:8Z</time></trkpt>
<trkpt lat="46.23221" lon="7.25904"><ele></ele><time>2024-6-16T13:7:11Z</time></trkpt>
<trkpt lat="46.23222" lon="7.25904"><ele></ele><time>2024-6-16T13:7:14Z</time></trkpt>
<trkpt lat="46.23229" lon="7.25899"><ele></ele><time>2024-6-16T13:7:17Z</time></trkpt>
<trkpt lat="46.23236" lon="7.2589"><ele></ele><time>2024-6-16T13:7:20Z</time></trkpt>
<trkpt lat="46.23239" lon="7.25885"><ele></ele><time>2024-6-16T13:7:23Z</time></trkpt>
<trkpt lat="46.23241" lon="7.25878"><ele></ele><time>2024-6-16T13:7:26Z</time></trkpt>
<trkpt lat="46.23245" lon="7.25862"><ele></ele><time>2024-6-16T13:7:29Z</time></trkpt>
<trkpt lat="46.23247" lon="7.25859"><ele></ele><time>2024-6-16T13:7:32Z</time></trkpt>
<trkpt lat="46.23256" lon="7.25852"><ele></ele><time>2024-6-16T13:7:35Z</time></trkpt>
<trkpt lat="46.23257" lon="7.25852"><ele></ele><time>2024-6-16T13:7:38Z</time></trkpt>
<trkpt lat="46.23269" lon="7.25848"><ele></ele><time>2024-6-16T13:7:41Z</time></trkpt>
<trkpt lat="46.23278" lon="7.25844"><ele></ele><time>2024-6-16T13:7:44Z</time></trkpt>
<trkpt lat="46.23279" lon="7.25843"><ele></ele><time>2024-6-16T13:7:47Z</time></trkpt>
<trkpt lat="46.23295" lon="7.25838"><ele></ele><time>2024-6-16T13:7:50Z</time></trkpt>
<trkpt lat="46.23302" lon="7.25836"><ele></ele><time>2024-6-16T13:7:53Z</time></trkpt>
<trkpt lat="46.23308" lon="7.25833"><ele></ele><time>2024-6-16T13:7:56Z</time></trkpt>
<trkpt lat="46.23323" lon="7.25827"><ele></ele><time>2024-6-16T13:7:59Z</time></trkpt>
<trkpt lat="46.23325" lon="7.25826"><ele></ele><time>2024-6-16T13:8:2Z</time></trkpt>
<trkpt lat="46.2334" lon="7.25826"><ele></ele><time>2024-6-16T13:8:5Z</time></trkpt>
<trkpt lat="46.23348" lon="7.25829"><ele></ele><time>2024-6-16T13:8:8Z</time></trkpt>
<trkpt lat="46.23355" lon="7.2583"><ele></ele><time>2024-6-16T13:8:11Z</time></trkpt>
<trkpt lat="46.2337" lon="7.25833"><ele></ele><time>2024-6-16T13:8:14Z</time></trkpt>
<trkpt lat="46.23373" lon="7.25834"><ele></ele><time>2024-6-16T13:8:17Z</time></trkpt>
<trkpt lat="46.23381" lon="7.25835"><ele></ele><time>2024-6-16T13:8:20Z</time></trkpt>
<trkpt lat="46.23388" lon="7.25835"><ele></ele><time>2024-6-16T13:8:23Z</time></trkpt>
<trkpt lat="46.2339" lon="7.25836"><ele></ele><time>2024-6-16T13:8:26Z</time></trkpt>
<trkpt lat="46.23402" lon="7.25842"><ele></ele><time>2024-6-16T13:8:29Z</time></trkpt>
<trkpt lat="46.23405" lon="7.25845"><ele></ele><time>2024-6-16T13:8:32Z</time></trkpt>
<trkpt lat="46.2341" lon="7.25855"><ele></ele><time>2024-6-16T13:8:35Z</time></trkpt>
<trkpt lat="46.23414" lon="7.25865"><ele></ele><time>2024-6-16T13:8:38Z</time></trkpt>
<trkpt lat="46.23416" lon="7.2587"><ele></ele><time>2024-6-16T13:8:41Z</time></trkpt>
<trkpt lat="46.2342" lon="7.25874"><ele></ele><time>2024-6-16T13:8:44Z</time></trkpt>
<trkpt lat="46.23423" lon="7.25875"><ele></ele><time>2024-6-16T13:8:47Z</time></trkpt>
<trkpt lat="46.23433" lon="7.25878"><ele></ele><time>2024-6-16T13:8:50Z</time></trkpt>
<trkpt lat="46.23434" lon="7.25879"><ele></ele><time>2024-6-16T13:8:53Z</time></trkpt>
<trkpt lat="46.23445" lon="7.25881"><ele></ele><time>2024-6-16T13:8:56Z</time></trkpt>
<trkpt lat="46.23447" lon="7.25882"><ele></ele><time>2024-6-16T13:8:59Z</time></trkpt>
<trkpt lat="46.23455" lon="7.25884"><ele></ele><time>2024-6-16T13:9:2Z</time></trkpt>
<trkpt lat="46.23462" lon="7.25888"><ele></ele><time>2024-6-16T13:9:5Z</time></trkpt>
<trkpt lat="46.23465" lon="7.25889"><ele></ele><time>2024-6-16T13:9:8Z</time></trkpt>
<trkpt lat="46.23479" lon="7.25891"><ele></ele><time>2024-6-16T13:9:11Z</time></trkpt>
<trkpt lat="46.23493" lon="7.25884"><ele></ele><time>2024-6-16T13:9:14Z</time></trkpt>
<trkpt lat="46.23495" lon="7.25884"><ele></ele><time>2024-6-16T13:9:17Z</time></trkpt>
<trkpt lat="46.23507" lon="7.25878"><ele></ele><time>2024-6-16T13:9:20Z</time></trkpt>
<trkpt lat="46.23513" lon="7.25874"><ele></ele><time>2024-6-16T13:9:23Z</time></trkpt>
<trkpt lat="46.2352" lon="7.25872"><ele></ele><time>2024-6-16T13:9:26Z</time></trkpt>
<trkpt lat="46.23537" lon="7.25875"><ele></ele><time>2024-6-16T13:9:29Z</time></trkpt>
<trkpt lat="46.23549" lon="7.25878"><ele></ele><time>2024-6-16T13:9:32Z</time></trkpt>
<trkpt lat="46.23551" lon="7.2588"><ele></ele><time>2024-6-16T13:9:35Z</time></trkpt>
<trkpt lat="46.23566" lon="7.25894"><ele></ele><time>2024-6-16T13:9:38Z</time></trkpt>
<trkpt lat="46.23582" lon="7.25899"><ele></ele><time>2024-6-16T13:9:41Z</time></trkpt>
<trkpt lat="46.23585" lon="7.25899"><ele></ele><time>2024-6-16T13:9:44Z</time></trkpt>
<trkpt lat="46.23598" lon="7.25899"><ele></ele><time>2024-6-16T13:9:47Z</time></trkpt>
<trkpt lat="46.23617" lon="7.25901"><ele></ele><time>2024-6-16T13:9:50Z</time></trkpt>
<trkpt lat="46.23636" lon="7.25892"><ele></ele><time>2024-6-16T13:9:53Z</time></trkpt>
<trkpt lat="46.23655" lon="7.25894"><ele></ele><time>2024-6-16T13:9:56Z</time></trkpt>
<trkpt lat="46.23658" lon="7.25894"><ele></ele><time>2024-6-16T13:9:59Z</time></trkpt>
<trkpt lat="46.23676" lon="7.25896"><ele></ele><time>2024-6-16T13:10:2Z</time></trkpt>
<trkpt lat="46.23679" lon="7.25896"><ele></ele><time>2024-6-16T13:10:5Z</time></trkpt>
<trkpt lat="46.23681" lon="7.25896"><ele></ele><time>2024-6-16T13:10:8Z</time></trkpt>
<trkpt lat="46.2368" lon="7.25896"><ele></ele><time>2024-6-16T13:10:11Z</time></trkpt>
<trkpt lat="46.2368" lon="7.25897"><ele></ele><time>2024-6-16T13:10:14Z</time></trkpt>
<trkpt lat="46.23681" lon="7.25895"><ele></ele><time>2024-6-16T13:10:17Z</time></trkpt>
<trkpt lat="46.23682" lon="7.25895"><ele></ele><time>2024-6-16T13:10:20Z</time></trkpt>
<trkpt lat="46.23681" lon="7.25896"><ele></ele><time>2024-6-16T13:10:23Z</time></trkpt>
<trkpt lat="46.23681" lon="7.25896"><ele></ele><time>2024-6-16T13:10:26Z</time></trkpt>
<trkpt lat="46.2368" lon="7.25896"><ele></ele><time>2024-6-16T13:10:29Z</time></trkpt>
<trkpt lat="46.23681" lon="7.25896"><ele></ele><time>2024-6-16T13:10:32Z</time></trkpt>
<trkpt lat="46.23683" lon="7.25898"><ele></ele><time>2024-6-16T13:10:35Z</time></trkpt>
<trkpt lat="46.23695" lon="7.25901"><ele></ele><time>2024-6-16T13:10:38Z</time></trkpt>
<trkpt lat="46.23717" lon="7.25906"><ele></ele><time>2024-6-16T13:10:41Z</time></trkpt>
<trkpt lat="46.23731" lon="7.25909"><ele></ele><time>2024-6-16T13:10:44Z</time></trkpt>
<trkpt lat="46.2374" lon="7.25911"><ele></ele><time>2024-6-16T13:10:47Z</time></trkpt>
<trkpt lat="46.23758" lon="7.25912"><ele></ele><time>2024-6-16T13:10:50Z</time></trkpt>
<trkpt lat="46.23768" lon="7.2591"><ele></ele><time>2024-6-16T13:10:53Z</time></trkpt>
<trkpt lat="46.23779" lon="7.25907"><ele></ele><time>2024-6-16T13:10:56Z</time></trkpt>
<trkpt lat="46.23804" lon="7.25908"><ele></ele><time>2024-6-16T13:10:59Z</time></trkpt>
<trkpt lat="46.2381" lon="7.2591"><ele></ele><time>2024-6-16T13:11:2Z</time></trkpt>
<trkpt lat="46.2384" lon="7.25924"><ele></ele><time>2024-6-16T13:11:5Z</time></trkpt>
<trkpt lat="46.23883" lon="7.2594"><ele></ele><time>2024-6-16T13:11:8Z</time></trkpt>
<trkpt lat="46.23925" lon="7.25949"><ele></ele><time>2024-6-16T13:11:11Z</time></trkpt>
<trkpt lat="46.23967" lon="7.25954"><ele></ele><time>2024-6-16T13:11:14Z</time></trkpt>
<trkpt lat="46.23997" lon="7.25951"><ele></ele><time>2024-6-16T13:11:17Z</time></trkpt>
<trkpt lat="46.24001" lon="7.25949"><ele></ele><time>2024-6-16T13:11:20Z</time></trkpt>
<trkpt lat="46.24014" lon="7.25943"><ele></ele><time>2024-6-16T13:11:23Z</time></trkpt>
<trkpt lat="46.24021" lon="7.25935"><ele></ele><time>2024-6-16T13:11:26Z</time></trkpt>
<trkpt lat="46.24032" lon="7.25925"><ele></ele><time>2024-6-16T13:11:29Z</time></trkpt>
<trkpt lat="46.24036" lon="7.25923"><ele></ele><time>2024-6-16T13:11:32Z</time></trkpt>
<trkpt lat="46.24044" lon="7.25922"><ele></ele><time>2024-6-16T13:11:35Z</time></trkpt>
<trkpt lat="46.24051" lon="7.25922"><ele></ele><time>2024-6-16T13:11:38Z</time></trkpt>
<trkpt lat="46.24062" lon="7.25919"><ele></ele><time>2024-6-16T13:11:41Z</time></trkpt>
<trkpt lat="46.24068" lon="7.25916"><ele></ele><time>2024-6-16T13:11:44Z</time></trkpt>
<trkpt lat="46.24075" lon="7.25908"><ele></ele><time>2024-6-16T13:11:47Z</time></trkpt>
<trkpt lat="46.24089" lon="7.25893"><ele></ele><time>2024-6-16T13:11:50Z</time></trkpt>
<trkpt lat="46.24099" lon="7.25882"><ele></ele><time>2024-6-16T13:11:53Z</time></trkpt>
<trkpt lat="46.24108" lon="7.25875"><ele></ele><time>2024-6-16T13:11:56Z</time></trkpt>
<trkpt lat="46.24113" lon="7.25871"><ele></ele><time>2024-6-16T13:11:59Z</time></trkpt>
<trkpt lat="46.24123" lon="7.25865"><ele></ele><time>2024-6-16T13:12:2Z</time></trkpt>
<trkpt lat="46.24134" lon="7.25863"><ele></ele><time>2024-6-16T13:12:5Z</time></trkpt>
<trkpt lat="46.24142" lon="7.25859"><ele></ele><time>2024-6-16T13:12:8Z</time></trkpt>
<trkpt lat="46.24159" lon="7.25851"><ele></ele><time>2024-6-16T13:12:11Z</time></trkpt>
<trkpt lat="46.24175" lon="7.2583"><ele></ele><time>2024-6-16T13:12:14Z</time></trkpt>
<trkpt lat="46.24183" lon="7.25814"><ele></ele><time>2024-6-16T13:12:17Z</time></trkpt>
<trkpt lat="46.24194" lon="7.25799"><ele></ele><time>2024-6-16T13:12:20Z</time></trkpt>
<trkpt lat="46.24208" lon="7.25797"><ele></ele><time>2024-6-16T13:12:23Z</time></trkpt>
<trkpt lat="46.24226" lon="7.25803"><ele></ele><time>2024-6-16T13:12:26Z</time></trkpt>
<trkpt lat="46.24237" lon="7.25808"><ele></ele><time>2024-6-16T13:12:29Z</time></trkpt>
<trkpt lat="46.24241" lon="7.2581"><ele></ele><time>2024-6-16T13:12:32Z</time></trkpt>
<trkpt lat="46.24249" lon="7.25813"><ele></ele><time>2024-6-16T13:12:35Z</time></trkpt>
<trkpt lat="46.24254" lon="7.25814"><ele></ele><time>2024-6-16T13:12:38Z</time></trkpt>
<trkpt lat="46.24256" lon="7.25814"><ele></ele><time>2024-6-16T13:12:41Z</time></trkpt>
<trkpt lat="46.24265" lon="7.25816"><ele></ele><time>2024-6-16T13:12:44Z</time></trkpt>
<trkpt lat="46.24269" lon="7.25817"><ele></ele><time>2024-6-16T13:12:47Z</time></trkpt>
<trkpt lat="46.24275" lon="7.2582"><ele></ele><time>2024-6-16T13:12:50Z</time></trkpt>
<trkpt lat="46.24286" lon="7.25822"><ele></ele><time>2024-6-16T13:12:53Z</time></trkpt>
<trkpt lat="46.24287" lon="7.25821"><ele></ele><time>2024-6-16T13:12:56Z</time></trkpt>
<trkpt lat="46.24295" lon="7.25821"><ele></ele><time>2024-6-16T13:12:59Z</time></trkpt>
<trkpt lat="46.24299" lon="7.25819"><ele></ele><time>2024-6-16T13:13:2Z</time></trkpt>
<trkpt lat="46.24303" lon="7.25817"><ele></ele><time>2024-6-16T13:13:5Z</time></trkpt>
<trkpt lat="46.24305" lon="7.25816"><ele></ele><time>2024-6-16T13:13:8Z</time></trkpt>
<trkpt lat="46.24313" lon="7.25815"><ele></ele><time>2024-6-16T13:13:11Z</time></trkpt>
<trkpt lat="46.2432" lon="7.25815"><ele></ele><time>2024-6-16T13:13:14Z</time></trkpt>
<trkpt lat="46.24323" lon="7.25816"><ele></ele><time>2024-6-16T13:13:17Z</time></trkpt>
<trkpt lat="46.24326" lon="7.25818"><ele></ele><time>2024-6-16T13:13:20Z</time></trkpt>
<trkpt lat="46.24329" lon="7.2582"><ele></ele><time>2024-6-16T13:13:23Z</time></trkpt>
<trkpt lat="46.24332" lon="7.25823"><ele></ele><time>2024-6-16T13:13:26Z</time></trkpt>
<trkpt lat="46.24338" lon="7.25828"><ele></ele><time>2024-6-16T13:13:29Z</time></trkpt>
<trkpt lat="46.2434" lon="7.25828"><ele></ele><time>2024-6-16T13:13:32Z</time></trkpt>
<trkpt lat="46.24345" lon="7.25833"><ele></ele><time>2024-6-16T13:13:35Z</time></trkpt>
<trkpt lat="46.24346" lon="7.25834"><ele></ele><time>2024-6-16T13:13:38Z</time></trkpt>
<trkpt lat="46.24353" lon="7.25838"><ele></ele><time>2024-6-16T13:13:41Z</time></trkpt>
<trkpt lat="46.24354" lon="7.25839"><ele></ele><time>2024-6-16T13:13:44Z</time></trkpt>
<trkpt lat="46.24362" lon="7.25844"><ele></ele><time>2024-6-16T13:13:47Z</time></trkpt>
<trkpt lat="46.24365" lon="7.25844"><ele></ele><time>2024-6-16T13:13:50Z</time></trkpt>
<trkpt lat="46.2437" lon="7.25843"><ele></ele><time>2024-6-16T13:13:53Z</time></trkpt>
<trkpt lat="46.24376" lon="7.25837"><ele></ele><time>2024-6-16T13:13:56Z</time></trkpt>
<trkpt lat="46.24378" lon="7.25835"><ele></ele><time>2024-6-16T13:13:59Z</time></trkpt>
<trkpt lat="46.24382" lon="7.2583"><ele></ele><time>2024-6-16T13:14:2Z</time></trkpt>
<trkpt lat="46.24386" lon="7.25825"><ele></ele><time>2024-6-16T13:14:5Z</time></trkpt>
<trkpt lat="46.24391" lon="7.25817"><ele></ele><time>2024-6-16T13:14:8Z</time></trkpt>
<trkpt lat="46.24395" lon="7.25813"><ele></ele><time>2024-6-16T13:14:11Z</time></trkpt>
<trkpt lat="46.24399" lon="7.25802"><ele></ele><time>2024-6-16T13:14:14Z</time></trkpt>
<trkpt lat="46.24399" lon="7.25777"><ele></ele><time>2024-6-16T13:14:17Z</time></trkpt>
<trkpt lat="46.24399" lon="7.25752"><ele></ele><time>2024-6-16T13:14:20Z</time></trkpt>
<trkpt lat="46.24406" lon="7.25723"><ele></ele><time>2024-6-16T13:14:23Z</time></trkpt>
<trkpt lat="46.2441" lon="7.25712"><ele></ele><time>2024-6-16T13:14:26Z</time></trkpt>
<trkpt lat="46.24415" lon="7.25702"><ele></ele><time>2024-6-16T13:14:29Z</time></trkpt>
<trkpt lat="46.24426" lon="7.25688"><ele></ele><time>2024-6-16T13:14:32Z</time></trkpt>
<trkpt lat="46.24429" lon="7.25683"><ele></ele><time>2024-6-16T13:14:35Z</time></trkpt>
<trkpt lat="46.24437" lon="7.25669"><ele></ele><time>2024-6-16T13:14:38Z</time></trkpt>
<trkpt lat="46.24445" lon="7.25655"><ele></ele><time>2024-6-16T13:14:41Z</time></trkpt>
<trkpt lat="46.24448" lon="7.25652"><ele></ele><time>2024-6-16T13:14:44Z</time></trkpt>
<trkpt lat="46.24456" lon="7.25639"><ele></ele><time>2024-6-16T13:14:47Z</time></trkpt>
<trkpt lat="46.24456" lon="7.25637"><ele></ele><time>2024-6-16T13:14:50Z</time></trkpt>
<trkpt lat="46.24465" lon="7.25622"><ele></ele><time>2024-6-16T13:14:53Z</time></trkpt>
<trkpt lat="46.24466" lon="7.25621"><ele></ele><time>2024-6-16T13:14:56Z</time></trkpt>
<trkpt lat="46.24472" lon="7.25607"><ele></ele><time>2024-6-16T13:14:59Z</time></trkpt>
<trkpt lat="46.24473" lon="7.25604"><ele></ele><time>2024-6-16T13:15:2Z</time></trkpt>
<trkpt lat="46.24478" lon="7.25583"><ele></ele><time>2024-6-16T13:15:5Z</time></trkpt>
<trkpt lat="46.24483" lon="7.25566"><ele></ele><time>2024-6-16T13:15:8Z</time></trkpt>
<trkpt lat="46.24483" lon="7.25564"><ele></ele><time>2024-6-16T13:15:11Z</time></trkpt>
<trkpt lat="46.24487" lon="7.25553"><ele></ele><time>2024-6-16T13:15:14Z</time></trkpt>
<trkpt lat="46.24489" lon="7.25546"><ele></ele><time>2024-6-16T13:15:17Z</time></trkpt>
<trkpt lat="46.24492" lon="7.25535"><ele></ele><time>2024-6-16T13:15:20Z</time></trkpt>
<trkpt lat="46.24494" lon="7.25529"><ele></ele><time>2024-6-16T13:15:23Z</time></trkpt>
<trkpt lat="46.245" lon="7.25517"><ele></ele><time>2024-6-16T13:15:26Z</time></trkpt>
<trkpt lat="46.24504" lon="7.2551"><ele></ele><time>2024-6-16T13:15:29Z</time></trkpt>
<trkpt lat="46.24508" lon="7.25505"><ele></ele><time>2024-6-16T13:15:32Z</time></trkpt>
<trkpt lat="46.24515" lon="7.25496"><ele></ele><time>2024-6-16T13:15:35Z</time></trkpt>
<trkpt lat="46.24518" lon="7.25492"><ele></ele><time>2024-6-16T13:15:38Z</time></trkpt>
<trkpt lat="46.24525" lon="7.25484"><ele></ele><time>2024-6-16T13:15:41Z</time></trkpt>
<trkpt lat="46.24527" lon="7.25482"><ele></ele><time>2024-6-16T13:15:44Z</time></trkpt>
<trkpt lat="46.24541" lon="7.25477"><ele></ele><time>2024-6-16T13:15:47Z</time></trkpt>
<trkpt lat="46.24547" lon="7.25476"><ele></ele><time>2024-6-16T13:15:50Z</time></trkpt>
<trkpt lat="46.24553" lon="7.25475"><ele></ele><time>2024-6-16T13:15:53Z</time></trkpt>
<trkpt lat="46.24563" lon="7.25469"><ele></ele><time>2024-6-16T13:15:56Z</time></trkpt>
<trkpt lat="46.24567" lon="7.25466"><ele></ele><time>2024-6-16T13:15:59Z</time></trkpt>
<trkpt lat="46.24582" lon="7.25466"><ele></ele><time>2024-6-16T13:16:2Z</time></trkpt>
<trkpt lat="46.24599" lon="7.25468"><ele></ele><time>2024-6-16T13:16:5Z</time></trkpt>
<trkpt lat="46.24616" lon="7.25478"><ele></ele><time>2024-6-16T13:16:8Z</time></trkpt>
<trkpt lat="46.24631" lon="7.25501"><ele></ele><time>2024-6-16T13:16:11Z</time></trkpt>
<trkpt lat="46.24635" lon="7.25509"><ele></ele><time>2024-6-16T13:16:14Z</time></trkpt>
<trkpt lat="46.24643" lon="7.25524"><ele></ele><time>2024-6-16T13:16:17Z</time></trkpt>
<trkpt lat="46.24661" lon="7.25548"><ele></ele><time>2024-6-16T13:16:20Z</time></trkpt>
<trkpt lat="46.24676" lon="7.25547"><ele></ele><time>2024-6-16T13:16:23Z</time></trkpt>
<trkpt lat="46.24684" lon="7.25529"><ele></ele><time>2024-6-16T13:16:26Z</time></trkpt>
<trkpt lat="46.2469" lon="7.255"><ele></ele><time>2024-6-16T13:16:29Z</time></trkpt>
<trkpt lat="46.24703" lon="7.25468"><ele></ele><time>2024-6-16T13:16:32Z</time></trkpt>
<trkpt lat="46.24719" lon="7.25441"><ele></ele><time>2024-6-16T13:16:35Z</time></trkpt>
<trkpt lat="46.24726" lon="7.25428"><ele></ele><time>2024-6-16T13:16:38Z</time></trkpt>
<trkpt lat="46.24736" lon="7.25412"><ele></ele><time>2024-6-16T13:16:41Z</time></trkpt>
<trkpt lat="46.24753" lon="7.25388"><ele></ele><time>2024-6-16T13:16:44Z</time></trkpt>
<trkpt lat="46.24772" lon="7.2538"><ele></ele><time>2024-6-16T13:16:47Z</time></trkpt>
<trkpt lat="46.24775" lon="7.25379"><ele></ele><time>2024-6-16T13:16:50Z</time></trkpt>
<trkpt lat="46.24782" lon="7.25379"><ele></ele><time>2024-6-16T13:16:53Z</time></trkpt>
<trkpt lat="46.2479" lon="7.25383"><ele></ele><time>2024-6-16T13:16:56Z</time></trkpt>
<trkpt lat="46.2481" lon="7.25386"><ele></ele><time>2024-6-16T13:16:59Z</time></trkpt>
<trkpt lat="46.2482" lon="7.25383"><ele></ele><time>2024-6-16T13:17:2Z</time></trkpt>
<trkpt lat="46.2483" lon="7.25377"><ele></ele><time>2024-6-16T13:17:5Z</time></trkpt>
<trkpt lat="46.24833" lon="7.25374"><ele></ele><time>2024-6-16T13:17:8Z</time></trkpt>
<trkpt lat="46.24839" lon="7.25357"><ele></ele><time>2024-6-16T13:17:11Z</time></trkpt>
<trkpt lat="46.24855" lon="7.25335"><ele></ele><time>2024-6-16T13:17:14Z</time></trkpt>
<trkpt lat="46.24875" lon="7.25312"><ele></ele><time>2024-6-16T13:17:17Z</time></trkpt>
<trkpt lat="46.24877" lon="7.25308"><ele></ele><time>2024-6-16T13:17:20Z</time></trkpt>
<trkpt lat="46.24893" lon="7.25283"><ele></ele><time>2024-6-16T13:17:23Z</time></trkpt>
<trkpt lat="46.24905" lon="7.25252"><ele></ele><time>2024-6-16T13:17:26Z</time></trkpt>
<trkpt lat="46.2491" lon="7.25223"><ele></ele><time>2024-6-16T13:17:29Z</time></trkpt>
<trkpt lat="46.24911" lon="7.25196"><ele></ele><time>2024-6-16T13:17:32Z</time></trkpt>
<trkpt lat="46.24909" lon="7.2519"><ele></ele><time>2024-6-16T13:17:35Z</time></trkpt>
<trkpt lat="46.24907" lon="7.25184"><ele></ele><time>2024-6-16T13:17:38Z</time></trkpt>
<trkpt lat="46.24896" lon="7.2516"><ele></ele><time>2024-6-16T13:17:41Z</time></trkpt>
<trkpt lat="46.24894" lon="7.25154"><ele></ele><time>2024-6-16T13:17:44Z</time></trkpt>
<trkpt lat="46.24891" lon="7.25141"><ele></ele><time>2024-6-16T13:17:47Z</time></trkpt>
<trkpt lat="46.2489" lon="7.25135"><ele></ele><time>2024-6-16T13:17:50Z</time></trkpt>
<trkpt lat="46.24898" lon="7.25119"><ele></ele><time>2024-6-16T13:17:53Z</time></trkpt>
<trkpt lat="46.24912" lon="7.25106"><ele></ele><time>2024-6-16T13:17:56Z</time></trkpt>
<trkpt lat="46.24924" lon="7.25095"><ele></ele><time>2024-6-16T13:17:59Z</time></trkpt>
<trkpt lat="46.24942" lon="7.25062"><ele></ele><time>2024-6-16T13:18:2Z</time></trkpt>
<trkpt lat="46.24946" lon="7.25058"><ele></ele><time>2024-6-16T13:18:5Z</time></trkpt>
<trkpt lat="46.2495" lon="7.25054"><ele></ele><time>2024-6-16T13:18:8Z</time></trkpt>
<trkpt lat="46.2495" lon="7.25054"><ele></ele><time>2024-6-16T13:18:11Z</time></trkpt>
<trkpt lat="46.25041" lon="7.24977"><ele></ele><time>2024-6-16T13:18:14Z</time></trkpt>
<trkpt lat="46.25041" lon="7.24977"><ele></ele><time>2024-6-16T13:18:17Z</time></trkpt>
<trkpt lat="46.25239" lon="7.24903"><ele></ele><time>2024-6-16T13:18:20Z</time></trkpt>
<trkpt lat="46.25239" lon="7.24903"><ele></ele><time>2024-6-16T13:18:23Z</time></trkpt>
<trkpt lat="46.25239" lon="7.24903"><ele></ele><time>2024-6-16T13:18:26Z</time></trkpt>
<trkpt lat="46.25239" lon="7.24903"><ele></ele><time>2024-6-16T13:18:29Z</time></trkpt>
<trkpt lat="46.25407" lon="7.24782"><ele></ele><time>2024-6-16T13:18:32Z</time></trkpt>
<trkpt lat="46.25431" lon="7.24773"><ele></ele><time>2024-6-16T13:18:35Z</time></trkpt>
<trkpt lat="46.25458" lon="7.24761"><ele></ele><time>2024-6-16T13:18:38Z</time></trkpt>
<trkpt lat="46.25472" lon="7.24753"><ele></ele><time>2024-6-16T13:18:41Z</time></trkpt>
<trkpt lat="46.25477" lon="7.24754"><ele></ele><time>2024-6-16T13:18:44Z</time></trkpt>
<trkpt lat="46.25481" lon="7.24755"><ele></ele><time>2024-6-16T13:18:47Z</time></trkpt>
<trkpt lat="46.25485" lon="7.24757"><ele></ele><time>2024-6-16T13:18:50Z</time></trkpt>
<trkpt lat="46.25489" lon="7.24762"><ele></ele><time>2024-6-16T13:18:53Z</time></trkpt>
<trkpt lat="46.25493" lon="7.24765"><ele></ele><time>2024-6-16T13:18:56Z</time></trkpt>
<trkpt lat="46.25502" lon="7.24769"><ele></ele><time>2024-6-16T13:18:59Z</time></trkpt>
<trkpt lat="46.25514" lon="7.24764"><ele></ele><time>2024-6-16T13:19:2Z</time></trkpt>
<trkpt lat="46.25532" lon="7.2475"><ele></ele><time>2024-6-16T13:19:5Z</time></trkpt>
<trkpt lat="46.2554" lon="7.24738"><ele></ele><time>2024-6-16T13:19:8Z</time></trkpt>
<trkpt lat="46.2556" lon="7.24713"><ele></ele><time>2024-6-16T13:19:11Z</time></trkpt>
<trkpt lat="46.25571" lon="7.24712"><ele></ele><time>2024-6-16T13:19:14Z</time></trkpt>
<trkpt lat="46.2559" lon="7.2472"><ele></ele><time>2024-6-16T13:19:17Z</time></trkpt>
<trkpt lat="46.25596" lon="7.24721"><ele></ele><time>2024-6-16T13:19:20Z</time></trkpt>
<trkpt lat="46.25606" lon="7.24716"><ele></ele><time>2024-6-16T13:19:23Z</time></trkpt>
<trkpt lat="46.25611" lon="7.24712"><ele></ele><time>2024-6-16T13:19:26Z</time></trkpt>
<trkpt lat="46.25648" lon="7.24689"><ele></ele><time>2024-6-16T13:19:29Z</time></trkpt>
<trkpt lat="46.25654" lon="7.24687"><ele></ele><time>2024-6-16T13:19:32Z</time></trkpt>
<trkpt lat="46.25666" lon="7.24689"><ele></ele><time>2024-6-16T13:19:35Z</time></trkpt>
<trkpt lat="46.25671" lon="7.24691"><ele></ele><time>2024-6-16T13:19:38Z</time></trkpt>
<trkpt lat="46.25706" lon="7.24703"><ele></ele><time>2024-6-16T13:19:41Z</time></trkpt>
<trkpt lat="46.25717" lon="7.24696"><ele></ele><time>2024-6-16T13:19:44Z</time></trkpt>
<trkpt lat="46.25722" lon="7.24693"><ele></ele><time>2024-6-16T13:19:47Z</time></trkpt>
<trkpt lat="46.25728" lon="7.24689"><ele></ele><time>2024-6-16T13:19:50Z</time></trkpt>
<trkpt lat="46.25733" lon="7.24684"><ele></ele><time>2024-6-16T13:19:53Z</time></trkpt>
<trkpt lat="46.25742" lon="7.24672"><ele></ele><time>2024-6-16T13:19:56Z</time></trkpt>
<trkpt lat="46.25746" lon="7.24666"><ele></ele><time>2024-6-16T13:19:59Z</time></trkpt>
<trkpt lat="46.25759" lon="7.24647"><ele></ele><time>2024-6-16T13:20:2Z</time></trkpt>
<trkpt lat="46.25772" lon="7.2463"><ele></ele><time>2024-6-16T13:20:5Z</time></trkpt>
<trkpt lat="46.25777" lon="7.24625"><ele></ele><time>2024-6-16T13:20:8Z</time></trkpt>
<trkpt lat="46.25787" lon="7.24618"><ele></ele><time>2024-6-16T13:20:11Z</time></trkpt>
<trkpt lat="46.25798" lon="7.24616"><ele></ele><time>2024-6-16T13:20:14Z</time></trkpt>
<trkpt lat="46.25809" lon="7.2461"><ele></ele><time>2024-6-16T13:20:17Z</time></trkpt>
<trkpt lat="46.25819" lon="7.24601"><ele></ele><time>2024-6-16T13:20:20Z</time></trkpt>
<trkpt lat="46.25829" lon="7.24591"><ele></ele><time>2024-6-16T13:20:23Z</time></trkpt>
<trkpt lat="46.25836" lon="7.24578"><ele></ele><time>2024-6-16T13:20:26Z</time></trkpt>
<trkpt lat="46.25838" lon="7.2457"><ele></ele><time>2024-6-16T13:20:29Z</time></trkpt>
<trkpt lat="46.25838" lon="7.24561"><ele></ele><time>2024-6-16T13:20:32Z</time></trkpt>
<trkpt lat="46.25835" lon="7.24545"><ele></ele><time>2024-6-16T13:20:35Z</time></trkpt>
<trkpt lat="46.25829" lon="7.24529"><ele></ele><time>2024-6-16T13:20:38Z</time></trkpt>
<trkpt lat="46.25826" lon="7.24513"><ele></ele><time>2024-6-16T13:20:41Z</time></trkpt>
<trkpt lat="46.25826" lon="7.24505"><ele></ele><time>2024-6-16T13:20:44Z</time></trkpt>
<trkpt lat="46.2583" lon="7.24487"><ele></ele><time>2024-6-16T13:20:47Z</time></trkpt>
<trkpt lat="46.25834" lon="7.24479"><ele></ele><time>2024-6-16T13:20:50Z</time></trkpt>
<trkpt lat="46.25838" lon="7.24472"><ele></ele><time>2024-6-16T13:20:53Z</time></trkpt>
<trkpt lat="46.25845" lon="7.24459"><ele></ele><time>2024-6-16T13:20:56Z</time></trkpt>
<trkpt lat="46.25856" lon="7.24448"><ele></ele><time>2024-6-16T13:20:59Z</time></trkpt>
<trkpt lat="46.25864" lon="7.2444"><ele></ele><time>2024-6-16T13:21:2Z</time></trkpt>
<trkpt lat="46.25884" lon="7.24426"><ele></ele><time>2024-6-16T13:21:5Z</time></trkpt>
<trkpt lat="46.25976" lon="7.24399"><ele></ele><time>2024-6-16T13:21:8Z</time></trkpt>
<trkpt lat="46.25986" lon="7.24407"><ele></ele><time>2024-6-16T13:21:11Z</time></trkpt>
<trkpt lat="46.2599" lon="7.24417"><ele></ele><time>2024-6-16T13:21:14Z</time></trkpt>
<trkpt lat="46.2601" lon="7.24442"><ele></ele><time>2024-6-16T13:21:17Z</time></trkpt>
<trkpt lat="46.26018" lon="7.24446"><ele></ele><time>2024-6-16T13:21:20Z</time></trkpt>
<trkpt lat="46.26027" lon="7.24445"><ele></ele><time>2024-6-16T13:21:23Z</time></trkpt>
<trkpt lat="46.26042" lon="7.24436"><ele></ele><time>2024-6-16T13:21:26Z</time></trkpt>
<trkpt lat="46.26051" lon="7.24431"><ele></ele><time>2024-6-16T13:21:29Z</time></trkpt>
<trkpt lat="46.26073" lon="7.2442"><ele></ele><time>2024-6-16T13:21:32Z</time></trkpt>
<trkpt lat="46.26077" lon="7.24419"><ele></ele><time>2024-6-16T13:21:35Z</time></trkpt>
<trkpt lat="46.26098" lon="7.24419"><ele></ele><time>2024-6-16T13:21:38Z</time></trkpt>
<trkpt lat="46.26102" lon="7.24421"><ele></ele><time>2024-6-16T13:21:41Z</time></trkpt>
<trkpt lat="46.26106" lon="7.24422"><ele></ele><time>2024-6-16T13:21:44Z</time></trkpt>
<trkpt lat="46.26113" lon="7.24427"><ele></ele><time>2024-6-16T13:21:47Z</time></trkpt>
<trkpt lat="46.2612" lon="7.24433"><ele></ele><time>2024-6-16T13:21:50Z</time></trkpt>
<trkpt lat="46.26128" lon="7.24445"><ele></ele><time>2024-6-16T13:21:53Z</time></trkpt>
<trkpt lat="46.26133" lon="7.24455"><ele></ele><time>2024-6-16T13:21:56Z</time></trkpt>
<trkpt lat="46.26134" lon="7.24461"><ele></ele><time>2024-6-16T13:21:59Z</time></trkpt>
<trkpt lat="46.26144" lon="7.24489"><ele></ele><time>2024-6-16T13:22:2Z</time></trkpt>
<trkpt lat="46.26152" lon="7.24496"><ele></ele><time>2024-6-16T13:22:5Z</time></trkpt>
<trkpt lat="46.26161" lon="7.24501"><ele></ele><time>2024-6-16T13:22:8Z</time></trkpt>
<trkpt lat="46.26192" lon="7.24517"><ele></ele><time>2024-6-16T13:22:11Z</time></trkpt>
<trkpt lat="46.26198" lon="7.2452"><ele></ele><time>2024-6-16T13:22:14Z</time></trkpt>
<trkpt lat="46.26226" lon="7.24535"><ele></ele><time>2024-6-16T13:22:17Z</time></trkpt>
<trkpt lat="46.26232" lon="7.24535"><ele></ele><time>2024-6-16T13:22:20Z</time></trkpt>
<trkpt lat="46.26238" lon="7.24537"><ele></ele><time>2024-6-16T13:22:23Z</time></trkpt>
<trkpt lat="46.26248" lon="7.24537"><ele></ele><time>2024-6-16T13:22:26Z</time></trkpt>
<trkpt lat="46.26278" lon="7.24538"><ele></ele><time>2024-6-16T13:22:29Z</time></trkpt>
<trkpt lat="46.26289" lon="7.24542"><ele></ele><time>2024-6-16T13:22:32Z</time></trkpt>
<trkpt lat="46.26308" lon="7.24546"><ele></ele><time>2024-6-16T13:22:35Z</time></trkpt>
<trkpt lat="46.26336" lon="7.24554"><ele></ele><time>2024-6-16T13:22:38Z</time></trkpt>
<trkpt lat="46.26347" lon="7.24554"><ele></ele><time>2024-6-16T13:22:41Z</time></trkpt>
<trkpt lat="46.26358" lon="7.2455"><ele></ele><time>2024-6-16T13:22:44Z</time></trkpt>
<trkpt lat="46.2639" lon="7.24537"><ele></ele><time>2024-6-16T13:22:47Z</time></trkpt>
<trkpt lat="46.2642" lon="7.24528"><ele></ele><time>2024-6-16T13:22:50Z</time></trkpt>
<trkpt lat="46.26443" lon="7.24532"><ele></ele><time>2024-6-16T13:22:53Z</time></trkpt>
<trkpt lat="46.26466" lon="7.24535"><ele></ele><time>2024-6-16T13:22:56Z</time></trkpt>
<trkpt lat="46.26474" lon="7.24534"><ele></ele><time>2024-6-16T13:22:59Z</time></trkpt>
<trkpt lat="46.26496" lon="7.24532"><ele></ele><time>2024-6-16T13:23:2Z</time></trkpt>
<trkpt lat="46.265" lon="7.24533"><ele></ele><time>2024-6-16T13:23:5Z</time></trkpt>
<trkpt lat="46.26508" lon="7.24538"><ele></ele><time>2024-6-16T13:23:8Z</time></trkpt>
<trkpt lat="46.26512" lon="7.24541"><ele></ele><time>2024-6-16T13:23:11Z</time></trkpt>
<trkpt lat="46.26518" lon="7.24549"><ele></ele><time>2024-6-16T13:23:14Z</time></trkpt>
<trkpt lat="46.26529" lon="7.24564"><ele></ele><time>2024-6-16T13:23:17Z</time></trkpt>
<trkpt lat="46.26541" lon="7.24576"><ele></ele><time>2024-6-16T13:23:20Z</time></trkpt>
<trkpt lat="46.26549" lon="7.24579"><ele></ele><time>2024-6-16T13:23:23Z</time></trkpt>
<trkpt lat="46.26558" lon="7.2458"><ele></ele><time>2024-6-16T13:23:26Z</time></trkpt>
<trkpt lat="46.26566" lon="7.24577"><ele></ele><time>2024-6-16T13:23:29Z</time></trkpt>
<trkpt lat="46.26571" lon="7.24574"><ele></ele><time>2024-6-16T13:23:32Z</time></trkpt>
<trkpt lat="46.26583" lon="7.24561"><ele></ele><time>2024-6-16T13:23:35Z</time></trkpt>
<trkpt lat="46.26605" lon="7.24538"><ele></ele><time>2024-6-16T13:23:38Z</time></trkpt>
<trkpt lat="46.2661" lon="7.24536"><ele></ele><time>2024-6-16T13:23:41Z</time></trkpt>
<trkpt lat="46.26642" lon="7.24521"><ele></ele><time>2024-6-16T13:23:44Z</time></trkpt>
<trkpt lat="46.2668" lon="7.24506"><ele></ele><time>2024-6-16T13:23:47Z</time></trkpt>
<trkpt lat="46.26709" lon="7.24499"><ele></ele><time>2024-6-16T13:23:50Z</time></trkpt>
<trkpt lat="46.26714" lon="7.24496"><ele></ele><time>2024-6-16T13:23:53Z</time></trkpt>
<trkpt lat="46.26723" lon="7.24488"><ele></ele><time>2024-6-16T13:23:56Z</time></trkpt>
<trkpt lat="46.26733" lon="7.24476"><ele></ele><time>2024-6-16T13:23:59Z</time></trkpt>
<trkpt lat="46.26753" lon="7.24446"><ele></ele><time>2024-6-16T13:24:2Z</time></trkpt>
<trkpt lat="46.26755" lon="7.24432"><ele></ele><time>2024-6-16T13:24:5Z</time></trkpt>
<trkpt lat="46.26756" lon="7.24419"><ele></ele><time>2024-6-16T13:24:8Z</time></trkpt>
<trkpt lat="46.26768" lon="7.24404"><ele></ele><time>2024-6-16T13:24:11Z</time></trkpt>
<trkpt lat="46.26782" lon="7.24406"><ele></ele><time>2024-6-16T13:24:14Z</time></trkpt>
<trkpt lat="46.26797" lon="7.24415"><ele></ele><time>2024-6-16T13:24:17Z</time></trkpt>
<trkpt lat="46.26799" lon="7.24416"><ele></ele><time>2024-6-16T13:24:20Z</time></trkpt>
<trkpt lat="46.26809" lon="7.2442"><ele></ele><time>2024-6-16T13:24:23Z</time></trkpt>
<trkpt lat="46.26812" lon="7.2442"><ele></ele><time>2024-6-16T13:24:26Z</time></trkpt>
<trkpt lat="46.26821" lon="7.24423"><ele></ele><time>2024-6-16T13:24:29Z</time></trkpt>
<trkpt lat="46.26825" lon="7.24426"><ele></ele><time>2024-6-16T13:24:32Z</time></trkpt>
<trkpt lat="46.26833" lon="7.24424"><ele></ele><time>2024-6-16T13:24:35Z</time></trkpt>
<trkpt lat="46.26837" lon="7.24422"><ele></ele><time>2024-6-16T13:24:38Z</time></trkpt>
<trkpt lat="46.26845" lon="7.24409"><ele></ele><time>2024-6-16T13:24:41Z</time></trkpt>
<trkpt lat="46.26857" lon="7.2439"><ele></ele><time>2024-6-16T13:24:44Z</time></trkpt>
<trkpt lat="46.26878" lon="7.24358"><ele></ele><time>2024-6-16T13:24:47Z</time></trkpt>
<trkpt lat="46.26888" lon="7.24346"><ele></ele><time>2024-6-16T13:24:50Z</time></trkpt>
<trkpt lat="46.26898" lon="7.24334"><ele></ele><time>2024-6-16T13:24:53Z</time></trkpt>
<trkpt lat="46.2691" lon="7.2431"><ele></ele><time>2024-6-16T13:24:56Z</time></trkpt>
<trkpt lat="46.26917" lon="7.24292"><ele></ele><time>2024-6-16T13:24:59Z</time></trkpt>
<trkpt lat="46.26919" lon="7.24286"><ele></ele><time>2024-6-16T13:25:2Z</time></trkpt>
<trkpt lat="46.26934" lon="7.24267"><ele></ele><time>2024-6-16T13:25:5Z</time></trkpt>
<trkpt lat="46.26953" lon="7.24254"><ele></ele><time>2024-6-16T13:25:8Z</time></trkpt>
<trkpt lat="46.26965" lon="7.24245"><ele></ele><time>2024-6-16T13:25:11Z</time></trkpt>
<trkpt lat="46.26978" lon="7.24238"><ele></ele><time>2024-6-16T13:25:14Z</time></trkpt>
<trkpt lat="46.26983" lon="7.24233"><ele></ele><time>2024-6-16T13:25:17Z</time></trkpt>
<trkpt lat="46.2699" lon="7.24218"><ele></ele><time>2024-6-16T13:25:20Z</time></trkpt>
<trkpt lat="46.26999" lon="7.2418"><ele></ele><time>2024-6-16T13:25:23Z</time></trkpt>
<trkpt lat="46.27004" lon="7.24169"><ele></ele><time>2024-6-16T13:25:26Z</time></trkpt>
<trkpt lat="46.27012" lon="7.24159"><ele></ele><time>2024-6-16T13:25:29Z</time></trkpt>
<trkpt lat="46.27039" lon="7.24124"><ele></ele><time>2024-6-16T13:25:32Z</time></trkpt>
<trkpt lat="46.27057" lon="7.24098"><ele></ele><time>2024-6-16T13:25:35Z</time></trkpt>
<trkpt lat="46.27066" lon="7.24092"><ele></ele><time>2024-6-16T13:25:38Z</time></trkpt>
<trkpt lat="46.27075" lon="7.24084"><ele></ele><time>2024-6-16T13:25:41Z</time></trkpt>
<trkpt lat="46.27089" lon="7.24076"><ele></ele><time>2024-6-16T13:25:44Z</time></trkpt>
<trkpt lat="46.27099" lon="7.24069"><ele></ele><time>2024-6-16T13:25:47Z</time></trkpt>
<trkpt lat="46.27114" lon="7.24048"><ele></ele><time>2024-6-16T13:25:50Z</time></trkpt>
<trkpt lat="46.27115" lon="7.24029"><ele></ele><time>2024-6-16T13:25:53Z</time></trkpt>
<trkpt lat="46.27111" lon="7.24014"><ele></ele><time>2024-6-16T13:25:56Z</time></trkpt>
<trkpt lat="46.2711" lon="7.24004"><ele></ele><time>2024-6-16T13:25:59Z</time></trkpt>
<trkpt lat="46.27108" lon="7.23996"><ele></ele><time>2024-6-16T13:26:2Z</time></trkpt>
<trkpt lat="46.27107" lon="7.23981"><ele></ele><time>2024-6-16T13:26:5Z</time></trkpt>
<trkpt lat="46.27105" lon="7.2397"><ele></ele><time>2024-6-16T13:26:8Z</time></trkpt>
<trkpt lat="46.27105" lon="7.23968"><ele></ele><time>2024-6-16T13:26:11Z</time></trkpt>
<trkpt lat="46.27103" lon="7.23959"><ele></ele><time>2024-6-16T13:26:14Z</time></trkpt>
<trkpt lat="46.27102" lon="7.23949"><ele></ele><time>2024-6-16T13:26:17Z</time></trkpt>
<trkpt lat="46.27102" lon="7.23944"><ele></ele><time>2024-6-16T13:26:20Z</time></trkpt>
<trkpt lat="46.27102" lon="7.23933"><ele></ele><time>2024-6-16T13:26:23Z</time></trkpt>
<trkpt lat="46.27103" lon="7.23924"><ele></ele><time>2024-6-16T13:26:26Z</time></trkpt>
<trkpt lat="46.27104" lon="7.23919"><ele></ele><time>2024-6-16T13:26:29Z</time></trkpt>
<trkpt lat="46.27107" lon="7.2391"><ele></ele><time>2024-6-16T13:26:32Z</time></trkpt>
<trkpt lat="46.27107" lon="7.23908"><ele></ele><time>2024-6-16T13:26:35Z</time></trkpt>
<trkpt lat="46.27112" lon="7.239"><ele></ele><time>2024-6-16T13:26:38Z</time></trkpt>
<trkpt lat="46.27113" lon="7.23899"><ele></ele><time>2024-6-16T13:26:41Z</time></trkpt>
<trkpt lat="46.2712" lon="7.23894"><ele></ele><time>2024-6-16T13:26:44Z</time></trkpt>
<trkpt lat="46.27126" lon="7.2389"><ele></ele><time>2024-6-16T13:26:47Z</time></trkpt>
<trkpt lat="46.27129" lon="7.2389"><ele></ele><time>2024-6-16T13:26:50Z</time></trkpt>
<trkpt lat="46.27135" lon="7.23891"><ele></ele><time>2024-6-16T13:26:53Z</time></trkpt>
<trkpt lat="46.27139" lon="7.23893"><ele></ele><time>2024-6-16T13:26:56Z</time></trkpt>
<trkpt lat="46.27143" lon="7.23895"><ele></ele><time>2024-6-16T13:26:59Z</time></trkpt>
<trkpt lat="46.27151" lon="7.23901"><ele></ele><time>2024-6-16T13:27:2Z</time></trkpt>
<trkpt lat="46.27153" lon="7.23902"><ele></ele><time>2024-6-16T13:27:5Z</time></trkpt>
<trkpt lat="46.27163" lon="7.23908"><ele></ele><time>2024-6-16T13:27:8Z</time></trkpt>
<trkpt lat="46.27168" lon="7.23911"><ele></ele><time>2024-6-16T13:27:11Z</time></trkpt>
<trkpt lat="46.27173" lon="7.23912"><ele></ele><time>2024-6-16T13:27:14Z</time></trkpt>
<trkpt lat="46.27177" lon="7.23913"><ele></ele><time>2024-6-16T13:27:17Z</time></trkpt>
<trkpt lat="46.27183" lon="7.23915"><ele></ele><time>2024-6-16T13:27:20Z</time></trkpt>
<trkpt lat="46.27185" lon="7.23915"><ele></ele><time>2024-6-16T13:27:23Z</time></trkpt>
<trkpt lat="46.27192" lon="7.23915"><ele></ele><time>2024-6-16T13:27:26Z</time></trkpt>
<trkpt lat="46.27196" lon="7.23916"><ele></ele><time>2024-6-16T13:27:29Z</time></trkpt>
<trkpt lat="46.27201" lon="7.23916"><ele></ele><time>2024-6-16T13:27:32Z</time></trkpt>
<trkpt lat="46.27209" lon="7.23914"><ele></ele><time>2024-6-16T13:27:35Z</time></trkpt>
<trkpt lat="46.2721" lon="7.23914"><ele></ele><time>2024-6-16T13:27:38Z</time></trkpt>
<trkpt lat="46.27217" lon="7.23911"><ele></ele><time>2024-6-16T13:27:41Z</time></trkpt>
<trkpt lat="46.27219" lon="7.2391"><ele></ele><time>2024-6-16T13:27:44Z</time></trkpt>
<trkpt lat="46.27225" lon="7.23907"><ele></ele><time>2024-6-16T13:27:47Z</time></trkpt>
<trkpt lat="46.27235" lon="7.23899"><ele></ele><time>2024-6-16T13:27:50Z</time></trkpt>
<trkpt lat="46.27236" lon="7.23898"><ele></ele><time>2024-6-16T13:27:53Z</time></trkpt>
<trkpt lat="46.27238" lon="7.23896"><ele></ele><time>2024-6-16T13:27:56Z</time></trkpt>
<trkpt lat="46.27242" lon="7.2389"><ele></ele><time>2024-6-16T13:27:59Z</time></trkpt>
<trkpt lat="46.27244" lon="7.23886"><ele></ele><time>2024-6-16T13:28:2Z</time></trkpt>
<trkpt lat="46.27246" lon="7.23884"><ele></ele><time>2024-6-16T13:28:5Z</time></trkpt>
<trkpt lat="46.27247" lon="7.23881"><ele></ele><time>2024-6-16T13:28:8Z</time></trkpt>
<trkpt lat="46.2725" lon="7.23877"><ele></ele><time>2024-6-16T13:28:11Z</time></trkpt>
<trkpt lat="46.27257" lon="7.23868"><ele></ele><time>2024-6-16T13:28:14Z</time></trkpt>
<trkpt lat="46.27262" lon="7.23862"><ele></ele><time>2024-6-16T13:28:17Z</time></trkpt>
<trkpt lat="46.27263" lon="7.2386"><ele></ele><time>2024-6-16T13:28:20Z</time></trkpt>
<trkpt lat="46.27271" lon="7.23856"><ele></ele><time>2024-6-16T13:28:23Z</time></trkpt>
<trkpt lat="46.27277" lon="7.23854"><ele></ele><time>2024-6-16T13:28:26Z</time></trkpt>
<trkpt lat="46.27279" lon="7.23854"><ele></ele><time>2024-6-16T13:28:29Z</time></trkpt>
<trkpt lat="46.27287" lon="7.23853"><ele></ele><time>2024-6-16T13:28:32Z</time></trkpt>
<trkpt lat="46.27289" lon="7.23853"><ele></ele><time>2024-6-16T13:28:35Z</time></trkpt>
<trkpt lat="46.27295" lon="7.23854"><ele></ele><time>2024-6-16T13:28:38Z</time></trkpt>
<trkpt lat="46.27303" lon="7.23857"><ele></ele><time>2024-6-16T13:28:41Z</time></trkpt>
<trkpt lat="46.27315" lon="7.23859"><ele></ele><time>2024-6-16T13:28:44Z</time></trkpt>
<trkpt lat="46.27317" lon="7.2386"><ele></ele><time>2024-6-16T13:28:47Z</time></trkpt>
<trkpt lat="46.27322" lon="7.2386"><ele></ele><time>2024-6-16T13:28:50Z</time></trkpt>
<trkpt lat="46.27326" lon="7.23859"><ele></ele><time>2024-6-16T13:28:53Z</time></trkpt>
<trkpt lat="46.27331" lon="7.23858"><ele></ele><time>2024-6-16T13:28:56Z</time></trkpt>
<trkpt lat="46.27336" lon="7.23857"><ele></ele><time>2024-6-16T13:28:59Z</time></trkpt>
<trkpt lat="46.27339" lon="7.23855"><ele></ele><time>2024-6-16T13:29:2Z</time></trkpt>
<trkpt lat="46.27345" lon="7.2385"><ele></ele><time>2024-6-16T13:29:5Z</time></trkpt>
<trkpt lat="46.27346" lon="7.23849"><ele></ele><time>2024-6-16T13:29:8Z</time></trkpt>
<trkpt lat="46.27352" lon="7.23849"><ele></ele><time>2024-6-16T13:29:11Z</time></trkpt>
<trkpt lat="46.27355" lon="7.23847"><ele></ele><time>2024-6-16T13:29:14Z</time></trkpt>
<trkpt lat="46.27356" lon="7.23846"><ele></ele><time>2024-6-16T13:29:17Z</time></trkpt>
<trkpt lat="46.27355" lon="7.23841"><ele></ele><time>2024-6-16T13:29:20Z</time></trkpt>
<trkpt lat="46.27355" lon="7.23843"><ele></ele><time>2024-6-16T13:29:23Z</time></trkpt>
<trkpt lat="46.27353" lon="7.23846"><ele></ele><time>2024-6-16T13:29:26Z</time></trkpt>
<trkpt lat="46.27351" lon="7.23844"><ele></ele><time>2024-6-16T13:29:29Z</time></trkpt>
<trkpt lat="46.27351" lon="7.2384"><ele></ele><time>2024-6-16T13:29:32Z</time></trkpt>
<trkpt lat="46.27352" lon="7.23838"><ele></ele><time>2024-6-16T13:29:35Z</time></trkpt>
<trkpt lat="46.27353" lon="7.23838"><ele></ele><time>2024-6-16T13:29:38Z</time></trkpt>
<trkpt lat="46.27356" lon="7.23843"><ele></ele><time>2024-6-16T13:29:41Z</time></trkpt>
<trkpt lat="46.27356" lon="7.23844"><ele></ele><time>2024-6-16T13:29:44Z</time></trkpt>
<trkpt lat="46.27353" lon="7.23842"><ele></ele><time>2024-6-16T13:29:47Z</time></trkpt>
<trkpt lat="46.27352" lon="7.23841"><ele></ele><time>2024-6-16T13:29:50Z</time></trkpt>
<trkpt lat="46.27352" lon="7.23841"><ele></ele><time>2024-6-16T13:29:53Z</time></trkpt>
<trkpt lat="46.27352" lon="7.23841"><ele></ele><time>2024-6-16T13:29:56Z</time></trkpt>
<trkpt lat="46.27351" lon="7.23844"><ele></ele><time>2024-6-16T13:29:59Z</time></trkpt>
<trkpt lat="46.27349" lon="7.23841"><ele></ele><time>2024-6-16T13:30:2Z</time></trkpt>
<trkpt lat="46.27351" lon="7.23842"><ele></ele><time>2024-6-16T13:30:5Z</time></trkpt>
<trkpt lat="46.27354" lon="7.23842"><ele></ele><time>2024-6-16T13:30:8Z</time></trkpt>
<trkpt lat="46.27355" lon="7.2384"><ele></ele><time>2024-6-16T13:30:11Z</time></trkpt>
<trkpt lat="46.27355" lon="7.23839"><ele></ele><time>2024-6-16T13:30:14Z</time></trkpt>
<trkpt lat="46.27354" lon="7.23841"><ele></ele><time>2024-6-16T13:30:17Z</time></trkpt>
<trkpt lat="46.27355" lon="7.23841"><ele></ele><time>2024-6-16T13:30:20Z</time></trkpt>
<trkpt lat="46.27355" lon="7.23841"><ele></ele><time>2024-6-16T13:30:23Z</time></trkpt>
<trkpt lat="46.27351" lon="7.23841"><ele></ele><time>2024-6-16T13:30:26Z</time></trkpt>
<trkpt lat="46.27353" lon="7.23834"><ele></ele><time>2024-6-16T13:30:29Z</time></trkpt>
<trkpt lat="46.27362" lon="7.23824"><ele></ele><time>2024-6-16T13:30:32Z</time></trkpt>
<trkpt lat="46.27368" lon="7.23817"><ele></ele><time>2024-6-16T13:30:35Z</time></trkpt>
<trkpt lat="46.2737" lon="7.23814"><ele></ele><time>2024-6-16T13:30:38Z</time></trkpt>
<trkpt lat="46.27373" lon="7.23807"><ele></ele><time>2024-6-16T13:30:41Z</time></trkpt>
<trkpt lat="46.27374" lon="7.23806"><ele></ele><time>2024-6-16T13:30:44Z</time></trkpt>
<trkpt lat="46.27379" lon="7.238"><ele></ele><time>2024-6-16T13:30:47Z</time></trkpt>
<trkpt lat="46.27381" lon="7.23797"><ele></ele><time>2024-6-16T13:30:50Z</time></trkpt>
<trkpt lat="46.27387" lon="7.23788"><ele></ele><time>2024-6-16T13:30:53Z</time></trkpt>
<trkpt lat="46.27395" lon="7.2378"><ele></ele><time>2024-6-16T13:30:56Z</time></trkpt>
<trkpt lat="46.27398" lon="7.23776"><ele></ele><time>2024-6-16T13:30:59Z</time></trkpt>
<trkpt lat="46.27403" lon="7.23772"><ele></ele><time>2024-6-16T13:31:2Z</time></trkpt>
<trkpt lat="46.27404" lon="7.23771"><ele></ele><time>2024-6-16T13:31:5Z</time></trkpt>
<trkpt lat="46.27411" lon="7.23762"><ele></ele><time>2024-6-16T13:31:8Z</time></trkpt>
<trkpt lat="46.27415" lon="7.23758"><ele></ele><time>2024-6-16T13:31:11Z</time></trkpt>
<trkpt lat="46.27421" lon="7.2375"><ele></ele><time>2024-6-16T13:31:14Z</time></trkpt>
<trkpt lat="46.27423" lon="7.23748"><ele></ele><time>2024-6-16T13:31:17Z</time></trkpt>
<trkpt lat="46.27426" lon="7.23744"><ele></ele><time>2024-6-16T13:31:20Z</time></trkpt>
<trkpt lat="46.27432" lon="7.23734"><ele></ele><time>2024-6-16T13:31:23Z</time></trkpt>
<trkpt lat="46.27433" lon="7.23733"><ele></ele><time>2024-6-16T13:31:26Z</time></trkpt>
<trkpt lat="46.27438" lon="7.23722"><ele></ele><time>2024-6-16T13:31:29Z</time></trkpt>
<trkpt lat="46.27439" lon="7.23712"><ele></ele><time>2024-6-16T13:31:32Z</time></trkpt>
<trkpt lat="46.27439" lon="7.23707"><ele></ele><time>2024-6-16T13:31:35Z</time></trkpt>
<trkpt lat="46.27434" lon="7.23687"><ele></ele><time>2024-6-16T13:31:38Z</time></trkpt>
<trkpt lat="46.27432" lon="7.23666"><ele></ele><time>2024-6-16T13:31:41Z</time></trkpt>
<trkpt lat="46.27426" lon="7.23637"><ele></ele><time>2024-6-16T13:31:44Z</time></trkpt>
<trkpt lat="46.27424" lon="7.2362"><ele></ele><time>2024-6-16T13:31:47Z</time></trkpt>
<trkpt lat="46.27424" lon="7.23617"><ele></ele><time>2024-6-16T13:31:50Z</time></trkpt>
<trkpt lat="46.27422" lon="7.236"><ele></ele><time>2024-6-16T13:31:53Z</time></trkpt>
<trkpt lat="46.27418" lon="7.23577"><ele></ele><time>2024-6-16T13:31:56Z</time></trkpt>
<trkpt lat="46.27419" lon="7.23556"><ele></ele><time>2024-6-16T13:31:59Z</time></trkpt>
<trkpt lat="46.27425" lon="7.23544"><ele></ele><time>2024-6-16T13:32:2Z</time></trkpt>
<trkpt lat="46.27426" lon="7.23535"><ele></ele><time>2024-6-16T13:32:5Z</time></trkpt>
<trkpt lat="46.27428" lon="7.23532"><ele></ele><time>2024-6-16T13:32:8Z</time></trkpt>
<trkpt lat="46.27432" lon="7.23526"><ele></ele><time>2024-6-16T13:32:11Z</time></trkpt>
<trkpt lat="46.27435" lon="7.23523"><ele></ele><time>2024-6-16T13:32:14Z</time></trkpt>
<trkpt lat="46.27443" lon="7.23518"><ele></ele><time>2024-6-16T13:32:17Z</time></trkpt>
<trkpt lat="46.27444" lon="7.23518"><ele></ele><time>2024-6-16T13:32:20Z</time></trkpt>
<trkpt lat="46.27451" lon="7.23515"><ele></ele><time>2024-6-16T13:32:23Z</time></trkpt>
<trkpt lat="46.27452" lon="7.23514"><ele></ele><time>2024-6-16T13:32:26Z</time></trkpt>
<trkpt lat="46.27455" lon="7.23513"><ele></ele><time>2024-6-16T13:32:29Z</time></trkpt>
<trkpt lat="46.27458" lon="7.23512"><ele></ele><time>2024-6-16T13:32:32Z</time></trkpt>
<trkpt lat="46.27463" lon="7.23509"><ele></ele><time>2024-6-16T13:32:35Z</time></trkpt>
<trkpt lat="46.27465" lon="7.23507"><ele></ele><time>2024-6-16T13:32:38Z</time></trkpt>
<trkpt lat="46.27468" lon="7.23505"><ele></ele><time>2024-6-16T13:32:41Z</time></trkpt>
<trkpt lat="46.27469" lon="7.23504"><ele></ele><time>2024-6-16T13:32:44Z</time></trkpt>
<trkpt lat="46.27476" lon="7.23502"><ele></ele><time>2024-6-16T13:32:47Z</time></trkpt>
<trkpt lat="46.27481" lon="7.23499"><ele></ele><time>2024-6-16T13:32:50Z</time></trkpt>
<trkpt lat="46.27485" lon="7.23498"><ele></ele><time>2024-6-16T13:32:53Z</time></trkpt>
<trkpt lat="46.27492" lon="7.23499"><ele></ele><time>2024-6-16T13:32:56Z</time></trkpt>
<trkpt lat="46.27496" lon="7.23499"><ele></ele><time>2024-6-16T13:32:59Z</time></trkpt>
<trkpt lat="46.27498" lon="7.23498"><ele></ele><time>2024-6-16T13:33:2Z</time></trkpt>
<trkpt lat="46.27502" lon="7.23497"><ele></ele><time>2024-6-16T13:33:5Z</time></trkpt>
<trkpt lat="46.2751" lon="7.23498"><ele></ele><time>2024-6-16T13:33:8Z</time></trkpt>
<trkpt lat="46.27513" lon="7.23498"><ele></ele><time>2024-6-16T13:33:11Z</time></trkpt>
<trkpt lat="46.27521" lon="7.23495"><ele></ele><time>2024-6-16T13:33:14Z</time></trkpt>
<trkpt lat="46.27533" lon="7.23497"><ele></ele><time>2024-6-16T13:33:17Z</time></trkpt>
<trkpt lat="46.27534" lon="7.23497"><ele></ele><time>2024-6-16T13:33:20Z</time></trkpt>
<trkpt lat="46.2754" lon="7.23505"><ele></ele><time>2024-6-16T13:33:23Z</time></trkpt>
<trkpt lat="46.27541" lon="7.23509"><ele></ele><time>2024-6-16T13:33:26Z</time></trkpt>
<trkpt lat="46.27544" lon="7.23518"><ele></ele><time>2024-6-16T13:33:29Z</time></trkpt>
<trkpt lat="46.27545" lon="7.23521"><ele></ele><time>2024-6-16T13:33:32Z</time></trkpt>
<trkpt lat="46.27548" lon="7.23528"><ele></ele><time>2024-6-16T13:33:35Z</time></trkpt>
<trkpt lat="46.27551" lon="7.23537"><ele></ele><time>2024-6-16T13:33:38Z</time></trkpt>
<trkpt lat="46.27553" lon="7.23539"><ele></ele><time>2024-6-16T13:33:41Z</time></trkpt>
<trkpt lat="46.27561" lon="7.23545"><ele></ele><time>2024-6-16T13:33:44Z</time></trkpt>
<trkpt lat="46.27562" lon="7.23546"><ele></ele><time>2024-6-16T13:33:47Z</time></trkpt>
<trkpt lat="46.27574" lon="7.23544"><ele></ele><time>2024-6-16T13:33:50Z</time></trkpt>
<trkpt lat="46.27579" lon="7.23542"><ele></ele><time>2024-6-16T13:33:53Z</time></trkpt>
<trkpt lat="46.27582" lon="7.23539"><ele></ele><time>2024-6-16T13:33:56Z</time></trkpt>
<trkpt lat="46.27587" lon="7.23531"><ele></ele><time>2024-6-16T13:33:59Z</time></trkpt>
<trkpt lat="46.27588" lon="7.23531"><ele></ele><time>2024-6-16T13:34:2Z</time></trkpt>
<trkpt lat="46.27589" lon="7.23529"><ele></ele><time>2024-6-16T13:34:5Z</time></trkpt>
<trkpt lat="46.27592" lon="7.23524"><ele></ele><time>2024-6-16T13:34:8Z</time></trkpt>
<trkpt lat="46.27593" lon="7.23523"><ele></ele><time>2024-6-16T13:34:11Z</time></trkpt>
<trkpt lat="46.27594" lon="7.23522"><ele></ele><time>2024-6-16T13:34:14Z</time></trkpt>
<trkpt lat="46.276" lon="7.23513"><ele></ele><time>2024-6-16T13:34:17Z</time></trkpt>
<trkpt lat="46.27601" lon="7.23512"><ele></ele><time>2024-6-16T13:34:20Z</time></trkpt>
<trkpt lat="46.27607" lon="7.23506"><ele></ele><time>2024-6-16T13:34:23Z</time></trkpt>
<trkpt lat="46.27613" lon="7.23499"><ele></ele><time>2024-6-16T13:34:26Z</time></trkpt>
<trkpt lat="46.27621" lon="7.23489"><ele></ele><time>2024-6-16T13:34:29Z</time></trkpt>
<trkpt lat="46.27629" lon="7.23481"><ele></ele><time>2024-6-16T13:34:32Z</time></trkpt>
<trkpt lat="46.27637" lon="7.23472"><ele></ele><time>2024-6-16T13:34:35Z</time></trkpt>
<trkpt lat="46.27637" lon="7.23471"><ele></ele><time>2024-6-16T13:34:38Z</time></trkpt>
<trkpt lat="46.27643" lon="7.23464"><ele></ele><time>2024-6-16T13:34:41Z</time></trkpt>
<trkpt lat="46.27644" lon="7.23463"><ele></ele><time>2024-6-16T13:34:44Z</time></trkpt>
<trkpt lat="46.27647" lon="7.23458"><ele></ele><time>2024-6-16T13:34:47Z</time></trkpt>
<trkpt lat="46.27648" lon="7.23457"><ele></ele><time>2024-6-16T13:34:50Z</time></trkpt>
<trkpt lat="46.27652" lon="7.23452"><ele></ele><time>2024-6-16T13:34:53Z</time></trkpt>
<trkpt lat="46.27657" lon="7.23445"><ele></ele><time>2024-6-16T13:34:56Z</time></trkpt>
<trkpt lat="46.27663" lon="7.23438"><ele></ele><time>2024-6-16T13:34:59Z</time></trkpt>
<trkpt lat="46.27665" lon="7.23436"><ele></ele><time>2024-6-16T13:35:2Z</time></trkpt>
<trkpt lat="46.27668" lon="7.23432"><ele></ele><time>2024-6-16T13:35:5Z</time></trkpt>
<trkpt lat="46.27673" lon="7.23426"><ele></ele><time>2024-6-16T13:35:8Z</time></trkpt>
<trkpt lat="46.27679" lon="7.2342"><ele></ele><time>2024-6-16T13:35:11Z</time></trkpt>
<trkpt lat="46.27684" lon="7.23416"><ele></ele><time>2024-6-16T13:35:14Z</time></trkpt>
<trkpt lat="46.27686" lon="7.23415"><ele></ele><time>2024-6-16T13:35:17Z</time></trkpt>
<trkpt lat="46.27695" lon="7.23411"><ele></ele><time>2024-6-16T13:35:20Z</time></trkpt>
<trkpt lat="46.27698" lon="7.23412"><ele></ele><time>2024-6-16T13:35:23Z</time></trkpt>
<trkpt lat="46.27703" lon="7.23412"><ele></ele><time>2024-6-16T13:35:26Z</time></trkpt>
<trkpt lat="46.27711" lon="7.23411"><ele></ele><time>2024-6-16T13:35:29Z</time></trkpt>
<trkpt lat="46.27714" lon="7.23412"><ele></ele><time>2024-6-16T13:35:32Z</time></trkpt>
<trkpt lat="46.27719" lon="7.23411"><ele></ele><time>2024-6-16T13:35:35Z</time></trkpt>
<trkpt lat="46.27724" lon="7.23412"><ele></ele><time>2024-6-16T13:35:38Z</time></trkpt>
<trkpt lat="46.2773" lon="7.23412"><ele></ele><time>2024-6-16T13:35:41Z</time></trkpt>
<trkpt lat="46.27731" lon="7.23413"><ele></ele><time>2024-6-16T13:35:44Z</time></trkpt>
<trkpt lat="46.27735" lon="7.23412"><ele></ele><time>2024-6-16T13:35:47Z</time></trkpt>
<trkpt lat="46.2774" lon="7.23413"><ele></ele><time>2024-6-16T13:35:50Z</time></trkpt>
<trkpt lat="46.27744" lon="7.23413"><ele></ele><time>2024-6-16T13:35:53Z</time></trkpt>
<trkpt lat="46.27747" lon="7.23412"><ele></ele><time>2024-6-16T13:35:56Z</time></trkpt>
<trkpt lat="46.27752" lon="7.2341"><ele></ele><time>2024-6-16T13:35:59Z</time></trkpt>
<trkpt lat="46.27755" lon="7.23408"><ele></ele><time>2024-6-16T13:36:2Z</time></trkpt>
<trkpt lat="46.27758" lon="7.23407"><ele></ele><time>2024-6-16T13:36:5Z</time></trkpt>
<trkpt lat="46.27759" lon="7.23407"><ele></ele><time>2024-6-16T13:36:8Z</time></trkpt>
<trkpt lat="46.2776" lon="7.23406"><ele></ele><time>2024-6-16T13:36:11Z</time></trkpt>
<trkpt lat="46.27766" lon="7.23403"><ele></ele><time>2024-6-16T13:36:14Z</time></trkpt>
<trkpt lat="46.27774" lon="7.23397"><ele></ele><time>2024-6-16T13:36:17Z</time></trkpt>
<trkpt lat="46.27781" lon="7.23388"><ele></ele><time>2024-6-16T13:36:20Z</time></trkpt>
<trkpt lat="46.27786" lon="7.23383"><ele></ele><time>2024-6-16T13:36:23Z</time></trkpt>
<trkpt lat="46.27787" lon="7.23382"><ele></ele><time>2024-6-16T13:36:26Z</time></trkpt>
<trkpt lat="46.27794" lon="7.23377"><ele></ele><time>2024-6-16T13:36:29Z</time></trkpt>
<trkpt lat="46.27796" lon="7.23375"><ele></ele><time>2024-6-16T13:36:32Z</time></trkpt>
<trkpt lat="46.27797" lon="7.23374"><ele></ele><time>2024-6-16T13:36:35Z</time></trkpt>
<trkpt lat="46.27803" lon="7.2337"><ele></ele><time>2024-6-16T13:36:38Z</time></trkpt>
<trkpt lat="46.27807" lon="7.23366"><ele></ele><time>2024-6-16T13:36:41Z</time></trkpt>
<trkpt lat="46.27811" lon="7.23362"><ele></ele><time>2024-6-16T13:36:44Z</time></trkpt>
<trkpt lat="46.27813" lon="7.23361"><ele></ele><time>2024-6-16T13:36:47Z</time></trkpt>
<trkpt lat="46.27819" lon="7.23356"><ele></ele><time>2024-6-16T13:36:50Z</time></trkpt>
<trkpt lat="46.2782" lon="7.23355"><ele></ele><time>2024-6-16T13:36:53Z</time></trkpt>
<trkpt lat="46.27831" lon="7.23352"><ele></ele><time>2024-6-16T13:36:56Z</time></trkpt>
<trkpt lat="46.27834" lon="7.23352"><ele></ele><time>2024-6-16T13:36:59Z</time></trkpt>
<trkpt lat="46.27844" lon="7.23353"><ele></ele><time>2024-6-16T13:37:2Z</time></trkpt>
<trkpt lat="46.27852" lon="7.23355"><ele></ele><time>2024-6-16T13:37:5Z</time></trkpt>
<trkpt lat="46.27864" lon="7.23357"><ele></ele><time>2024-6-16T13:37:8Z</time></trkpt>
<trkpt lat="46.27866" lon="7.23357"><ele></ele><time>2024-6-16T13:37:11Z</time></trkpt>
<trkpt lat="46.27875" lon="7.2336"><ele></ele><time>2024-6-16T13:37:14Z</time></trkpt>
<trkpt lat="46.27878" lon="7.2336"><ele></ele><time>2024-6-16T13:37:17Z</time></trkpt>
<trkpt lat="46.27884" lon="7.23362"><ele></ele><time>2024-6-16T13:37:20Z</time></trkpt>
<trkpt lat="46.27885" lon="7.23362"><ele></ele><time>2024-6-16T13:37:23Z</time></trkpt>
<trkpt lat="46.27892" lon="7.2337"><ele></ele><time>2024-6-16T13:37:26Z</time></trkpt>
<trkpt lat="46.27893" lon="7.23372"><ele></ele><time>2024-6-16T13:37:29Z</time></trkpt>
<trkpt lat="46.27896" lon="7.23386"><ele></ele><time>2024-6-16T13:37:32Z</time></trkpt>
<trkpt lat="46.27896" lon="7.23388"><ele></ele><time>2024-6-16T13:37:35Z</time></trkpt>
<trkpt lat="46.27896" lon="7.23392"><ele></ele><time>2024-6-16T13:37:38Z</time></trkpt>
<trkpt lat="46.27895" lon="7.23397"><ele></ele><time>2024-6-16T13:37:41Z</time></trkpt>
<trkpt lat="46.27894" lon="7.23401"><ele></ele><time>2024-6-16T13:37:44Z</time></trkpt>
<trkpt lat="46.27892" lon="7.23405"><ele></ele><time>2024-6-16T13:37:47Z</time></trkpt>
<trkpt lat="46.27891" lon="7.23418"><ele></ele><time>2024-6-16T13:37:50Z</time></trkpt>
<trkpt lat="46.27892" lon="7.23422"><ele></ele><time>2024-6-16T13:37:53Z</time></trkpt>
<trkpt lat="46.27893" lon="7.23431"><ele></ele><time>2024-6-16T13:37:56Z</time></trkpt>
<trkpt lat="46.27893" lon="7.23433"><ele></ele><time>2024-6-16T13:37:59Z</time></trkpt>
<trkpt lat="46.279" lon="7.23442"><ele></ele><time>2024-6-16T13:38:2Z</time></trkpt>
<trkpt lat="46.27903" lon="7.23442"><ele></ele><time>2024-6-16T13:38:5Z</time></trkpt>
<trkpt lat="46.27913" lon="7.23441"><ele></ele><time>2024-6-16T13:38:8Z</time></trkpt>
<trkpt lat="46.27914" lon="7.23441"><ele></ele><time>2024-6-16T13:38:11Z</time></trkpt>
<trkpt lat="46.27923" lon="7.23438"><ele></ele><time>2024-6-16T13:38:14Z</time></trkpt>
<trkpt lat="46.27927" lon="7.23437"><ele></ele><time>2024-6-16T13:38:17Z</time></trkpt>
<trkpt lat="46.27932" lon="7.23434"><ele></ele><time>2024-6-16T13:38:20Z</time></trkpt>
<trkpt lat="46.27936" lon="7.23434"><ele></ele><time>2024-6-16T13:38:23Z</time></trkpt>
<trkpt lat="46.27938" lon="7.23433"><ele></ele><time>2024-6-16T13:38:26Z</time></trkpt>
<trkpt lat="46.27949" lon="7.2343"><ele></ele><time>2024-6-16T13:38:29Z</time></trkpt>
<trkpt lat="46.2795" lon="7.2343"><ele></ele><time>2024-6-16T13:38:32Z</time></trkpt>
<trkpt lat="46.27957" lon="7.23424"><ele></ele><time>2024-6-16T13:38:35Z</time></trkpt>
<trkpt lat="46.2796" lon="7.23421"><ele></ele><time>2024-6-16T13:38:38Z</time></trkpt>
<trkpt lat="46.27963" lon="7.23415"><ele></ele><time>2024-6-16T13:38:41Z</time></trkpt>
<trkpt lat="46.27969" lon="7.23402"><ele></ele><time>2024-6-16T13:38:44Z</time></trkpt>
<trkpt lat="46.27971" lon="7.23388"><ele></ele><time>2024-6-16T13:38:47Z</time></trkpt>
<trkpt lat="46.27972" lon="7.23384"><ele></ele><time>2024-6-16T13:38:50Z</time></trkpt>
<trkpt lat="46.27975" lon="7.23367"><ele></ele><time>2024-6-16T13:38:53Z</time></trkpt>
<trkpt lat="46.27975" lon="7.23363"><ele></ele><time>2024-6-16T13:38:56Z</time></trkpt>
<trkpt lat="46.27979" lon="7.23352"><ele></ele><time>2024-6-16T13:38:59Z</time></trkpt>
<trkpt lat="46.2798" lon="7.23349"><ele></ele><time>2024-6-16T13:39:2Z</time></trkpt>
<trkpt lat="46.27984" lon="7.2334"><ele></ele><time>2024-6-16T13:39:5Z</time></trkpt>
<trkpt lat="46.27986" lon="7.23335"><ele></ele><time>2024-6-16T13:39:8Z</time></trkpt>
<trkpt lat="46.27994" lon="7.23324"><ele></ele><time>2024-6-16T13:39:11Z</time></trkpt>
<trkpt lat="46.28003" lon="7.23309"><ele></ele><time>2024-6-16T13:39:14Z</time></trkpt>
<trkpt lat="46.28004" lon="7.23308"><ele></ele><time>2024-6-16T13:39:17Z</time></trkpt>
<trkpt lat="46.28009" lon="7.23298"><ele></ele><time>2024-6-16T13:39:20Z</time></trkpt>
<trkpt lat="46.28012" lon="7.23293"><ele></ele><time>2024-6-16T13:39:23Z</time></trkpt>
<trkpt lat="46.28019" lon="7.23285"><ele></ele><time>2024-6-16T13:39:26Z</time></trkpt>
<trkpt lat="46.2802" lon="7.23283"><ele></ele><time>2024-6-16T13:39:29Z</time></trkpt>
<trkpt lat="46.28029" lon="7.2327"><ele></ele><time>2024-6-16T13:39:32Z</time></trkpt>
<trkpt lat="46.2803" lon="7.23269"><ele></ele><time>2024-6-16T13:39:35Z</time></trkpt>
<trkpt lat="46.28042" lon="7.23262"><ele></ele><time>2024-6-16T13:39:38Z</time></trkpt>
<trkpt lat="46.28043" lon="7.23261"><ele></ele><time>2024-6-16T13:39:41Z</time></trkpt>
<trkpt lat="46.28052" lon="7.23258"><ele></ele><time>2024-6-16T13:39:44Z</time></trkpt>
<trkpt lat="46.28055" lon="7.23257"><ele></ele><time>2024-6-16T13:39:47Z</time></trkpt>
<trkpt lat="46.28065" lon="7.23252"><ele></ele><time>2024-6-16T13:39:50Z</time></trkpt>
<trkpt lat="46.28078" lon="7.23245"><ele></ele><time>2024-6-16T13:39:53Z</time></trkpt>
<trkpt lat="46.28083" lon="7.23243"><ele></ele><time>2024-6-16T13:39:56Z</time></trkpt>
<trkpt lat="46.28091" lon="7.23236"><ele></ele><time>2024-6-16T13:39:59Z</time></trkpt>
<trkpt lat="46.281" lon="7.23226"><ele></ele><time>2024-6-16T13:40:2Z</time></trkpt>
<trkpt lat="46.28108" lon="7.23218"><ele></ele><time>2024-6-16T13:40:5Z</time></trkpt>
<trkpt lat="46.28111" lon="7.23215"><ele></ele><time>2024-6-16T13:40:8Z</time></trkpt>
<trkpt lat="46.28115" lon="7.2321"><ele></ele><time>2024-6-16T13:40:11Z</time></trkpt>
<trkpt lat="46.2812" lon="7.23203"><ele></ele><time>2024-6-16T13:40:14Z</time></trkpt>
<trkpt lat="46.28133" lon="7.23187"><ele></ele><time>2024-6-16T13:40:17Z</time></trkpt>
<trkpt lat="46.28148" lon="7.2317"><ele></ele><time>2024-6-16T13:40:20Z</time></trkpt>
<trkpt lat="46.28159" lon="7.23155"><ele></ele><time>2024-6-16T13:40:23Z</time></trkpt>
<trkpt lat="46.28161" lon="7.23153"><ele></ele><time>2024-6-16T13:40:26Z</time></trkpt>
<trkpt lat="46.28167" lon="7.23148"><ele></ele><time>2024-6-16T13:40:29Z</time></trkpt>
<trkpt lat="46.28176" lon="7.23141"><ele></ele><time>2024-6-16T13:40:32Z</time></trkpt>
<trkpt lat="46.28182" lon="7.23138"><ele></ele><time>2024-6-16T13:40:35Z</time></trkpt>
<trkpt lat="46.28195" lon="7.2313"><ele></ele><time>2024-6-16T13:40:38Z</time></trkpt>
<trkpt lat="46.28209" lon="7.23129"><ele></ele><time>2024-6-16T13:40:41Z</time></trkpt>
<trkpt lat="46.28213" lon="7.2313"><ele></ele><time>2024-6-16T13:40:44Z</time></trkpt>
<trkpt lat="46.28226" lon="7.23127"><ele></ele><time>2024-6-16T13:40:47Z</time></trkpt>
<trkpt lat="46.2824" lon="7.23118"><ele></ele><time>2024-6-16T13:40:50Z</time></trkpt>
<trkpt lat="46.28243" lon="7.23116"><ele></ele><time>2024-6-16T13:40:53Z</time></trkpt>
<trkpt lat="46.28257" lon="7.23105"><ele></ele><time>2024-6-16T13:40:56Z</time></trkpt>
<trkpt lat="46.28269" lon="7.23098"><ele></ele><time>2024-6-16T13:40:59Z</time></trkpt>
<trkpt lat="46.28274" lon="7.23096"><ele></ele><time>2024-6-16T13:41:2Z</time></trkpt>
<trkpt lat="46.2829" lon="7.23089"><ele></ele><time>2024-6-16T13:41:5Z</time></trkpt>
<trkpt lat="46.28296" lon="7.23087"><ele></ele><time>2024-6-16T13:41:8Z</time></trkpt>
<trkpt lat="46.28302" lon="7.23083"><ele></ele><time>2024-6-16T13:41:11Z</time></trkpt>
<trkpt lat="46.28308" lon="7.23081"><ele></ele><time>2024-6-16T13:41:14Z</time></trkpt>
<trkpt lat="46.28313" lon="7.23078"><ele></ele><time>2024-6-16T13:41:17Z</time></trkpt>
<trkpt lat="46.28317" lon="7.23076"><ele></ele><time>2024-6-16T13:41:20Z</time></trkpt>
<trkpt lat="46.28322" lon="7.23074"><ele></ele><time>2024-6-16T13:41:23Z</time></trkpt>
<trkpt lat="46.28325" lon="7.23073"><ele></ele><time>2024-6-16T13:41:26Z</time></trkpt>
<trkpt lat="46.2833" lon="7.2307"><ele></ele><time>2024-6-16T13:41:29Z</time></trkpt>
<trkpt lat="46.28335" lon="7.23068"><ele></ele><time>2024-6-16T13:41:32Z</time></trkpt>
<trkpt lat="46.28337" lon="7.23067"><ele></ele><time>2024-6-16T13:41:35Z</time></trkpt>
<trkpt lat="46.28342" lon="7.23063"><ele></ele><time>2024-6-16T13:41:38Z</time></trkpt>
<trkpt lat="46.28345" lon="7.23063"><ele></ele><time>2024-6-16T13:41:41Z</time></trkpt>
<trkpt lat="46.2835" lon="7.23061"><ele></ele><time>2024-6-16T13:41:44Z</time></trkpt>
<trkpt lat="46.28352" lon="7.23061"><ele></ele><time>2024-6-16T13:41:47Z</time></trkpt>
<trkpt lat="46.2836" lon="7.23058"><ele></ele><time>2024-6-16T13:41:50Z</time></trkpt>
<trkpt lat="46.28363" lon="7.23057"><ele></ele><time>2024-6-16T13:41:53Z</time></trkpt>
<trkpt lat="46.28367" lon="7.23059"><ele></ele><time>2024-6-16T13:41:56Z</time></trkpt>
<trkpt lat="46.28374" lon="7.23066"><ele></ele><time>2024-6-16T13:41:59Z</time></trkpt>
<trkpt lat="46.28376" lon="7.23067"><ele></ele><time>2024-6-16T13:42:2Z</time></trkpt>
<trkpt lat="46.28384" lon="7.23074"><ele></ele><time>2024-6-16T13:42:5Z</time></trkpt>
<trkpt lat="46.28387" lon="7.23076"><ele></ele><time>2024-6-16T13:42:8Z</time></trkpt>
<trkpt lat="46.28393" lon="7.23082"><ele></ele><time>2024-6-16T13:42:11Z</time></trkpt>
<trkpt lat="46.28396" lon="7.23085"><ele></ele><time>2024-6-16T13:42:14Z</time></trkpt>
<trkpt lat="46.28405" lon="7.23093"><ele></ele><time>2024-6-16T13:42:17Z</time></trkpt>
<trkpt lat="46.28406" lon="7.23094"><ele></ele><time>2024-6-16T13:42:20Z</time></trkpt>
<trkpt lat="46.28416" lon="7.23101"><ele></ele><time>2024-6-16T13:42:23Z</time></trkpt>
<trkpt lat="46.28423" lon="7.23109"><ele></ele><time>2024-6-16T13:42:26Z</time></trkpt>
<trkpt lat="46.28425" lon="7.23111"><ele></ele><time>2024-6-16T13:42:29Z</time></trkpt>
<trkpt lat="46.28431" lon="7.23118"><ele></ele><time>2024-6-16T13:42:32Z</time></trkpt>
<trkpt lat="46.28433" lon="7.23121"><ele></ele><time>2024-6-16T13:42:35Z</time></trkpt>
<trkpt lat="46.28439" lon="7.23127"><ele></ele><time>2024-6-16T13:42:38Z</time></trkpt>
<trkpt lat="46.28442" lon="7.2313"><ele></ele><time>2024-6-16T13:42:41Z</time></trkpt>
<trkpt lat="46.28446" lon="7.23133"><ele></ele><time>2024-6-16T13:42:44Z</time></trkpt>
<trkpt lat="46.28452" lon="7.23138"><ele></ele><time>2024-6-16T13:42:47Z</time></trkpt>
<trkpt lat="46.28456" lon="7.23141"><ele></ele><time>2024-6-16T13:42:50Z</time></trkpt>
<trkpt lat="46.2846" lon="7.23146"><ele></ele><time>2024-6-16T13:42:53Z</time></trkpt>
<trkpt lat="46.28464" lon="7.2315"><ele></ele><time>2024-6-16T13:42:56Z</time></trkpt>
<trkpt lat="46.28469" lon="7.23155"><ele></ele><time>2024-6-16T13:42:59Z</time></trkpt>
<trkpt lat="46.28474" lon="7.23162"><ele></ele><time>2024-6-16T13:43:2Z</time></trkpt>
<trkpt lat="46.28478" lon="7.23167"><ele></ele><time>2024-6-16T13:43:5Z</time></trkpt>
<trkpt lat="46.28485" lon="7.23176"><ele></ele><time>2024-6-16T13:43:8Z</time></trkpt>
<trkpt lat="46.28487" lon="7.23178"><ele></ele><time>2024-6-16T13:43:11Z</time></trkpt>
<trkpt lat="46.28494" lon="7.23187"><ele></ele><time>2024-6-16T13:43:14Z</time></trkpt>
<trkpt lat="46.28498" lon="7.23191"><ele></ele><time>2024-6-16T13:43:17Z</time></trkpt>
<trkpt lat="46.28503" lon="7.23197"><ele></ele><time>2024-6-16T13:43:20Z</time></trkpt>
<trkpt lat="46.28508" lon="7.23202"><ele></ele><time>2024-6-16T13:43:23Z</time></trkpt>
<trkpt lat="46.28513" lon="7.23208"><ele></ele><time>2024-6-16T13:43:26Z</time></trkpt>
<trkpt lat="46.28519" lon="7.23215"><ele></ele><time>2024-6-16T13:43:29Z</time></trkpt>
<trkpt lat="46.28523" lon="7.23221"><ele></ele><time>2024-6-16T13:43:32Z</time></trkpt>
<trkpt lat="46.28528" lon="7.23225"><ele></ele><time>2024-6-16T13:43:35Z</time></trkpt>
<trkpt lat="46.28533" lon="7.23228"><ele></ele><time>2024-6-16T13:43:38Z</time></trkpt>
<trkpt lat="46.28543" lon="7.23228"><ele></ele><time>2024-6-16T13:43:41Z</time></trkpt>
<trkpt lat="46.2855" lon="7.23224"><ele></ele><time>2024-6-16T13:43:44Z</time></trkpt>
<trkpt lat="46.28553" lon="7.2322"><ele></ele><time>2024-6-16T13:43:47Z</time></trkpt>
<trkpt lat="46.28556" lon="7.23208"><ele></ele><time>2024-6-16T13:43:50Z</time></trkpt>
<trkpt lat="46.28558" lon="7.23203"><ele></ele><time>2024-6-16T13:43:53Z</time></trkpt>
<trkpt lat="46.28559" lon="7.23189"><ele></ele><time>2024-6-16T13:43:56Z</time></trkpt>
<trkpt lat="46.28559" lon="7.23186"><ele></ele><time>2024-6-16T13:43:59Z</time></trkpt>
<trkpt lat="46.2856" lon="7.23172"><ele></ele><time>2024-6-16T13:44:2Z</time></trkpt>
<trkpt lat="46.2856" lon="7.23158"><ele></ele><time>2024-6-16T13:44:5Z</time></trkpt>
<trkpt lat="46.2856" lon="7.23156"><ele></ele><time>2024-6-16T13:44:8Z</time></trkpt>
<trkpt lat="46.28561" lon="7.23142"><ele></ele><time>2024-6-16T13:44:11Z</time></trkpt>
<trkpt lat="46.28561" lon="7.2314"><ele></ele><time>2024-6-16T13:44:14Z</time></trkpt>
<trkpt lat="46.28561" lon="7.23128"><ele></ele><time>2024-6-16T13:44:17Z</time></trkpt>
<trkpt lat="46.28561" lon="7.23123"><ele></ele><time>2024-6-16T13:44:20Z</time></trkpt>
<trkpt lat="46.2856" lon="7.23113"><ele></ele><time>2024-6-16T13:44:23Z</time></trkpt>
<trkpt lat="46.2856" lon="7.23103"><ele></ele><time>2024-6-16T13:44:26Z</time></trkpt>
<trkpt lat="46.28558" lon="7.23096"><ele></ele><time>2024-6-16T13:44:29Z</time></trkpt>
<trkpt lat="46.28557" lon="7.23089"><ele></ele><time>2024-6-16T13:44:32Z</time></trkpt>
<trkpt lat="46.28553" lon="7.23079"><ele></ele><time>2024-6-16T13:44:35Z</time></trkpt>
<trkpt lat="46.28548" lon="7.23069"><ele></ele><time>2024-6-16T13:44:38Z</time></trkpt>
<trkpt lat="46.28547" lon="7.23064"><ele></ele><time>2024-6-16T13:44:41Z</time></trkpt>
<trkpt lat="46.28544" lon="7.23056"><ele></ele><time>2024-6-16T13:44:44Z</time></trkpt>
<trkpt lat="46.28543" lon="7.2305"><ele></ele><time>2024-6-16T13:44:47Z</time></trkpt>
<trkpt lat="46.2854" lon="7.23035"><ele></ele><time>2024-6-16T13:44:50Z</time></trkpt>
<trkpt lat="46.2854" lon="7.23033"><ele></ele><time>2024-6-16T13:44:53Z</time></trkpt>
<trkpt lat="46.28539" lon="7.23018"><ele></ele><time>2024-6-16T13:44:56Z</time></trkpt>
<trkpt lat="46.28539" lon="7.23014"><ele></ele><time>2024-6-16T13:44:59Z</time></trkpt>
<trkpt lat="46.28539" lon="7.23002"><ele></ele><time>2024-6-16T13:45:2Z</time></trkpt>
<trkpt lat="46.28539" lon="7.22998"><ele></ele><time>2024-6-16T13:45:5Z</time></trkpt>
<trkpt lat="46.28539" lon="7.22989"><ele></ele><time>2024-6-16T13:45:8Z</time></trkpt>
<trkpt lat="46.28539" lon="7.22985"><ele></ele><time>2024-6-16T13:45:11Z</time></trkpt>
<trkpt lat="46.28539" lon="7.22967"><ele></ele><time>2024-6-16T13:45:14Z</time></trkpt>
<trkpt lat="46.28539" lon="7.22965"><ele></ele><time>2024-6-16T13:45:17Z</time></trkpt>
<trkpt lat="46.2854" lon="7.22954"><ele></ele><time>2024-6-16T13:45:20Z</time></trkpt>
<trkpt lat="46.2854" lon="7.22946"><ele></ele><time>2024-6-16T13:45:23Z</time></trkpt>
<trkpt lat="46.2854" lon="7.22938"><ele></ele><time>2024-6-16T13:45:26Z</time></trkpt>
<trkpt lat="46.28539" lon="7.22934"><ele></ele><time>2024-6-16T13:45:29Z</time></trkpt>
<trkpt lat="46.28537" lon="7.22924"><ele></ele><time>2024-6-16T13:45:32Z</time></trkpt>
<trkpt lat="46.28537" lon="7.22922"><ele></ele><time>2024-6-16T13:45:35Z</time></trkpt>
<trkpt lat="46.28535" lon="7.22912"><ele></ele><time>2024-6-16T13:45:38Z</time></trkpt>
<trkpt lat="46.28534" lon="7.22906"><ele></ele><time>2024-6-16T13:45:41Z</time></trkpt>
<trkpt lat="46.28533" lon="7.22901"><ele></ele><time>2024-6-16T13:45:44Z</time></trkpt>
<trkpt lat="46.28531" lon="7.22894"><ele></ele><time>2024-6-16T13:45:47Z</time></trkpt>
<trkpt lat="46.28531" lon="7.22889"><ele></ele><time>2024-6-16T13:45:50Z</time></trkpt>
<trkpt lat="46.28529" lon="7.2288"><ele></ele><time>2024-6-16T13:45:53Z</time></trkpt>
<trkpt lat="46.28525" lon="7.2287"><ele></ele><time>2024-6-16T13:45:56Z</time></trkpt>
<trkpt lat="46.28524" lon="7.22861"><ele></ele><time>2024-6-16T13:45:59Z</time></trkpt>
<trkpt lat="46.28522" lon="7.22853"><ele></ele><time>2024-6-16T13:46:2Z</time></trkpt>
<trkpt lat="46.28522" lon="7.22851"><ele></ele><time>2024-6-16T13:46:5Z</time></trkpt>
<trkpt lat="46.28518" lon="7.22836"><ele></ele><time>2024-6-16T13:46:8Z</time></trkpt>
<trkpt lat="46.28517" lon="7.22833"><ele></ele><time>2024-6-16T13:46:11Z</time></trkpt>
<trkpt lat="46.28515" lon="7.22824"><ele></ele><time>2024-6-16T13:46:14Z</time></trkpt>
<trkpt lat="46.28514" lon="7.22818"><ele></ele><time>2024-6-16T13:46:17Z</time></trkpt>
<trkpt lat="46.2851" lon="7.22805"><ele></ele><time>2024-6-16T13:46:20Z</time></trkpt>
<trkpt lat="46.2851" lon="7.22803"><ele></ele><time>2024-6-16T13:46:23Z</time></trkpt>
<trkpt lat="46.2851" lon="7.2279"><ele></ele><time>2024-6-16T13:46:26Z</time></trkpt>
<trkpt lat="46.2851" lon="7.22789"><ele></ele><time>2024-6-16T13:46:29Z</time></trkpt>
<trkpt lat="46.28511" lon="7.22775"><ele></ele><time>2024-6-16T13:46:32Z</time></trkpt>
<trkpt lat="46.2851" lon="7.22773"><ele></ele><time>2024-6-16T13:46:35Z</time></trkpt>
<trkpt lat="46.28511" lon="7.22769"><ele></ele><time>2024-6-16T13:46:38Z</time></trkpt>
<trkpt lat="46.28513" lon="7.22766"><ele></ele><time>2024-6-16T13:46:41Z</time></trkpt>
<trkpt lat="46.28514" lon="7.22762"><ele></ele><time>2024-6-16T13:46:44Z</time></trkpt>
<trkpt lat="46.28515" lon="7.22755"><ele></ele><time>2024-6-16T13:46:47Z</time></trkpt>
<trkpt lat="46.28517" lon="7.22748"><ele></ele><time>2024-6-16T13:46:50Z</time></trkpt>
<trkpt lat="46.28517" lon="7.22746"><ele></ele><time>2024-6-16T13:46:53Z</time></trkpt>
<trkpt lat="46.2852" lon="7.22733"><ele></ele><time>2024-6-16T13:46:56Z</time></trkpt>
<trkpt lat="46.28521" lon="7.2273"><ele></ele><time>2024-6-16T13:46:59Z</time></trkpt>
<trkpt lat="46.28524" lon="7.22717"><ele></ele><time>2024-6-16T13:47:2Z</time></trkpt>
<trkpt lat="46.28524" lon="7.22716"><ele></ele><time>2024-6-16T13:47:5Z</time></trkpt>
<trkpt lat="46.28526" lon="7.22702"><ele></ele><time>2024-6-16T13:47:8Z</time></trkpt>
<trkpt lat="46.28526" lon="7.227"><ele></ele><time>2024-6-16T13:47:11Z</time></trkpt>
<trkpt lat="46.28527" lon="7.22691"><ele></ele><time>2024-6-16T13:47:14Z</time></trkpt>
<trkpt lat="46.28529" lon="7.22683"><ele></ele><time>2024-6-16T13:47:17Z</time></trkpt>
<trkpt lat="46.28529" lon="7.22682"><ele></ele><time>2024-6-16T13:47:20Z</time></trkpt>
<trkpt lat="46.28532" lon="7.22671"><ele></ele><time>2024-6-16T13:47:23Z</time></trkpt>
<trkpt lat="46.28532" lon="7.22669"><ele></ele><time>2024-6-16T13:47:26Z</time></trkpt>
<trkpt lat="46.28535" lon="7.2266"><ele></ele><time>2024-6-16T13:47:29Z</time></trkpt>
<trkpt lat="46.28537" lon="7.22652"><ele></ele><time>2024-6-16T13:47:32Z</time></trkpt>
<trkpt lat="46.28538" lon="7.22647"><ele></ele><time>2024-6-16T13:47:35Z</time></trkpt>
<trkpt lat="46.28539" lon="7.22643"><ele></ele><time>2024-6-16T13:47:38Z</time></trkpt>
<trkpt lat="46.2854" lon="7.22643"><ele></ele><time>2024-6-16T13:47:41Z</time></trkpt>
<trkpt lat="46.28542" lon="7.22636"><ele></ele><time>2024-6-16T13:47:44Z</time></trkpt>
<trkpt lat="46.28543" lon="7.22635"><ele></ele><time>2024-6-16T13:47:47Z</time></trkpt>
<trkpt lat="46.28545" lon="7.22626"><ele></ele><time>2024-6-16T13:47:50Z</time></trkpt>
<trkpt lat="46.28548" lon="7.2262"><ele></ele><time>2024-6-16T13:47:53Z</time></trkpt>
<trkpt lat="46.28549" lon="7.22617"><ele></ele><time>2024-6-16T13:47:56Z</time></trkpt>
<trkpt lat="46.28552" lon="7.22606"><ele></ele><time>2024-6-16T13:47:59Z</time></trkpt>
<trkpt lat="46.28557" lon="7.22594"><ele></ele><time>2024-6-16T13:48:2Z</time></trkpt>
<trkpt lat="46.28558" lon="7.22592"><ele></ele><time>2024-6-16T13:48:5Z</time></trkpt>
<trkpt lat="46.2856" lon="7.22583"><ele></ele><time>2024-6-16T13:48:8Z</time></trkpt>
<trkpt lat="46.28562" lon="7.22573"><ele></ele><time>2024-6-16T13:48:11Z</time></trkpt>
<trkpt lat="46.28564" lon="7.22564"><ele></ele><time>2024-6-16T13:48:14Z</time></trkpt>
<trkpt lat="46.28566" lon="7.2256"><ele></ele><time>2024-6-16T13:48:17Z</time></trkpt>
<trkpt lat="46.28566" lon="7.22552"><ele></ele><time>2024-6-16T13:48:20Z</time></trkpt>
<trkpt lat="46.28567" lon="7.2255"><ele></ele><time>2024-6-16T13:48:23Z</time></trkpt>
<trkpt lat="46.28567" lon="7.22549"><ele></ele><time>2024-6-16T13:48:26Z</time></trkpt>
<trkpt lat="46.28568" lon="7.2254"><ele></ele><time>2024-6-16T13:48:29Z</time></trkpt>
<trkpt lat="46.28568" lon="7.22535"><ele></ele><time>2024-6-16T13:48:32Z</time></trkpt>
<trkpt lat="46.2857" lon="7.2253"><ele></ele><time>2024-6-16T13:48:35Z</time></trkpt>
<trkpt lat="46.28572" lon="7.22523"><ele></ele><time>2024-6-16T13:48:38Z</time></trkpt>
<trkpt lat="46.28572" lon="7.22522"><ele></ele><time>2024-6-16T13:48:41Z</time></trkpt>
<trkpt lat="46.28573" lon="7.2252"><ele></ele><time>2024-6-16T13:48:44Z</time></trkpt>
<trkpt lat="46.28574" lon="7.22512"><ele></ele><time>2024-6-16T13:48:47Z</time></trkpt>
<trkpt lat="46.28576" lon="7.22501"><ele></ele><time>2024-6-16T13:48:50Z</time></trkpt>
<trkpt lat="46.28576" lon="7.22499"><ele></ele><time>2024-6-16T13:48:53Z</time></trkpt>
<trkpt lat="46.28579" lon="7.22492"><ele></ele><time>2024-6-16T13:48:56Z</time></trkpt>
<trkpt lat="46.28579" lon="7.2249"><ele></ele><time>2024-6-16T13:48:59Z</time></trkpt>
<trkpt lat="46.2858" lon="7.2248"><ele></ele><time>2024-6-16T13:49:2Z</time></trkpt>
<trkpt lat="46.28581" lon="7.22477"><ele></ele><time>2024-6-16T13:49:5Z</time></trkpt>
<trkpt lat="46.28583" lon="7.22472"><ele></ele><time>2024-6-16T13:49:8Z</time></trkpt>
<trkpt lat="46.28585" lon="7.22467"><ele></ele><time>2024-6-16T13:49:11Z</time></trkpt>
<trkpt lat="46.28585" lon="7.22463"><ele></ele><time>2024-6-16T13:49:14Z</time></trkpt>
<trkpt lat="46.28588" lon="7.22455"><ele></ele><time>2024-6-16T13:49:17Z</time></trkpt>
<trkpt lat="46.28589" lon="7.22454"><ele></ele><time>2024-6-16T13:49:20Z</time></trkpt>
<trkpt lat="46.28591" lon="7.22451"><ele></ele><time>2024-6-16T13:49:23Z</time></trkpt>
<trkpt lat="46.28593" lon="7.22448"><ele></ele><time>2024-6-16T13:49:26Z</time></trkpt>
<trkpt lat="46.28595" lon="7.22437"><ele></ele><time>2024-6-16T13:49:29Z</time></trkpt>
<trkpt lat="46.28595" lon="7.22425"><ele></ele><time>2024-6-16T13:49:32Z</time></trkpt>
<trkpt lat="46.28594" lon="7.22424"><ele></ele><time>2024-6-16T13:49:35Z</time></trkpt>
<trkpt lat="46.28592" lon="7.22423"><ele></ele><time>2024-6-16T13:49:38Z</time></trkpt>
<trkpt lat="46.28589" lon="7.22423"><ele></ele><time>2024-6-16T13:49:41Z</time></trkpt>
<trkpt lat="46.28584" lon="7.22428"><ele></ele><time>2024-6-16T13:49:44Z</time></trkpt>
<trkpt lat="46.28579" lon="7.22438"><ele></ele><time>2024-6-16T13:49:47Z</time></trkpt>
<trkpt lat="46.28575" lon="7.22447"><ele></ele><time>2024-6-16T13:49:50Z</time></trkpt>
<trkpt lat="46.2857" lon="7.22454"><ele></ele><time>2024-6-16T13:49:53Z</time></trkpt>
<trkpt lat="46.28568" lon="7.22455"><ele></ele><time>2024-6-16T13:49:56Z</time></trkpt>
<trkpt lat="46.28559" lon="7.22465"><ele></ele><time>2024-6-16T13:49:59Z</time></trkpt>
<trkpt lat="46.28557" lon="7.22466"><ele></ele><time>2024-6-16T13:50:2Z</time></trkpt>
<trkpt lat="46.28551" lon="7.22469"><ele></ele><time>2024-6-16T13:50:5Z</time></trkpt>
<trkpt lat="46.28549" lon="7.2247"><ele></ele><time>2024-6-16T13:50:8Z</time></trkpt>
<trkpt lat="46.28542" lon="7.22469"><ele></ele><time>2024-6-16T13:50:11Z</time></trkpt>
<trkpt lat="46.28535" lon="7.22464"><ele></ele><time>2024-6-16T13:50:14Z</time></trkpt>
<trkpt lat="46.2853" lon="7.2246"><ele></ele><time>2024-6-16T13:50:17Z</time></trkpt>
<trkpt lat="46.28529" lon="7.2246"><ele></ele><time>2024-6-16T13:50:20Z</time></trkpt>
<trkpt lat="46.28524" lon="7.22456"><ele></ele><time>2024-6-16T13:50:23Z</time></trkpt>
<trkpt lat="46.28524" lon="7.22455"><ele></ele><time>2024-6-16T13:50:26Z</time></trkpt>
<trkpt lat="46.28523" lon="7.22454"><ele></ele><time>2024-6-16T13:50:29Z</time></trkpt>
<trkpt lat="46.28521" lon="7.2245"><ele></ele><time>2024-6-16T13:50:32Z</time></trkpt>
<trkpt lat="46.28515" lon="7.22445"><ele></ele><time>2024-6-16T13:50:35Z</time></trkpt>
<trkpt lat="46.28514" lon="7.22442"><ele></ele><time>2024-6-16T13:50:38Z</time></trkpt>
<trkpt lat="46.28508" lon="7.22437"><ele></ele><time>2024-6-16T13:50:41Z</time></trkpt>
<trkpt lat="46.28502" lon="7.22431"><ele></ele><time>2024-6-16T13:50:44Z</time></trkpt>
<trkpt lat="46.28499" lon="7.22428"><ele></ele><time>2024-6-16T13:50:47Z</time></trkpt>
<trkpt lat="46.28496" lon="7.22426"><ele></ele><time>2024-6-16T13:50:50Z</time></trkpt>
<trkpt lat="46.28487" lon="7.22423"><ele></ele><time>2024-6-16T13:50:53Z</time></trkpt>
<trkpt lat="46.28486" lon="7.22423"><ele></ele><time>2024-6-16T13:50:56Z</time></trkpt>
<trkpt lat="46.28479" lon="7.22422"><ele></ele><time>2024-6-16T13:50:59Z</time></trkpt>
<trkpt lat="46.28476" lon="7.22422"><ele></ele><time>2024-6-16T13:51:2Z</time></trkpt>
<trkpt lat="46.28472" lon="7.22423"><ele></ele><time>2024-6-16T13:51:5Z</time></trkpt>
<trkpt lat="46.2847" lon="7.22423"><ele></ele><time>2024-6-16T13:51:8Z</time></trkpt>
<trkpt lat="46.28467" lon="7.22425"><ele></ele><time>2024-6-16T13:51:11Z</time></trkpt>
<trkpt lat="46.28466" lon="7.22425"><ele></ele><time>2024-6-16T13:51:14Z</time></trkpt>
<trkpt lat="46.28461" lon="7.22428"><ele></ele><time>2024-6-16T13:51:17Z</time></trkpt>
<trkpt lat="46.28457" lon="7.2243"><ele></ele><time>2024-6-16T13:51:20Z</time></trkpt>
<trkpt lat="46.28454" lon="7.22432"><ele></ele><time>2024-6-16T13:51:23Z</time></trkpt>
<trkpt lat="46.28448" lon="7.22435"><ele></ele><time>2024-6-16T13:51:26Z</time></trkpt>
<trkpt lat="46.28446" lon="7.22437"><ele></ele><time>2024-6-16T13:51:29Z</time></trkpt>
<trkpt lat="46.28443" lon="7.22441"><ele></ele><time>2024-6-16T13:51:32Z</time></trkpt>
<trkpt lat="46.28438" lon="7.22446"><ele></ele><time>2024-6-16T13:51:35Z</time></trkpt>
<trkpt lat="46.28434" lon="7.22448"><ele></ele><time>2024-6-16T13:51:38Z</time></trkpt>
<trkpt lat="46.28428" lon="7.2245"><ele></ele><time>2024-6-16T13:51:41Z</time></trkpt>
<trkpt lat="46.28427" lon="7.22449"><ele></ele><time>2024-6-16T13:51:44Z</time></trkpt>
<trkpt lat="46.2842" lon="7.22447"><ele></ele><time>2024-6-16T13:51:47Z</time></trkpt>
<trkpt lat="46.28416" lon="7.22439"><ele></ele><time>2024-6-16T13:51:50Z</time></trkpt>
<trkpt lat="46.28413" lon="7.22434"><ele></ele><time>2024-6-16T13:51:53Z</time></trkpt>
<trkpt lat="46.28412" lon="7.22431"><ele></ele><time>2024-6-16T13:51:56Z</time></trkpt>
<trkpt lat="46.28408" lon="7.22426"><ele></ele><time>2024-6-16T13:51:59Z</time></trkpt>
<trkpt lat="46.28407" lon="7.22425"><ele></ele><time>2024-6-16T13:52:2Z</time></trkpt>
<trkpt lat="46.284" lon="7.2242"><ele></ele><time>2024-6-16T13:52:5Z</time></trkpt>
<trkpt lat="46.28397" lon="7.22417"><ele></ele><time>2024-6-16T13:52:8Z</time></trkpt>
<trkpt lat="46.28394" lon="7.22413"><ele></ele><time>2024-6-16T13:52:11Z</time></trkpt>
<trkpt lat="46.28388" lon="7.22407"><ele></ele><time>2024-6-16T13:52:14Z</time></trkpt>
<trkpt lat="46.28387" lon="7.22406"><ele></ele><time>2024-6-16T13:52:17Z</time></trkpt>
<trkpt lat="46.28377" lon="7.22398"><ele></ele><time>2024-6-16T13:52:20Z</time></trkpt>
<trkpt lat="46.28369" lon="7.22393"><ele></ele><time>2024-6-16T13:52:23Z</time></trkpt>
<trkpt lat="46.28368" lon="7.22392"><ele></ele><time>2024-6-16T13:52:26Z</time></trkpt>
<trkpt lat="46.28359" lon="7.22386"><ele></ele><time>2024-6-16T13:52:29Z</time></trkpt>
<trkpt lat="46.28355" lon="7.22382"><ele></ele><time>2024-6-16T13:52:32Z</time></trkpt>
<trkpt lat="46.2835" lon="7.22379"><ele></ele><time>2024-6-16T13:52:35Z</time></trkpt>
<trkpt lat="46.28344" lon="7.22374"><ele></ele><time>2024-6-16T13:52:38Z</time></trkpt>
<trkpt lat="46.28342" lon="7.22372"><ele></ele><time>2024-6-16T13:52:41Z</time></trkpt>
<trkpt lat="46.28337" lon="7.22368"><ele></ele><time>2024-6-16T13:52:44Z</time></trkpt>
<trkpt lat="46.28335" lon="7.22367"><ele></ele><time>2024-6-16T13:52:47Z</time></trkpt>
<trkpt lat="46.28329" lon="7.22362"><ele></ele><time>2024-6-16T13:52:50Z</time></trkpt>
<trkpt lat="46.28324" lon="7.22359"><ele></ele><time>2024-6-16T13:52:53Z</time></trkpt>
<trkpt lat="46.28322" lon="7.22358"><ele></ele><time>2024-6-16T13:52:56Z</time></trkpt>
<trkpt lat="46.28313" lon="7.22354"><ele></ele><time>2024-6-16T13:52:59Z</time></trkpt>
<trkpt lat="46.28306" lon="7.22347"><ele></ele><time>2024-6-16T13:53:2Z</time></trkpt>
<trkpt lat="46.28303" lon="7.22344"><ele></ele><time>2024-6-16T13:53:5Z</time></trkpt>
<trkpt lat="46.28298" lon="7.22337"><ele></ele><time>2024-6-16T13:53:8Z</time></trkpt>
<trkpt lat="46.28296" lon="7.22333"><ele></ele><time>2024-6-16T13:53:11Z</time></trkpt>
<trkpt lat="46.28295" lon="7.22331"><ele></ele><time>2024-6-16T13:53:14Z</time></trkpt>
<trkpt lat="46.28293" lon="7.22328"><ele></ele><time>2024-6-16T13:53:17Z</time></trkpt>
<trkpt lat="46.2829" lon="7.22322"><ele></ele><time>2024-6-16T13:53:20Z</time></trkpt>
<trkpt lat="46.28289" lon="7.22317"><ele></ele><time>2024-6-16T13:53:23Z</time></trkpt>
<trkpt lat="46.28287" lon="7.2231"><ele></ele><time>2024-6-16T13:53:26Z</time></trkpt>
<trkpt lat="46.28283" lon="7.22303"><ele></ele><time>2024-6-16T13:53:29Z</time></trkpt>
<trkpt lat="46.28283" lon="7.22302"><ele></ele><time>2024-6-16T13:53:32Z</time></trkpt>
<trkpt lat="46.28282" lon="7.22298"><ele></ele><time>2024-6-16T13:53:35Z</time></trkpt>
<trkpt lat="46.28283" lon="7.22292"><ele></ele><time>2024-6-16T13:53:38Z</time></trkpt>
<trkpt lat="46.28284" lon="7.22277"><ele></ele><time>2024-6-16T13:53:41Z</time></trkpt>
<trkpt lat="46.28285" lon="7.22274"><ele></ele><time>2024-6-16T13:53:44Z</time></trkpt>
<trkpt lat="46.28289" lon="7.22255"><ele></ele><time>2024-6-16T13:53:47Z</time></trkpt>
<trkpt lat="46.28289" lon="7.22253"><ele></ele><time>2024-6-16T13:53:50Z</time></trkpt>
<trkpt lat="46.28296" lon="7.2224"><ele></ele><time>2024-6-16T13:53:53Z</time></trkpt>
<trkpt lat="46.28298" lon="7.22233"><ele></ele><time>2024-6-16T13:53:56Z</time></trkpt>
<trkpt lat="46.28301" lon="7.22218"><ele></ele><time>2024-6-16T13:53:59Z</time></trkpt>
<trkpt lat="46.28302" lon="7.22216"><ele></ele><time>2024-6-16T13:54:2Z</time></trkpt>
<trkpt lat="46.28302" lon="7.22199"><ele></ele><time>2024-6-16T13:54:5Z</time></trkpt>
<trkpt lat="46.28301" lon="7.22185"><ele></ele><time>2024-6-16T13:54:8Z</time></trkpt>
<trkpt lat="46.28299" lon="7.22178"><ele></ele><time>2024-6-16T13:54:11Z</time></trkpt>
<trkpt lat="46.28298" lon="7.22173"><ele></ele><time>2024-6-16T13:54:14Z</time></trkpt>
<trkpt lat="46.28295" lon="7.22156"><ele></ele><time>2024-6-16T13:54:17Z</time></trkpt>
<trkpt lat="46.28292" lon="7.22147"><ele></ele><time>2024-6-16T13:54:20Z</time></trkpt>
<trkpt lat="46.28286" lon="7.22123"><ele></ele><time>2024-6-16T13:54:23Z</time></trkpt>
<trkpt lat="46.28285" lon="7.22117"><ele></ele><time>2024-6-16T13:54:26Z</time></trkpt>
<trkpt lat="46.28284" lon="7.22106"><ele></ele><time>2024-6-16T13:54:29Z</time></trkpt>
<trkpt lat="46.28282" lon="7.2209"><ele></ele><time>2024-6-16T13:54:32Z</time></trkpt>
<trkpt lat="46.28282" lon="7.2208"><ele></ele><time>2024-6-16T13:54:35Z</time></trkpt>
<trkpt lat="46.28282" lon="7.22062"><ele></ele><time>2024-6-16T13:54:38Z</time></trkpt>
<trkpt lat="46.28281" lon="7.22043"><ele></ele><time>2024-6-16T13:54:41Z</time></trkpt>
<trkpt lat="46.28281" lon="7.22029"><ele></ele><time>2024-6-16T13:54:44Z</time></trkpt>
<trkpt lat="46.28281" lon="7.22025"><ele></ele><time>2024-6-16T13:54:47Z</time></trkpt>
<trkpt lat="46.28281" lon="7.21998"><ele></ele><time>2024-6-16T13:54:50Z</time></trkpt>
<trkpt lat="46.28281" lon="7.21995"><ele></ele><time>2024-6-16T13:54:53Z</time></trkpt>
<trkpt lat="46.2828" lon="7.21985"><ele></ele><time>2024-6-16T13:54:56Z</time></trkpt>
<trkpt lat="46.28279" lon="7.2198"><ele></ele><time>2024-6-16T13:54:59Z</time></trkpt>
<trkpt lat="46.28278" lon="7.21963"><ele></ele><time>2024-6-16T13:55:2Z</time></trkpt>
<trkpt lat="46.28277" lon="7.21959"><ele></ele><time>2024-6-16T13:55:5Z</time></trkpt>
<trkpt lat="46.28275" lon="7.21945"><ele></ele><time>2024-6-16T13:55:8Z</time></trkpt>
<trkpt lat="46.28275" lon="7.21936"><ele></ele><time>2024-6-16T13:55:11Z</time></trkpt>
<trkpt lat="46.28276" lon="7.21929"><ele></ele><time>2024-6-16T13:55:14Z</time></trkpt>
<trkpt lat="46.28281" lon="7.21911"><ele></ele><time>2024-6-16T13:55:17Z</time></trkpt>
<trkpt lat="46.28283" lon="7.21904"><ele></ele><time>2024-6-16T13:55:20Z</time></trkpt>
<trkpt lat="46.28285" lon="7.21898"><ele></ele><time>2024-6-16T13:55:23Z</time></trkpt>
<trkpt lat="46.28291" lon="7.21881"><ele></ele><time>2024-6-16T13:55:26Z</time></trkpt>
<trkpt lat="46.28292" lon="7.21876"><ele></ele><time>2024-6-16T13:55:29Z</time></trkpt>
<trkpt lat="46.28294" lon="7.21855"><ele></ele><time>2024-6-16T13:55:32Z</time></trkpt>
<trkpt lat="46.28293" lon="7.21851"><ele></ele><time>2024-6-16T13:55:35Z</time></trkpt>
<trkpt lat="46.28287" lon="7.2184"><ele></ele><time>2024-6-16T13:55:38Z</time></trkpt>
<trkpt lat="46.28283" lon="7.21837"><ele></ele><time>2024-6-16T13:55:41Z</time></trkpt>
<trkpt lat="46.28278" lon="7.21832"><ele></ele><time>2024-6-16T13:55:44Z</time></trkpt>
<trkpt lat="46.28273" lon="7.21827"><ele></ele><time>2024-6-16T13:55:47Z</time></trkpt>
<trkpt lat="46.28266" lon="7.21818"><ele></ele><time>2024-6-16T13:55:50Z</time></trkpt>
<trkpt lat="46.28264" lon="7.21816"><ele></ele><time>2024-6-16T13:55:53Z</time></trkpt>
<trkpt lat="46.28256" lon="7.21803"><ele></ele><time>2024-6-16T13:55:56Z</time></trkpt>
<trkpt lat="46.28252" lon="7.21791"><ele></ele><time>2024-6-16T13:55:59Z</time></trkpt>
<trkpt lat="46.28245" lon="7.21779"><ele></ele><time>2024-6-16T13:56:2Z</time></trkpt>
<trkpt lat="46.28238" lon="7.2177"><ele></ele><time>2024-6-16T13:56:5Z</time></trkpt>
<trkpt lat="46.28231" lon="7.21764"><ele></ele><time>2024-6-16T13:56:8Z</time></trkpt>
<trkpt lat="46.28225" lon="7.21761"><ele></ele><time>2024-6-16T13:56:11Z</time></trkpt>
<trkpt lat="46.28219" lon="7.21752"><ele></ele><time>2024-6-16T13:56:14Z</time></trkpt>
<trkpt lat="46.28215" lon="7.21747"><ele></ele><time>2024-6-16T13:56:17Z</time></trkpt>
<trkpt lat="46.28198" lon="7.21727"><ele></ele><time>2024-6-16T13:56:20Z</time></trkpt>
<trkpt lat="46.2819" lon="7.21717"><ele></ele><time>2024-6-16T13:56:23Z</time></trkpt>
<trkpt lat="46.28181" lon="7.21707"><ele></ele><time>2024-6-16T13:56:26Z</time></trkpt>
<trkpt lat="46.28177" lon="7.21702"><ele></ele><time>2024-6-16T13:56:29Z</time></trkpt>
<trkpt lat="46.2817" lon="7.21692"><ele></ele><time>2024-6-16T13:56:32Z</time></trkpt>
<trkpt lat="46.28152" lon="7.21672"><ele></ele><time>2024-6-16T13:56:35Z</time></trkpt>
<trkpt lat="46.28145" lon="7.21663"><ele></ele><time>2024-6-16T13:56:38Z</time></trkpt>
<trkpt lat="46.28136" lon="7.21651"><ele></ele><time>2024-6-16T13:56:41Z</time></trkpt>
<trkpt lat="46.28132" lon="7.21646"><ele></ele><time>2024-6-16T13:56:44Z</time></trkpt>
<trkpt lat="46.28119" lon="7.2163"><ele></ele><time>2024-6-16T13:56:47Z</time></trkpt>
<trkpt lat="46.28114" lon="7.21624"><ele></ele><time>2024-6-16T13:56:50Z</time></trkpt>
<trkpt lat="46.28104" lon="7.21611"><ele></ele><time>2024-6-16T13:56:53Z</time></trkpt>
<trkpt lat="46.28103" lon="7.21609"><ele></ele><time>2024-6-16T13:56:56Z</time></trkpt>
<trkpt lat="46.281" lon="7.21606"><ele></ele><time>2024-6-16T13:56:59Z</time></trkpt>
<trkpt lat="46.28099" lon="7.21606"><ele></ele><time>2024-6-16T13:57:2Z</time></trkpt>
<trkpt lat="46.28098" lon="7.21607"><ele></ele><time>2024-6-16T13:57:5Z</time></trkpt>
<trkpt lat="46.28097" lon="7.21609"><ele></ele><time>2024-6-16T13:57:8Z</time></trkpt>
<trkpt lat="46.28095" lon="7.21616"><ele></ele><time>2024-6-16T13:57:11Z</time></trkpt>
<trkpt lat="46.28091" lon="7.21626"><ele></ele><time>2024-6-16T13:57:14Z</time></trkpt>
<trkpt lat="46.28087" lon="7.21637"><ele></ele><time>2024-6-16T13:57:17Z</time></trkpt>
<trkpt lat="46.2808" lon="7.21658"><ele></ele><time>2024-6-16T13:57:20Z</time></trkpt>
<trkpt lat="46.28078" lon="7.21662"><ele></ele><time>2024-6-16T13:57:23Z</time></trkpt>
<trkpt lat="46.28072" lon="7.21684"><ele></ele><time>2024-6-16T13:57:26Z</time></trkpt>
<trkpt lat="46.28067" lon="7.21697"><ele></ele><time>2024-6-16T13:57:29Z</time></trkpt>
<trkpt lat="46.28065" lon="7.21707"><ele></ele><time>2024-6-16T13:57:32Z</time></trkpt>
<trkpt lat="46.2806" lon="7.21723"><ele></ele><time>2024-6-16T13:57:35Z</time></trkpt>
<trkpt lat="46.28056" lon="7.21737"><ele></ele><time>2024-6-16T13:57:38Z</time></trkpt>
<trkpt lat="46.2805" lon="7.21756"><ele></ele><time>2024-6-16T13:57:41Z</time></trkpt>
<trkpt lat="46.28046" lon="7.21774"><ele></ele><time>2024-6-16T13:57:44Z</time></trkpt>
<trkpt lat="46.28043" lon="7.21785"><ele></ele><time>2024-6-16T13:57:47Z</time></trkpt>
<trkpt lat="46.28042" lon="7.21796"><ele></ele><time>2024-6-16T13:57:50Z</time></trkpt>
<trkpt lat="46.28041" lon="7.21798"><ele></ele><time>2024-6-16T13:57:53Z</time></trkpt>
<trkpt lat="46.28041" lon="7.21805"><ele></ele><time>2024-6-16T13:57:56Z</time></trkpt>
<trkpt lat="46.28041" lon="7.21808"><ele></ele><time>2024-6-16T13:57:59Z</time></trkpt>
<trkpt lat="46.28039" lon="7.2181"><ele></ele><time>2024-6-16T13:58:2Z</time></trkpt>
<trkpt lat="46.28038" lon="7.21812"><ele></ele><time>2024-6-16T13:58:5Z</time></trkpt>
<trkpt lat="46.28035" lon="7.21811"><ele></ele><time>2024-6-16T13:58:8Z</time></trkpt>
<trkpt lat="46.28034" lon="7.21807"><ele></ele><time>2024-6-16T13:58:11Z</time></trkpt>
<trkpt lat="46.28027" lon="7.2179"><ele></ele><time>2024-6-16T13:58:14Z</time></trkpt>
<trkpt lat="46.2802" lon="7.21774"><ele></ele><time>2024-6-16T13:58:17Z</time></trkpt>
<trkpt lat="46.28011" lon="7.21766"><ele></ele><time>2024-6-16T13:58:20Z</time></trkpt>
<trkpt lat="46.2801" lon="7.2176"><ele></ele><time>2024-6-16T13:58:23Z</time></trkpt>
<trkpt lat="46.28007" lon="7.21752"><ele></ele><time>2024-6-16T13:58:26Z</time></trkpt>
<trkpt lat="46.2801" lon="7.21738"><ele></ele><time>2024-6-16T13:58:29Z</time></trkpt>
<trkpt lat="46.2802" lon="7.21726"><ele></ele><time>2024-6-16T13:58:32Z</time></trkpt>
<trkpt lat="46.28026" lon="7.21723"><ele></ele><time>2024-6-16T13:58:35Z</time></trkpt>
<trkpt lat="46.28028" lon="7.21722"><ele></ele><time>2024-6-16T13:58:38Z</time></trkpt>
<trkpt lat="46.2803" lon="7.21725"><ele></ele><time>2024-6-16T13:58:41Z</time></trkpt>
<trkpt lat="46.28026" lon="7.21727"><ele></ele><time>2024-6-16T13:58:44Z</time></trkpt>
<trkpt lat="46.28027" lon="7.21727"><ele></ele><time>2024-6-16T13:58:47Z</time></trkpt>
<trkpt lat="46.28026" lon="7.21728"><ele></ele><time>2024-6-16T13:58:50Z</time></trkpt>
<trkpt lat="46.28027" lon="7.21727"><ele></ele><time>2024-6-16T13:58:53Z</time></trkpt>
<trkpt lat="46.28027" lon="7.21727"><ele></ele><time>2024-6-16T13:58:56Z</time></trkpt>
<trkpt lat="46.28026" lon="7.21728"><ele></ele><time>2024-6-16T13:58:59Z</time></trkpt>
<trkpt lat="46.28027" lon="7.21727"><ele></ele><time>2024-6-16T13:59:2Z</time></trkpt>
<trkpt lat="46.28027" lon="7.21727"><ele></ele><time>2024-6-16T13:59:5Z</time></trkpt>
<trkpt lat="46.28027" lon="7.21727"><ele></ele><time>2024-6-16T13:59:8Z</time></trkpt>
<trkpt lat="46.28027" lon="7.21725"><ele></ele><time>2024-6-16T13:59:11Z</time></trkpt>
<trkpt lat="46.28028" lon="7.21726"><ele></ele><time>2024-6-16T13:59:14Z</time></trkpt>
<trkpt lat="46.28028" lon="7.21726"><ele></ele><time>2024-6-16T13:59:17Z</time></trkpt>
<trkpt lat="46.28027" lon="7.21726"><ele></ele><time>2024-6-16T13:59:20Z</time></trkpt>
<trkpt lat="46.28026" lon="7.21725"><ele></ele><time>2024-6-16T13:59:23Z</time></trkpt>
<trkpt lat="46.28027" lon="7.21726"><ele></ele><time>2024-6-16T13:59:26Z</time></trkpt>
<trkpt lat="46.28027" lon="7.21726"><ele></ele><time>2024-6-16T13:59:29Z</time></trkpt>
<trkpt lat="46.28027" lon="7.21727"><ele></ele><time>2024-6-16T13:59:32Z</time></trkpt>
<trkpt lat="46.28027" lon="7.21727"><ele></ele><time>2024-6-16T13:59:35Z</time></trkpt>
<trkpt lat="46.28027" lon="7.21728"><ele></ele><time>2024-6-16T13:59:38Z</time></trkpt>
<trkpt lat="46.28026" lon="7.21728"><ele></ele><time>2024-6-16T13:59:41Z</time></trkpt>
<trkpt lat="46.28026" lon="7.21728"><ele></ele><time>2024-6-16T13:59:44Z</time></trkpt>
<trkpt lat="46.28025" lon="7.21727"><ele></ele><time>2024-6-16T13:59:47Z</time></trkpt>
<trkpt lat="46.28025" lon="7.21727"><ele></ele><time>2024-6-16T13:59:50Z</time></trkpt>
<trkpt lat="46.28025" lon="7.21727"><ele></ele><time>2024-6-16T13:59:53Z</time></trkpt>
<trkpt lat="46.28026" lon="7.21727"><ele></ele><time>2024-6-16T13:59:56Z</time></trkpt>
<trkpt lat="46.28026" lon="7.21727"><ele></ele><time>2024-6-16T13:59:59Z</time></trkpt>
<trkpt lat="46.28026" lon="7.21728"><ele></ele><time>2024-6-16T14:0:2Z</time></trkpt>
<trkpt lat="46.28025" lon="7.21727"><ele></ele><time>2024-6-16T14:0:5Z</time></trkpt>
<trkpt lat="46.28027" lon="7.21727"><ele></ele><time>2024-6-16T14:0:8Z</time></trkpt>
<trkpt lat="46.28028" lon="7.2173"><ele></ele><time>2024-6-16T14:0:11Z</time></trkpt>
<trkpt lat="46.28028" lon="7.21729"><ele></ele><time>2024-6-16T14:0:14Z</time></trkpt>
<trkpt lat="46.28026" lon="7.2173"><ele></ele><time>2024-6-16T14:0:17Z</time></trkpt>
<trkpt lat="46.28026" lon="7.21728"><ele></ele><time>2024-6-16T14:0:20Z</time></trkpt>
<trkpt lat="46.28026" lon="7.21729"><ele></ele><time>2024-6-16T14:0:23Z</time></trkpt>
<trkpt lat="46.28026" lon="7.21728"><ele></ele><time>2024-6-16T14:0:26Z</time></trkpt>
<trkpt lat="46.28026" lon="7.21727"><ele></ele><time>2024-6-16T14:0:29Z</time></trkpt>
<trkpt lat="46.28022" lon="7.21726"><ele></ele><time>2024-6-16T14:0:32Z</time></trkpt>
<trkpt lat="46.28018" lon="7.21723"><ele></ele><time>2024-6-16T14:0:35Z</time></trkpt>
<trkpt lat="46.28017" lon="7.21722"><ele></ele><time>2024-6-16T14:0:38Z</time></trkpt>
<trkpt lat="46.28017" lon="7.21723"><ele></ele><time>2024-6-16T14:0:41Z</time></trkpt>
<trkpt lat="46.28017" lon="7.21723"><ele></ele><time>2024-6-16T14:0:44Z</time></trkpt>
<trkpt lat="46.28017" lon="7.21722"><ele></ele><time>2024-6-16T14:0:47Z</time></trkpt>
<trkpt lat="46.28017" lon="7.21722"><ele></ele><time>2024-6-16T14:0:50Z</time></trkpt>
<trkpt lat="46.28019" lon="7.21723"><ele></ele><time>2024-6-16T14:0:53Z</time></trkpt>
<trkpt lat="46.2802" lon="7.21724"><ele></ele><time>2024-6-16T14:0:56Z</time></trkpt>
<trkpt lat="46.2802" lon="7.21724"><ele></ele><time>2024-6-16T14:0:59Z</time></trkpt>
<trkpt lat="46.2802" lon="7.21724"><ele></ele><time>2024-6-16T14:1:2Z</time></trkpt>
<trkpt lat="46.28023" lon="7.21723"><ele></ele><time>2024-6-16T14:1:5Z</time></trkpt>
<trkpt lat="46.28028" lon="7.21724"><ele></ele><time>2024-6-16T14:1:8Z</time></trkpt>
<trkpt lat="46.28028" lon="7.21723"><ele></ele><time>2024-6-16T14:1:11Z</time></trkpt>
<trkpt lat="46.28028" lon="7.21724"><ele></ele><time>2024-6-16T14:1:14Z</time></trkpt>
<trkpt lat="46.28028" lon="7.21725"><ele></ele><time>2024-6-16T14:1:17Z</time></trkpt>
<trkpt lat="46.28026" lon="7.21725"><ele></ele><time>2024-6-16T14:1:20Z</time></trkpt>
<trkpt lat="46.28026" lon="7.21727"><ele></ele><time>2024-6-16T14:1:23Z</time></trkpt>
<trkpt lat="46.28026" lon="7.21728"><ele></ele><time>2024-6-16T14:1:26Z</time></trkpt>
<trkpt lat="46.28027" lon="7.21729"><ele></ele><time>2024-6-16T14:1:29Z</time></trkpt>
<trkpt lat="46.28026" lon="7.21729"><ele></ele><time>2024-6-16T14:1:32Z</time></trkpt>
<trkpt lat="46.28025" lon="7.21727"><ele></ele><time>2024-6-16T14:1:35Z</time></trkpt>
<trkpt lat="46.28026" lon="7.21729"><ele></ele><time>2024-6-16T14:1:38Z</time></trkpt>
<trkpt lat="46.28025" lon="7.21728"><ele></ele><time>2024-6-16T14:1:41Z</time></trkpt>
<trkpt lat="46.28025" lon="7.21727"><ele></ele><time>2024-6-16T14:1:44Z</time></trkpt>
<trkpt lat="46.28024" lon="7.21728"><ele></ele><time>2024-6-16T14:1:47Z</time></trkpt>
<trkpt lat="46.28024" lon="7.21727"><ele></ele><time>2024-6-16T14:1:50Z</time></trkpt>
<trkpt lat="46.28024" lon="7.21727"><ele></ele><time>2024-6-16T14:1:53Z</time></trkpt>
<trkpt lat="46.28025" lon="7.21729"><ele></ele><time>2024-6-16T14:1:56Z</time></trkpt>
<trkpt lat="46.28025" lon="7.2173"><ele></ele><time>2024-6-16T14:1:59Z</time></trkpt>
<trkpt lat="46.28025" lon="7.2173"><ele></ele><time>2024-6-16T14:2:2Z</time></trkpt>
<trkpt lat="46.28025" lon="7.21729"><ele></ele><time>2024-6-16T14:2:5Z</time></trkpt>
<trkpt lat="46.28026" lon="7.21727"><ele></ele><time>2024-6-16T14:2:8Z</time></trkpt>
<trkpt lat="46.28026" lon="7.21725"><ele></ele><time>2024-6-16T14:2:11Z</time></trkpt>
<trkpt lat="46.28026" lon="7.21726"><ele></ele><time>2024-6-16T14:2:14Z</time></trkpt>
<trkpt lat="46.28026" lon="7.21726"><ele></ele><time>2024-6-16T14:2:17Z</time></trkpt>
<trkpt lat="46.28026" lon="7.21726"><ele></ele><time>2024-6-16T14:2:20Z</time></trkpt>
<trkpt lat="46.28026" lon="7.21727"><ele></ele><time>2024-6-16T14:2:23Z</time></trkpt>
<trkpt lat="46.28026" lon="7.21727"><ele></ele><time>2024-6-16T14:2:26Z</time></trkpt>
<trkpt lat="46.28026" lon="7.21727"><ele></ele><time>2024-6-16T14:2:29Z</time></trkpt>
<trkpt lat="46.28026" lon="7.21726"><ele></ele><time>2024-6-16T14:2:32Z</time></trkpt>
<trkpt lat="46.28028" lon="7.21727"><ele></ele><time>2024-6-16T14:2:35Z</time></trkpt>
<trkpt lat="46.28029" lon="7.21727"><ele></ele><time>2024-6-16T14:2:38Z</time></trkpt>
<trkpt lat="46.28028" lon="7.21729"><ele></ele><time>2024-6-16T14:2:41Z</time></trkpt>
<trkpt lat="46.28028" lon="7.21729"><ele></ele><time>2024-6-16T14:2:44Z</time></trkpt>
<trkpt lat="46.28026" lon="7.21726"><ele></ele><time>2024-6-16T14:2:47Z</time></trkpt>
<trkpt lat="46.28024" lon="7.21727"><ele></ele><time>2024-6-16T14:2:50Z</time></trkpt>
<trkpt lat="46.28021" lon="7.2173"><ele></ele><time>2024-6-16T14:2:53Z</time></trkpt>
<trkpt lat="46.2802" lon="7.2173"><ele></ele><time>2024-6-16T14:2:56Z</time></trkpt>
<trkpt lat="46.2802" lon="7.21731"><ele></ele><time>2024-6-16T14:2:59Z</time></trkpt>
<trkpt lat="46.28019" lon="7.21732"><ele></ele><time>2024-6-16T14:3:2Z</time></trkpt>
<trkpt lat="46.28019" lon="7.21733"><ele></ele><time>2024-6-16T14:3:5Z</time></trkpt>
<trkpt lat="46.28021" lon="7.21732"><ele></ele><time>2024-6-16T14:3:8Z</time></trkpt>
<trkpt lat="46.28018" lon="7.2173"><ele></ele><time>2024-6-16T14:3:11Z</time></trkpt>
<trkpt lat="46.28017" lon="7.21732"><ele></ele><time>2024-6-16T14:3:14Z</time></trkpt>
<trkpt lat="46.28016" lon="7.21733"><ele></ele><time>2024-6-16T14:3:17Z</time></trkpt>
<trkpt lat="46.28016" lon="7.21732"><ele></ele><time>2024-6-16T14:3:20Z</time></trkpt>
<trkpt lat="46.28017" lon="7.21732"><ele></ele><time>2024-6-16T14:3:23Z</time></trkpt>
<trkpt lat="46.28021" lon="7.21731"><ele></ele><time>2024-6-16T14:3:26Z</time></trkpt>
<trkpt lat="46.2802" lon="7.21732"><ele></ele><time>2024-6-16T14:3:29Z</time></trkpt>
<trkpt lat="46.28019" lon="7.21731"><ele></ele><time>2024-6-16T14:3:32Z</time></trkpt>
<trkpt lat="46.2802" lon="7.21734"><ele></ele><time>2024-6-16T14:3:35Z</time></trkpt>
<trkpt lat="46.28018" lon="7.21738"><ele></ele><time>2024-6-16T14:3:38Z</time></trkpt>
<trkpt lat="46.28021" lon="7.21742"><ele></ele><time>2024-6-16T14:3:41Z</time></trkpt>
<trkpt lat="46.28022" lon="7.21741"><ele></ele><time>2024-6-16T14:3:44Z</time></trkpt>
<trkpt lat="46.28019" lon="7.21734"><ele></ele><time>2024-6-16T14:3:47Z</time></trkpt>
<trkpt lat="46.28018" lon="7.21727"><ele></ele><time>2024-6-16T14:3:50Z</time></trkpt>
<trkpt lat="46.28018" lon="7.21722"><ele></ele><time>2024-6-16T14:3:53Z</time></trkpt>
<trkpt lat="46.28018" lon="7.21718"><ele></ele><time>2024-6-16T14:3:56Z</time></trkpt>
<trkpt lat="46.28016" lon="7.2172"><ele></ele><time>2024-6-16T14:3:59Z</time></trkpt>
<trkpt lat="46.28016" lon="7.21722"><ele></ele><time>2024-6-16T14:4:2Z</time></trkpt>
<trkpt lat="46.28018" lon="7.21734"><ele></ele><time>2024-6-16T14:4:5Z</time></trkpt>
<trkpt lat="46.28018" lon="7.21741"><ele></ele><time>2024-6-16T14:4:8Z</time></trkpt>
<trkpt lat="46.28017" lon="7.21741"><ele></ele><time>2024-6-16T14:4:11Z</time></trkpt>
<trkpt lat="46.28016" lon="7.21733"><ele></ele><time>2024-6-16T14:4:14Z</time></trkpt>
<trkpt lat="46.28018" lon="7.21723"><ele></ele><time>2024-6-16T14:4:17Z</time></trkpt>
<trkpt lat="46.28016" lon="7.21721"><ele></ele><time>2024-6-16T14:4:20Z</time></trkpt>
<trkpt lat="46.28015" lon="7.21721"><ele></ele><time>2024-6-16T14:4:23Z</time></trkpt>
<trkpt lat="46.28013" lon="7.21726"><ele></ele><time>2024-6-16T14:4:26Z</time></trkpt>
<trkpt lat="46.28018" lon="7.21732"><ele></ele><time>2024-6-16T14:4:29Z</time></trkpt>
<trkpt lat="46.28019" lon="7.21733"><ele></ele><time>2024-6-16T14:4:32Z</time></trkpt>
<trkpt lat="46.28019" lon="7.21734"><ele></ele><time>2024-6-16T14:4:35Z</time></trkpt>
<trkpt lat="46.28019" lon="7.21734"><ele></ele><time>2024-6-16T14:4:38Z</time></trkpt>
<trkpt lat="46.28019" lon="7.21734"><ele></ele><time>2024-6-16T14:4:41Z</time></trkpt>
<trkpt lat="46.28019" lon="7.21737"><ele></ele><time>2024-6-16T14:4:44Z</time></trkpt>
<trkpt lat="46.28021" lon="7.21738"><ele></ele><time>2024-6-16T14:4:47Z</time></trkpt>
<trkpt lat="46.28024" lon="7.21737"><ele></ele><time>2024-6-16T14:4:50Z</time></trkpt>
<trkpt lat="46.28033" lon="7.21738"><ele></ele><time>2024-6-16T14:4:53Z</time></trkpt>
<trkpt lat="46.28039" lon="7.21736"><ele></ele><time>2024-6-16T14:4:56Z</time></trkpt>
<trkpt lat="46.28042" lon="7.21737"><ele></ele><time>2024-6-16T14:4:59Z</time></trkpt>
<trkpt lat="46.28043" lon="7.21737"><ele></ele><time>2024-6-16T14:5:2Z</time></trkpt>
<trkpt lat="46.28049" lon="7.21731"><ele></ele><time>2024-6-16T14:5:5Z</time></trkpt>
<trkpt lat="46.2805" lon="7.2173"><ele></ele><time>2024-6-16T14:5:8Z</time></trkpt>
<trkpt lat="46.28052" lon="7.2173"><ele></ele><time>2024-6-16T14:5:11Z</time></trkpt>
<trkpt lat="46.28053" lon="7.2173"><ele></ele><time>2024-6-16T14:5:14Z</time></trkpt>
<trkpt lat="46.28055" lon="7.2173"><ele></ele><time>2024-6-16T14:5:17Z</time></trkpt>
<trkpt lat="46.28061" lon="7.21723"><ele></ele><time>2024-6-16T14:5:20Z</time></trkpt>
<trkpt lat="46.28067" lon="7.21708"><ele></ele><time>2024-6-16T14:5:23Z</time></trkpt>
<trkpt lat="46.28072" lon="7.21698"><ele></ele><time>2024-6-16T14:5:26Z</time></trkpt>
<trkpt lat="46.28073" lon="7.21692"><ele></ele><time>2024-6-16T14:5:29Z</time></trkpt>
<trkpt lat="46.28079" lon="7.21668"><ele></ele><time>2024-6-16T14:5:32Z</time></trkpt>
<trkpt lat="46.28083" lon="7.21655"><ele></ele><time>2024-6-16T14:5:35Z</time></trkpt>
<trkpt lat="46.28084" lon="7.21651"><ele></ele><time>2024-6-16T14:5:38Z</time></trkpt>
<trkpt lat="46.28087" lon="7.21638"><ele></ele><time>2024-6-16T14:5:41Z</time></trkpt>
<trkpt lat="46.28094" lon="7.21619"><ele></ele><time>2024-6-16T14:5:44Z</time></trkpt>
<trkpt lat="46.28097" lon="7.21612"><ele></ele><time>2024-6-16T14:5:47Z</time></trkpt>
<trkpt lat="46.28098" lon="7.2161"><ele></ele><time>2024-6-16T14:5:50Z</time></trkpt>
<trkpt lat="46.28099" lon="7.21609"><ele></ele><time>2024-6-16T14:5:53Z</time></trkpt>
<trkpt lat="46.281" lon="7.21608"><ele></ele><time>2024-6-16T14:5:56Z</time></trkpt>
<trkpt lat="46.28106" lon="7.21613"><ele></ele><time>2024-6-16T14:5:59Z</time></trkpt>
<trkpt lat="46.28112" lon="7.21619"><ele></ele><time>2024-6-16T14:6:2Z</time></trkpt>
<trkpt lat="46.28113" lon="7.21621"><ele></ele><time>2024-6-16T14:6:5Z</time></trkpt>
<trkpt lat="46.28121" lon="7.2163"><ele></ele><time>2024-6-16T14:6:8Z</time></trkpt>
<trkpt lat="46.28128" lon="7.2164"><ele></ele><time>2024-6-16T14:6:11Z</time></trkpt>
<trkpt lat="46.28134" lon="7.21648"><ele></ele><time>2024-6-16T14:6:14Z</time></trkpt>
<trkpt lat="46.28138" lon="7.21652"><ele></ele><time>2024-6-16T14:6:17Z</time></trkpt>
<trkpt lat="46.28144" lon="7.2166"><ele></ele><time>2024-6-16T14:6:20Z</time></trkpt>
<trkpt lat="46.28148" lon="7.21665"><ele></ele><time>2024-6-16T14:6:23Z</time></trkpt>
<trkpt lat="46.28159" lon="7.21682"><ele></ele><time>2024-6-16T14:6:26Z</time></trkpt>
<trkpt lat="46.2816" lon="7.21684"><ele></ele><time>2024-6-16T14:6:29Z</time></trkpt>
<trkpt lat="46.2817" lon="7.21694"><ele></ele><time>2024-6-16T14:6:32Z</time></trkpt>
<trkpt lat="46.28173" lon="7.21699"><ele></ele><time>2024-6-16T14:6:35Z</time></trkpt>
<trkpt lat="46.28181" lon="7.21709"><ele></ele><time>2024-6-16T14:6:38Z</time></trkpt>
<trkpt lat="46.28191" lon="7.2172"><ele></ele><time>2024-6-16T14:6:41Z</time></trkpt>
<trkpt lat="46.28199" lon="7.21727"><ele></ele><time>2024-6-16T14:6:44Z</time></trkpt>
<trkpt lat="46.28209" lon="7.2174"><ele></ele><time>2024-6-16T14:6:47Z</time></trkpt>
<trkpt lat="46.28213" lon="7.21744"><ele></ele><time>2024-6-16T14:6:50Z</time></trkpt>
<trkpt lat="46.28229" lon="7.21761"><ele></ele><time>2024-6-16T14:6:53Z</time></trkpt>
<trkpt lat="46.28231" lon="7.21763"><ele></ele><time>2024-6-16T14:6:56Z</time></trkpt>
<trkpt lat="46.28244" lon="7.21778"><ele></ele><time>2024-6-16T14:6:59Z</time></trkpt>
<trkpt lat="46.28248" lon="7.21784"><ele></ele><time>2024-6-16T14:7:2Z</time></trkpt>
<trkpt lat="46.28255" lon="7.21801"><ele></ele><time>2024-6-16T14:7:5Z</time></trkpt>
<trkpt lat="46.28269" lon="7.21821"><ele></ele><time>2024-6-16T14:7:8Z</time></trkpt>
<trkpt lat="46.28279" lon="7.21832"><ele></ele><time>2024-6-16T14:7:11Z</time></trkpt>
<trkpt lat="46.28285" lon="7.21843"><ele></ele><time>2024-6-16T14:7:14Z</time></trkpt>
<trkpt lat="46.28292" lon="7.21862"><ele></ele><time>2024-6-16T14:7:17Z</time></trkpt>
<trkpt lat="46.2829" lon="7.2187"><ele></ele><time>2024-6-16T14:7:20Z</time></trkpt>
<trkpt lat="46.28289" lon="7.21876"><ele></ele><time>2024-6-16T14:7:23Z</time></trkpt>
<trkpt lat="46.28289" lon="7.21879"><ele></ele><time>2024-6-16T14:7:26Z</time></trkpt>
<trkpt lat="46.28284" lon="7.21901"><ele></ele><time>2024-6-16T14:7:29Z</time></trkpt>
<trkpt lat="46.28277" lon="7.21921"><ele></ele><time>2024-6-16T14:7:32Z</time></trkpt>
<trkpt lat="46.28275" lon="7.21943"><ele></ele><time>2024-6-16T14:7:35Z</time></trkpt>
<trkpt lat="46.28278" lon="7.2197"><ele></ele><time>2024-6-16T14:7:38Z</time></trkpt>
<trkpt lat="46.28279" lon="7.21981"><ele></ele><time>2024-6-16T14:7:41Z</time></trkpt>
<trkpt lat="46.28279" lon="7.22"><ele></ele><time>2024-6-16T14:7:44Z</time></trkpt>
<trkpt lat="46.28279" lon="7.22007"><ele></ele><time>2024-6-16T14:7:47Z</time></trkpt>
<trkpt lat="46.28278" lon="7.22024"><ele></ele><time>2024-6-16T14:7:50Z</time></trkpt>
<trkpt lat="46.28278" lon="7.22045"><ele></ele><time>2024-6-16T14:7:53Z</time></trkpt>
<trkpt lat="46.28278" lon="7.22075"><ele></ele><time>2024-6-16T14:7:56Z</time></trkpt>
<trkpt lat="46.28279" lon="7.22085"><ele></ele><time>2024-6-16T14:7:59Z</time></trkpt>
<trkpt lat="46.28285" lon="7.22118"><ele></ele><time>2024-6-16T14:8:2Z</time></trkpt>
<trkpt lat="46.2829" lon="7.22142"><ele></ele><time>2024-6-16T14:8:5Z</time></trkpt>
<trkpt lat="46.28294" lon="7.22154"><ele></ele><time>2024-6-16T14:8:8Z</time></trkpt>
<trkpt lat="46.28299" lon="7.22178"><ele></ele><time>2024-6-16T14:8:11Z</time></trkpt>
<trkpt lat="46.28301" lon="7.2219"><ele></ele><time>2024-6-16T14:8:14Z</time></trkpt>
<trkpt lat="46.28302" lon="7.22202"><ele></ele><time>2024-6-16T14:8:17Z</time></trkpt>
<trkpt lat="46.28299" lon="7.22226"><ele></ele><time>2024-6-16T14:8:20Z</time></trkpt>
<trkpt lat="46.28296" lon="7.22236"><ele></ele><time>2024-6-16T14:8:23Z</time></trkpt>
<trkpt lat="46.28291" lon="7.22245"><ele></ele><time>2024-6-16T14:8:26Z</time></trkpt>
<trkpt lat="46.28288" lon="7.22256"><ele></ele><time>2024-6-16T14:8:29Z</time></trkpt>
<trkpt lat="46.28283" lon="7.22275"><ele></ele><time>2024-6-16T14:8:32Z</time></trkpt>
<trkpt lat="46.28282" lon="7.22294"><ele></ele><time>2024-6-16T14:8:35Z</time></trkpt>
<trkpt lat="46.28283" lon="7.22303"><ele></ele><time>2024-6-16T14:8:38Z</time></trkpt>
<trkpt lat="46.28285" lon="7.22312"><ele></ele><time>2024-6-16T14:8:41Z</time></trkpt>
<trkpt lat="46.28292" lon="7.2233"><ele></ele><time>2024-6-16T14:8:44Z</time></trkpt>
<trkpt lat="46.28296" lon="7.22339"><ele></ele><time>2024-6-16T14:8:47Z</time></trkpt>
<trkpt lat="46.28301" lon="7.22346"><ele></ele><time>2024-6-16T14:8:50Z</time></trkpt>
<trkpt lat="46.28307" lon="7.22352"><ele></ele><time>2024-6-16T14:8:53Z</time></trkpt>
<trkpt lat="46.28314" lon="7.22357"><ele></ele><time>2024-6-16T14:8:56Z</time></trkpt>
<trkpt lat="46.28321" lon="7.22361"><ele></ele><time>2024-6-16T14:8:59Z</time></trkpt>
<trkpt lat="46.28347" lon="7.22376"><ele></ele><time>2024-6-16T14:9:2Z</time></trkpt>
<trkpt lat="46.28365" lon="7.22389"><ele></ele><time>2024-6-16T14:9:5Z</time></trkpt>
<trkpt lat="46.28374" lon="7.22397"><ele></ele><time>2024-6-16T14:9:8Z</time></trkpt>
<trkpt lat="46.28383" lon="7.22405"><ele></ele><time>2024-6-16T14:9:11Z</time></trkpt>
<trkpt lat="46.28391" lon="7.22412"><ele></ele><time>2024-6-16T14:9:14Z</time></trkpt>
<trkpt lat="46.28406" lon="7.22427"><ele></ele><time>2024-6-16T14:9:17Z</time></trkpt>
<trkpt lat="46.28412" lon="7.22433"><ele></ele><time>2024-6-16T14:9:20Z</time></trkpt>
<trkpt lat="46.28428" lon="7.22449"><ele></ele><time>2024-6-16T14:9:23Z</time></trkpt>
<trkpt lat="46.28441" lon="7.22443"><ele></ele><time>2024-6-16T14:9:26Z</time></trkpt>
<trkpt lat="46.28448" lon="7.22438"><ele></ele><time>2024-6-16T14:9:29Z</time></trkpt>
<trkpt lat="46.28455" lon="7.22433"><ele></ele><time>2024-6-16T14:9:32Z</time></trkpt>
<trkpt lat="46.2847" lon="7.22424"><ele></ele><time>2024-6-16T14:9:35Z</time></trkpt>
<trkpt lat="46.28479" lon="7.22423"><ele></ele><time>2024-6-16T14:9:38Z</time></trkpt>
<trkpt lat="46.28488" lon="7.22424"><ele></ele><time>2024-6-16T14:9:41Z</time></trkpt>
<trkpt lat="46.28504" lon="7.22436"><ele></ele><time>2024-6-16T14:9:44Z</time></trkpt>
<trkpt lat="46.28519" lon="7.22452"><ele></ele><time>2024-6-16T14:9:47Z</time></trkpt>
<trkpt lat="46.28531" lon="7.22466"><ele></ele><time>2024-6-16T14:9:50Z</time></trkpt>
<trkpt lat="46.28537" lon="7.22471"><ele></ele><time>2024-6-16T14:9:53Z</time></trkpt>
<trkpt lat="46.28544" lon="7.22473"><ele></ele><time>2024-6-16T14:9:56Z</time></trkpt>
<trkpt lat="46.28551" lon="7.22473"><ele></ele><time>2024-6-16T14:9:59Z</time></trkpt>
<trkpt lat="46.28565" lon="7.22463"><ele></ele><time>2024-6-16T14:10:2Z</time></trkpt>
<trkpt lat="46.28571" lon="7.22456"><ele></ele><time>2024-6-16T14:10:5Z</time></trkpt>
<trkpt lat="46.28575" lon="7.22446"><ele></ele><time>2024-6-16T14:10:8Z</time></trkpt>
<trkpt lat="46.2858" lon="7.22436"><ele></ele><time>2024-6-16T14:10:11Z</time></trkpt>
<trkpt lat="46.28585" lon="7.22429"><ele></ele><time>2024-6-16T14:10:14Z</time></trkpt>
<trkpt lat="46.28595" lon="7.22434"><ele></ele><time>2024-6-16T14:10:17Z</time></trkpt>
<trkpt lat="46.28593" lon="7.22452"><ele></ele><time>2024-6-16T14:10:20Z</time></trkpt>
<trkpt lat="46.28589" lon="7.2246"><ele></ele><time>2024-6-16T14:10:23Z</time></trkpt>
<trkpt lat="46.28581" lon="7.22487"><ele></ele><time>2024-6-16T14:10:26Z</time></trkpt>
<trkpt lat="46.28576" lon="7.22509"><ele></ele><time>2024-6-16T14:10:29Z</time></trkpt>
<trkpt lat="46.28571" lon="7.22533"><ele></ele><time>2024-6-16T14:10:32Z</time></trkpt>
<trkpt lat="46.28569" lon="7.22546"><ele></ele><time>2024-6-16T14:10:35Z</time></trkpt>
<trkpt lat="46.28567" lon="7.2256"><ele></ele><time>2024-6-16T14:10:38Z</time></trkpt>
<trkpt lat="46.28564" lon="7.22574"><ele></ele><time>2024-6-16T14:10:41Z</time></trkpt>
<trkpt lat="46.28559" lon="7.22588"><ele></ele><time>2024-6-16T14:10:44Z</time></trkpt>
<trkpt lat="46.28555" lon="7.22602"><ele></ele><time>2024-6-16T14:10:47Z</time></trkpt>
<trkpt lat="46.2855" lon="7.22616"><ele></ele><time>2024-6-16T14:10:50Z</time></trkpt>
<trkpt lat="46.28539" lon="7.22645"><ele></ele><time>2024-6-16T14:10:53Z</time></trkpt>
<trkpt lat="46.28534" lon="7.22659"><ele></ele><time>2024-6-16T14:10:56Z</time></trkpt>
<trkpt lat="46.28531" lon="7.22675"><ele></ele><time>2024-6-16T14:10:59Z</time></trkpt>
<trkpt lat="46.28525" lon="7.22707"><ele></ele><time>2024-6-16T14:11:2Z</time></trkpt>
<trkpt lat="46.28523" lon="7.22723"><ele></ele><time>2024-6-16T14:11:5Z</time></trkpt>
<trkpt lat="46.2852" lon="7.22737"><ele></ele><time>2024-6-16T14:11:8Z</time></trkpt>
<trkpt lat="46.28513" lon="7.22763"><ele></ele><time>2024-6-16T14:11:11Z</time></trkpt>
<trkpt lat="46.28511" lon="7.22776"><ele></ele><time>2024-6-16T14:11:14Z</time></trkpt>
<trkpt lat="46.28509" lon="7.22787"><ele></ele><time>2024-6-16T14:11:17Z</time></trkpt>
<trkpt lat="46.2851" lon="7.22799"><ele></ele><time>2024-6-16T14:11:20Z</time></trkpt>
<trkpt lat="46.28511" lon="7.22811"><ele></ele><time>2024-6-16T14:11:23Z</time></trkpt>
<trkpt lat="46.28514" lon="7.22823"><ele></ele><time>2024-6-16T14:11:26Z</time></trkpt>
<trkpt lat="46.28517" lon="7.22836"><ele></ele><time>2024-6-16T14:11:29Z</time></trkpt>
<trkpt lat="46.2852" lon="7.22849"><ele></ele><time>2024-6-16T14:11:32Z</time></trkpt>
<trkpt lat="46.28527" lon="7.22878"><ele></ele><time>2024-6-16T14:11:35Z</time></trkpt>
<trkpt lat="46.28531" lon="7.22893"><ele></ele><time>2024-6-16T14:11:38Z</time></trkpt>
<trkpt lat="46.28535" lon="7.22908"><ele></ele><time>2024-6-16T14:11:41Z</time></trkpt>
<trkpt lat="46.28539" lon="7.22939"><ele></ele><time>2024-6-16T14:11:44Z</time></trkpt>
<trkpt lat="46.28539" lon="7.22955"><ele></ele><time>2024-6-16T14:11:47Z</time></trkpt>
<trkpt lat="46.28539" lon="7.22987"><ele></ele><time>2024-6-16T14:11:50Z</time></trkpt>
<trkpt lat="46.28538" lon="7.23017"><ele></ele><time>2024-6-16T14:11:53Z</time></trkpt>
<trkpt lat="46.28539" lon="7.23031"><ele></ele><time>2024-6-16T14:11:56Z</time></trkpt>
<trkpt lat="46.28541" lon="7.23043"><ele></ele><time>2024-6-16T14:11:59Z</time></trkpt>
<trkpt lat="46.28543" lon="7.23053"><ele></ele><time>2024-6-16T14:12:2Z</time></trkpt>
<trkpt lat="46.28546" lon="7.23063"><ele></ele><time>2024-6-16T14:12:5Z</time></trkpt>
<trkpt lat="46.2855" lon="7.23072"><ele></ele><time>2024-6-16T14:12:8Z</time></trkpt>
<trkpt lat="46.28558" lon="7.23092"><ele></ele><time>2024-6-16T14:12:11Z</time></trkpt>
<trkpt lat="46.2856" lon="7.23103"><ele></ele><time>2024-6-16T14:12:14Z</time></trkpt>
<trkpt lat="46.28561" lon="7.23116"><ele></ele><time>2024-6-16T14:12:17Z</time></trkpt>
<trkpt lat="46.28561" lon="7.23142"><ele></ele><time>2024-6-16T14:12:20Z</time></trkpt>
<trkpt lat="46.28561" lon="7.23156"><ele></ele><time>2024-6-16T14:12:23Z</time></trkpt>
<trkpt lat="46.28562" lon="7.2317"><ele></ele><time>2024-6-16T14:12:26Z</time></trkpt>
<trkpt lat="46.28561" lon="7.23197"><ele></ele><time>2024-6-16T14:12:29Z</time></trkpt>
<trkpt lat="46.28554" lon="7.2322"><ele></ele><time>2024-6-16T14:12:32Z</time></trkpt>
<trkpt lat="46.28541" lon="7.2323"><ele></ele><time>2024-6-16T14:12:35Z</time></trkpt>
<trkpt lat="46.28527" lon="7.23225"><ele></ele><time>2024-6-16T14:12:38Z</time></trkpt>
<trkpt lat="46.2852" lon="7.23219"><ele></ele><time>2024-6-16T14:12:41Z</time></trkpt>
<trkpt lat="46.28506" lon="7.23203"><ele></ele><time>2024-6-16T14:12:44Z</time></trkpt>
<trkpt lat="46.285" lon="7.23195"><ele></ele><time>2024-6-16T14:12:47Z</time></trkpt>
<trkpt lat="46.28493" lon="7.23185"><ele></ele><time>2024-6-16T14:12:50Z</time></trkpt>
<trkpt lat="46.28478" lon="7.23167"><ele></ele><time>2024-6-16T14:12:53Z</time></trkpt>
<trkpt lat="46.28462" lon="7.2315"><ele></ele><time>2024-6-16T14:12:56Z</time></trkpt>
<trkpt lat="46.28445" lon="7.23132"><ele></ele><time>2024-6-16T14:12:59Z</time></trkpt>
<trkpt lat="46.28437" lon="7.23123"><ele></ele><time>2024-6-16T14:13:2Z</time></trkpt>
<trkpt lat="46.28411" lon="7.23097"><ele></ele><time>2024-6-16T14:13:5Z</time></trkpt>
<trkpt lat="46.28404" lon="7.23089"><ele></ele><time>2024-6-16T14:13:8Z</time></trkpt>
<trkpt lat="46.28398" lon="7.23082"><ele></ele><time>2024-6-16T14:13:11Z</time></trkpt>
<trkpt lat="46.28384" lon="7.23069"><ele></ele><time>2024-6-16T14:13:14Z</time></trkpt>
<trkpt lat="46.2837" lon="7.23056"><ele></ele><time>2024-6-16T14:13:17Z</time></trkpt>
<trkpt lat="46.28361" lon="7.23055"><ele></ele><time>2024-6-16T14:13:20Z</time></trkpt>
<trkpt lat="46.28353" lon="7.23057"><ele></ele><time>2024-6-16T14:13:23Z</time></trkpt>
<trkpt lat="46.28344" lon="7.23061"><ele></ele><time>2024-6-16T14:13:26Z</time></trkpt>
<trkpt lat="46.28334" lon="7.23066"><ele></ele><time>2024-6-16T14:13:29Z</time></trkpt>
<trkpt lat="46.28324" lon="7.23071"><ele></ele><time>2024-6-16T14:13:32Z</time></trkpt>
<trkpt lat="46.28302" lon="7.2308"><ele></ele><time>2024-6-16T14:13:35Z</time></trkpt>
<trkpt lat="46.2827" lon="7.23094"><ele></ele><time>2024-6-16T14:13:38Z</time></trkpt>
<trkpt lat="46.2826" lon="7.231"><ele></ele><time>2024-6-16T14:13:41Z</time></trkpt>
<trkpt lat="46.2825" lon="7.23108"><ele></ele><time>2024-6-16T14:13:44Z</time></trkpt>
<trkpt lat="46.28219" lon="7.23125"><ele></ele><time>2024-6-16T14:13:47Z</time></trkpt>
<trkpt lat="46.28208" lon="7.23126"><ele></ele><time>2024-6-16T14:13:50Z</time></trkpt>
<trkpt lat="46.28187" lon="7.23132"><ele></ele><time>2024-6-16T14:13:53Z</time></trkpt>
<trkpt lat="46.28168" lon="7.23142"><ele></ele><time>2024-6-16T14:13:56Z</time></trkpt>
<trkpt lat="46.28153" lon="7.2316"><ele></ele><time>2024-6-16T14:13:59Z</time></trkpt>
<trkpt lat="46.28116" lon="7.2321"><ele></ele><time>2024-6-16T14:14:2Z</time></trkpt>
<trkpt lat="46.28102" lon="7.23227"><ele></ele><time>2024-6-16T14:14:5Z</time></trkpt>
<trkpt lat="46.28078" lon="7.23246"><ele></ele><time>2024-6-16T14:14:8Z</time></trkpt>
<trkpt lat="46.28069" lon="7.2325"><ele></ele><time>2024-6-16T14:14:11Z</time></trkpt>
<trkpt lat="46.2805" lon="7.23256"><ele></ele><time>2024-6-16T14:14:14Z</time></trkpt>
<trkpt lat="46.28033" lon="7.23265"><ele></ele><time>2024-6-16T14:14:17Z</time></trkpt>
<trkpt lat="46.28025" lon="7.23272"><ele></ele><time>2024-6-16T14:14:20Z</time></trkpt>
<trkpt lat="46.28018" lon="7.23281"><ele></ele><time>2024-6-16T14:14:23Z</time></trkpt>
<trkpt lat="46.28012" lon="7.23292"><ele></ele><time>2024-6-16T14:14:26Z</time></trkpt>
<trkpt lat="46.28004" lon="7.23303"><ele></ele><time>2024-6-16T14:14:29Z</time></trkpt>
<trkpt lat="46.27991" lon="7.23325"><ele></ele><time>2024-6-16T14:14:32Z</time></trkpt>
<trkpt lat="46.27984" lon="7.23336"><ele></ele><time>2024-6-16T14:14:35Z</time></trkpt>
<trkpt lat="46.27979" lon="7.23349"><ele></ele><time>2024-6-16T14:14:38Z</time></trkpt>
<trkpt lat="46.27976" lon="7.23363"><ele></ele><time>2024-6-16T14:14:41Z</time></trkpt>
<trkpt lat="46.27973" lon="7.23378"><ele></ele><time>2024-6-16T14:14:44Z</time></trkpt>
<trkpt lat="46.27971" lon="7.23393"><ele></ele><time>2024-6-16T14:14:47Z</time></trkpt>
<trkpt lat="46.27968" lon="7.23406"><ele></ele><time>2024-6-16T14:14:50Z</time></trkpt>
<trkpt lat="46.27963" lon="7.23417"><ele></ele><time>2024-6-16T14:14:53Z</time></trkpt>
<trkpt lat="46.27956" lon="7.23426"><ele></ele><time>2024-6-16T14:14:56Z</time></trkpt>
<trkpt lat="46.27946" lon="7.23431"><ele></ele><time>2024-6-16T14:14:59Z</time></trkpt>
<trkpt lat="46.27936" lon="7.23436"><ele></ele><time>2024-6-16T14:15:2Z</time></trkpt>
<trkpt lat="46.27925" lon="7.2344"><ele></ele><time>2024-6-16T14:15:5Z</time></trkpt>
<trkpt lat="46.27915" lon="7.23444"><ele></ele><time>2024-6-16T14:15:8Z</time></trkpt>
<trkpt lat="46.27905" lon="7.23442"><ele></ele><time>2024-6-16T14:15:11Z</time></trkpt>
<trkpt lat="46.27897" lon="7.23437"><ele></ele><time>2024-6-16T14:15:14Z</time></trkpt>
<trkpt lat="46.27891" lon="7.23414"><ele></ele><time>2024-6-16T14:15:17Z</time></trkpt>
<trkpt lat="46.27897" lon="7.2339"><ele></ele><time>2024-6-16T14:15:20Z</time></trkpt>
<trkpt lat="46.27898" lon="7.23378"><ele></ele><time>2024-6-16T14:15:23Z</time></trkpt>
<trkpt lat="46.27895" lon="7.23367"><ele></ele><time>2024-6-16T14:15:26Z</time></trkpt>
<trkpt lat="46.27887" lon="7.2336"><ele></ele><time>2024-6-16T14:15:29Z</time></trkpt>
<trkpt lat="46.27878" lon="7.23357"><ele></ele><time>2024-6-16T14:15:32Z</time></trkpt>
<trkpt lat="46.27869" lon="7.23355"><ele></ele><time>2024-6-16T14:15:35Z</time></trkpt>
<trkpt lat="46.27859" lon="7.23353"><ele></ele><time>2024-6-16T14:15:38Z</time></trkpt>
<trkpt lat="46.27849" lon="7.2335"><ele></ele><time>2024-6-16T14:15:41Z</time></trkpt>
<trkpt lat="46.2784" lon="7.23348"><ele></ele><time>2024-6-16T14:15:44Z</time></trkpt>
<trkpt lat="46.27826" lon="7.23349"><ele></ele><time>2024-6-16T14:15:47Z</time></trkpt>
<trkpt lat="46.27815" lon="7.23357"><ele></ele><time>2024-6-16T14:15:50Z</time></trkpt>
<trkpt lat="46.2781" lon="7.23363"><ele></ele><time>2024-6-16T14:15:53Z</time></trkpt>
<trkpt lat="46.27791" lon="7.2338"><ele></ele><time>2024-6-16T14:15:56Z</time></trkpt>
<trkpt lat="46.27784" lon="7.23388"><ele></ele><time>2024-6-16T14:15:59Z</time></trkpt>
<trkpt lat="46.27768" lon="7.23402"><ele></ele><time>2024-6-16T14:16:2Z</time></trkpt>
<trkpt lat="46.27759" lon="7.23407"><ele></ele><time>2024-6-16T14:16:5Z</time></trkpt>
<trkpt lat="46.27749" lon="7.2341"><ele></ele><time>2024-6-16T14:16:8Z</time></trkpt>
<trkpt lat="46.27739" lon="7.23411"><ele></ele><time>2024-6-16T14:16:11Z</time></trkpt>
<trkpt lat="46.27717" lon="7.23408"><ele></ele><time>2024-6-16T14:16:14Z</time></trkpt>
<trkpt lat="46.27707" lon="7.23407"><ele></ele><time>2024-6-16T14:16:17Z</time></trkpt>
<trkpt lat="46.27697" lon="7.23408"><ele></ele><time>2024-6-16T14:16:20Z</time></trkpt>
<trkpt lat="46.27678" lon="7.2342"><ele></ele><time>2024-6-16T14:16:23Z</time></trkpt>
<trkpt lat="46.27662" lon="7.23442"><ele></ele><time>2024-6-16T14:16:26Z</time></trkpt>
<trkpt lat="46.27653" lon="7.23454"><ele></ele><time>2024-6-16T14:16:29Z</time></trkpt>
<trkpt lat="46.27644" lon="7.23465"><ele></ele><time>2024-6-16T14:16:32Z</time></trkpt>
<trkpt lat="46.27634" lon="7.23476"><ele></ele><time>2024-6-16T14:16:35Z</time></trkpt>
<trkpt lat="46.27625" lon="7.23487"><ele></ele><time>2024-6-16T14:16:38Z</time></trkpt>
<trkpt lat="46.27605" lon="7.2351"><ele></ele><time>2024-6-16T14:16:41Z</time></trkpt>
<trkpt lat="46.27589" lon="7.23531"><ele></ele><time>2024-6-16T14:16:44Z</time></trkpt>
<trkpt lat="46.27582" lon="7.23539"><ele></ele><time>2024-6-16T14:16:47Z</time></trkpt>
<trkpt lat="46.27574" lon="7.23543"><ele></ele><time>2024-6-16T14:16:50Z</time></trkpt>
<trkpt lat="46.27567" lon="7.23545"><ele></ele><time>2024-6-16T14:16:53Z</time></trkpt>
<trkpt lat="46.2756" lon="7.23543"><ele></ele><time>2024-6-16T14:16:56Z</time></trkpt>
<trkpt lat="46.27554" lon="7.23538"><ele></ele><time>2024-6-16T14:16:59Z</time></trkpt>
<trkpt lat="46.2755" lon="7.23529"><ele></ele><time>2024-6-16T14:17:2Z</time></trkpt>
<trkpt lat="46.27547" lon="7.23518"><ele></ele><time>2024-6-16T14:17:5Z</time></trkpt>
<trkpt lat="46.27544" lon="7.23507"><ele></ele><time>2024-6-16T14:17:8Z</time></trkpt>
<trkpt lat="46.27539" lon="7.23498"><ele></ele><time>2024-6-16T14:17:11Z</time></trkpt>
<trkpt lat="46.27531" lon="7.23494"><ele></ele><time>2024-6-16T14:17:14Z</time></trkpt>
<trkpt lat="46.27523" lon="7.23493"><ele></ele><time>2024-6-16T14:17:17Z</time></trkpt>
<trkpt lat="46.27514" lon="7.23493"><ele></ele><time>2024-6-16T14:17:20Z</time></trkpt>
<trkpt lat="46.27505" lon="7.23492"><ele></ele><time>2024-6-16T14:17:23Z</time></trkpt>
<trkpt lat="46.27486" lon="7.23495"><ele></ele><time>2024-6-16T14:17:26Z</time></trkpt>
<trkpt lat="46.27477" lon="7.23499"><ele></ele><time>2024-6-16T14:17:29Z</time></trkpt>
<trkpt lat="46.27467" lon="7.23505"><ele></ele><time>2024-6-16T14:17:32Z</time></trkpt>
<trkpt lat="46.27447" lon="7.23514"><ele></ele><time>2024-6-16T14:17:35Z</time></trkpt>
<trkpt lat="46.27437" lon="7.23521"><ele></ele><time>2024-6-16T14:17:38Z</time></trkpt>
<trkpt lat="46.27427" lon="7.23531"><ele></ele><time>2024-6-16T14:17:41Z</time></trkpt>
<trkpt lat="46.27421" lon="7.23543"><ele></ele><time>2024-6-16T14:17:44Z</time></trkpt>
<trkpt lat="46.27416" lon="7.23557"><ele></ele><time>2024-6-16T14:17:47Z</time></trkpt>
<trkpt lat="46.27416" lon="7.23573"><ele></ele><time>2024-6-16T14:17:50Z</time></trkpt>
<trkpt lat="46.27418" lon="7.23588"><ele></ele><time>2024-6-16T14:17:53Z</time></trkpt>
<trkpt lat="46.27421" lon="7.23603"><ele></ele><time>2024-6-16T14:17:56Z</time></trkpt>
<trkpt lat="46.27423" lon="7.23618"><ele></ele><time>2024-6-16T14:17:59Z</time></trkpt>
<trkpt lat="46.27427" lon="7.23647"><ele></ele><time>2024-6-16T14:18:2Z</time></trkpt>
<trkpt lat="46.27433" lon="7.23676"><ele></ele><time>2024-6-16T14:18:5Z</time></trkpt>
<trkpt lat="46.27439" lon="7.237"><ele></ele><time>2024-6-16T14:18:8Z</time></trkpt>
<trkpt lat="46.2744" lon="7.23711"><ele></ele><time>2024-6-16T14:18:11Z</time></trkpt>
<trkpt lat="46.27434" lon="7.23731"><ele></ele><time>2024-6-16T14:18:14Z</time></trkpt>
<trkpt lat="46.27424" lon="7.23746"><ele></ele><time>2024-6-16T14:18:17Z</time></trkpt>
<trkpt lat="46.27418" lon="7.23754"><ele></ele><time>2024-6-16T14:18:20Z</time></trkpt>
<trkpt lat="46.27404" lon="7.23771"><ele></ele><time>2024-6-16T14:18:23Z</time></trkpt>
<trkpt lat="46.2739" lon="7.23788"><ele></ele><time>2024-6-16T14:18:26Z</time></trkpt>
<trkpt lat="46.27383" lon="7.23798"><ele></ele><time>2024-6-16T14:18:29Z</time></trkpt>
<trkpt lat="46.27369" lon="7.2382"><ele></ele><time>2024-6-16T14:18:32Z</time></trkpt>
<trkpt lat="46.27362" lon="7.23831"><ele></ele><time>2024-6-16T14:18:35Z</time></trkpt>
<trkpt lat="46.27349" lon="7.23851"><ele></ele><time>2024-6-16T14:18:38Z</time></trkpt>
<trkpt lat="46.27342" lon="7.23857"><ele></ele><time>2024-6-16T14:18:41Z</time></trkpt>
<trkpt lat="46.27334" lon="7.23861"><ele></ele><time>2024-6-16T14:18:44Z</time></trkpt>
<trkpt lat="46.27325" lon="7.23861"><ele></ele><time>2024-6-16T14:18:47Z</time></trkpt>
<trkpt lat="46.27315" lon="7.23859"><ele></ele><time>2024-6-16T14:18:50Z</time></trkpt>
<trkpt lat="46.27305" lon="7.23856"><ele></ele><time>2024-6-16T14:18:53Z</time></trkpt>
<trkpt lat="46.27295" lon="7.23852"><ele></ele><time>2024-6-16T14:18:56Z</time></trkpt>
<trkpt lat="46.27286" lon="7.2385"><ele></ele><time>2024-6-16T14:18:59Z</time></trkpt>
<trkpt lat="46.27276" lon="7.23852"><ele></ele><time>2024-6-16T14:19:2Z</time></trkpt>
<trkpt lat="46.27266" lon="7.23858"><ele></ele><time>2024-6-16T14:19:5Z</time></trkpt>
<trkpt lat="46.27258" lon="7.23867"><ele></ele><time>2024-6-16T14:19:8Z</time></trkpt>
<trkpt lat="46.2725" lon="7.23878"><ele></ele><time>2024-6-16T14:19:11Z</time></trkpt>
<trkpt lat="46.27234" lon="7.23899"><ele></ele><time>2024-6-16T14:19:14Z</time></trkpt>
<trkpt lat="46.27216" lon="7.23913"><ele></ele><time>2024-6-16T14:19:17Z</time></trkpt>
<trkpt lat="46.27195" lon="7.23917"><ele></ele><time>2024-6-16T14:19:20Z</time></trkpt>
<trkpt lat="46.27184" lon="7.23915"><ele></ele><time>2024-6-16T14:19:23Z</time></trkpt>
<trkpt lat="46.27173" lon="7.2391"><ele></ele><time>2024-6-16T14:19:26Z</time></trkpt>
<trkpt lat="46.27162" lon="7.23904"><ele></ele><time>2024-6-16T14:19:29Z</time></trkpt>
<trkpt lat="46.27152" lon="7.23897"><ele></ele><time>2024-6-16T14:19:32Z</time></trkpt>
<trkpt lat="46.27143" lon="7.2389"><ele></ele><time>2024-6-16T14:19:35Z</time></trkpt>
<trkpt lat="46.27135" lon="7.23885"><ele></ele><time>2024-6-16T14:19:38Z</time></trkpt>
<trkpt lat="46.27127" lon="7.23885"><ele></ele><time>2024-6-16T14:19:41Z</time></trkpt>
<trkpt lat="46.27119" lon="7.23888"><ele></ele><time>2024-6-16T14:19:44Z</time></trkpt>
<trkpt lat="46.27111" lon="7.23894"><ele></ele><time>2024-6-16T14:19:47Z</time></trkpt>
<trkpt lat="46.27106" lon="7.23903"><ele></ele><time>2024-6-16T14:19:50Z</time></trkpt>
<trkpt lat="46.27101" lon="7.23913"><ele></ele><time>2024-6-16T14:19:53Z</time></trkpt>
<trkpt lat="46.27098" lon="7.23926"><ele></ele><time>2024-6-16T14:19:56Z</time></trkpt>
<trkpt lat="46.271" lon="7.23953"><ele></ele><time>2024-6-16T14:19:59Z</time></trkpt>
<trkpt lat="46.27103" lon="7.23968"><ele></ele><time>2024-6-16T14:20:2Z</time></trkpt>
<trkpt lat="46.27106" lon="7.23983"><ele></ele><time>2024-6-16T14:20:5Z</time></trkpt>
<trkpt lat="46.27113" lon="7.24031"><ele></ele><time>2024-6-16T14:20:8Z</time></trkpt>
<trkpt lat="46.27111" lon="7.24045"><ele></ele><time>2024-6-16T14:20:11Z</time></trkpt>
<trkpt lat="46.27106" lon="7.24058"><ele></ele><time>2024-6-16T14:20:14Z</time></trkpt>
<trkpt lat="46.27099" lon="7.24068"><ele></ele><time>2024-6-16T14:20:17Z</time></trkpt>
<trkpt lat="46.2709" lon="7.24074"><ele></ele><time>2024-6-16T14:20:20Z</time></trkpt>
<trkpt lat="46.27073" lon="7.24083"><ele></ele><time>2024-6-16T14:20:23Z</time></trkpt>
<trkpt lat="46.27065" lon="7.24089"><ele></ele><time>2024-6-16T14:20:26Z</time></trkpt>
<trkpt lat="46.27058" lon="7.24097"><ele></ele><time>2024-6-16T14:20:29Z</time></trkpt>
<trkpt lat="46.27044" lon="7.24114"><ele></ele><time>2024-6-16T14:20:32Z</time></trkpt>
<trkpt lat="46.27003" lon="7.24171"><ele></ele><time>2024-6-16T14:20:35Z</time></trkpt>
<trkpt lat="46.26998" lon="7.24182"><ele></ele><time>2024-6-16T14:20:38Z</time></trkpt>
<trkpt lat="46.26995" lon="7.24207"><ele></ele><time>2024-6-16T14:20:41Z</time></trkpt>
<trkpt lat="46.26992" lon="7.24219"><ele></ele><time>2024-6-16T14:20:44Z</time></trkpt>
<trkpt lat="46.2698" lon="7.24236"><ele></ele><time>2024-6-16T14:20:47Z</time></trkpt>
<trkpt lat="46.26956" lon="7.24251"><ele></ele><time>2024-6-16T14:20:50Z</time></trkpt>
<trkpt lat="46.26941" lon="7.24259"><ele></ele><time>2024-6-16T14:20:53Z</time></trkpt>
<trkpt lat="46.26934" lon="7.24266"><ele></ele><time>2024-6-16T14:20:56Z</time></trkpt>
<trkpt lat="46.26921" lon="7.24285"><ele></ele><time>2024-6-16T14:20:59Z</time></trkpt>
<trkpt lat="46.26893" lon="7.24339"><ele></ele><time>2024-6-16T14:21:2Z</time></trkpt>
<trkpt lat="46.2688" lon="7.24358"><ele></ele><time>2024-6-16T14:21:5Z</time></trkpt>
<trkpt lat="46.26857" lon="7.24391"><ele></ele><time>2024-6-16T14:21:8Z</time></trkpt>
<trkpt lat="46.2684" lon="7.24419"><ele></ele><time>2024-6-16T14:21:11Z</time></trkpt>
<trkpt lat="46.26835" lon="7.24423"><ele></ele><time>2024-6-16T14:21:14Z</time></trkpt>
<trkpt lat="46.26824" lon="7.24425"><ele></ele><time>2024-6-16T14:21:17Z</time></trkpt>
<trkpt lat="46.26811" lon="7.24419"><ele></ele><time>2024-6-16T14:21:20Z</time></trkpt>
<trkpt lat="46.26804" lon="7.24415"><ele></ele><time>2024-6-16T14:21:23Z</time></trkpt>
<trkpt lat="46.26781" lon="7.244"><ele></ele><time>2024-6-16T14:21:26Z</time></trkpt>
<trkpt lat="46.26772" lon="7.24398"><ele></ele><time>2024-6-16T14:21:29Z</time></trkpt>
<trkpt lat="46.26764" lon="7.24399"><ele></ele><time>2024-6-16T14:21:32Z</time></trkpt>
<trkpt lat="46.26757" lon="7.24405"><ele></ele><time>2024-6-16T14:21:35Z</time></trkpt>
<trkpt lat="46.26752" lon="7.24424"><ele></ele><time>2024-6-16T14:21:38Z</time></trkpt>
<trkpt lat="46.26744" lon="7.24452"><ele></ele><time>2024-6-16T14:21:41Z</time></trkpt>
<trkpt lat="46.2674" lon="7.2446"><ele></ele><time>2024-6-16T14:21:44Z</time></trkpt>
<trkpt lat="46.2672" lon="7.2449"><ele></ele><time>2024-6-16T14:21:47Z</time></trkpt>
<trkpt lat="46.26714" lon="7.24495"><ele></ele><time>2024-6-16T14:21:50Z</time></trkpt>
<trkpt lat="46.26707" lon="7.24497"><ele></ele><time>2024-6-16T14:21:53Z</time></trkpt>
<trkpt lat="46.26688" lon="7.24503"><ele></ele><time>2024-6-16T14:21:56Z</time></trkpt>
<trkpt lat="46.26682" lon="7.24505"><ele></ele><time>2024-6-16T14:21:59Z</time></trkpt>
<trkpt lat="46.2665" lon="7.24518"><ele></ele><time>2024-6-16T14:22:2Z</time></trkpt>
<trkpt lat="46.26626" lon="7.24525"><ele></ele><time>2024-6-16T14:22:5Z</time></trkpt>
<trkpt lat="46.26616" lon="7.24528"><ele></ele><time>2024-6-16T14:22:8Z</time></trkpt>
<trkpt lat="46.26606" lon="7.24533"><ele></ele><time>2024-6-16T14:22:11Z</time></trkpt>
<trkpt lat="46.26598" lon="7.24541"><ele></ele><time>2024-6-16T14:22:14Z</time></trkpt>
<trkpt lat="46.26595" lon="7.24546"><ele></ele><time>2024-6-16T14:22:17Z</time></trkpt>
<trkpt lat="46.26592" lon="7.24552"><ele></ele><time>2024-6-16T14:22:20Z</time></trkpt>
<trkpt lat="46.26579" lon="7.2457"><ele></ele><time>2024-6-16T14:22:23Z</time></trkpt>
<trkpt lat="46.26571" lon="7.24577"><ele></ele><time>2024-6-16T14:22:26Z</time></trkpt>
<trkpt lat="46.2656" lon="7.24582"><ele></ele><time>2024-6-16T14:22:29Z</time></trkpt>
<trkpt lat="46.26551" lon="7.24582"><ele></ele><time>2024-6-16T14:22:32Z</time></trkpt>
<trkpt lat="46.26543" lon="7.24577"><ele></ele><time>2024-6-16T14:22:35Z</time></trkpt>
<trkpt lat="46.26536" lon="7.2457"><ele></ele><time>2024-6-16T14:22:38Z</time></trkpt>
<trkpt lat="46.26525" lon="7.24555"><ele></ele><time>2024-6-16T14:22:41Z</time></trkpt>
<trkpt lat="46.26513" lon="7.24539"><ele></ele><time>2024-6-16T14:22:44Z</time></trkpt>
<trkpt lat="46.26504" lon="7.24532"><ele></ele><time>2024-6-16T14:22:47Z</time></trkpt>
<trkpt lat="46.26492" lon="7.24531"><ele></ele><time>2024-6-16T14:22:50Z</time></trkpt>
<trkpt lat="46.26481" lon="7.24532"><ele></ele><time>2024-6-16T14:22:53Z</time></trkpt>
<trkpt lat="46.26438" lon="7.24528"><ele></ele><time>2024-6-16T14:22:56Z</time></trkpt>
<trkpt lat="46.26427" lon="7.24526"><ele></ele><time>2024-6-16T14:22:59Z</time></trkpt>
<trkpt lat="46.2641" lon="7.2453"><ele></ele><time>2024-6-16T14:23:2Z</time></trkpt>
<trkpt lat="46.26373" lon="7.24546"><ele></ele><time>2024-6-16T14:23:5Z</time></trkpt>
<trkpt lat="46.26353" lon="7.24552"><ele></ele><time>2024-6-16T14:23:8Z</time></trkpt>
<trkpt lat="46.26348" lon="7.24552"><ele></ele><time>2024-6-16T14:23:11Z</time></trkpt>
<trkpt lat="46.26343" lon="7.24552"><ele></ele><time>2024-6-16T14:23:14Z</time></trkpt>
<trkpt lat="46.26313" lon="7.24544"><ele></ele><time>2024-6-16T14:23:17Z</time></trkpt>
<trkpt lat="46.26308" lon="7.24542"><ele></ele><time>2024-6-16T14:23:20Z</time></trkpt>
<trkpt lat="46.26276" lon="7.24535"><ele></ele><time>2024-6-16T14:23:23Z</time></trkpt>
<trkpt lat="46.26265" lon="7.24535"><ele></ele><time>2024-6-16T14:23:26Z</time></trkpt>
<trkpt lat="46.2623" lon="7.24532"><ele></ele><time>2024-6-16T14:23:29Z</time></trkpt>
<trkpt lat="46.26225" lon="7.2453"><ele></ele><time>2024-6-16T14:23:32Z</time></trkpt>
<trkpt lat="46.26211" lon="7.24524"><ele></ele><time>2024-6-16T14:23:35Z</time></trkpt>
<trkpt lat="46.26207" lon="7.24521"><ele></ele><time>2024-6-16T14:23:38Z</time></trkpt>
<trkpt lat="46.26177" lon="7.24508"><ele></ele><time>2024-6-16T14:23:41Z</time></trkpt>
<trkpt lat="46.26158" lon="7.24498"><ele></ele><time>2024-6-16T14:23:44Z</time></trkpt>
<trkpt lat="46.26154" lon="7.24496"><ele></ele><time>2024-6-16T14:23:47Z</time></trkpt>
<trkpt lat="46.26147" lon="7.24488"><ele></ele><time>2024-6-16T14:23:50Z</time></trkpt>
<trkpt lat="46.2614" lon="7.24474"><ele></ele><time>2024-6-16T14:23:53Z</time></trkpt>
<trkpt lat="46.26135" lon="7.24456"><ele></ele><time>2024-6-16T14:23:56Z</time></trkpt>
<trkpt lat="46.2613" lon="7.24443"><ele></ele><time>2024-6-16T14:23:59Z</time></trkpt>
<trkpt lat="46.26122" lon="7.24433"><ele></ele><time>2024-6-16T14:24:2Z</time></trkpt>
<trkpt lat="46.26107" lon="7.24421"><ele></ele><time>2024-6-16T14:24:5Z</time></trkpt>
<trkpt lat="46.26102" lon="7.24419"><ele></ele><time>2024-6-16T14:24:8Z</time></trkpt>
<trkpt lat="46.26085" lon="7.24417"><ele></ele><time>2024-6-16T14:24:11Z</time></trkpt>
<trkpt lat="46.26063" lon="7.24425"><ele></ele><time>2024-6-16T14:24:14Z</time></trkpt>
<trkpt lat="46.26058" lon="7.24429"><ele></ele><time>2024-6-16T14:24:17Z</time></trkpt>
<trkpt lat="46.26035" lon="7.24442"><ele></ele><time>2024-6-16T14:24:20Z</time></trkpt>
<trkpt lat="46.26029" lon="7.24444"><ele></ele><time>2024-6-16T14:24:23Z</time></trkpt>
<trkpt lat="46.26017" lon="7.24442"><ele></ele><time>2024-6-16T14:24:26Z</time></trkpt>
<trkpt lat="46.26013" lon="7.24437"><ele></ele><time>2024-6-16T14:24:29Z</time></trkpt>
<trkpt lat="46.26008" lon="7.24432"><ele></ele><time>2024-6-16T14:24:32Z</time></trkpt>
<trkpt lat="46.25998" lon="7.24419"><ele></ele><time>2024-6-16T14:24:35Z</time></trkpt>
<trkpt lat="46.25995" lon="7.24415"><ele></ele><time>2024-6-16T14:24:38Z</time></trkpt>
<trkpt lat="46.25991" lon="7.24412"><ele></ele><time>2024-6-16T14:24:41Z</time></trkpt>
<trkpt lat="46.25983" lon="7.24408"><ele></ele><time>2024-6-16T14:24:44Z</time></trkpt>
<trkpt lat="46.25978" lon="7.24409"><ele></ele><time>2024-6-16T14:24:47Z</time></trkpt>
<trkpt lat="46.25964" lon="7.24413"><ele></ele><time>2024-6-16T14:24:50Z</time></trkpt>
<trkpt lat="46.25956" lon="7.24421"><ele></ele><time>2024-6-16T14:24:53Z</time></trkpt>
<trkpt lat="46.25871" lon="7.24444"><ele></ele><time>2024-6-16T14:24:56Z</time></trkpt>
<trkpt lat="46.25842" lon="7.24467"><ele></ele><time>2024-6-16T14:24:59Z</time></trkpt>
<trkpt lat="46.25837" lon="7.24473"><ele></ele><time>2024-6-16T14:25:2Z</time></trkpt>
<trkpt lat="46.25831" lon="7.24485"><ele></ele><time>2024-6-16T14:25:5Z</time></trkpt>
<trkpt lat="46.25828" lon="7.24502"><ele></ele><time>2024-6-16T14:25:8Z</time></trkpt>
<trkpt lat="46.25831" lon="7.24501"><ele></ele><time>2024-6-16T14:25:11Z</time></trkpt>
<trkpt lat="46.25831" lon="7.24525"><ele></ele><time>2024-6-16T14:25:14Z</time></trkpt>
<trkpt lat="46.25833" lon="7.24532"><ele></ele><time>2024-6-16T14:25:17Z</time></trkpt>
<trkpt lat="46.25837" lon="7.24545"><ele></ele><time>2024-6-16T14:25:20Z</time></trkpt>
<trkpt lat="46.2584" lon="7.24558"><ele></ele><time>2024-6-16T14:25:23Z</time></trkpt>
<trkpt lat="46.2584" lon="7.24565"><ele></ele><time>2024-6-16T14:25:26Z</time></trkpt>
<trkpt lat="46.25839" lon="7.24572"><ele></ele><time>2024-6-16T14:25:29Z</time></trkpt>
<trkpt lat="46.25834" lon="7.24587"><ele></ele><time>2024-6-16T14:25:32Z</time></trkpt>
<trkpt lat="46.2582" lon="7.24608"><ele></ele><time>2024-6-16T14:25:35Z</time></trkpt>
<trkpt lat="46.25816" lon="7.24611"><ele></ele><time>2024-6-16T14:25:38Z</time></trkpt>
<trkpt lat="46.25807" lon="7.24616"><ele></ele><time>2024-6-16T14:25:41Z</time></trkpt>
<trkpt lat="46.25797" lon="7.24617"><ele></ele><time>2024-6-16T14:25:44Z</time></trkpt>
<trkpt lat="46.25793" lon="7.24619"><ele></ele><time>2024-6-16T14:25:47Z</time></trkpt>
<trkpt lat="46.25785" lon="7.24626"><ele></ele><time>2024-6-16T14:25:50Z</time></trkpt>
<trkpt lat="46.25781" lon="7.2463"><ele></ele><time>2024-6-16T14:25:53Z</time></trkpt>
<trkpt lat="46.25753" lon="7.24667"><ele></ele><time>2024-6-16T14:25:56Z</time></trkpt>
<trkpt lat="46.25742" lon="7.2468"><ele></ele><time>2024-6-16T14:25:59Z</time></trkpt>
<trkpt lat="46.25729" lon="7.24691"><ele></ele><time>2024-6-16T14:26:2Z</time></trkpt>
<trkpt lat="46.25725" lon="7.24694"><ele></ele><time>2024-6-16T14:26:5Z</time></trkpt>
<trkpt lat="46.25716" lon="7.247"><ele></ele><time>2024-6-16T14:26:8Z</time></trkpt>
<trkpt lat="46.25708" lon="7.24702"><ele></ele><time>2024-6-16T14:26:11Z</time></trkpt>
<trkpt lat="46.25704" lon="7.24701"><ele></ele><time>2024-6-16T14:26:14Z</time></trkpt>
<trkpt lat="46.25692" lon="7.24697"><ele></ele><time>2024-6-16T14:26:17Z</time></trkpt>
<trkpt lat="46.25677" lon="7.24691"><ele></ele><time>2024-6-16T14:26:20Z</time></trkpt>
<trkpt lat="46.25673" lon="7.24688"><ele></ele><time>2024-6-16T14:26:23Z</time></trkpt>
<trkpt lat="46.25665" lon="7.24685"><ele></ele><time>2024-6-16T14:26:26Z</time></trkpt>
<trkpt lat="46.25656" lon="7.24689"><ele></ele><time>2024-6-16T14:26:29Z</time></trkpt>
<trkpt lat="46.25631" lon="7.24703"><ele></ele><time>2024-6-16T14:26:32Z</time></trkpt>
<trkpt lat="46.25627" lon="7.24705"><ele></ele><time>2024-6-16T14:26:35Z</time></trkpt>
<trkpt lat="46.2561" lon="7.24719"><ele></ele><time>2024-6-16T14:26:38Z</time></trkpt>
<trkpt lat="46.25596" lon="7.2472"><ele></ele><time>2024-6-16T14:26:41Z</time></trkpt>
<trkpt lat="46.25574" lon="7.2471"><ele></ele><time>2024-6-16T14:26:44Z</time></trkpt>
<trkpt lat="46.25565" lon="7.24712"><ele></ele><time>2024-6-16T14:26:47Z</time></trkpt>
<trkpt lat="46.25562" lon="7.24716"><ele></ele><time>2024-6-16T14:26:50Z</time></trkpt>
<trkpt lat="46.25558" lon="7.24721"><ele></ele><time>2024-6-16T14:26:53Z</time></trkpt>
<trkpt lat="46.25543" lon="7.24741"><ele></ele><time>2024-6-16T14:26:56Z</time></trkpt>
<trkpt lat="46.25516" lon="7.24764"><ele></ele><time>2024-6-16T14:26:59Z</time></trkpt>
<trkpt lat="46.25505" lon="7.24765"><ele></ele><time>2024-6-16T14:27:2Z</time></trkpt>
<trkpt lat="46.25501" lon="7.24761"><ele></ele><time>2024-6-16T14:27:5Z</time></trkpt>
<trkpt lat="46.25497" lon="7.24758"><ele></ele><time>2024-6-16T14:27:8Z</time></trkpt>
<trkpt lat="46.25489" lon="7.24751"><ele></ele><time>2024-6-16T14:27:11Z</time></trkpt>
<trkpt lat="46.25479" lon="7.24749"><ele></ele><time>2024-6-16T14:27:14Z</time></trkpt>
<trkpt lat="46.2547" lon="7.24752"><ele></ele><time>2024-6-16T14:27:17Z</time></trkpt>
<trkpt lat="46.2546" lon="7.24758"><ele></ele><time>2024-6-16T14:27:20Z</time></trkpt>
<trkpt lat="46.25455" lon="7.2476"><ele></ele><time>2024-6-16T14:27:23Z</time></trkpt>
<trkpt lat="46.25433" lon="7.24764"><ele></ele><time>2024-6-16T14:27:26Z</time></trkpt>
<trkpt lat="46.25412" lon="7.24774"><ele></ele><time>2024-6-16T14:27:29Z</time></trkpt>
<trkpt lat="46.25407" lon="7.24778"><ele></ele><time>2024-6-16T14:27:32Z</time></trkpt>
<trkpt lat="46.25402" lon="7.24781"><ele></ele><time>2024-6-16T14:27:35Z</time></trkpt>
<trkpt lat="46.25378" lon="7.24795"><ele></ele><time>2024-6-16T14:27:38Z</time></trkpt>
<trkpt lat="46.25378" lon="7.24795"><ele></ele><time>2024-6-16T14:27:41Z</time></trkpt>
<trkpt lat="46.25378" lon="7.24795"><ele></ele><time>2024-6-16T14:27:44Z</time></trkpt>
<trkpt lat="46.25279" lon="7.24909"><ele></ele><time>2024-6-16T14:27:47Z</time></trkpt>
<trkpt lat="46.25277" lon="7.24908"><ele></ele><time>2024-6-16T14:27:50Z</time></trkpt>
<trkpt lat="46.25277" lon="7.24908"><ele></ele><time>2024-6-16T14:27:53Z</time></trkpt>
<trkpt lat="46.25277" lon="7.24908"><ele></ele><time>2024-6-16T14:27:56Z</time></trkpt>
<trkpt lat="46.25277" lon="7.24908"><ele></ele><time>2024-6-16T14:27:59Z</time></trkpt>
<trkpt lat="46.25277" lon="7.24908"><ele></ele><time>2024-6-16T14:28:2Z</time></trkpt>
<trkpt lat="46.25277" lon="7.24908"><ele></ele><time>2024-6-16T14:28:5Z</time></trkpt>
<trkpt lat="46.24891" lon="7.25118"><ele></ele><time>2024-6-16T14:28:8Z</time></trkpt>
<trkpt lat="46.2489" lon="7.25131"><ele></ele><time>2024-6-16T14:28:11Z</time></trkpt>
<trkpt lat="46.2489" lon="7.25134"><ele></ele><time>2024-6-16T14:28:14Z</time></trkpt>
<trkpt lat="46.24893" lon="7.25142"><ele></ele><time>2024-6-16T14:28:17Z</time></trkpt>
<trkpt lat="46.24898" lon="7.25155"><ele></ele><time>2024-6-16T14:28:20Z</time></trkpt>
<trkpt lat="46.24902" lon="7.25161"><ele></ele><time>2024-6-16T14:28:23Z</time></trkpt>
<trkpt lat="46.24909" lon="7.25175"><ele></ele><time>2024-6-16T14:28:26Z</time></trkpt>
<trkpt lat="46.24915" lon="7.25199"><ele></ele><time>2024-6-16T14:28:29Z</time></trkpt>
<trkpt lat="46.24913" lon="7.25214"><ele></ele><time>2024-6-16T14:28:32Z</time></trkpt>
<trkpt lat="46.24911" lon="7.25229"><ele></ele><time>2024-6-16T14:28:35Z</time></trkpt>
<trkpt lat="46.24905" lon="7.2525"><ele></ele><time>2024-6-16T14:28:38Z</time></trkpt>
<trkpt lat="46.24897" lon="7.25267"><ele></ele><time>2024-6-16T14:28:41Z</time></trkpt>
<trkpt lat="46.24891" lon="7.2528"><ele></ele><time>2024-6-16T14:28:44Z</time></trkpt>
<trkpt lat="46.24883" lon="7.2529"><ele></ele><time>2024-6-16T14:28:47Z</time></trkpt>
<trkpt lat="46.24876" lon="7.25303"><ele></ele><time>2024-6-16T14:28:50Z</time></trkpt>
<trkpt lat="46.24864" lon="7.25321"><ele></ele><time>2024-6-16T14:28:53Z</time></trkpt>
<trkpt lat="46.24858" lon="7.25325"><ele></ele><time>2024-6-16T14:28:56Z</time></trkpt>
<trkpt lat="46.24848" lon="7.25335"><ele></ele><time>2024-6-16T14:28:59Z</time></trkpt>
<trkpt lat="46.24841" lon="7.25349"><ele></ele><time>2024-6-16T14:29:2Z</time></trkpt>
<trkpt lat="46.24839" lon="7.25357"><ele></ele><time>2024-6-16T14:29:5Z</time></trkpt>
<trkpt lat="46.24832" lon="7.25374"><ele></ele><time>2024-6-16T14:29:8Z</time></trkpt>
<trkpt lat="46.2482" lon="7.25382"><ele></ele><time>2024-6-16T14:29:11Z</time></trkpt>
<trkpt lat="46.24813" lon="7.25384"><ele></ele><time>2024-6-16T14:29:14Z</time></trkpt>
<trkpt lat="46.24807" lon="7.25385"><ele></ele><time>2024-6-16T14:29:17Z</time></trkpt>
<trkpt lat="46.24795" lon="7.25383"><ele></ele><time>2024-6-16T14:29:20Z</time></trkpt>
<trkpt lat="46.24778" lon="7.25378"><ele></ele><time>2024-6-16T14:29:23Z</time></trkpt>
<trkpt lat="46.24767" lon="7.25379"><ele></ele><time>2024-6-16T14:29:26Z</time></trkpt>
<trkpt lat="46.24756" lon="7.25383"><ele></ele><time>2024-6-16T14:29:29Z</time></trkpt>
<trkpt lat="46.24746" lon="7.25391"><ele></ele><time>2024-6-16T14:29:32Z</time></trkpt>
<trkpt lat="46.24742" lon="7.25396"><ele></ele><time>2024-6-16T14:29:35Z</time></trkpt>
<trkpt lat="46.2473" lon="7.25413"><ele></ele><time>2024-6-16T14:29:38Z</time></trkpt>
<trkpt lat="46.24727" lon="7.2542"><ele></ele><time>2024-6-16T14:29:41Z</time></trkpt>
<trkpt lat="46.24716" lon="7.25444"><ele></ele><time>2024-6-16T14:29:44Z</time></trkpt>
<trkpt lat="46.24712" lon="7.25449"><ele></ele><time>2024-6-16T14:29:47Z</time></trkpt>
<trkpt lat="46.24702" lon="7.25463"><ele></ele><time>2024-6-16T14:29:50Z</time></trkpt>
<trkpt lat="46.24699" lon="7.25469"><ele></ele><time>2024-6-16T14:29:53Z</time></trkpt>
<trkpt lat="46.24695" lon="7.25481"><ele></ele><time>2024-6-16T14:29:56Z</time></trkpt>
<trkpt lat="46.24689" lon="7.25519"><ele></ele><time>2024-6-16T14:29:59Z</time></trkpt>
<trkpt lat="46.24687" lon="7.25527"><ele></ele><time>2024-6-16T14:30:2Z</time></trkpt>
<trkpt lat="46.24683" lon="7.25543"><ele></ele><time>2024-6-16T14:30:5Z</time></trkpt>
<trkpt lat="46.24674" lon="7.2555"><ele></ele><time>2024-6-16T14:30:8Z</time></trkpt>
<trkpt lat="46.24665" lon="7.2555"><ele></ele><time>2024-6-16T14:30:11Z</time></trkpt>
<trkpt lat="46.2466" lon="7.25546"><ele></ele><time>2024-6-16T14:30:14Z</time></trkpt>
<trkpt lat="46.24656" lon="7.25542"><ele></ele><time>2024-6-16T14:30:17Z</time></trkpt>
<trkpt lat="46.24647" lon="7.25533"><ele></ele><time>2024-6-16T14:30:20Z</time></trkpt>
<trkpt lat="46.24642" lon="7.25522"><ele></ele><time>2024-6-16T14:30:23Z</time></trkpt>
<trkpt lat="46.24633" lon="7.25496"><ele></ele><time>2024-6-16T14:30:26Z</time></trkpt>
<trkpt lat="46.24629" lon="7.2549"><ele></ele><time>2024-6-16T14:30:29Z</time></trkpt>
<trkpt lat="46.24626" lon="7.25485"><ele></ele><time>2024-6-16T14:30:32Z</time></trkpt>
<trkpt lat="46.24613" lon="7.25473"><ele></ele><time>2024-6-16T14:30:35Z</time></trkpt>
<trkpt lat="46.24601" lon="7.25471"><ele></ele><time>2024-6-16T14:30:38Z</time></trkpt>
<trkpt lat="46.24589" lon="7.25468"><ele></ele><time>2024-6-16T14:30:41Z</time></trkpt>
<trkpt lat="46.24572" lon="7.25465"><ele></ele><time>2024-6-16T14:30:44Z</time></trkpt>
<trkpt lat="46.24561" lon="7.25472"><ele></ele><time>2024-6-16T14:30:47Z</time></trkpt>
<trkpt lat="46.24547" lon="7.25475"><ele></ele><time>2024-6-16T14:30:50Z</time></trkpt>
<trkpt lat="46.24532" lon="7.25478"><ele></ele><time>2024-6-16T14:30:53Z</time></trkpt>
<trkpt lat="46.24518" lon="7.25491"><ele></ele><time>2024-6-16T14:30:56Z</time></trkpt>
<trkpt lat="46.24511" lon="7.25499"><ele></ele><time>2024-6-16T14:30:59Z</time></trkpt>
<trkpt lat="46.24498" lon="7.25519"><ele></ele><time>2024-6-16T14:31:2Z</time></trkpt>
<trkpt lat="46.24489" lon="7.25544"><ele></ele><time>2024-6-16T14:31:5Z</time></trkpt>
<trkpt lat="46.24484" lon="7.25557"><ele></ele><time>2024-6-16T14:31:8Z</time></trkpt>
<trkpt lat="46.24472" lon="7.25601"><ele></ele><time>2024-6-16T14:31:11Z</time></trkpt>
<trkpt lat="46.24466" lon="7.25615"><ele></ele><time>2024-6-16T14:31:14Z</time></trkpt>
<trkpt lat="46.24459" lon="7.25628"><ele></ele><time>2024-6-16T14:31:17Z</time></trkpt>
<trkpt lat="46.24444" lon="7.25652"><ele></ele><time>2024-6-16T14:31:20Z</time></trkpt>
<trkpt lat="46.24436" lon="7.25664"><ele></ele><time>2024-6-16T14:31:23Z</time></trkpt>
<trkpt lat="46.24429" lon="7.25676"><ele></ele><time>2024-6-16T14:31:26Z</time></trkpt>
<trkpt lat="46.24407" lon="7.25712"><ele></ele><time>2024-6-16T14:31:29Z</time></trkpt>
<trkpt lat="46.24399" lon="7.25738"><ele></ele><time>2024-6-16T14:31:32Z</time></trkpt>
<trkpt lat="46.24399" lon="7.25766"><ele></ele><time>2024-6-16T14:31:35Z</time></trkpt>
<trkpt lat="46.24399" lon="7.25779"><ele></ele><time>2024-6-16T14:31:38Z</time></trkpt>
<trkpt lat="46.24399" lon="7.25793"><ele></ele><time>2024-6-16T14:31:41Z</time></trkpt>
<trkpt lat="46.24391" lon="7.25816"><ele></ele><time>2024-6-16T14:31:44Z</time></trkpt>
<trkpt lat="46.2438" lon="7.25838"><ele></ele><time>2024-6-16T14:31:47Z</time></trkpt>
<trkpt lat="46.24373" lon="7.25847"><ele></ele><time>2024-6-16T14:31:50Z</time></trkpt>
<trkpt lat="46.24364" lon="7.2585"><ele></ele><time>2024-6-16T14:31:53Z</time></trkpt>
<trkpt lat="46.24353" lon="7.25844"><ele></ele><time>2024-6-16T14:31:56Z</time></trkpt>
<trkpt lat="46.24345" lon="7.25837"><ele></ele><time>2024-6-16T14:31:59Z</time></trkpt>
<trkpt lat="46.24337" lon="7.25829"><ele></ele><time>2024-6-16T14:32:2Z</time></trkpt>
<trkpt lat="46.24329" lon="7.25823"><ele></ele><time>2024-6-16T14:32:5Z</time></trkpt>
<trkpt lat="46.2432" lon="7.25818"><ele></ele><time>2024-6-16T14:32:8Z</time></trkpt>
<trkpt lat="46.24312" lon="7.25819"><ele></ele><time>2024-6-16T14:32:11Z</time></trkpt>
<trkpt lat="46.24301" lon="7.25823"><ele></ele><time>2024-6-16T14:32:14Z</time></trkpt>
<trkpt lat="46.24291" lon="7.25825"><ele></ele><time>2024-6-16T14:32:17Z</time></trkpt>
<trkpt lat="46.24281" lon="7.25825"><ele></ele><time>2024-6-16T14:32:20Z</time></trkpt>
<trkpt lat="46.2427" lon="7.25822"><ele></ele><time>2024-6-16T14:32:23Z</time></trkpt>
<trkpt lat="46.2426" lon="7.25817"><ele></ele><time>2024-6-16T14:32:26Z</time></trkpt>
<trkpt lat="46.24249" lon="7.25813"><ele></ele><time>2024-6-16T14:32:29Z</time></trkpt>
<trkpt lat="46.24238" lon="7.25807"><ele></ele><time>2024-6-16T14:32:32Z</time></trkpt>
<trkpt lat="46.24227" lon="7.25801"><ele></ele><time>2024-6-16T14:32:35Z</time></trkpt>
<trkpt lat="46.24216" lon="7.25796"><ele></ele><time>2024-6-16T14:32:38Z</time></trkpt>
<trkpt lat="46.24207" lon="7.25793"><ele></ele><time>2024-6-16T14:32:41Z</time></trkpt>
<trkpt lat="46.24199" lon="7.25795"><ele></ele><time>2024-6-16T14:32:44Z</time></trkpt>
<trkpt lat="46.24192" lon="7.25802"><ele></ele><time>2024-6-16T14:32:47Z</time></trkpt>
<trkpt lat="46.24187" lon="7.2581"><ele></ele><time>2024-6-16T14:32:50Z</time></trkpt>
<trkpt lat="46.24177" lon="7.25828"><ele></ele><time>2024-6-16T14:32:53Z</time></trkpt>
<trkpt lat="46.24166" lon="7.25843"><ele></ele><time>2024-6-16T14:32:56Z</time></trkpt>
<trkpt lat="46.24154" lon="7.25855"><ele></ele><time>2024-6-16T14:32:59Z</time></trkpt>
<trkpt lat="46.24147" lon="7.25859"><ele></ele><time>2024-6-16T14:33:2Z</time></trkpt>
<trkpt lat="46.24139" lon="7.25862"><ele></ele><time>2024-6-16T14:33:5Z</time></trkpt>
<trkpt lat="46.24116" lon="7.25868"><ele></ele><time>2024-6-16T14:33:8Z</time></trkpt>
<trkpt lat="46.24102" lon="7.25879"><ele></ele><time>2024-6-16T14:33:11Z</time></trkpt>
<trkpt lat="46.24095" lon="7.25887"><ele></ele><time>2024-6-16T14:33:14Z</time></trkpt>
<trkpt lat="46.24089" lon="7.25896"><ele></ele><time>2024-6-16T14:33:17Z</time></trkpt>
<trkpt lat="46.24065" lon="7.25918"><ele></ele><time>2024-6-16T14:33:20Z</time></trkpt>
<trkpt lat="46.24055" lon="7.2592"><ele></ele><time>2024-6-16T14:33:23Z</time></trkpt>
<trkpt lat="46.24045" lon="7.25922"><ele></ele><time>2024-6-16T14:33:26Z</time></trkpt>
<trkpt lat="46.24027" lon="7.25934"><ele></ele><time>2024-6-16T14:33:29Z</time></trkpt>
<trkpt lat="46.24018" lon="7.25942"><ele></ele><time>2024-6-16T14:33:32Z</time></trkpt>
<trkpt lat="46.24" lon="7.25953"><ele></ele><time>2024-6-16T14:33:35Z</time></trkpt>
<trkpt lat="46.23992" lon="7.25955"><ele></ele><time>2024-6-16T14:33:38Z</time></trkpt>
<trkpt lat="46.23983" lon="7.25955"><ele></ele><time>2024-6-16T14:33:41Z</time></trkpt>
<trkpt lat="46.23957" lon="7.25955"><ele></ele><time>2024-6-16T14:33:44Z</time></trkpt>
<trkpt lat="46.23931" lon="7.2595"><ele></ele><time>2024-6-16T14:33:47Z</time></trkpt>
<trkpt lat="46.23915" lon="7.25947"><ele></ele><time>2024-6-16T14:33:50Z</time></trkpt>
<trkpt lat="46.239" lon="7.25942"><ele></ele><time>2024-6-16T14:33:53Z</time></trkpt>
<trkpt lat="46.23879" lon="7.25936"><ele></ele><time>2024-6-16T14:33:56Z</time></trkpt>
<trkpt lat="46.23844" lon="7.25926"><ele></ele><time>2024-6-16T14:33:59Z</time></trkpt>
<trkpt lat="46.23838" lon="7.25923"><ele></ele><time>2024-6-16T14:34:2Z</time></trkpt>
<trkpt lat="46.23832" lon="7.2592"><ele></ele><time>2024-6-16T14:34:5Z</time></trkpt>
<trkpt lat="46.23803" lon="7.25905"><ele></ele><time>2024-6-16T14:34:8Z</time></trkpt>
<trkpt lat="46.23792" lon="7.25904"><ele></ele><time>2024-6-16T14:34:11Z</time></trkpt>
<trkpt lat="46.23782" lon="7.25906"><ele></ele><time>2024-6-16T14:34:14Z</time></trkpt>
<trkpt lat="46.23778" lon="7.25907"><ele></ele><time>2024-6-16T14:34:17Z</time></trkpt>
<trkpt lat="46.23758" lon="7.25912"><ele></ele><time>2024-6-16T14:34:20Z</time></trkpt>
<trkpt lat="46.23749" lon="7.25911"><ele></ele><time>2024-6-16T14:34:23Z</time></trkpt>
<trkpt lat="46.23732" lon="7.25909"><ele></ele><time>2024-6-16T14:34:26Z</time></trkpt>
<trkpt lat="46.23724" lon="7.25907"><ele></ele><time>2024-6-16T14:34:29Z</time></trkpt>
<trkpt lat="46.23719" lon="7.25907"><ele></ele><time>2024-6-16T14:34:32Z</time></trkpt>
<trkpt lat="46.23687" lon="7.25901"><ele></ele><time>2024-6-16T14:34:35Z</time></trkpt>
<trkpt lat="46.23673" lon="7.25897"><ele></ele><time>2024-6-16T14:34:38Z</time></trkpt>
<trkpt lat="46.23658" lon="7.25894"><ele></ele><time>2024-6-16T14:34:41Z</time></trkpt>
<trkpt lat="46.23653" lon="7.25892"><ele></ele><time>2024-6-16T14:34:44Z</time></trkpt>
<trkpt lat="46.23644" lon="7.2589"><ele></ele><time>2024-6-16T14:34:47Z</time></trkpt>
<trkpt lat="46.23639" lon="7.25891"><ele></ele><time>2024-6-16T14:34:50Z</time></trkpt>
<trkpt lat="46.23634" lon="7.25893"><ele></ele><time>2024-6-16T14:34:53Z</time></trkpt>
<trkpt lat="46.23615" lon="7.25902"><ele></ele><time>2024-6-16T14:34:56Z</time></trkpt>
<trkpt lat="46.23609" lon="7.25901"><ele></ele><time>2024-6-16T14:34:59Z</time></trkpt>
<trkpt lat="46.23585" lon="7.25899"><ele></ele><time>2024-6-16T14:35:2Z</time></trkpt>
<trkpt lat="46.23574" lon="7.25897"><ele></ele><time>2024-6-16T14:35:5Z</time></trkpt>
<trkpt lat="46.23564" lon="7.25889"><ele></ele><time>2024-6-16T14:35:8Z</time></trkpt>
<trkpt lat="46.23555" lon="7.25879"><ele></ele><time>2024-6-16T14:35:11Z</time></trkpt>
<trkpt lat="46.23545" lon="7.25873"><ele></ele><time>2024-6-16T14:35:14Z</time></trkpt>
<trkpt lat="46.23534" lon="7.25872"><ele></ele><time>2024-6-16T14:35:17Z</time></trkpt>
<trkpt lat="46.23523" lon="7.25872"><ele></ele><time>2024-6-16T14:35:20Z</time></trkpt>
<trkpt lat="46.23511" lon="7.2588"><ele></ele><time>2024-6-16T14:35:23Z</time></trkpt>
<trkpt lat="46.23505" lon="7.25885"><ele></ele><time>2024-6-16T14:35:26Z</time></trkpt>
<trkpt lat="46.23499" lon="7.25891"><ele></ele><time>2024-6-16T14:35:29Z</time></trkpt>
<trkpt lat="46.23485" lon="7.25898"><ele></ele><time>2024-6-16T14:35:32Z</time></trkpt>
<trkpt lat="46.23477" lon="7.25899"><ele></ele><time>2024-6-16T14:35:35Z</time></trkpt>
<trkpt lat="46.23459" lon="7.25898"><ele></ele><time>2024-6-16T14:35:38Z</time></trkpt>
<trkpt lat="46.23442" lon="7.25893"><ele></ele><time>2024-6-16T14:35:41Z</time></trkpt>
<trkpt lat="46.23427" lon="7.25884"><ele></ele><time>2024-6-16T14:35:44Z</time></trkpt>
<trkpt lat="46.23417" lon="7.2586"><ele></ele><time>2024-6-16T14:35:47Z</time></trkpt>
<trkpt lat="46.23407" lon="7.2584"><ele></ele><time>2024-6-16T14:35:50Z</time></trkpt>
<trkpt lat="46.23398" lon="7.25836"><ele></ele><time>2024-6-16T14:35:53Z</time></trkpt>
<trkpt lat="46.23389" lon="7.25832"><ele></ele><time>2024-6-16T14:35:56Z</time></trkpt>
<trkpt lat="46.23361" lon="7.25822"><ele></ele><time>2024-6-16T14:35:59Z</time></trkpt>
<trkpt lat="46.23351" lon="7.25819"><ele></ele><time>2024-6-16T14:36:2Z</time></trkpt>
<trkpt lat="46.23341" lon="7.25818"><ele></ele><time>2024-6-16T14:36:5Z</time></trkpt>
<trkpt lat="46.23322" lon="7.25824"><ele></ele><time>2024-6-16T14:36:8Z</time></trkpt>
<trkpt lat="46.23266" lon="7.25843"><ele></ele><time>2024-6-16T14:36:11Z</time></trkpt>
<trkpt lat="46.2325" lon="7.25852"><ele></ele><time>2024-6-16T14:36:14Z</time></trkpt>
<trkpt lat="46.23246" lon="7.25863"><ele></ele><time>2024-6-16T14:36:17Z</time></trkpt>
<trkpt lat="46.23242" lon="7.25876"><ele></ele><time>2024-6-16T14:36:20Z</time></trkpt>
<trkpt lat="46.23231" lon="7.25896"><ele></ele><time>2024-6-16T14:36:23Z</time></trkpt>
<trkpt lat="46.23213" lon="7.25908"><ele></ele><time>2024-6-16T14:36:26Z</time></trkpt>
<trkpt lat="46.23203" lon="7.25905"><ele></ele><time>2024-6-16T14:36:29Z</time></trkpt>
<trkpt lat="46.23195" lon="7.25904"><ele></ele><time>2024-6-16T14:36:32Z</time></trkpt>
<trkpt lat="46.23187" lon="7.25901"><ele></ele><time>2024-6-16T14:36:35Z</time></trkpt>
<trkpt lat="46.2318" lon="7.25898"><ele></ele><time>2024-6-16T14:36:38Z</time></trkpt>
<trkpt lat="46.23172" lon="7.25897"><ele></ele><time>2024-6-16T14:36:41Z</time></trkpt>
<trkpt lat="46.23158" lon="7.25906"><ele></ele><time>2024-6-16T14:36:44Z</time></trkpt>
<trkpt lat="46.2315" lon="7.25908"><ele></ele><time>2024-6-16T14:36:47Z</time></trkpt>
<trkpt lat="46.23141" lon="7.25907"><ele></ele><time>2024-6-16T14:36:50Z</time></trkpt>
<trkpt lat="46.23132" lon="7.25905"><ele></ele><time>2024-6-16T14:36:53Z</time></trkpt>
<trkpt lat="46.23123" lon="7.25903"><ele></ele><time>2024-6-16T14:36:56Z</time></trkpt>
<trkpt lat="46.23108" lon="7.259"><ele></ele><time>2024-6-16T14:36:59Z</time></trkpt>
<trkpt lat="46.23101" lon="7.25901"><ele></ele><time>2024-6-16T14:37:2Z</time></trkpt>
<trkpt lat="46.23095" lon="7.25906"><ele></ele><time>2024-6-16T14:37:5Z</time></trkpt>
<trkpt lat="46.23093" lon="7.25915"><ele></ele><time>2024-6-16T14:37:8Z</time></trkpt>
<trkpt lat="46.23092" lon="7.25927"><ele></ele><time>2024-6-16T14:37:11Z</time></trkpt>
<trkpt lat="46.23093" lon="7.25939"><ele></ele><time>2024-6-16T14:37:14Z</time></trkpt>
<trkpt lat="46.23096" lon="7.25964"><ele></ele><time>2024-6-16T14:37:17Z</time></trkpt>
<trkpt lat="46.23099" lon="7.25977"><ele></ele><time>2024-6-16T14:37:20Z</time></trkpt>
<trkpt lat="46.23106" lon="7.26006"><ele></ele><time>2024-6-16T14:37:23Z</time></trkpt>
<trkpt lat="46.23111" lon="7.26021"><ele></ele><time>2024-6-16T14:37:26Z</time></trkpt>
<trkpt lat="46.23116" lon="7.26036"><ele></ele><time>2024-6-16T14:37:29Z</time></trkpt>
<trkpt lat="46.23123" lon="7.26052"><ele></ele><time>2024-6-16T14:37:32Z</time></trkpt>
<trkpt lat="46.23137" lon="7.26081"><ele></ele><time>2024-6-16T14:37:35Z</time></trkpt>
<trkpt lat="46.23144" lon="7.26095"><ele></ele><time>2024-6-16T14:37:38Z</time></trkpt>
<trkpt lat="46.23151" lon="7.26108"><ele></ele><time>2024-6-16T14:37:41Z</time></trkpt>
<trkpt lat="46.23165" lon="7.26135"><ele></ele><time>2024-6-16T14:37:44Z</time></trkpt>
<trkpt lat="46.23172" lon="7.26148"><ele></ele><time>2024-6-16T14:37:47Z</time></trkpt>
<trkpt lat="46.2318" lon="7.26162"><ele></ele><time>2024-6-16T14:37:50Z</time></trkpt>
<trkpt lat="46.23187" lon="7.26178"><ele></ele><time>2024-6-16T14:37:53Z</time></trkpt>
<trkpt lat="46.23194" lon="7.26193"><ele></ele><time>2024-6-16T14:37:56Z</time></trkpt>
<trkpt lat="46.23203" lon="7.26209"><ele></ele><time>2024-6-16T14:37:59Z</time></trkpt>
<trkpt lat="46.23213" lon="7.26222"><ele></ele><time>2024-6-16T14:38:2Z</time></trkpt>
<trkpt lat="46.23224" lon="7.26234"><ele></ele><time>2024-6-16T14:38:5Z</time></trkpt>
<trkpt lat="46.23235" lon="7.26248"><ele></ele><time>2024-6-16T14:38:8Z</time></trkpt>
<trkpt lat="46.23246" lon="7.26261"><ele></ele><time>2024-6-16T14:38:11Z</time></trkpt>
<trkpt lat="46.23265" lon="7.26293"><ele></ele><time>2024-6-16T14:38:14Z</time></trkpt>
<trkpt lat="46.23274" lon="7.26309"><ele></ele><time>2024-6-16T14:38:17Z</time></trkpt>
<trkpt lat="46.23283" lon="7.26326"><ele></ele><time>2024-6-16T14:38:20Z</time></trkpt>
<trkpt lat="46.23294" lon="7.26342"><ele></ele><time>2024-6-16T14:38:23Z</time></trkpt>
<trkpt lat="46.23306" lon="7.26356"><ele></ele><time>2024-6-16T14:38:26Z</time></trkpt>
<trkpt lat="46.23319" lon="7.26368"><ele></ele><time>2024-6-16T14:38:29Z</time></trkpt>
<trkpt lat="46.23333" lon="7.26379"><ele></ele><time>2024-6-16T14:38:32Z</time></trkpt>
<trkpt lat="46.23346" lon="7.26392"><ele></ele><time>2024-6-16T14:38:35Z</time></trkpt>
<trkpt lat="46.23359" lon="7.26405"><ele></ele><time>2024-6-16T14:38:38Z</time></trkpt>
<trkpt lat="46.23371" lon="7.26418"><ele></ele><time>2024-6-16T14:38:41Z</time></trkpt>
<trkpt lat="46.23382" lon="7.26432"><ele></ele><time>2024-6-16T14:38:44Z</time></trkpt>
<trkpt lat="46.23392" lon="7.26448"><ele></ele><time>2024-6-16T14:38:47Z</time></trkpt>
<trkpt lat="46.23402" lon="7.26464"><ele></ele><time>2024-6-16T14:38:50Z</time></trkpt>
<trkpt lat="46.23412" lon="7.26479"><ele></ele><time>2024-6-16T14:38:53Z</time></trkpt>
<trkpt lat="46.23421" lon="7.26495"><ele></ele><time>2024-6-16T14:38:56Z</time></trkpt>
<trkpt lat="46.23429" lon="7.26512"><ele></ele><time>2024-6-16T14:38:59Z</time></trkpt>
<trkpt lat="46.23435" lon="7.2653"><ele></ele><time>2024-6-16T14:39:2Z</time></trkpt>
<trkpt lat="46.2344" lon="7.26548"><ele></ele><time>2024-6-16T14:39:5Z</time></trkpt>
<trkpt lat="46.23445" lon="7.26565"><ele></ele><time>2024-6-16T14:39:8Z</time></trkpt>
<trkpt lat="46.23458" lon="7.266"><ele></ele><time>2024-6-16T14:39:11Z</time></trkpt>
<trkpt lat="46.23466" lon="7.26616"><ele></ele><time>2024-6-16T14:39:14Z</time></trkpt>
<trkpt lat="46.23476" lon="7.26631"><ele></ele><time>2024-6-16T14:39:17Z</time></trkpt>
<trkpt lat="46.23486" lon="7.26646"><ele></ele><time>2024-6-16T14:39:20Z</time></trkpt>
<trkpt lat="46.23497" lon="7.26661"><ele></ele><time>2024-6-16T14:39:23Z</time></trkpt>
<trkpt lat="46.23507" lon="7.26677"><ele></ele><time>2024-6-16T14:39:26Z</time></trkpt>
<trkpt lat="46.23517" lon="7.26694"><ele></ele><time>2024-6-16T14:39:29Z</time></trkpt>
<trkpt lat="46.23526" lon="7.26712"><ele></ele><time>2024-6-16T14:39:32Z</time></trkpt>
<trkpt lat="46.23534" lon="7.2673"><ele></ele><time>2024-6-16T14:39:35Z</time></trkpt>
<trkpt lat="46.23542" lon="7.26748"><ele></ele><time>2024-6-16T14:39:38Z</time></trkpt>
<trkpt lat="46.2355" lon="7.26765"><ele></ele><time>2024-6-16T14:39:41Z</time></trkpt>
<trkpt lat="46.23556" lon="7.26782"><ele></ele><time>2024-6-16T14:39:44Z</time></trkpt>
<trkpt lat="46.23562" lon="7.26799"><ele></ele><time>2024-6-16T14:39:47Z</time></trkpt>
<trkpt lat="46.23568" lon="7.26815"><ele></ele><time>2024-6-16T14:39:50Z</time></trkpt>
<trkpt lat="46.23574" lon="7.26831"><ele></ele><time>2024-6-16T14:39:53Z</time></trkpt>
<trkpt lat="46.23581" lon="7.26847"><ele></ele><time>2024-6-16T14:39:56Z</time></trkpt>
<trkpt lat="46.23588" lon="7.26861"><ele></ele><time>2024-6-16T14:39:59Z</time></trkpt>
<trkpt lat="46.23595" lon="7.26875"><ele></ele><time>2024-6-16T14:40:2Z</time></trkpt>
<trkpt lat="46.2361" lon="7.26902"><ele></ele><time>2024-6-16T14:40:5Z</time></trkpt>
<trkpt lat="46.23618" lon="7.26915"><ele></ele><time>2024-6-16T14:40:8Z</time></trkpt>
<trkpt lat="46.23626" lon="7.26928"><ele></ele><time>2024-6-16T14:40:11Z</time></trkpt>
<trkpt lat="46.23634" lon="7.26941"><ele></ele><time>2024-6-16T14:40:14Z</time></trkpt>
<trkpt lat="46.23643" lon="7.26954"><ele></ele><time>2024-6-16T14:40:17Z</time></trkpt>
<trkpt lat="46.23651" lon="7.26966"><ele></ele><time>2024-6-16T14:40:20Z</time></trkpt>
<trkpt lat="46.23659" lon="7.26977"><ele></ele><time>2024-6-16T14:40:23Z</time></trkpt>
<trkpt lat="46.23666" lon="7.26991"><ele></ele><time>2024-6-16T14:40:26Z</time></trkpt>
<trkpt lat="46.23672" lon="7.27006"><ele></ele><time>2024-6-16T14:40:29Z</time></trkpt>
<trkpt lat="46.23677" lon="7.27021"><ele></ele><time>2024-6-16T14:40:32Z</time></trkpt>
<trkpt lat="46.23683" lon="7.27035"><ele></ele><time>2024-6-16T14:40:35Z</time></trkpt>
<trkpt lat="46.23688" lon="7.27049"><ele></ele><time>2024-6-16T14:40:38Z</time></trkpt>
<trkpt lat="46.2369" lon="7.27063"><ele></ele><time>2024-6-16T14:40:41Z</time></trkpt>
<trkpt lat="46.23689" lon="7.27075"><ele></ele><time>2024-6-16T14:40:44Z</time></trkpt>
<trkpt lat="46.23686" lon="7.27085"><ele></ele><time>2024-6-16T14:40:47Z</time></trkpt>
<trkpt lat="46.2368" lon="7.27092"><ele></ele><time>2024-6-16T14:40:50Z</time></trkpt>
<trkpt lat="46.23667" lon="7.27103"><ele></ele><time>2024-6-16T14:40:53Z</time></trkpt>
<trkpt lat="46.23654" lon="7.27112"><ele></ele><time>2024-6-16T14:40:56Z</time></trkpt>
<trkpt lat="46.2365" lon="7.27116"><ele></ele><time>2024-6-16T14:40:59Z</time></trkpt>
<trkpt lat="46.23646" lon="7.27118"><ele></ele><time>2024-6-16T14:41:2Z</time></trkpt>
<trkpt lat="46.23643" lon="7.2712"><ele></ele><time>2024-6-16T14:41:5Z</time></trkpt>
<trkpt lat="46.23642" lon="7.2712"><ele></ele><time>2024-6-16T14:41:8Z</time></trkpt>
<trkpt lat="46.23638" lon="7.27119"><ele></ele><time>2024-6-16T14:41:11Z</time></trkpt>
<trkpt lat="46.23631" lon="7.27112"><ele></ele><time>2024-6-16T14:41:14Z</time></trkpt>
<trkpt lat="46.23623" lon="7.27101"><ele></ele><time>2024-6-16T14:41:17Z</time></trkpt>
<trkpt lat="46.23619" lon="7.27094"><ele></ele><time>2024-6-16T14:41:20Z</time></trkpt>
<trkpt lat="46.23615" lon="7.27086"><ele></ele><time>2024-6-16T14:41:23Z</time></trkpt>
<trkpt lat="46.23609" lon="7.2707"><ele></ele><time>2024-6-16T14:41:26Z</time></trkpt>
<trkpt lat="46.23602" lon="7.27056"><ele></ele><time>2024-6-16T14:41:29Z</time></trkpt>
<trkpt lat="46.23596" lon="7.27051"><ele></ele><time>2024-6-16T14:41:32Z</time></trkpt>
<trkpt lat="46.2359" lon="7.27051"><ele></ele><time>2024-6-16T14:41:35Z</time></trkpt>
<trkpt lat="46.23584" lon="7.27057"><ele></ele><time>2024-6-16T14:41:38Z</time></trkpt>
<trkpt lat="46.2358" lon="7.27077"><ele></ele><time>2024-6-16T14:41:41Z</time></trkpt>
<trkpt lat="46.23578" lon="7.27097"><ele></ele><time>2024-6-16T14:41:44Z</time></trkpt>
<trkpt lat="46.23577" lon="7.27108"><ele></ele><time>2024-6-16T14:41:47Z</time></trkpt>
<trkpt lat="46.23576" lon="7.2713"><ele></ele><time>2024-6-16T14:41:50Z</time></trkpt>
<trkpt lat="46.23577" lon="7.27153"><ele></ele><time>2024-6-16T14:41:53Z</time></trkpt>
<trkpt lat="46.23579" lon="7.27165"><ele></ele><time>2024-6-16T14:41:56Z</time></trkpt>
<trkpt lat="46.23581" lon="7.27177"><ele></ele><time>2024-6-16T14:41:59Z</time></trkpt>
<trkpt lat="46.23583" lon="7.27189"><ele></ele><time>2024-6-16T14:42:2Z</time></trkpt>
<trkpt lat="46.23585" lon="7.27214"><ele></ele><time>2024-6-16T14:42:5Z</time></trkpt>
<trkpt lat="46.23585" lon="7.27238"><ele></ele><time>2024-6-16T14:42:8Z</time></trkpt>
<trkpt lat="46.23592" lon="7.27295"><ele></ele><time>2024-6-16T14:42:11Z</time></trkpt>
<trkpt lat="46.23598" lon="7.27327"><ele></ele><time>2024-6-16T14:42:14Z</time></trkpt>
<trkpt lat="46.23595" lon="7.27336"><ele></ele><time>2024-6-16T14:42:17Z</time></trkpt>
<trkpt lat="46.23589" lon="7.2734"><ele></ele><time>2024-6-16T14:42:20Z</time></trkpt>
<trkpt lat="46.23582" lon="7.27341"><ele></ele><time>2024-6-16T14:42:23Z</time></trkpt>
<trkpt lat="46.23575" lon="7.27338"><ele></ele><time>2024-6-16T14:42:26Z</time></trkpt>
<trkpt lat="46.23568" lon="7.27335"><ele></ele><time>2024-6-16T14:42:29Z</time></trkpt>
<trkpt lat="46.23561" lon="7.27331"><ele></ele><time>2024-6-16T14:42:32Z</time></trkpt>
<trkpt lat="46.23556" lon="7.27325"><ele></ele><time>2024-6-16T14:42:35Z</time></trkpt>
<trkpt lat="46.23547" lon="7.27309"><ele></ele><time>2024-6-16T14:42:38Z</time></trkpt>
<trkpt lat="46.23538" lon="7.27279"><ele></ele><time>2024-6-16T14:42:41Z</time></trkpt>
<trkpt lat="46.23535" lon="7.27268"><ele></ele><time>2024-6-16T14:42:44Z</time></trkpt>
<trkpt lat="46.23525" lon="7.27233"><ele></ele><time>2024-6-16T14:42:47Z</time></trkpt>
<trkpt lat="46.23511" lon="7.27213"><ele></ele><time>2024-6-16T14:42:50Z</time></trkpt>
<trkpt lat="46.23496" lon="7.27192"><ele></ele><time>2024-6-16T14:42:53Z</time></trkpt>
<trkpt lat="46.23491" lon="7.27179"><ele></ele><time>2024-6-16T14:42:56Z</time></trkpt>
<trkpt lat="46.23487" lon="7.27165"><ele></ele><time>2024-6-16T14:42:59Z</time></trkpt>
<trkpt lat="46.23479" lon="7.27134"><ele></ele><time>2024-6-16T14:43:2Z</time></trkpt>
<trkpt lat="46.23476" lon="7.27119"><ele></ele><time>2024-6-16T14:43:5Z</time></trkpt>
<trkpt lat="46.23473" lon="7.27105"><ele></ele><time>2024-6-16T14:43:8Z</time></trkpt>
<trkpt lat="46.23471" lon="7.27093"><ele></ele><time>2024-6-16T14:43:11Z</time></trkpt>
<trkpt lat="46.23466" lon="7.27083"><ele></ele><time>2024-6-16T14:43:14Z</time></trkpt>
<trkpt lat="46.23459" lon="7.2708"><ele></ele><time>2024-6-16T14:43:17Z</time></trkpt>
<trkpt lat="46.23452" lon="7.27084"><ele></ele><time>2024-6-16T14:43:20Z</time></trkpt>
<trkpt lat="46.23449" lon="7.27104"><ele></ele><time>2024-6-16T14:43:23Z</time></trkpt>
<trkpt lat="46.23454" lon="7.27127"><ele></ele><time>2024-6-16T14:43:26Z</time></trkpt>
<trkpt lat="46.23454" lon="7.2714"><ele></ele><time>2024-6-16T14:43:29Z</time></trkpt>
<trkpt lat="46.23452" lon="7.27153"><ele></ele><time>2024-6-16T14:43:32Z</time></trkpt>
<trkpt lat="46.23449" lon="7.27165"><ele></ele><time>2024-6-16T14:43:35Z</time></trkpt>
<trkpt lat="46.23446" lon="7.27177"><ele></ele><time>2024-6-16T14:43:38Z</time></trkpt>
<trkpt lat="46.2344" lon="7.27202"><ele></ele><time>2024-6-16T14:43:41Z</time></trkpt>
<trkpt lat="46.23442" lon="7.2723"><ele></ele><time>2024-6-16T14:43:44Z</time></trkpt>
<trkpt lat="46.23446" lon="7.27243"><ele></ele><time>2024-6-16T14:43:47Z</time></trkpt>
<trkpt lat="46.23451" lon="7.27256"><ele></ele><time>2024-6-16T14:43:50Z</time></trkpt>
<trkpt lat="46.23457" lon="7.27269"><ele></ele><time>2024-6-16T14:43:53Z</time></trkpt>
<trkpt lat="46.23462" lon="7.27283"><ele></ele><time>2024-6-16T14:43:56Z</time></trkpt>
<trkpt lat="46.23467" lon="7.27297"><ele></ele><time>2024-6-16T14:43:59Z</time></trkpt>
<trkpt lat="46.23479" lon="7.27324"><ele></ele><time>2024-6-16T14:44:2Z</time></trkpt>
<trkpt lat="46.23492" lon="7.27352"><ele></ele><time>2024-6-16T14:44:5Z</time></trkpt>
<trkpt lat="46.23496" lon="7.27368"><ele></ele><time>2024-6-16T14:44:8Z</time></trkpt>
<trkpt lat="46.235" lon="7.27384"><ele></ele><time>2024-6-16T14:44:11Z</time></trkpt>
<trkpt lat="46.23505" lon="7.274"><ele></ele><time>2024-6-16T14:44:14Z</time></trkpt>
<trkpt lat="46.23512" lon="7.27414"><ele></ele><time>2024-6-16T14:44:17Z</time></trkpt>
<trkpt lat="46.2352" lon="7.27426"><ele></ele><time>2024-6-16T14:44:20Z</time></trkpt>
<trkpt lat="46.23528" lon="7.27439"><ele></ele><time>2024-6-16T14:44:23Z</time></trkpt>
<trkpt lat="46.23536" lon="7.27452"><ele></ele><time>2024-6-16T14:44:26Z</time></trkpt>
<trkpt lat="46.23553" lon="7.27472"><ele></ele><time>2024-6-16T14:44:29Z</time></trkpt>
<trkpt lat="46.23562" lon="7.27477"><ele></ele><time>2024-6-16T14:44:32Z</time></trkpt>
<trkpt lat="46.23572" lon="7.27479"><ele></ele><time>2024-6-16T14:44:35Z</time></trkpt>
<trkpt lat="46.23581" lon="7.27477"><ele></ele><time>2024-6-16T14:44:38Z</time></trkpt>
<trkpt lat="46.2359" lon="7.27476"><ele></ele><time>2024-6-16T14:44:41Z</time></trkpt>
<trkpt lat="46.23598" lon="7.2748"><ele></ele><time>2024-6-16T14:44:44Z</time></trkpt>
<trkpt lat="46.23602" lon="7.27489"><ele></ele><time>2024-6-16T14:44:47Z</time></trkpt>
<trkpt lat="46.23603" lon="7.27499"><ele></ele><time>2024-6-16T14:44:50Z</time></trkpt>
<trkpt lat="46.236" lon="7.27511"><ele></ele><time>2024-6-16T14:44:53Z</time></trkpt>
<trkpt lat="46.23599" lon="7.27534"><ele></ele><time>2024-6-16T14:44:56Z</time></trkpt>
<trkpt lat="46.23602" lon="7.27546"><ele></ele><time>2024-6-16T14:44:59Z</time></trkpt>
<trkpt lat="46.23607" lon="7.27558"><ele></ele><time>2024-6-16T14:45:2Z</time></trkpt>
<trkpt lat="46.2361" lon="7.27572"><ele></ele><time>2024-6-16T14:45:5Z</time></trkpt>
<trkpt lat="46.23613" lon="7.27587"><ele></ele><time>2024-6-16T14:45:8Z</time></trkpt>
<trkpt lat="46.23615" lon="7.27603"><ele></ele><time>2024-6-16T14:45:11Z</time></trkpt>
<trkpt lat="46.23615" lon="7.27637"><ele></ele><time>2024-6-16T14:45:14Z</time></trkpt>
<trkpt lat="46.23616" lon="7.27654"><ele></ele><time>2024-6-16T14:45:17Z</time></trkpt>
<trkpt lat="46.23616" lon="7.27672"><ele></ele><time>2024-6-16T14:45:20Z</time></trkpt>
<trkpt lat="46.23619" lon="7.2769"><ele></ele><time>2024-6-16T14:45:23Z</time></trkpt>
<trkpt lat="46.23623" lon="7.27707"><ele></ele><time>2024-6-16T14:45:26Z</time></trkpt>
<trkpt lat="46.23629" lon="7.27723"><ele></ele><time>2024-6-16T14:45:29Z</time></trkpt>
<trkpt lat="46.23635" lon="7.27739"><ele></ele><time>2024-6-16T14:45:32Z</time></trkpt>
<trkpt lat="46.23649" lon="7.27773"><ele></ele><time>2024-6-16T14:45:35Z</time></trkpt>
<trkpt lat="46.23656" lon="7.27789"><ele></ele><time>2024-6-16T14:45:38Z</time></trkpt>
<trkpt lat="46.23663" lon="7.27807"><ele></ele><time>2024-6-16T14:45:41Z</time></trkpt>
<trkpt lat="46.23669" lon="7.27825"><ele></ele><time>2024-6-16T14:45:44Z</time></trkpt>
<trkpt lat="46.23674" lon="7.27844"><ele></ele><time>2024-6-16T14:45:47Z</time></trkpt>
<trkpt lat="46.23678" lon="7.27864"><ele></ele><time>2024-6-16T14:45:50Z</time></trkpt>
<trkpt lat="46.23682" lon="7.27883"><ele></ele><time>2024-6-16T14:45:53Z</time></trkpt>
<trkpt lat="46.2369" lon="7.27922"><ele></ele><time>2024-6-16T14:45:56Z</time></trkpt>
<trkpt lat="46.23694" lon="7.27941"><ele></ele><time>2024-6-16T14:45:59Z</time></trkpt>
<trkpt lat="46.23706" lon="7.27976"><ele></ele><time>2024-6-16T14:46:2Z</time></trkpt>
<trkpt lat="46.23712" lon="7.27992"><ele></ele><time>2024-6-16T14:46:5Z</time></trkpt>
<trkpt lat="46.23716" lon="7.28009"><ele></ele><time>2024-6-16T14:46:8Z</time></trkpt>
<trkpt lat="46.23717" lon="7.28026"><ele></ele><time>2024-6-16T14:46:11Z</time></trkpt>
<trkpt lat="46.23714" lon="7.28041"><ele></ele><time>2024-6-16T14:46:14Z</time></trkpt>
<trkpt lat="46.23708" lon="7.28055"><ele></ele><time>2024-6-16T14:46:17Z</time></trkpt>
<trkpt lat="46.23701" lon="7.28069"><ele></ele><time>2024-6-16T14:46:20Z</time></trkpt>
<trkpt lat="46.23695" lon="7.28083"><ele></ele><time>2024-6-16T14:46:23Z</time></trkpt>
<trkpt lat="46.23681" lon="7.28109"><ele></ele><time>2024-6-16T14:46:26Z</time></trkpt>
<trkpt lat="46.23676" lon="7.28123"><ele></ele><time>2024-6-16T14:46:29Z</time></trkpt>
<trkpt lat="46.23676" lon="7.28153"><ele></ele><time>2024-6-16T14:46:32Z</time></trkpt>
<trkpt lat="46.23684" lon="7.28184"><ele></ele><time>2024-6-16T14:46:35Z</time></trkpt>
<trkpt lat="46.23688" lon="7.28199"><ele></ele><time>2024-6-16T14:46:38Z</time></trkpt>
<trkpt lat="46.23691" lon="7.28214"><ele></ele><time>2024-6-16T14:46:41Z</time></trkpt>
<trkpt lat="46.23694" lon="7.28229"><ele></ele><time>2024-6-16T14:46:44Z</time></trkpt>
<trkpt lat="46.23696" lon="7.28244"><ele></ele><time>2024-6-16T14:46:47Z</time></trkpt>
<trkpt lat="46.23697" lon="7.28259"><ele></ele><time>2024-6-16T14:46:50Z</time></trkpt>
<trkpt lat="46.23706" lon="7.28343"><ele></ele><time>2024-6-16T14:46:53Z</time></trkpt>
<trkpt lat="46.23706" lon="7.28356"><ele></ele><time>2024-6-16T14:46:56Z</time></trkpt>
<trkpt lat="46.23707" lon="7.28382"><ele></ele><time>2024-6-16T14:46:59Z</time></trkpt>
<trkpt lat="46.23707" lon="7.28431"><ele></ele><time>2024-6-16T14:47:2Z</time></trkpt>
<trkpt lat="46.23704" lon="7.28499"><ele></ele><time>2024-6-16T14:47:5Z</time></trkpt>
<trkpt lat="46.23702" lon="7.28521"><ele></ele><time>2024-6-16T14:47:8Z</time></trkpt>
<trkpt lat="46.23702" lon="7.28563"><ele></ele><time>2024-6-16T14:47:11Z</time></trkpt>
<trkpt lat="46.23703" lon="7.28573"><ele></ele><time>2024-6-16T14:47:14Z</time></trkpt>
<trkpt lat="46.23715" lon="7.28633"><ele></ele><time>2024-6-16T14:47:17Z</time></trkpt>
<trkpt lat="46.23724" lon="7.28663"><ele></ele><time>2024-6-16T14:47:20Z</time></trkpt>
<trkpt lat="46.23733" lon="7.28681"><ele></ele><time>2024-6-16T14:47:23Z</time></trkpt>
<trkpt lat="46.23738" lon="7.28691"><ele></ele><time>2024-6-16T14:47:26Z</time></trkpt>
<trkpt lat="46.23754" lon="7.28724"><ele></ele><time>2024-6-16T14:47:29Z</time></trkpt>
<trkpt lat="46.2376" lon="7.28736"><ele></ele><time>2024-6-16T14:47:32Z</time></trkpt>
<trkpt lat="46.23765" lon="7.28747"><ele></ele><time>2024-6-16T14:47:35Z</time></trkpt>
<trkpt lat="46.23775" lon="7.28769"><ele></ele><time>2024-6-16T14:47:38Z</time></trkpt>
<trkpt lat="46.23781" lon="7.2879"><ele></ele><time>2024-6-16T14:47:41Z</time></trkpt>
<trkpt lat="46.23784" lon="7.288"><ele></ele><time>2024-6-16T14:47:44Z</time></trkpt>
<trkpt lat="46.23786" lon="7.28813"><ele></ele><time>2024-6-16T14:47:47Z</time></trkpt>
<trkpt lat="46.2378" lon="7.28821"><ele></ele><time>2024-6-16T14:47:50Z</time></trkpt>
<trkpt lat="46.23775" lon="7.28822"><ele></ele><time>2024-6-16T14:47:53Z</time></trkpt>
<trkpt lat="46.23765" lon="7.28823"><ele></ele><time>2024-6-16T14:47:56Z</time></trkpt>
<trkpt lat="46.2376" lon="7.28823"><ele></ele><time>2024-6-16T14:47:59Z</time></trkpt>
<trkpt lat="46.23756" lon="7.28822"><ele></ele><time>2024-6-16T14:48:2Z</time></trkpt>
<trkpt lat="46.23751" lon="7.2882"><ele></ele><time>2024-6-16T14:48:5Z</time></trkpt>
<trkpt lat="46.23742" lon="7.28813"><ele></ele><time>2024-6-16T14:48:8Z</time></trkpt>
<trkpt lat="46.23731" lon="7.28805"><ele></ele><time>2024-6-16T14:48:11Z</time></trkpt>
<trkpt lat="46.23726" lon="7.28801"><ele></ele><time>2024-6-16T14:48:14Z</time></trkpt>
<trkpt lat="46.23721" lon="7.28797"><ele></ele><time>2024-6-16T14:48:17Z</time></trkpt>
<trkpt lat="46.23715" lon="7.28793"><ele></ele><time>2024-6-16T14:48:20Z</time></trkpt>
<trkpt lat="46.23704" lon="7.28784"><ele></ele><time>2024-6-16T14:48:23Z</time></trkpt>
<trkpt lat="46.23699" lon="7.28777"><ele></ele><time>2024-6-16T14:48:26Z</time></trkpt>
<trkpt lat="46.23693" lon="7.2877"><ele></ele><time>2024-6-16T14:48:29Z</time></trkpt>
<trkpt lat="46.23687" lon="7.28763"><ele></ele><time>2024-6-16T14:48:32Z</time></trkpt>
<trkpt lat="46.23681" lon="7.28756"><ele></ele><time>2024-6-16T14:48:35Z</time></trkpt>
<trkpt lat="46.23668" lon="7.28742"><ele></ele><time>2024-6-16T14:48:38Z</time></trkpt>
<trkpt lat="46.23655" lon="7.28727"><ele></ele><time>2024-6-16T14:48:41Z</time></trkpt>
<trkpt lat="46.23649" lon="7.28718"><ele></ele><time>2024-6-16T14:48:44Z</time></trkpt>
<trkpt lat="46.23636" lon="7.28698"><ele></ele><time>2024-6-16T14:48:47Z</time></trkpt>
<trkpt lat="46.23622" lon="7.28676"><ele></ele><time>2024-6-16T14:48:50Z</time></trkpt>
<trkpt lat="46.23615" lon="7.28666"><ele></ele><time>2024-6-16T14:48:53Z</time></trkpt>
<trkpt lat="46.23609" lon="7.28656"><ele></ele><time>2024-6-16T14:48:56Z</time></trkpt>
<trkpt lat="46.23603" lon="7.28648"><ele></ele><time>2024-6-16T14:48:59Z</time></trkpt>
<trkpt lat="46.23593" lon="7.28635"><ele></ele><time>2024-6-16T14:49:2Z</time></trkpt>
<trkpt lat="46.23586" lon="7.28625"><ele></ele><time>2024-6-16T14:49:5Z</time></trkpt>
<trkpt lat="46.23582" lon="7.2861"><ele></ele><time>2024-6-16T14:49:8Z</time></trkpt>
<trkpt lat="46.23579" lon="7.28581"><ele></ele><time>2024-6-16T14:49:11Z</time></trkpt>
<trkpt lat="46.23577" lon="7.2857"><ele></ele><time>2024-6-16T14:49:14Z</time></trkpt>
<trkpt lat="46.23575" lon="7.28559"><ele></ele><time>2024-6-16T14:49:17Z</time></trkpt>
<trkpt lat="46.23569" lon="7.28535"><ele></ele><time>2024-6-16T14:49:20Z</time></trkpt>
<trkpt lat="46.23566" lon="7.28523"><ele></ele><time>2024-6-16T14:49:23Z</time></trkpt>
<trkpt lat="46.23562" lon="7.2851"><ele></ele><time>2024-6-16T14:49:26Z</time></trkpt>
<trkpt lat="46.23556" lon="7.28484"><ele></ele><time>2024-6-16T14:49:29Z</time></trkpt>
<trkpt lat="46.2355" lon="7.28458"><ele></ele><time>2024-6-16T14:49:32Z</time></trkpt>
<trkpt lat="46.23547" lon="7.28431"><ele></ele><time>2024-6-16T14:49:35Z</time></trkpt>
<trkpt lat="46.23545" lon="7.28406"><ele></ele><time>2024-6-16T14:49:38Z</time></trkpt>
<trkpt lat="46.2354" lon="7.28385"><ele></ele><time>2024-6-16T14:49:41Z</time></trkpt>
<trkpt lat="46.2353" lon="7.2837"><ele></ele><time>2024-6-16T14:49:44Z</time></trkpt>
<trkpt lat="46.23525" lon="7.28363"><ele></ele><time>2024-6-16T14:49:47Z</time></trkpt>
<trkpt lat="46.23522" lon="7.28355"><ele></ele><time>2024-6-16T14:49:50Z</time></trkpt>
<trkpt lat="46.2352" lon="7.28346"><ele></ele><time>2024-6-16T14:49:53Z</time></trkpt>
<trkpt lat="46.23521" lon="7.28335"><ele></ele><time>2024-6-16T14:49:56Z</time></trkpt>
<trkpt lat="46.23522" lon="7.28324"><ele></ele><time>2024-6-16T14:49:59Z</time></trkpt>
<trkpt lat="46.23523" lon="7.28301"><ele></ele><time>2024-6-16T14:50:2Z</time></trkpt>
<trkpt lat="46.23522" lon="7.28288"><ele></ele><time>2024-6-16T14:50:5Z</time></trkpt>
<trkpt lat="46.23519" lon="7.28276"><ele></ele><time>2024-6-16T14:50:8Z</time></trkpt>
<trkpt lat="46.23509" lon="7.28255"><ele></ele><time>2024-6-16T14:50:11Z</time></trkpt>
<trkpt lat="46.23502" lon="7.28235"><ele></ele><time>2024-6-16T14:50:14Z</time></trkpt>
<trkpt lat="46.23501" lon="7.28223"><ele></ele><time>2024-6-16T14:50:17Z</time></trkpt>
<trkpt lat="46.23502" lon="7.28212"><ele></ele><time>2024-6-16T14:50:20Z</time></trkpt>
<trkpt lat="46.23498" lon="7.28189"><ele></ele><time>2024-6-16T14:50:23Z</time></trkpt>
<trkpt lat="46.23489" lon="7.28167"><ele></ele><time>2024-6-16T14:50:26Z</time></trkpt>
<trkpt lat="46.23484" lon="7.28157"><ele></ele><time>2024-6-16T14:50:29Z</time></trkpt>
<trkpt lat="46.23478" lon="7.28146"><ele></ele><time>2024-6-16T14:50:32Z</time></trkpt>
<trkpt lat="46.23467" lon="7.28125"><ele></ele><time>2024-6-16T14:50:35Z</time></trkpt>
<trkpt lat="46.23462" lon="7.28118"><ele></ele><time>2024-6-16T14:50:38Z</time></trkpt>
<trkpt lat="46.23457" lon="7.28112"><ele></ele><time>2024-6-16T14:50:41Z</time></trkpt>
<trkpt lat="46.23453" lon="7.28108"><ele></ele><time>2024-6-16T14:50:44Z</time></trkpt>
<trkpt lat="46.23449" lon="7.28103"><ele></ele><time>2024-6-16T14:50:47Z</time></trkpt>
<trkpt lat="46.23446" lon="7.28092"><ele></ele><time>2024-6-16T14:50:50Z</time></trkpt>
<trkpt lat="46.23445" lon="7.28085"><ele></ele><time>2024-6-16T14:50:53Z</time></trkpt>
<trkpt lat="46.23446" lon="7.28078"><ele></ele><time>2024-6-16T14:50:56Z</time></trkpt>
<trkpt lat="46.23448" lon="7.2807"><ele></ele><time>2024-6-16T14:50:59Z</time></trkpt>
<trkpt lat="46.23452" lon="7.28063"><ele></ele><time>2024-6-16T14:51:2Z</time></trkpt>
<trkpt lat="46.23462" lon="7.28048"><ele></ele><time>2024-6-16T14:51:5Z</time></trkpt>
<trkpt lat="46.23465" lon="7.28039"><ele></ele><time>2024-6-16T14:51:8Z</time></trkpt>
<trkpt lat="46.23466" lon="7.28028"><ele></ele><time>2024-6-16T14:51:11Z</time></trkpt>
<trkpt lat="46.23462" lon="7.28017"><ele></ele><time>2024-6-16T14:51:14Z</time></trkpt>
<trkpt lat="46.23456" lon="7.28008"><ele></ele><time>2024-6-16T14:51:17Z</time></trkpt>
<trkpt lat="46.23446" lon="7.27989"><ele></ele><time>2024-6-16T14:51:20Z</time></trkpt>
<trkpt lat="46.23442" lon="7.27977"><ele></ele><time>2024-6-16T14:51:23Z</time></trkpt>
<trkpt lat="46.23433" lon="7.27956"><ele></ele><time>2024-6-16T14:51:26Z</time></trkpt>
<trkpt lat="46.23417" lon="7.27942"><ele></ele><time>2024-6-16T14:51:29Z</time></trkpt>
<trkpt lat="46.23408" lon="7.27938"><ele></ele><time>2024-6-16T14:51:32Z</time></trkpt>
<trkpt lat="46.23399" lon="7.27932"><ele></ele><time>2024-6-16T14:51:35Z</time></trkpt>
<trkpt lat="46.23391" lon="7.27924"><ele></ele><time>2024-6-16T14:51:38Z</time></trkpt>
<trkpt lat="46.23384" lon="7.27914"><ele></ele><time>2024-6-16T14:51:41Z</time></trkpt>
<trkpt lat="46.23365" lon="7.27881"><ele></ele><time>2024-6-16T14:51:44Z</time></trkpt>
<trkpt lat="46.2335" lon="7.27863"><ele></ele><time>2024-6-16T14:51:47Z</time></trkpt>
<trkpt lat="46.23336" lon="7.2785"><ele></ele><time>2024-6-16T14:51:50Z</time></trkpt>
<trkpt lat="46.2333" lon="7.27842"><ele></ele><time>2024-6-16T14:51:53Z</time></trkpt>
<trkpt lat="46.23326" lon="7.27834"><ele></ele><time>2024-6-16T14:51:56Z</time></trkpt>
<trkpt lat="46.23322" lon="7.27825"><ele></ele><time>2024-6-16T14:51:59Z</time></trkpt>
<trkpt lat="46.23315" lon="7.27808"><ele></ele><time>2024-6-16T14:52:2Z</time></trkpt>
<trkpt lat="46.2331" lon="7.27801"><ele></ele><time>2024-6-16T14:52:5Z</time></trkpt>
<trkpt lat="46.23293" lon="7.27773"><ele></ele><time>2024-6-16T14:52:8Z</time></trkpt>
<trkpt lat="46.2329" lon="7.27766"><ele></ele><time>2024-6-16T14:52:11Z</time></trkpt>
<trkpt lat="46.23287" lon="7.27758"><ele></ele><time>2024-6-16T14:52:14Z</time></trkpt>
<trkpt lat="46.23276" lon="7.27728"><ele></ele><time>2024-6-16T14:52:17Z</time></trkpt>
<trkpt lat="46.23274" lon="7.27711"><ele></ele><time>2024-6-16T14:52:20Z</time></trkpt>
<trkpt lat="46.23275" lon="7.27684"><ele></ele><time>2024-6-16T14:52:23Z</time></trkpt>
<trkpt lat="46.23272" lon="7.27665"><ele></ele><time>2024-6-16T14:52:26Z</time></trkpt>
<trkpt lat="46.23262" lon="7.27656"><ele></ele><time>2024-6-16T14:52:29Z</time></trkpt>
<trkpt lat="46.23256" lon="7.27655"><ele></ele><time>2024-6-16T14:52:32Z</time></trkpt>
<trkpt lat="46.2325" lon="7.27655"><ele></ele><time>2024-6-16T14:52:35Z</time></trkpt>
<trkpt lat="46.23244" lon="7.27653"><ele></ele><time>2024-6-16T14:52:38Z</time></trkpt>
<trkpt lat="46.2324" lon="7.27649"><ele></ele><time>2024-6-16T14:52:41Z</time></trkpt>
<trkpt lat="46.23231" lon="7.27639"><ele></ele><time>2024-6-16T14:52:44Z</time></trkpt>
<trkpt lat="46.23226" lon="7.27634"><ele></ele><time>2024-6-16T14:52:47Z</time></trkpt>
<trkpt lat="46.23212" lon="7.27613"><ele></ele><time>2024-6-16T14:52:50Z</time></trkpt>
<trkpt lat="46.23209" lon="7.2761"><ele></ele><time>2024-6-16T14:52:53Z</time></trkpt>
<trkpt lat="46.23204" lon="7.27603"><ele></ele><time>2024-6-16T14:52:56Z</time></trkpt>
<trkpt lat="46.23203" lon="7.27602"><ele></ele><time>2024-6-16T14:52:59Z</time></trkpt>
<trkpt lat="46.23202" lon="7.27601"><ele></ele><time>2024-6-16T14:53:2Z</time></trkpt>
<trkpt lat="46.23201" lon="7.27598"><ele></ele><time>2024-6-16T14:53:5Z</time></trkpt>
<trkpt lat="46.232" lon="7.27597"><ele></ele><time>2024-6-16T14:53:8Z</time></trkpt>
<trkpt lat="46.23203" lon="7.276"><ele></ele><time>2024-6-16T14:53:11Z</time></trkpt>
<trkpt lat="46.23204" lon="7.27604"><ele></ele><time>2024-6-16T14:53:14Z</time></trkpt>
<trkpt lat="46.23209" lon="7.27617"><ele></ele><time>2024-6-16T14:53:17Z</time></trkpt>
<trkpt lat="46.23212" lon="7.27625"><ele></ele><time>2024-6-16T14:53:20Z</time></trkpt>
<trkpt lat="46.23216" lon="7.27634"><ele></ele><time>2024-6-16T14:53:23Z</time></trkpt>
<trkpt lat="46.2322" lon="7.27645"><ele></ele><time>2024-6-16T14:53:26Z</time></trkpt>
<trkpt lat="46.23224" lon="7.27654"><ele></ele><time>2024-6-16T14:53:29Z</time></trkpt>
<trkpt lat="46.23226" lon="7.27657"><ele></ele><time>2024-6-16T14:53:32Z</time></trkpt>
<trkpt lat="46.23232" lon="7.27668"><ele></ele><time>2024-6-16T14:53:35Z</time></trkpt>
<trkpt lat="46.23231" lon="7.27672"><ele></ele><time>2024-6-16T14:53:38Z</time></trkpt>
<trkpt lat="46.2323" lon="7.27676"><ele></ele><time>2024-6-16T14:53:41Z</time></trkpt>
<trkpt lat="46.23227" lon="7.27678"><ele></ele><time>2024-6-16T14:53:44Z</time></trkpt>
<trkpt lat="46.23223" lon="7.27679"><ele></ele><time>2024-6-16T14:53:47Z</time></trkpt>
<trkpt lat="46.2322" lon="7.2768"><ele></ele><time>2024-6-16T14:53:50Z</time></trkpt>
<trkpt lat="46.23219" lon="7.2768"><ele></ele><time>2024-6-16T14:53:53Z</time></trkpt>
<trkpt lat="46.23218" lon="7.2768"><ele></ele><time>2024-6-16T14:53:56Z</time></trkpt>
<trkpt lat="46.23218" lon="7.27685"><ele></ele><time>2024-6-16T14:53:59Z</time></trkpt>
<trkpt lat="46.23218" lon="7.27684"><ele></ele><time>2024-6-16T14:54:2Z</time></trkpt>
<trkpt lat="46.2322" lon="7.27683"><ele></ele><time>2024-6-16T14:54:5Z</time></trkpt>
<trkpt lat="46.23222" lon="7.27684"><ele></ele><time>2024-6-16T14:54:8Z</time></trkpt>
<trkpt lat="46.23223" lon="7.27684"><ele></ele><time>2024-6-16T14:54:11Z</time></trkpt>
<trkpt lat="46.23228" lon="7.27687"><ele></ele><time>2024-6-16T14:54:14Z</time></trkpt>
<trkpt lat="46.23229" lon="7.27689"><ele></ele><time>2024-6-16T14:54:17Z</time></trkpt>
<trkpt lat="46.23229" lon="7.2769"><ele></ele><time>2024-6-16T14:54:20Z</time></trkpt>
<trkpt lat="46.23233" lon="7.27697"><ele></ele><time>2024-6-16T14:54:23Z</time></trkpt>
<trkpt lat="46.23233" lon="7.27699"><ele></ele><time>2024-6-16T14:54:26Z</time></trkpt>
<trkpt lat="46.23231" lon="7.27705"><ele></ele><time>2024-6-16T14:54:29Z</time></trkpt>
<trkpt lat="46.23229" lon="7.27717"><ele></ele><time>2024-6-16T14:54:32Z</time></trkpt>
<trkpt lat="46.23229" lon="7.27721"><ele></ele><time>2024-6-16T14:54:35Z</time></trkpt>
<trkpt lat="46.23231" lon="7.27746"><ele></ele><time>2024-6-16T14:54:38Z</time></trkpt>
<trkpt lat="46.23231" lon="7.27762"><ele></ele><time>2024-6-16T14:54:41Z</time></trkpt>
<trkpt lat="46.23229" lon="7.27784"><ele></ele><time>2024-6-16T14:54:44Z</time></trkpt>
<trkpt lat="46.23232" lon="7.27797"><ele></ele><time>2024-6-16T14:54:47Z</time></trkpt>
<trkpt lat="46.23235" lon="7.2781"><ele></ele><time>2024-6-16T14:54:50Z</time></trkpt>
<trkpt lat="46.23243" lon="7.27841"><ele></ele><time>2024-6-16T14:54:53Z</time></trkpt>
<trkpt lat="46.23243" lon="7.27852"><ele></ele><time>2024-6-16T14:54:56Z</time></trkpt>
<trkpt lat="46.23241" lon="7.27863"><ele></ele><time>2024-6-16T14:54:59Z</time></trkpt>
<trkpt lat="46.23241" lon="7.27876"><ele></ele><time>2024-6-16T14:55:2Z</time></trkpt>
<trkpt lat="46.23244" lon="7.27887"><ele></ele><time>2024-6-16T14:55:5Z</time></trkpt>
<trkpt lat="46.23247" lon="7.27893"><ele></ele><time>2024-6-16T14:55:8Z</time></trkpt>
<trkpt lat="46.23249" lon="7.27898"><ele></ele><time>2024-6-16T14:55:11Z</time></trkpt>
<trkpt lat="46.23251" lon="7.27907"><ele></ele><time>2024-6-16T14:55:14Z</time></trkpt>
<trkpt lat="46.23249" lon="7.27911"><ele></ele><time>2024-6-16T14:55:17Z</time></trkpt>
<trkpt lat="46.23245" lon="7.27915"><ele></ele><time>2024-6-16T14:55:20Z</time></trkpt>
<trkpt lat="46.23237" lon="7.27922"><ele></ele><time>2024-6-16T14:55:23Z</time></trkpt>
<trkpt lat="46.23233" lon="7.27926"><ele></ele><time>2024-6-16T14:55:26Z</time></trkpt>
<trkpt lat="46.23226" lon="7.27933"><ele></ele><time>2024-6-16T14:55:29Z</time></trkpt>
<trkpt lat="46.23221" lon="7.27937"><ele></ele><time>2024-6-16T14:55:32Z</time></trkpt>
<trkpt lat="46.23219" lon="7.2794"><ele></ele><time>2024-6-16T14:55:35Z</time></trkpt>
<trkpt lat="46.23216" lon="7.27941"><ele></ele><time>2024-6-16T14:55:38Z</time></trkpt>
<trkpt lat="46.23214" lon="7.27941"><ele></ele><time>2024-6-16T14:55:41Z</time></trkpt>
<trkpt lat="46.23207" lon="7.27936"><ele></ele><time>2024-6-16T14:55:44Z</time></trkpt>
<trkpt lat="46.23199" lon="7.27925"><ele></ele><time>2024-6-16T14:55:47Z</time></trkpt>
<trkpt lat="46.23192" lon="7.27913"><ele></ele><time>2024-6-16T14:55:50Z</time></trkpt>
<trkpt lat="46.23184" lon="7.27902"><ele></ele><time>2024-6-16T14:55:53Z</time></trkpt>
<trkpt lat="46.23181" lon="7.27897"><ele></ele><time>2024-6-16T14:55:56Z</time></trkpt>
<trkpt lat="46.23179" lon="7.27891"><ele></ele><time>2024-6-16T14:55:59Z</time></trkpt>
<trkpt lat="46.23176" lon="7.27886"><ele></ele><time>2024-6-16T14:56:2Z</time></trkpt>
<trkpt lat="46.23174" lon="7.27873"><ele></ele><time>2024-6-16T14:56:5Z</time></trkpt>
<trkpt lat="46.23173" lon="7.27866"><ele></ele><time>2024-6-16T14:56:8Z</time></trkpt>
<trkpt lat="46.23173" lon="7.27859"><ele></ele><time>2024-6-16T14:56:11Z</time></trkpt>
<trkpt lat="46.23172" lon="7.27852"><ele></ele><time>2024-6-16T14:56:14Z</time></trkpt>
<trkpt lat="46.23171" lon="7.27844"><ele></ele><time>2024-6-16T14:56:17Z</time></trkpt>
<trkpt lat="46.23171" lon="7.27836"><ele></ele><time>2024-6-16T14:56:20Z</time></trkpt>
<trkpt lat="46.23173" lon="7.27822"><ele></ele><time>2024-6-16T14:56:23Z</time></trkpt>
<trkpt lat="46.23174" lon="7.27817"><ele></ele><time>2024-6-16T14:56:26Z</time></trkpt>
<trkpt lat="46.23175" lon="7.27814"><ele></ele><time>2024-6-16T14:56:29Z</time></trkpt>
<trkpt lat="46.23176" lon="7.27805"><ele></ele><time>2024-6-16T14:56:32Z</time></trkpt>
<trkpt lat="46.23174" lon="7.278"><ele></ele><time>2024-6-16T14:56:35Z</time></trkpt>
<trkpt lat="46.23169" lon="7.27799"><ele></ele><time>2024-6-16T14:56:38Z</time></trkpt>
<trkpt lat="46.23164" lon="7.27802"><ele></ele><time>2024-6-16T14:56:41Z</time></trkpt>
<trkpt lat="46.23159" lon="7.27807"><ele></ele><time>2024-6-16T14:56:44Z</time></trkpt>
<trkpt lat="46.23153" lon="7.27811"><ele></ele><time>2024-6-16T14:56:47Z</time></trkpt>
<trkpt lat="46.23142" lon="7.27815"><ele></ele><time>2024-6-16T14:56:50Z</time></trkpt>
<trkpt lat="46.23132" lon="7.27815"><ele></ele><time>2024-6-16T14:56:53Z</time></trkpt>
<trkpt lat="46.23123" lon="7.27808"><ele></ele><time>2024-6-16T14:56:56Z</time></trkpt>
<trkpt lat="46.23113" lon="7.27801"><ele></ele><time>2024-6-16T14:56:59Z</time></trkpt>
<trkpt lat="46.23108" lon="7.27797"><ele></ele><time>2024-6-16T14:57:2Z</time></trkpt>
<trkpt lat="46.23104" lon="7.27792"><ele></ele><time>2024-6-16T14:57:5Z</time></trkpt>
<trkpt lat="46.23096" lon="7.27782"><ele></ele><time>2024-6-16T14:57:8Z</time></trkpt>
<trkpt lat="46.23093" lon="7.27776"><ele></ele><time>2024-6-16T14:57:11Z</time></trkpt>
<trkpt lat="46.23072" lon="7.27736"><ele></ele><time>2024-6-16T14:57:14Z</time></trkpt>
<trkpt lat="46.23055" lon="7.27706"><ele></ele><time>2024-6-16T14:57:17Z</time></trkpt>
<trkpt lat="46.23052" lon="7.27702"><ele></ele><time>2024-6-16T14:57:20Z</time></trkpt>
<trkpt lat="46.23048" lon="7.27697"><ele></ele><time>2024-6-16T14:57:23Z</time></trkpt>
<trkpt lat="46.23043" lon="7.27692"><ele></ele><time>2024-6-16T14:57:26Z</time></trkpt>
<trkpt lat="46.23033" lon="7.27681"><ele></ele><time>2024-6-16T14:57:29Z</time></trkpt>
<trkpt lat="46.23029" lon="7.27676"><ele></ele><time>2024-6-16T14:57:32Z</time></trkpt>
<trkpt lat="46.23024" lon="7.2767"><ele></ele><time>2024-6-16T14:57:35Z</time></trkpt>
<trkpt lat="46.23015" lon="7.27658"><ele></ele><time>2024-6-16T14:57:38Z</time></trkpt>
<trkpt lat="46.23003" lon="7.27644"><ele></ele><time>2024-6-16T14:57:41Z</time></trkpt>
<trkpt lat="46.22996" lon="7.27638"><ele></ele><time>2024-6-16T14:57:44Z</time></trkpt>
<trkpt lat="46.22987" lon="7.27631"><ele></ele><time>2024-6-16T14:57:47Z</time></trkpt>
<trkpt lat="46.2297" lon="7.27616"><ele></ele><time>2024-6-16T14:57:50Z</time></trkpt>
<trkpt lat="46.22961" lon="7.27607"><ele></ele><time>2024-6-16T14:57:53Z</time></trkpt>
<trkpt lat="46.22943" lon="7.27587"><ele></ele><time>2024-6-16T14:57:56Z</time></trkpt>
<trkpt lat="46.22936" lon="7.27576"><ele></ele><time>2024-6-16T14:57:59Z</time></trkpt>
<trkpt lat="46.22929" lon="7.27566"><ele></ele><time>2024-6-16T14:58:2Z</time></trkpt>
<trkpt lat="46.2292" lon="7.27547"><ele></ele><time>2024-6-16T14:58:5Z</time></trkpt>
<trkpt lat="46.22916" lon="7.27539"><ele></ele><time>2024-6-16T14:58:8Z</time></trkpt>
<trkpt lat="46.22911" lon="7.27532"><ele></ele><time>2024-6-16T14:58:11Z</time></trkpt>
<trkpt lat="46.22906" lon="7.27526"><ele></ele><time>2024-6-16T14:58:14Z</time></trkpt>
<trkpt lat="46.229" lon="7.27521"><ele></ele><time>2024-6-16T14:58:17Z</time></trkpt>
<trkpt lat="46.22893" lon="7.27518"><ele></ele><time>2024-6-16T14:58:20Z</time></trkpt>
<trkpt lat="46.22886" lon="7.27513"><ele></ele><time>2024-6-16T14:58:23Z</time></trkpt>
<trkpt lat="46.22878" lon="7.27505"><ele></ele><time>2024-6-16T14:58:26Z</time></trkpt>
<trkpt lat="46.2287" lon="7.27498"><ele></ele><time>2024-6-16T14:58:29Z</time></trkpt>
<trkpt lat="46.22861" lon="7.27492"><ele></ele><time>2024-6-16T14:58:32Z</time></trkpt>
<trkpt lat="46.22852" lon="7.27487"><ele></ele><time>2024-6-16T14:58:35Z</time></trkpt>
<trkpt lat="46.22844" lon="7.27482"><ele></ele><time>2024-6-16T14:58:38Z</time></trkpt>
<trkpt lat="46.22835" lon="7.27477"><ele></ele><time>2024-6-16T14:58:41Z</time></trkpt>
<trkpt lat="46.22827" lon="7.27472"><ele></ele><time>2024-6-16T14:58:44Z</time></trkpt>
<trkpt lat="46.22812" lon="7.2746"><ele></ele><time>2024-6-16T14:58:47Z</time></trkpt>
<trkpt lat="46.22806" lon="7.27453"><ele></ele><time>2024-6-16T14:58:50Z</time></trkpt>
<trkpt lat="46.228" lon="7.27446"><ele></ele><time>2024-6-16T14:58:53Z</time></trkpt>
<trkpt lat="46.22786" lon="7.27434"><ele></ele><time>2024-6-16T14:58:56Z</time></trkpt>
<trkpt lat="46.22772" lon="7.27422"><ele></ele><time>2024-6-16T14:58:59Z</time></trkpt>
<trkpt lat="46.22764" lon="7.27415"><ele></ele><time>2024-6-16T14:59:2Z</time></trkpt>
<trkpt lat="46.22756" lon="7.27409"><ele></ele><time>2024-6-16T14:59:5Z</time></trkpt>
<trkpt lat="46.2274" lon="7.27396"><ele></ele><time>2024-6-16T14:59:8Z</time></trkpt>
<trkpt lat="46.22733" lon="7.2739"><ele></ele><time>2024-6-16T14:59:11Z</time></trkpt>
<trkpt lat="46.22719" lon="7.27378"><ele></ele><time>2024-6-16T14:59:14Z</time></trkpt>
<trkpt lat="46.22706" lon="7.27368"><ele></ele><time>2024-6-16T14:59:17Z</time></trkpt>
<trkpt lat="46.227" lon="7.27365"><ele></ele><time>2024-6-16T14:59:20Z</time></trkpt>
<trkpt lat="46.22693" lon="7.27362"><ele></ele><time>2024-6-16T14:59:23Z</time></trkpt>
<trkpt lat="46.22688" lon="7.2736"><ele></ele><time>2024-6-16T14:59:26Z</time></trkpt>
<trkpt lat="46.22683" lon="7.27358"><ele></ele><time>2024-6-16T14:59:29Z</time></trkpt>
<trkpt lat="46.22675" lon="7.2735"><ele></ele><time>2024-6-16T14:59:32Z</time></trkpt>
<trkpt lat="46.22679" lon="7.27341"><ele></ele><time>2024-6-16T14:59:35Z</time></trkpt>
<trkpt lat="46.22691" lon="7.27343"><ele></ele><time>2024-6-16T14:59:38Z</time></trkpt>
<trkpt lat="46.22698" lon="7.27342"><ele></ele><time>2024-6-16T14:59:41Z</time></trkpt>
<trkpt lat="46.22703" lon="7.27336"><ele></ele><time>2024-6-16T14:59:44Z</time></trkpt>
<trkpt lat="46.22705" lon="7.27328"><ele></ele><time>2024-6-16T14:59:47Z</time></trkpt>
<trkpt lat="46.22704" lon="7.27318"><ele></ele><time>2024-6-16T14:59:50Z</time></trkpt>
<trkpt lat="46.22702" lon="7.27309"><ele></ele><time>2024-6-16T14:59:53Z</time></trkpt>
<trkpt lat="46.22698" lon="7.273"><ele></ele><time>2024-6-16T14:59:56Z</time></trkpt>
<trkpt lat="46.22688" lon="7.27284"><ele></ele><time>2024-6-16T14:59:59Z</time></trkpt>
<trkpt lat="46.22676" lon="7.2727"><ele></ele><time>2024-6-16T15:0:2Z</time></trkpt>
<trkpt lat="46.22664" lon="7.27255"><ele></ele><time>2024-6-16T15:0:5Z</time></trkpt>
<trkpt lat="46.22658" lon="7.27247"><ele></ele><time>2024-6-16T15:0:8Z</time></trkpt>
<trkpt lat="46.22652" lon="7.27238"><ele></ele><time>2024-6-16T15:0:11Z</time></trkpt>
<trkpt lat="46.2264" lon="7.27219"><ele></ele><time>2024-6-16T15:0:14Z</time></trkpt>
<trkpt lat="46.22627" lon="7.27199"><ele></ele><time>2024-6-16T15:0:17Z</time></trkpt>
<trkpt lat="46.22619" lon="7.27191"><ele></ele><time>2024-6-16T15:0:20Z</time></trkpt>
<trkpt lat="46.22612" lon="7.27184"><ele></ele><time>2024-6-16T15:0:23Z</time></trkpt>
<trkpt lat="46.22605" lon="7.27177"><ele></ele><time>2024-6-16T15:0:26Z</time></trkpt>
<trkpt lat="46.226" lon="7.27172"><ele></ele><time>2024-6-16T15:0:29Z</time></trkpt>
<trkpt lat="46.22595" lon="7.27168"><ele></ele><time>2024-6-16T15:0:32Z</time></trkpt>
<trkpt lat="46.2259" lon="7.27164"><ele></ele><time>2024-6-16T15:0:35Z</time></trkpt>
<trkpt lat="46.22586" lon="7.27163"><ele></ele><time>2024-6-16T15:0:38Z</time></trkpt>
<trkpt lat="46.22582" lon="7.27166"><ele></ele><time>2024-6-16T15:0:41Z</time></trkpt>
<trkpt lat="46.22579" lon="7.27178"><ele></ele><time>2024-6-16T15:0:44Z</time></trkpt>
<trkpt lat="46.22578" lon="7.27184"><ele></ele><time>2024-6-16T15:0:47Z</time></trkpt>
<trkpt lat="46.22578" lon="7.27197"><ele></ele><time>2024-6-16T15:0:50Z</time></trkpt>
<trkpt lat="46.22578" lon="7.27209"><ele></ele><time>2024-6-16T15:0:53Z</time></trkpt>
<trkpt lat="46.22577" lon="7.27238"><ele></ele><time>2024-6-16T15:0:56Z</time></trkpt>
<trkpt lat="46.22577" lon="7.27279"><ele></ele><time>2024-6-16T15:0:59Z</time></trkpt>
<trkpt lat="46.22578" lon="7.27296"><ele></ele><time>2024-6-16T15:1:2Z</time></trkpt>
<trkpt lat="46.22577" lon="7.27305"><ele></ele><time>2024-6-16T15:1:5Z</time></trkpt>
<trkpt lat="46.22576" lon="7.27313"><ele></ele><time>2024-6-16T15:1:8Z</time></trkpt>
<trkpt lat="46.22577" lon="7.27321"><ele></ele><time>2024-6-16T15:1:11Z</time></trkpt>
<trkpt lat="46.22582" lon="7.27335"><ele></ele><time>2024-6-16T15:1:14Z</time></trkpt>
<trkpt lat="46.22586" lon="7.27342"><ele></ele><time>2024-6-16T15:1:17Z</time></trkpt>
<trkpt lat="46.22592" lon="7.27359"><ele></ele><time>2024-6-16T15:1:20Z</time></trkpt>
<trkpt lat="46.22596" lon="7.27383"><ele></ele><time>2024-6-16T15:1:23Z</time></trkpt>
<trkpt lat="46.22597" lon="7.27395"><ele></ele><time>2024-6-16T15:1:26Z</time></trkpt>
<trkpt lat="46.22598" lon="7.27407"><ele></ele><time>2024-6-16T15:1:29Z</time></trkpt>
<trkpt lat="46.22598" lon="7.27418"><ele></ele><time>2024-6-16T15:1:32Z</time></trkpt>
<trkpt lat="46.22601" lon="7.27428"><ele></ele><time>2024-6-16T15:1:35Z</time></trkpt>
<trkpt lat="46.22604" lon="7.27437"><ele></ele><time>2024-6-16T15:1:38Z</time></trkpt>
<trkpt lat="46.2261" lon="7.27444"><ele></ele><time>2024-6-16T15:1:41Z</time></trkpt>
<trkpt lat="46.22615" lon="7.27452"><ele></ele><time>2024-6-16T15:1:44Z</time></trkpt>
<trkpt lat="46.2262" lon="7.27461"><ele></ele><time>2024-6-16T15:1:47Z</time></trkpt>
<trkpt lat="46.22633" lon="7.27487"><ele></ele><time>2024-6-16T15:1:50Z</time></trkpt>
<trkpt lat="46.2266" lon="7.2753"><ele></ele><time>2024-6-16T15:1:53Z</time></trkpt>
<trkpt lat="46.22663" lon="7.27537"><ele></ele><time>2024-6-16T15:1:56Z</time></trkpt>
<trkpt lat="46.22666" lon="7.27554"><ele></ele><time>2024-6-16T15:1:59Z</time></trkpt>
<trkpt lat="46.22667" lon="7.27561"><ele></ele><time>2024-6-16T15:2:2Z</time></trkpt>
<trkpt lat="46.22668" lon="7.27567"><ele></ele><time>2024-6-16T15:2:5Z</time></trkpt>
<trkpt lat="46.2267" lon="7.27573"><ele></ele><time>2024-6-16T15:2:8Z</time></trkpt>
<trkpt lat="46.22674" lon="7.27582"><ele></ele><time>2024-6-16T15:2:11Z</time></trkpt>
<trkpt lat="46.22676" lon="7.27586"><ele></ele><time>2024-6-16T15:2:14Z</time></trkpt>
<trkpt lat="46.22682" lon="7.27595"><ele></ele><time>2024-6-16T15:2:17Z</time></trkpt>
<trkpt lat="46.22686" lon="7.276"><ele></ele><time>2024-6-16T15:2:20Z</time></trkpt>
<trkpt lat="46.22694" lon="7.27612"><ele></ele><time>2024-6-16T15:2:23Z</time></trkpt>
<trkpt lat="46.22697" lon="7.27614"><ele></ele><time>2024-6-16T15:2:26Z</time></trkpt>
<trkpt lat="46.22704" lon="7.27626"><ele></ele><time>2024-6-16T15:2:29Z</time></trkpt>
<trkpt lat="46.22708" lon="7.27631"><ele></ele><time>2024-6-16T15:2:32Z</time></trkpt>
<trkpt lat="46.22715" lon="7.27641"><ele></ele><time>2024-6-16T15:2:35Z</time></trkpt>
<trkpt lat="46.22723" lon="7.27654"><ele></ele><time>2024-6-16T15:2:38Z</time></trkpt>
<trkpt lat="46.22726" lon="7.27659"><ele></ele><time>2024-6-16T15:2:41Z</time></trkpt>
<trkpt lat="46.22729" lon="7.27664"><ele></ele><time>2024-6-16T15:2:44Z</time></trkpt>
<trkpt lat="46.22731" lon="7.27666"><ele></ele><time>2024-6-16T15:2:47Z</time></trkpt>
<trkpt lat="46.22733" lon="7.27669"><ele></ele><time>2024-6-16T15:2:50Z</time></trkpt>
<trkpt lat="46.22734" lon="7.27672"><ele></ele><time>2024-6-16T15:2:53Z</time></trkpt>
<trkpt lat="46.22736" lon="7.27674"><ele></ele><time>2024-6-16T15:2:56Z</time></trkpt>
<trkpt lat="46.22738" lon="7.27676"><ele></ele><time>2024-6-16T15:2:59Z</time></trkpt>
<trkpt lat="46.2275" lon="7.27697"><ele></ele><time>2024-6-16T15:3:2Z</time></trkpt>
<trkpt lat="46.22767" lon="7.27726"><ele></ele><time>2024-6-16T15:3:5Z</time></trkpt>
<trkpt lat="46.22771" lon="7.27737"><ele></ele><time>2024-6-16T15:3:8Z</time></trkpt>
<trkpt lat="46.22772" lon="7.27749"><ele></ele><time>2024-6-16T15:3:11Z</time></trkpt>
<trkpt lat="46.22774" lon="7.27763"><ele></ele><time>2024-6-16T15:3:14Z</time></trkpt>
<trkpt lat="46.22781" lon="7.27792"><ele></ele><time>2024-6-16T15:3:17Z</time></trkpt>
<trkpt lat="46.22784" lon="7.27799"><ele></ele><time>2024-6-16T15:3:20Z</time></trkpt>
<trkpt lat="46.22791" lon="7.27814"><ele></ele><time>2024-6-16T15:3:23Z</time></trkpt>
<trkpt lat="46.22796" lon="7.27822"><ele></ele><time>2024-6-16T15:3:26Z</time></trkpt>
<trkpt lat="46.22801" lon="7.2783"><ele></ele><time>2024-6-16T15:3:29Z</time></trkpt>
<trkpt lat="46.22804" lon="7.27839"><ele></ele><time>2024-6-16T15:3:32Z</time></trkpt>
<trkpt lat="46.22806" lon="7.27849"><ele></ele><time>2024-6-16T15:3:35Z</time></trkpt>
<trkpt lat="46.22805" lon="7.2786"><ele></ele><time>2024-6-16T15:3:38Z</time></trkpt>
<trkpt lat="46.22801" lon="7.27871"><ele></ele><time>2024-6-16T15:3:41Z</time></trkpt>
<trkpt lat="46.22797" lon="7.27881"><ele></ele><time>2024-6-16T15:3:44Z</time></trkpt>
<trkpt lat="46.22793" lon="7.27892"><ele></ele><time>2024-6-16T15:3:47Z</time></trkpt>
<trkpt lat="46.22785" lon="7.27914"><ele></ele><time>2024-6-16T15:3:50Z</time></trkpt>
<trkpt lat="46.22781" lon="7.27923"><ele></ele><time>2024-6-16T15:3:53Z</time></trkpt>
<trkpt lat="46.22778" lon="7.27933"><ele></ele><time>2024-6-16T15:3:56Z</time></trkpt>
<trkpt lat="46.22775" lon="7.27941"><ele></ele><time>2024-6-16T15:3:59Z</time></trkpt>
<trkpt lat="46.22769" lon="7.27955"><ele></ele><time>2024-6-16T15:4:2Z</time></trkpt>
<trkpt lat="46.22767" lon="7.27962"><ele></ele><time>2024-6-16T15:4:5Z</time></trkpt>
<trkpt lat="46.22765" lon="7.27967"><ele></ele><time>2024-6-16T15:4:8Z</time></trkpt>
<trkpt lat="46.22764" lon="7.27973"><ele></ele><time>2024-6-16T15:4:11Z</time></trkpt>
<trkpt lat="46.22766" lon="7.2798"><ele></ele><time>2024-6-16T15:4:14Z</time></trkpt>
<trkpt lat="46.2277" lon="7.27995"><ele></ele><time>2024-6-16T15:4:17Z</time></trkpt>
<trkpt lat="46.22775" lon="7.28014"><ele></ele><time>2024-6-16T15:4:20Z</time></trkpt>
<trkpt lat="46.22776" lon="7.28023"><ele></ele><time>2024-6-16T15:4:23Z</time></trkpt>
<trkpt lat="46.22776" lon="7.28033"><ele></ele><time>2024-6-16T15:4:26Z</time></trkpt>
<trkpt lat="46.22776" lon="7.28041"><ele></ele><time>2024-6-16T15:4:29Z</time></trkpt>
<trkpt lat="46.22774" lon="7.2805"><ele></ele><time>2024-6-16T15:4:32Z</time></trkpt>
<trkpt lat="46.22772" lon="7.28059"><ele></ele><time>2024-6-16T15:4:35Z</time></trkpt>
<trkpt lat="46.2277" lon="7.28067"><ele></ele><time>2024-6-16T15:4:38Z</time></trkpt>
<trkpt lat="46.22768" lon="7.28076"><ele></ele><time>2024-6-16T15:4:41Z</time></trkpt>
<trkpt lat="46.22766" lon="7.28085"><ele></ele><time>2024-6-16T15:4:44Z</time></trkpt>
<trkpt lat="46.22762" lon="7.28103"><ele></ele><time>2024-6-16T15:4:47Z</time></trkpt>
<trkpt lat="46.22759" lon="7.28113"><ele></ele><time>2024-6-16T15:4:50Z</time></trkpt>
<trkpt lat="46.22755" lon="7.28131"><ele></ele><time>2024-6-16T15:4:53Z</time></trkpt>
<trkpt lat="46.22751" lon="7.28145"><ele></ele><time>2024-6-16T15:4:56Z</time></trkpt>
<trkpt lat="46.2275" lon="7.2815"><ele></ele><time>2024-6-16T15:4:59Z</time></trkpt>
<trkpt lat="46.22745" lon="7.28161"><ele></ele><time>2024-6-16T15:5:2Z</time></trkpt>
<trkpt lat="46.22743" lon="7.28165"><ele></ele><time>2024-6-16T15:5:5Z</time></trkpt>
<trkpt lat="46.22743" lon="7.2817"><ele></ele><time>2024-6-16T15:5:8Z</time></trkpt>
<trkpt lat="46.22743" lon="7.28185"><ele></ele><time>2024-6-16T15:5:11Z</time></trkpt>
<trkpt lat="46.22743" lon="7.28193"><ele></ele><time>2024-6-16T15:5:14Z</time></trkpt>
<trkpt lat="46.22739" lon="7.282"><ele></ele><time>2024-6-16T15:5:17Z</time></trkpt>
<trkpt lat="46.22733" lon="7.28197"><ele></ele><time>2024-6-16T15:5:20Z</time></trkpt>
<trkpt lat="46.2273" lon="7.28193"><ele></ele><time>2024-6-16T15:5:23Z</time></trkpt>
<trkpt lat="46.22726" lon="7.28191"><ele></ele><time>2024-6-16T15:5:26Z</time></trkpt>
<trkpt lat="46.2272" lon="7.28192"><ele></ele><time>2024-6-16T15:5:29Z</time></trkpt>
<trkpt lat="46.22707" lon="7.28196"><ele></ele><time>2024-6-16T15:5:32Z</time></trkpt>
<trkpt lat="46.22696" lon="7.28199"><ele></ele><time>2024-6-16T15:5:35Z</time></trkpt>
<trkpt lat="46.22692" lon="7.282"><ele></ele><time>2024-6-16T15:5:38Z</time></trkpt>
<trkpt lat="46.22687" lon="7.28201"><ele></ele><time>2024-6-16T15:5:41Z</time></trkpt>
<trkpt lat="46.22686" lon="7.28205"><ele></ele><time>2024-6-16T15:5:44Z</time></trkpt>
<trkpt lat="46.22685" lon="7.28209"><ele></ele><time>2024-6-16T15:5:47Z</time></trkpt>
<trkpt lat="46.22688" lon="7.28234"><ele></ele><time>2024-6-16T15:5:50Z</time></trkpt>
<trkpt lat="46.22689" lon="7.28249"><ele></ele><time>2024-6-16T15:5:53Z</time></trkpt>
<trkpt lat="46.2269" lon="7.28261"><ele></ele><time>2024-6-16T15:5:56Z</time></trkpt>
<trkpt lat="46.22692" lon="7.28267"><ele></ele><time>2024-6-16T15:5:59Z</time></trkpt>
<trkpt lat="46.22692" lon="7.28273"><ele></ele><time>2024-6-16T15:6:2Z</time></trkpt>
<trkpt lat="46.22694" lon="7.28291"><ele></ele><time>2024-6-16T15:6:5Z</time></trkpt>
<trkpt lat="46.22689" lon="7.28301"><ele></ele><time>2024-6-16T15:6:8Z</time></trkpt>
<trkpt lat="46.22685" lon="7.28305"><ele></ele><time>2024-6-16T15:6:11Z</time></trkpt>
<trkpt lat="46.22667" lon="7.28325"><ele></ele><time>2024-6-16T15:6:14Z</time></trkpt>
<trkpt lat="46.22662" lon="7.2833"><ele></ele><time>2024-6-16T15:6:17Z</time></trkpt>
<trkpt lat="46.2265" lon="7.28338"><ele></ele><time>2024-6-16T15:6:20Z</time></trkpt>
<trkpt lat="46.2263" lon="7.28345"><ele></ele><time>2024-6-16T15:6:23Z</time></trkpt>
<trkpt lat="46.22618" lon="7.28346"><ele></ele><time>2024-6-16T15:6:26Z</time></trkpt>
<trkpt lat="46.22606" lon="7.28344"><ele></ele><time>2024-6-16T15:6:29Z</time></trkpt>
<trkpt lat="46.22601" lon="7.28343"><ele></ele><time>2024-6-16T15:6:32Z</time></trkpt>
<trkpt lat="46.22589" lon="7.2834"><ele></ele><time>2024-6-16T15:6:35Z</time></trkpt>
<trkpt lat="46.22579" lon="7.28339"><ele></ele><time>2024-6-16T15:6:38Z</time></trkpt>
<trkpt lat="46.22573" lon="7.28335"><ele></ele><time>2024-6-16T15:6:41Z</time></trkpt>
<trkpt lat="46.22571" lon="7.28333"><ele></ele><time>2024-6-16T15:6:44Z</time></trkpt>
<trkpt lat="46.22562" lon="7.28327"><ele></ele><time>2024-6-16T15:6:47Z</time></trkpt>
<trkpt lat="46.2255" lon="7.28329"><ele></ele><time>2024-6-16T15:6:50Z</time></trkpt>
<trkpt lat="46.22545" lon="7.2833"><ele></ele><time>2024-6-16T15:6:53Z</time></trkpt>
<trkpt lat="46.2254" lon="7.28333"><ele></ele><time>2024-6-16T15:6:56Z</time></trkpt>
<trkpt lat="46.22535" lon="7.28335"><ele></ele><time>2024-6-16T15:6:59Z</time></trkpt>
<trkpt lat="46.22516" lon="7.28345"><ele></ele><time>2024-6-16T15:7:2Z</time></trkpt>
<trkpt lat="46.22511" lon="7.28347"><ele></ele><time>2024-6-16T15:7:5Z</time></trkpt>
<trkpt lat="46.22502" lon="7.28353"><ele></ele><time>2024-6-16T15:7:8Z</time></trkpt>
<trkpt lat="46.22493" lon="7.28356"><ele></ele><time>2024-6-16T15:7:11Z</time></trkpt>
<trkpt lat="46.22488" lon="7.28358"><ele></ele><time>2024-6-16T15:7:14Z</time></trkpt>
<trkpt lat="46.2248" lon="7.28364"><ele></ele><time>2024-6-16T15:7:17Z</time></trkpt>
<trkpt lat="46.22469" lon="7.28368"><ele></ele><time>2024-6-16T15:7:20Z</time></trkpt>
<trkpt lat="46.22464" lon="7.28362"><ele></ele><time>2024-6-16T15:7:23Z</time></trkpt>
<trkpt lat="46.22462" lon="7.28357"><ele></ele><time>2024-6-16T15:7:26Z</time></trkpt>
<trkpt lat="46.22449" lon="7.28321"><ele></ele><time>2024-6-16T15:7:29Z</time></trkpt>
<trkpt lat="46.22442" lon="7.28303"><ele></ele><time>2024-6-16T15:7:32Z</time></trkpt>
<trkpt lat="46.22435" lon="7.28284"><ele></ele><time>2024-6-16T15:7:35Z</time></trkpt>
<trkpt lat="46.22428" lon="7.28265"><ele></ele><time>2024-6-16T15:7:38Z</time></trkpt>
<trkpt lat="46.22424" lon="7.28262"><ele></ele><time>2024-6-16T15:7:41Z</time></trkpt>
<trkpt lat="46.2242" lon="7.28261"><ele></ele><time>2024-6-16T15:7:44Z</time></trkpt>
<trkpt lat="46.22411" lon="7.28265"><ele></ele><time>2024-6-16T15:7:47Z</time></trkpt>
<trkpt lat="46.22402" lon="7.2827"><ele></ele><time>2024-6-16T15:7:50Z</time></trkpt>
<trkpt lat="46.22398" lon="7.28272"><ele></ele><time>2024-6-16T15:7:53Z</time></trkpt>
<trkpt lat="46.22368" lon="7.28286"><ele></ele><time>2024-6-16T15:7:56Z</time></trkpt>
<trkpt lat="46.22364" lon="7.28289"><ele></ele><time>2024-6-16T15:7:59Z</time></trkpt>
<trkpt lat="46.22356" lon="7.28293"><ele></ele><time>2024-6-16T15:8:2Z</time></trkpt>
<trkpt lat="46.22349" lon="7.28295"><ele></ele><time>2024-6-16T15:8:5Z</time></trkpt>
<trkpt lat="46.22333" lon="7.28303"><ele></ele><time>2024-6-16T15:8:8Z</time></trkpt>
<trkpt lat="46.22323" lon="7.28311"><ele></ele><time>2024-6-16T15:8:11Z</time></trkpt>
<trkpt lat="46.22323" lon="7.28317"><ele></ele><time>2024-6-16T15:8:14Z</time></trkpt>
<trkpt lat="46.22323" lon="7.28323"><ele></ele><time>2024-6-16T15:8:17Z</time></trkpt>
<trkpt lat="46.22323" lon="7.28327"><ele></ele><time>2024-6-16T15:8:20Z</time></trkpt>
<trkpt lat="46.2232" lon="7.28328"><ele></ele><time>2024-6-16T15:8:23Z</time></trkpt>
<trkpt lat="46.22319" lon="7.28328"><ele></ele><time>2024-6-16T15:8:26Z</time></trkpt>
<trkpt lat="46.22322" lon="7.28325"><ele></ele><time>2024-6-16T15:8:29Z</time></trkpt>
</trkseg></trk></gpx>